<?xml version="1.0" encoding="utf-8"?>
<gpx xmlns:xsi="http://www.w3.org/2001/XMLSchema-instance" xmlns:xsd="http://www.w3.org/2001/XMLSchema" version="1.1" creator="Shapelink.com" xmlns="http://www.topografix.com/GPX/1/1" xmlns:gpxtpx="http://www.garmin.com/xmlschemas/TrackPointExtension/v1">
  <metadata>
    <name>Cykling - Mtb 53.83 km, 2013-03-24</name>
    <desc></desc>
    <author><name>Alexander Engvall</name></author> 
    <time>2013-03-24T11:14:22Z</time>
  </metadata>
  <trk>
    <name>Cykling - Mtb 53.83 km, 2013-03-24</name>
    <trkseg>
      <trkpt lat="59.4572390743" lon="17.8050449641">
        <ele>2.4</ele>
        <time>2013-03-24T11:14:22Z</time>
      </trkpt>
      <trkpt lat="59.457232704" lon="17.8050768991">
        <ele>4.4</ele>
        <time>2013-03-24T11:14:23Z</time>
      </trkpt>
      <trkpt lat="59.4571967457" lon="17.8051746321">
        <ele>8.6</ele>
        <time>2013-03-24T11:14:24Z</time>
      </trkpt>
      <trkpt lat="59.4570928101" lon="17.8055759574">
        <ele>8.6</ele>
        <time>2013-03-24T11:14:32Z</time>
      </trkpt>
      <trkpt lat="59.4571716" lon="17.8057522288">
        <ele>8.6</ele>
        <time>2013-03-24T11:14:35Z</time>
      </trkpt>
      <trkpt lat="59.457263717" lon="17.8058269115">
        <ele>8.6</ele>
        <time>2013-03-24T11:14:37Z</time>
      </trkpt>
      <trkpt lat="59.4574228055" lon="17.8059303442">
        <ele>8.6</ele>
        <time>2013-03-24T11:14:40Z</time>
      </trkpt>
      <trkpt lat="59.4579495241" lon="17.8061727487">
        <ele>8.6</ele>
        <time>2013-03-24T11:14:48Z</time>
      </trkpt>
      <trkpt lat="59.4583203394" lon="17.8063285682">
        <ele>8.6</ele>
        <time>2013-03-24T11:14:54Z</time>
      </trkpt>
      <trkpt lat="59.4586251052" lon="17.8064108785">
        <ele>7.4</ele>
        <time>2013-03-24T11:14:59Z</time>
      </trkpt>
      <trkpt lat="59.4587043142" lon="17.8064276423">
        <ele>6.2</ele>
        <time>2013-03-24T11:15:00Z</time>
      </trkpt>
      <trkpt lat="59.458769693" lon="17.8064475912">
        <ele>4.8</ele>
        <time>2013-03-24T11:15:01Z</time>
      </trkpt>
      <trkpt lat="59.4588351557" lon="17.8064698033">
        <ele>3.6</ele>
        <time>2013-03-24T11:15:02Z</time>
      </trkpt>
      <trkpt lat="59.4588988581" lon="17.8064887464">
        <ele>2.4</ele>
        <time>2013-03-24T11:15:03Z</time>
      </trkpt>
      <trkpt lat="59.4590819188" lon="17.8065159037">
        <ele>2.4</ele>
        <time>2013-03-24T11:15:06Z</time>
      </trkpt>
      <trkpt lat="59.4591386643" lon="17.8065235312">
        <ele>2.4</ele>
        <time>2013-03-24T11:15:07Z</time>
      </trkpt>
      <trkpt lat="59.4591976728" lon="17.8065289795">
        <ele>3</ele>
        <time>2013-03-24T11:15:08Z</time>
      </trkpt>
      <trkpt lat="59.4592532448" lon="17.8065397921">
        <ele>3.4</ele>
        <time>2013-03-24T11:15:09Z</time>
      </trkpt>
      <trkpt lat="59.459311499" lon="17.8065413847">
        <ele>3.8</ele>
        <time>2013-03-24T11:15:10Z</time>
      </trkpt>
      <trkpt lat="59.4593760397" lon="17.8065511915">
        <ele>4.4</ele>
        <time>2013-03-24T11:15:11Z</time>
      </trkpt>
      <trkpt lat="59.4594344615" lon="17.8065628424">
        <ele>4.8</ele>
        <time>2013-03-24T11:15:12Z</time>
      </trkpt>
      <trkpt lat="59.4594943921" lon="17.8065758343">
        <ele>4.8</ele>
        <time>2013-03-24T11:15:13Z</time>
      </trkpt>
      <trkpt lat="59.4599991501" lon="17.8066303166">
        <ele>4.8</ele>
        <time>2013-03-24T11:15:21Z</time>
      </trkpt>
      <trkpt lat="59.4604491743" lon="17.8066859725">
        <ele>4.8</ele>
        <time>2013-03-24T11:15:28Z</time>
      </trkpt>
      <trkpt lat="59.4609376715" lon="17.8066958631">
        <ele>4.8</ele>
        <time>2013-03-24T11:15:35Z</time>
      </trkpt>
      <trkpt lat="59.4610789065" lon="17.8066840446">
        <ele>4.8</ele>
        <time>2013-03-24T11:15:37Z</time>
      </trkpt>
      <trkpt lat="59.4614167809" lon="17.8066557976">
        <ele>4.8</ele>
        <time>2013-03-24T11:15:42Z</time>
      </trkpt>
      <trkpt lat="59.4617109855" lon="17.8066538698">
        <ele>4.8</ele>
        <time>2013-03-24T11:15:47Z</time>
      </trkpt>
      <trkpt lat="59.4619204492" lon="17.8066515229">
        <ele>4.8</ele>
        <time>2013-03-24T11:15:50Z</time>
      </trkpt>
      <trkpt lat="59.462052548" lon="17.8066525287">
        <ele>4.8</ele>
        <time>2013-03-24T11:15:52Z</time>
      </trkpt>
      <trkpt lat="59.4621858202" lon="17.806636184">
        <ele>5.2</ele>
        <time>2013-03-24T11:15:54Z</time>
      </trkpt>
      <trkpt lat="59.4622553061" lon="17.8066216833">
        <ele>5.6</ele>
        <time>2013-03-24T11:15:55Z</time>
      </trkpt>
      <trkpt lat="59.4623242054" lon="17.8065998903">
        <ele>6</ele>
        <time>2013-03-24T11:15:56Z</time>
      </trkpt>
      <trkpt lat="59.4623920987" lon="17.806578768">
        <ele>6.4</ele>
        <time>2013-03-24T11:15:57Z</time>
      </trkpt>
      <trkpt lat="59.4624620876" lon="17.8065599925">
        <ele>6.8</ele>
        <time>2013-03-24T11:15:58Z</time>
      </trkpt>
      <trkpt lat="59.4627849584" lon="17.8064558893">
        <ele>6.8</ele>
        <time>2013-03-24T11:16:03Z</time>
      </trkpt>
      <trkpt lat="59.4629091782" lon="17.8064357727">
        <ele>6.8</ele>
        <time>2013-03-24T11:16:05Z</time>
      </trkpt>
      <trkpt lat="59.4633492279" lon="17.8064446576">
        <ele>6.8</ele>
        <time>2013-03-24T11:16:12Z</time>
      </trkpt>
      <trkpt lat="59.4637791356" lon="17.8066469128">
        <ele>6.8</ele>
        <time>2013-03-24T11:16:19Z</time>
      </trkpt>
      <trkpt lat="59.4640394774" lon="17.8070139562">
        <ele>6.8</ele>
        <time>2013-03-24T11:16:24Z</time>
      </trkpt>
      <trkpt lat="59.4641648706" lon="17.8073206499">
        <ele>6.8</ele>
        <time>2013-03-24T11:16:27Z</time>
      </trkpt>
      <trkpt lat="59.4642008289" lon="17.8074418522">
        <ele>6.8</ele>
        <time>2013-03-24T11:16:28Z</time>
      </trkpt>
      <trkpt lat="59.464229998" lon="17.8075608752">
        <ele>6.8</ele>
        <time>2013-03-24T11:16:29Z</time>
      </trkpt>
      <trkpt lat="59.4642758469" lon="17.8078099853">
        <ele>6.8</ele>
        <time>2013-03-24T11:16:31Z</time>
      </trkpt>
      <trkpt lat="59.4643016632" lon="17.8082066168">
        <ele>6.8</ele>
        <time>2013-03-24T11:16:34Z</time>
      </trkpt>
      <trkpt lat="59.4642993163" lon="17.8083465107">
        <ele>6.8</ele>
        <time>2013-03-24T11:16:35Z</time>
      </trkpt>
      <trkpt lat="59.4642895933" lon="17.808480202">
        <ele>6.8</ele>
        <time>2013-03-24T11:16:36Z</time>
      </trkpt>
      <trkpt lat="59.4642631903" lon="17.8090196611">
        <ele>6.8</ele>
        <time>2013-03-24T11:16:40Z</time>
      </trkpt>
      <trkpt lat="59.4642576582" lon="17.8099578471">
        <ele>6.8</ele>
        <time>2013-03-24T11:16:47Z</time>
      </trkpt>
      <trkpt lat="59.464286492" lon="17.8100858387">
        <ele>6.8</ele>
        <time>2013-03-24T11:16:48Z</time>
      </trkpt>
      <trkpt lat="59.4644656132" lon="17.8107718973">
        <ele>6.8</ele>
        <time>2013-03-24T11:16:54Z</time>
      </trkpt>
      <trkpt lat="59.4646525295" lon="17.8114859513">
        <ele>6.8</ele>
        <time>2013-03-24T11:17:01Z</time>
      </trkpt>
      <trkpt lat="59.4647654337" lon="17.8118585268">
        <ele>7.2</ele>
        <time>2013-03-24T11:17:05Z</time>
      </trkpt>
      <trkpt lat="59.4647911662" lon="17.8119482969">
        <ele>7.6</ele>
        <time>2013-03-24T11:17:06Z</time>
      </trkpt>
      <trkpt lat="59.4648148869" lon="17.8120402464">
        <ele>8.2</ele>
        <time>2013-03-24T11:17:07Z</time>
      </trkpt>
      <trkpt lat="59.4648387754" lon="17.8121296812">
        <ele>8.6</ele>
        <time>2013-03-24T11:17:08Z</time>
      </trkpt>
      <trkpt lat="59.4648640049" lon="17.8122183617">
        <ele>9</ele>
        <time>2013-03-24T11:17:09Z</time>
      </trkpt>
      <trkpt lat="59.4649825249" lon="17.8125569067">
        <ele>9</ele>
        <time>2013-03-24T11:17:13Z</time>
      </trkpt>
      <trkpt lat="59.4650541902" lon="17.8127082838">
        <ele>9</ele>
        <time>2013-03-24T11:17:15Z</time>
      </trkpt>
      <trkpt lat="59.4652162123" lon="17.8129644347">
        <ele>9</ele>
        <time>2013-03-24T11:17:20Z</time>
      </trkpt>
      <trkpt lat="59.4652991093" lon="17.8130362675">
        <ele>9</ele>
        <time>2013-03-24T11:17:22Z</time>
      </trkpt>
      <trkpt lat="59.4653514124" lon="17.8130324957">
        <ele>9</ele>
        <time>2013-03-24T11:17:23Z</time>
      </trkpt>
      <trkpt lat="59.4654918092" lon="17.8128019934">
        <ele>9</ele>
        <time>2013-03-24T11:17:26Z</time>
      </trkpt>
      <trkpt lat="59.4655314556" lon="17.8127001533">
        <ele>9.4</ele>
        <time>2013-03-24T11:17:27Z</time>
      </trkpt>
      <trkpt lat="59.4655700961" lon="17.8125844831">
        <ele>9.8</ele>
        <time>2013-03-24T11:17:28Z</time>
      </trkpt>
      <trkpt lat="59.4656064736" lon="17.8124759375">
        <ele>10.2</ele>
        <time>2013-03-24T11:17:29Z</time>
      </trkpt>
      <trkpt lat="59.4656490536" lon="17.8123727563">
        <ele>10.6</ele>
        <time>2013-03-24T11:17:30Z</time>
      </trkpt>
      <trkpt lat="59.4656841738" lon="17.8122607742">
        <ele>11</ele>
        <time>2013-03-24T11:17:31Z</time>
      </trkpt>
      <trkpt lat="59.465931356" lon="17.8114640746">
        <ele>11</ele>
        <time>2013-03-24T11:17:38Z</time>
      </trkpt>
      <trkpt lat="59.4660031889" lon="17.8112366736">
        <ele>10.6</ele>
        <time>2013-03-24T11:17:40Z</time>
      </trkpt>
      <trkpt lat="59.4660433382" lon="17.8111228474">
        <ele>10.2</ele>
        <time>2013-03-24T11:17:41Z</time>
      </trkpt>
      <trkpt lat="59.4660845771" lon="17.8110049979">
        <ele>9.4</ele>
        <time>2013-03-24T11:17:42Z</time>
      </trkpt>
      <trkpt lat="59.4661256485" lon="17.8108889924">
        <ele>9</ele>
        <time>2013-03-24T11:17:43Z</time>
      </trkpt>
      <trkpt lat="59.4661706593" lon="17.8107714782">
        <ele>9</ele>
        <time>2013-03-24T11:17:44Z</time>
      </trkpt>
      <trkpt lat="59.4665423965" lon="17.8100155146">
        <ele>9</ele>
        <time>2013-03-24T11:17:51Z</time>
      </trkpt>
      <trkpt lat="59.4666671192" lon="17.8098473737">
        <ele>8.6</ele>
        <time>2013-03-24T11:17:53Z</time>
      </trkpt>
      <trkpt lat="59.4667410476" lon="17.8097664883">
        <ele>8</ele>
        <time>2013-03-24T11:17:54Z</time>
      </trkpt>
      <trkpt lat="59.4668145568" lon="17.8096905483">
        <ele>7.6</ele>
        <time>2013-03-24T11:17:55Z</time>
      </trkpt>
      <trkpt lat="59.4668903292" lon="17.8096223197">
        <ele>7.2</ele>
        <time>2013-03-24T11:17:56Z</time>
      </trkpt>
      <trkpt lat="59.4669697896" lon="17.8095560188">
        <ele>6.8</ele>
        <time>2013-03-24T11:17:57Z</time>
      </trkpt>
      <trkpt lat="59.4673012938" lon="17.8093578707">
        <ele>6.8</ele>
        <time>2013-03-24T11:18:01Z</time>
      </trkpt>
      <trkpt lat="59.467385448" lon="17.8093324736">
        <ele>6.4</ele>
        <time>2013-03-24T11:18:02Z</time>
      </trkpt>
      <trkpt lat="59.4674689318" lon="17.8093135305">
        <ele>6</ele>
        <time>2013-03-24T11:18:03Z</time>
      </trkpt>
      <trkpt lat="59.4675538404" lon="17.8093021311">
        <ele>5.6</ele>
        <time>2013-03-24T11:18:04Z</time>
      </trkpt>
      <trkpt lat="59.467633217" lon="17.8093064897">
        <ele>5.2</ele>
        <time>2013-03-24T11:18:05Z</time>
      </trkpt>
      <trkpt lat="59.4677182095" lon="17.8093205713">
        <ele>4.8</ele>
        <time>2013-03-24T11:18:06Z</time>
      </trkpt>
      <trkpt lat="59.467884674" lon="17.8093675099">
        <ele>4.4</ele>
        <time>2013-03-24T11:18:08Z</time>
      </trkpt>
      <trkpt lat="59.4679611169" lon="17.8094013728">
        <ele>3.8</ele>
        <time>2013-03-24T11:18:09Z</time>
      </trkpt>
      <trkpt lat="59.4680363864" lon="17.8094202321">
        <ele>3.4</ele>
        <time>2013-03-24T11:18:10Z</time>
      </trkpt>
      <trkpt lat="59.4681117397" lon="17.8094440367">
        <ele>3</ele>
        <time>2013-03-24T11:18:11Z</time>
      </trkpt>
      <trkpt lat="59.4681826505" lon="17.8094646561">
        <ele>2.4</ele>
        <time>2013-03-24T11:18:12Z</time>
      </trkpt>
      <trkpt lat="59.4684056091" lon="17.809577728">
        <ele>2.4</ele>
        <time>2013-03-24T11:18:15Z</time>
      </trkpt>
      <trkpt lat="59.4684750112" lon="17.8096628881">
        <ele>2.4</ele>
        <time>2013-03-24T11:18:16Z</time>
      </trkpt>
      <trkpt lat="59.4687171643" lon="17.8099877705">
        <ele>2.4</ele>
        <time>2013-03-24T11:18:20Z</time>
      </trkpt>
      <trkpt lat="59.4688438986" lon="17.8099288458">
        <ele>2.4</ele>
        <time>2013-03-24T11:18:22Z</time>
      </trkpt>
      <trkpt lat="59.4688920946" lon="17.8096917218">
        <ele>2.4</ele>
        <time>2013-03-24T11:18:24Z</time>
      </trkpt>
      <trkpt lat="59.4688949444" lon="17.8092395183">
        <ele>2.4</ele>
        <time>2013-03-24T11:18:27Z</time>
      </trkpt>
      <trkpt lat="59.4689104509" lon="17.8089120375">
        <ele>2</ele>
        <time>2013-03-24T11:18:29Z</time>
      </trkpt>
      <trkpt lat="59.4689280529" lon="17.808753871">
        <ele>1.6</ele>
        <time>2013-03-24T11:18:30Z</time>
      </trkpt>
      <trkpt lat="59.4689443976" lon="17.8085954531">
        <ele>0.8</ele>
        <time>2013-03-24T11:18:31Z</time>
      </trkpt>
      <trkpt lat="59.4689589821" lon="17.8084393821">
        <ele>0.4</ele>
        <time>2013-03-24T11:18:32Z</time>
      </trkpt>
      <trkpt lat="59.4690939307" lon="17.8073685106">
        <ele>0.4</ele>
        <time>2013-03-24T11:18:39Z</time>
      </trkpt>
      <trkpt lat="59.4692380994" lon="17.8065242018">
        <ele>0.4</ele>
        <time>2013-03-24T11:18:44Z</time>
      </trkpt>
      <trkpt lat="59.4693126145" lon="17.8061909374">
        <ele>0</ele>
        <time>2013-03-24T11:18:46Z</time>
      </trkpt>
      <trkpt lat="59.4693519256" lon="17.8060260655">
        <ele>0</ele>
        <time>2013-03-24T11:18:47Z</time>
      </trkpt>
      <trkpt lat="59.4693920749" lon="17.8058565835">
        <ele>0</ele>
        <time>2013-03-24T11:18:48Z</time>
      </trkpt>
      <trkpt lat="59.4694334815" lon="17.8056863471">
        <ele>0</ele>
        <time>2013-03-24T11:18:49Z</time>
      </trkpt>
      <trkpt lat="59.4694776541" lon="17.8055149372">
        <ele>0</ele>
        <time>2013-03-24T11:18:50Z</time>
      </trkpt>
      <trkpt lat="59.469516127" lon="17.8053373248">
        <ele>0</ele>
        <time>2013-03-24T11:18:51Z</time>
      </trkpt>
      <trkpt lat="59.4695625627" lon="17.8051625621">
        <ele>0</ele>
        <time>2013-03-24T11:18:52Z</time>
      </trkpt>
      <trkpt lat="59.4696043884" lon="17.804989895">
        <ele>0</ele>
        <time>2013-03-24T11:18:53Z</time>
      </trkpt>
      <trkpt lat="59.4696462141" lon="17.8048234305">
        <ele>0</ele>
        <time>2013-03-24T11:18:54Z</time>
      </trkpt>
      <trkpt lat="59.4696900514" lon="17.8046474106">
        <ele>0</ele>
        <time>2013-03-24T11:18:55Z</time>
      </trkpt>
      <trkpt lat="59.4697361519" lon="17.8044699657">
        <ele>0</ele>
        <time>2013-03-24T11:18:56Z</time>
      </trkpt>
      <trkpt lat="59.4697819171" lon="17.8042933591">
        <ele>0</ele>
        <time>2013-03-24T11:18:57Z</time>
      </trkpt>
      <trkpt lat="59.4698276822" lon="17.8041118072">
        <ele>0</ele>
        <time>2013-03-24T11:18:58Z</time>
      </trkpt>
      <trkpt lat="59.4699145187" lon="17.8037506311">
        <ele>0</ele>
        <time>2013-03-24T11:19:00Z</time>
      </trkpt>
      <trkpt lat="59.4699516505" lon="17.8035760361">
        <ele>0</ele>
        <time>2013-03-24T11:19:01Z</time>
      </trkpt>
      <trkpt lat="59.4699876089" lon="17.8034082305">
        <ele>0</ele>
        <time>2013-03-24T11:19:02Z</time>
      </trkpt>
      <trkpt lat="59.4700205498" lon="17.8032350604">
        <ele>0</ele>
        <time>2013-03-24T11:19:03Z</time>
      </trkpt>
      <trkpt lat="59.470047288" lon="17.803063902">
        <ele>0</ele>
        <time>2013-03-24T11:19:04Z</time>
      </trkpt>
      <trkpt lat="59.4700739425" lon="17.8028880498">
        <ele>0</ele>
        <time>2013-03-24T11:19:05Z</time>
      </trkpt>
      <trkpt lat="59.4700900357" lon="17.8027106049">
        <ele>0</ele>
        <time>2013-03-24T11:19:06Z</time>
      </trkpt>
      <trkpt lat="59.4701026086" lon="17.8025204196">
        <ele>0</ele>
        <time>2013-03-24T11:19:07Z</time>
      </trkpt>
      <trkpt lat="59.470100094" lon="17.8023197569">
        <ele>0</ele>
        <time>2013-03-24T11:19:08Z</time>
      </trkpt>
      <trkpt lat="59.4700928017" lon="17.8021197648">
        <ele>0</ele>
        <time>2013-03-24T11:19:09Z</time>
      </trkpt>
      <trkpt lat="59.4700691648" lon="17.8019201918">
        <ele>0</ele>
        <time>2013-03-24T11:19:10Z</time>
      </trkpt>
      <trkpt lat="59.4700254951" lon="17.8017225466">
        <ele>0</ele>
        <time>2013-03-24T11:19:11Z</time>
      </trkpt>
      <trkpt lat="59.4698329628" lon="17.8011709337">
        <ele>0</ele>
        <time>2013-03-24T11:19:14Z</time>
      </trkpt>
      <trkpt lat="59.4697542568" lon="17.8009913934">
        <ele>0</ele>
        <time>2013-03-24T11:19:15Z</time>
      </trkpt>
      <trkpt lat="59.4696771433" lon="17.8008310477">
        <ele>0</ele>
        <time>2013-03-24T11:19:16Z</time>
      </trkpt>
      <trkpt lat="59.469600868" lon="17.8006772398">
        <ele>0</ele>
        <time>2013-03-24T11:19:17Z</time>
      </trkpt>
      <trkpt lat="59.4695255147" lon="17.8005207497">
        <ele>0</ele>
        <time>2013-03-24T11:19:18Z</time>
      </trkpt>
      <trkpt lat="59.4694530113" lon="17.8003651817">
        <ele>0</ele>
        <time>2013-03-24T11:19:19Z</time>
      </trkpt>
      <trkpt lat="59.4693805079" lon="17.8002081887">
        <ele>0</ele>
        <time>2013-03-24T11:19:20Z</time>
      </trkpt>
      <trkpt lat="59.4693067471" lon="17.8000578174">
        <ele>0</ele>
        <time>2013-03-24T11:19:21Z</time>
      </trkpt>
      <trkpt lat="59.4692301366" lon="17.7999001539">
        <ele>0</ele>
        <time>2013-03-24T11:19:22Z</time>
      </trkpt>
      <trkpt lat="59.469159561" lon="17.7997482738">
        <ele>0</ele>
        <time>2013-03-24T11:19:23Z</time>
      </trkpt>
      <trkpt lat="59.4690946851" lon="17.7996056139">
        <ele>0</ele>
        <time>2013-03-24T11:19:24Z</time>
      </trkpt>
      <trkpt lat="59.46903685" lon="17.7994640436">
        <ele>0</ele>
        <time>2013-03-24T11:19:25Z</time>
      </trkpt>
      <trkpt lat="59.4689889055" lon="17.7993136723">
        <ele>0</ele>
        <time>2013-03-24T11:19:26Z</time>
      </trkpt>
      <trkpt lat="59.4689183299" lon="17.798818302">
        <ele>0</ele>
        <time>2013-03-24T11:19:29Z</time>
      </trkpt>
      <trkpt lat="59.4689780928" lon="17.7983020608">
        <ele>0</ele>
        <time>2013-03-24T11:19:32Z</time>
      </trkpt>
      <trkpt lat="59.469014135" lon="17.7981611611">
        <ele>0</ele>
        <time>2013-03-24T11:19:33Z</time>
      </trkpt>
      <trkpt lat="59.4690605707" lon="17.7980361869">
        <ele>0</ele>
        <time>2013-03-24T11:19:34Z</time>
      </trkpt>
      <trkpt lat="59.4691086828" lon="17.7979209358">
        <ele>0</ele>
        <time>2013-03-24T11:19:35Z</time>
      </trkpt>
      <trkpt lat="59.4691690325" lon="17.7978252983">
        <ele>0</ele>
        <time>2013-03-24T11:19:36Z</time>
      </trkpt>
      <trkpt lat="59.4692299689" lon="17.7977428204">
        <ele>0</ele>
        <time>2013-03-24T11:19:37Z</time>
      </trkpt>
      <trkpt lat="59.4692973594" lon="17.7976613484">
        <ele>0</ele>
        <time>2013-03-24T11:19:38Z</time>
      </trkpt>
      <trkpt lat="59.469358212" lon="17.7975871686">
        <ele>0</ele>
        <time>2013-03-24T11:19:39Z</time>
      </trkpt>
      <trkpt lat="59.4695972638" lon="17.797272512">
        <ele>0</ele>
        <time>2013-03-24T11:19:43Z</time>
      </trkpt>
      <trkpt lat="59.4697895446" lon="17.7970235696">
        <ele>0</ele>
        <time>2013-03-24T11:19:46Z</time>
      </trkpt>
      <trkpt lat="59.4698553425" lon="17.7969346376">
        <ele>0</ele>
        <time>2013-03-24T11:19:47Z</time>
      </trkpt>
      <trkpt lat="59.4699189611" lon="17.7968587814">
        <ele>0</ele>
        <time>2013-03-24T11:19:48Z</time>
      </trkpt>
      <trkpt lat="59.4699825797" lon="17.7967831767">
        <ele>0</ele>
        <time>2013-03-24T11:19:49Z</time>
      </trkpt>
      <trkpt lat="59.4704480267" lon="17.7962754012">
        <ele>0</ele>
        <time>2013-03-24T11:19:56Z</time>
      </trkpt>
      <trkpt lat="59.4705178479" lon="17.796234749">
        <ele>0</ele>
        <time>2013-03-24T11:19:57Z</time>
      </trkpt>
      <trkpt lat="59.4707846438" lon="17.7960687036">
        <ele>0</ele>
        <time>2013-03-24T11:20:01Z</time>
      </trkpt>
      <trkpt lat="59.4709734041" lon="17.7959276362">
        <ele>0</ele>
        <time>2013-03-24T11:20:04Z</time>
      </trkpt>
      <trkpt lat="59.471146658" lon="17.7957165799">
        <ele>0</ele>
        <time>2013-03-24T11:20:07Z</time>
      </trkpt>
      <trkpt lat="59.4716280305" lon="17.7951408272">
        <ele>0</ele>
        <time>2013-03-24T11:20:15Z</time>
      </trkpt>
      <trkpt lat="59.4719541703" lon="17.7948949023">
        <ele>0</ele>
        <time>2013-03-24T11:20:20Z</time>
      </trkpt>
      <trkpt lat="59.4721643045" lon="17.7947742867">
        <ele>0</ele>
        <time>2013-03-24T11:20:23Z</time>
      </trkpt>
      <trkpt lat="59.4722865126" lon="17.7946437806">
        <ele>0</ele>
        <time>2013-03-24T11:20:25Z</time>
      </trkpt>
      <trkpt lat="59.4723362173" lon="17.7945424434">
        <ele>0</ele>
        <time>2013-03-24T11:20:26Z</time>
      </trkpt>
      <trkpt lat="59.4723813957" lon="17.7944306288">
        <ele>0</ele>
        <time>2013-03-24T11:20:27Z</time>
      </trkpt>
      <trkpt lat="59.4724200363" lon="17.7943113544">
        <ele>0</ele>
        <time>2013-03-24T11:20:28Z</time>
      </trkpt>
      <trkpt lat="59.4724575872" lon="17.7941925829">
        <ele>0</ele>
        <time>2013-03-24T11:20:29Z</time>
      </trkpt>
      <trkpt lat="59.4724885164" lon="17.7940655971">
        <ele>0</ele>
        <time>2013-03-24T11:20:30Z</time>
      </trkpt>
      <trkpt lat="59.4725677253" lon="17.7936709772">
        <ele>0</ele>
        <time>2013-03-24T11:20:33Z</time>
      </trkpt>
      <trkpt lat="59.4725920329" lon="17.7935388785">
        <ele>0</ele>
        <time>2013-03-24T11:20:34Z</time>
      </trkpt>
      <trkpt lat="59.4726144963" lon="17.7934057739">
        <ele>0</ele>
        <time>2013-03-24T11:20:35Z</time>
      </trkpt>
      <trkpt lat="59.4726354511" lon="17.7932714121">
        <ele>0</ele>
        <time>2013-03-24T11:20:36Z</time>
      </trkpt>
      <trkpt lat="59.4726549809" lon="17.7931360444">
        <ele>0</ele>
        <time>2013-03-24T11:20:37Z</time>
      </trkpt>
      <trkpt lat="59.4727418174" lon="17.7926107507">
        <ele>0</ele>
        <time>2013-03-24T11:20:41Z</time>
      </trkpt>
      <trkpt lat="59.472863774" lon="17.7918581399">
        <ele>0</ele>
        <time>2013-03-24T11:20:47Z</time>
      </trkpt>
      <trkpt lat="59.4729611717" lon="17.7912565709">
        <ele>0</ele>
        <time>2013-03-24T11:20:52Z</time>
      </trkpt>
      <trkpt lat="59.4730826255" lon="17.7907793056">
        <ele>0</ele>
        <time>2013-03-24T11:20:57Z</time>
      </trkpt>
      <trkpt lat="59.4731581464" lon="17.7905546706">
        <ele>0</ele>
        <time>2013-03-24T11:21:00Z</time>
      </trkpt>
      <trkpt lat="59.4731822862" lon="17.7904829216">
        <ele>0</ele>
        <time>2013-03-24T11:21:01Z</time>
      </trkpt>
      <trkpt lat="59.4732034086" lon="17.790405389">
        <ele>0</ele>
        <time>2013-03-24T11:21:02Z</time>
      </trkpt>
      <trkpt lat="59.4732301469" lon="17.7903343943">
        <ele>0</ele>
        <time>2013-03-24T11:21:03Z</time>
      </trkpt>
      <trkpt lat="59.4732500958" lon="17.7902569455">
        <ele>0</ele>
        <time>2013-03-24T11:21:04Z</time>
      </trkpt>
      <trkpt lat="59.4732964477" lon="17.7901204882">
        <ele>0</ele>
        <time>2013-03-24T11:21:06Z</time>
      </trkpt>
      <trkpt lat="59.4733208391" lon="17.7900531816">
        <ele>0</ele>
        <time>2013-03-24T11:21:07Z</time>
      </trkpt>
      <trkpt lat="59.4733448113" lon="17.7899789179">
        <ele>0</ele>
        <time>2013-03-24T11:21:08Z</time>
      </trkpt>
      <trkpt lat="59.4733701246" lon="17.78990851">
        <ele>0</ele>
        <time>2013-03-24T11:21:09Z</time>
      </trkpt>
      <trkpt lat="59.4733914985" lon="17.7898313127">
        <ele>0</ele>
        <time>2013-03-24T11:21:10Z</time>
      </trkpt>
      <trkpt lat="59.4734155545" lon="17.7897513493">
        <ele>0</ele>
        <time>2013-03-24T11:21:11Z</time>
      </trkpt>
      <trkpt lat="59.4734387724" lon="17.7896745711">
        <ele>0</ele>
        <time>2013-03-24T11:21:12Z</time>
      </trkpt>
      <trkpt lat="59.473459308" lon="17.7895951945">
        <ele>0</ele>
        <time>2013-03-24T11:21:13Z</time>
      </trkpt>
      <trkpt lat="59.4734795084" lon="17.7895147283">
        <ele>0</ele>
        <time>2013-03-24T11:21:14Z</time>
      </trkpt>
      <trkpt lat="59.4734942606" lon="17.7894309931">
        <ele>0</ele>
        <time>2013-03-24T11:21:15Z</time>
      </trkpt>
      <trkpt lat="59.4735578792" lon="17.7891919413">
        <ele>0</ele>
        <time>2013-03-24T11:21:18Z</time>
      </trkpt>
      <trkpt lat="59.4735954301" lon="17.7890206991">
        <ele>0</ele>
        <time>2013-03-24T11:21:20Z</time>
      </trkpt>
      <trkpt lat="59.4736112719" lon="17.7889350361">
        <ele>0</ele>
        <time>2013-03-24T11:21:21Z</time>
      </trkpt>
      <trkpt lat="59.4736261079" lon="17.7888443439">
        <ele>0</ele>
        <time>2013-03-24T11:21:22Z</time>
      </trkpt>
      <trkpt lat="59.4736406924" lon="17.7887549929">
        <ele>0</ele>
        <time>2013-03-24T11:21:23Z</time>
      </trkpt>
      <trkpt lat="59.473658462" lon="17.7886739399">
        <ele>0</ele>
        <time>2013-03-24T11:21:24Z</time>
      </trkpt>
      <trkpt lat="59.4736764831" lon="17.7885879416">
        <ele>0</ele>
        <time>2013-03-24T11:21:25Z</time>
      </trkpt>
      <trkpt lat="59.4737347373" lon="17.788323325">
        <ele>0</ele>
        <time>2013-03-24T11:21:28Z</time>
      </trkpt>
      <trkpt lat="59.4738183048" lon="17.7880677609">
        <ele>0</ele>
        <time>2013-03-24T11:21:31Z</time>
      </trkpt>
      <trkpt lat="59.4740171235" lon="17.7877530206">
        <ele>0</ele>
        <time>2013-03-24T11:21:35Z</time>
      </trkpt>
      <trkpt lat="59.4743604461" lon="17.7874342569">
        <ele>0</ele>
        <time>2013-03-24T11:21:40Z</time>
      </trkpt>
      <trkpt lat="59.4746451793" lon="17.7872085323">
        <ele>0</ele>
        <time>2013-03-24T11:21:44Z</time>
      </trkpt>
      <trkpt lat="59.4747163416" lon="17.7871536309">
        <ele>0</ele>
        <time>2013-03-24T11:21:45Z</time>
      </trkpt>
      <trkpt lat="59.4747885097" lon="17.7871036748">
        <ele>0</ele>
        <time>2013-03-24T11:21:46Z</time>
      </trkpt>
      <trkpt lat="59.4748603426" lon="17.7870641122">
        <ele>0</ele>
        <time>2013-03-24T11:21:47Z</time>
      </trkpt>
      <trkpt lat="59.4749366179" lon="17.7870215321">
        <ele>0</ele>
        <time>2013-03-24T11:21:48Z</time>
      </trkpt>
      <trkpt lat="59.475349175" lon="17.7868518825">
        <ele>0</ele>
        <time>2013-03-24T11:21:54Z</time>
      </trkpt>
      <trkpt lat="59.4758009594" lon="17.786675192">
        <ele>0</ele>
        <time>2013-03-24T11:22:01Z</time>
      </trkpt>
      <trkpt lat="59.4761949926" lon="17.7865389862">
        <ele>0</ele>
        <time>2013-03-24T11:22:07Z</time>
      </trkpt>
      <trkpt lat="59.4762591141" lon="17.7865192049">
        <ele>0</ele>
        <time>2013-03-24T11:22:08Z</time>
      </trkpt>
      <trkpt lat="59.4763232356" lon="17.7864993398">
        <ele>0</ele>
        <time>2013-03-24T11:22:09Z</time>
      </trkpt>
      <trkpt lat="59.47638325" lon="17.786482576">
        <ele>0</ele>
        <time>2013-03-24T11:22:10Z</time>
      </trkpt>
      <trkpt lat="59.4764427615" lon="17.7864642196">
        <ele>0</ele>
        <time>2013-03-24T11:22:11Z</time>
      </trkpt>
      <trkpt lat="59.4767461025" lon="17.7863621281">
        <ele>0</ele>
        <time>2013-03-24T11:22:16Z</time>
      </trkpt>
      <trkpt lat="59.477240467" lon="17.7862156125">
        <ele>0</ele>
        <time>2013-03-24T11:22:24Z</time>
      </trkpt>
      <trkpt lat="59.4776257829" lon="17.7860836814">
        <ele>0</ele>
        <time>2013-03-24T11:22:31Z</time>
      </trkpt>
      <trkpt lat="59.4780706103" lon="17.7858862876">
        <ele>0</ele>
        <time>2013-03-24T11:22:40Z</time>
      </trkpt>
      <trkpt lat="59.4784782221" lon="17.7856241856">
        <ele>0</ele>
        <time>2013-03-24T11:22:49Z</time>
      </trkpt>
      <trkpt lat="59.4788579222" lon="17.7853039132">
        <ele>0</ele>
        <time>2013-03-24T11:22:58Z</time>
      </trkpt>
      <trkpt lat="59.4788969819" lon="17.7852578966">
        <ele>0</ele>
        <time>2013-03-24T11:22:59Z</time>
      </trkpt>
      <trkpt lat="59.4790605965" lon="17.7850901747">
        <ele>0</ele>
        <time>2013-03-24T11:23:03Z</time>
      </trkpt>
      <trkpt lat="59.4790959682" lon="17.7850522886">
        <ele>0</ele>
        <time>2013-03-24T11:23:04Z</time>
      </trkpt>
      <trkpt lat="59.4791385482" lon="17.7849967166">
        <ele>0</ele>
        <time>2013-03-24T11:23:05Z</time>
      </trkpt>
      <trkpt lat="59.4791807092" lon="17.7849494426">
        <ele>0</ele>
        <time>2013-03-24T11:23:06Z</time>
      </trkpt>
      <trkpt lat="59.4792211099" lon="17.7849073655">
        <ele>0</ele>
        <time>2013-03-24T11:23:07Z</time>
      </trkpt>
      <trkpt lat="59.4793058509" lon="17.7848094649">
        <ele>0</ele>
        <time>2013-03-24T11:23:09Z</time>
      </trkpt>
      <trkpt lat="59.4794717287" lon="17.7845958103">
        <ele>0</ele>
        <time>2013-03-24T11:23:13Z</time>
      </trkpt>
      <trkpt lat="59.479507268" lon="17.7845287551">
        <ele>0</ele>
        <time>2013-03-24T11:23:14Z</time>
      </trkpt>
      <trkpt lat="59.4795486746" lon="17.7844614484">
        <ele>0</ele>
        <time>2013-03-24T11:23:15Z</time>
      </trkpt>
      <trkpt lat="59.4795889915" lon="17.7843987518">
        <ele>0</ele>
        <time>2013-03-24T11:23:16Z</time>
      </trkpt>
      <trkpt lat="59.4796325774" lon="17.7843345465">
        <ele>0</ele>
        <time>2013-03-24T11:23:17Z</time>
      </trkpt>
      <trkpt lat="59.4796662726" lon="17.7842716822">
        <ele>0</ele>
        <time>2013-03-24T11:23:18Z</time>
      </trkpt>
      <trkpt lat="59.4797376026" lon="17.7841456184">
        <ele>0</ele>
        <time>2013-03-24T11:23:20Z</time>
      </trkpt>
      <trkpt lat="59.4797733095" lon="17.7840841791">
        <ele>0</ele>
        <time>2013-03-24T11:23:21Z</time>
      </trkpt>
      <trkpt lat="59.4798052445" lon="17.784012933">
        <ele>0</ele>
        <time>2013-03-24T11:23:22Z</time>
      </trkpt>
      <trkpt lat="59.4798389398" lon="17.7839483085">
        <ele>0</ele>
        <time>2013-03-24T11:23:23Z</time>
      </trkpt>
      <trkpt lat="59.4798690308" lon="17.7838768947">
        <ele>0</ele>
        <time>2013-03-24T11:23:24Z</time>
      </trkpt>
      <trkpt lat="59.4799660932" lon="17.7836583786">
        <ele>0</ele>
        <time>2013-03-24T11:23:27Z</time>
      </trkpt>
      <trkpt lat="59.4800626527" lon="17.7834568777">
        <ele>0</ele>
        <time>2013-03-24T11:23:30Z</time>
      </trkpt>
      <trkpt lat="59.4800931628" lon="17.7833853801">
        <ele>0</ele>
        <time>2013-03-24T11:23:31Z</time>
      </trkpt>
      <trkpt lat="59.4801238406" lon="17.7833078475">
        <ele>0</ele>
        <time>2013-03-24T11:23:32Z</time>
      </trkpt>
      <trkpt lat="59.4801559432" lon="17.7832319075">
        <ele>0</ele>
        <time>2013-03-24T11:23:33Z</time>
      </trkpt>
      <trkpt lat="59.4801868724" lon="17.7831513575">
        <ele>0</ele>
        <time>2013-03-24T11:23:34Z</time>
      </trkpt>
      <trkpt lat="59.4803869484" lon="17.7825834837">
        <ele>0</ele>
        <time>2013-03-24T11:23:41Z</time>
      </trkpt>
      <trkpt lat="59.4806246591" lon="17.7817003668">
        <ele>0</ele>
        <time>2013-03-24T11:23:51Z</time>
      </trkpt>
      <trkpt lat="59.4808029421" lon="17.7809788528">
        <ele>0</ele>
        <time>2013-03-24T11:23:59Z</time>
      </trkpt>
      <trkpt lat="59.4808249865" lon="17.7808914296">
        <ele>0</ele>
        <time>2013-03-24T11:24:00Z</time>
      </trkpt>
      <trkpt lat="59.480846528" lon="17.7808054313">
        <ele>0</ele>
        <time>2013-03-24T11:24:01Z</time>
      </trkpt>
      <trkpt lat="59.4808694944" lon="17.7807199359">
        <ele>0</ele>
        <time>2013-03-24T11:24:02Z</time>
      </trkpt>
      <trkpt lat="59.4808899462" lon="17.7806339376">
        <ele>0</ele>
        <time>2013-03-24T11:24:03Z</time>
      </trkpt>
      <trkpt lat="59.4809160139" lon="17.7805506215">
        <ele>0</ele>
        <time>2013-03-24T11:24:04Z</time>
      </trkpt>
      <trkpt lat="59.4809828177" lon="17.780278126">
        <ele>0</ele>
        <time>2013-03-24T11:24:07Z</time>
      </trkpt>
      <trkpt lat="59.4810046944" lon="17.7801950613">
        <ele>0</ele>
        <time>2013-03-24T11:24:08Z</time>
      </trkpt>
      <trkpt lat="59.4810274932" lon="17.7801054588">
        <ele>0</ele>
        <time>2013-03-24T11:24:09Z</time>
      </trkpt>
      <trkpt lat="59.4810489509" lon="17.7800135932">
        <ele>0</ele>
        <time>2013-03-24T11:24:10Z</time>
      </trkpt>
      <trkpt lat="59.4810694865" lon="17.7799178719">
        <ele>0</ele>
        <time>2013-03-24T11:24:11Z</time>
      </trkpt>
      <trkpt lat="59.4810924529" lon="17.7798262577">
        <ele>0</ele>
        <time>2013-03-24T11:24:12Z</time>
      </trkpt>
      <trkpt lat="59.4811934548" lon="17.7794411094">
        <ele>0</ele>
        <time>2013-03-24T11:24:16Z</time>
      </trkpt>
      <trkpt lat="59.4813056885" lon="17.778980524">
        <ele>0</ele>
        <time>2013-03-24T11:24:21Z</time>
      </trkpt>
      <trkpt lat="59.4813242125" lon="17.7788896642">
        <ele>0</ele>
        <time>2013-03-24T11:24:22Z</time>
      </trkpt>
      <trkpt lat="59.4813482685" lon="17.7788062643">
        <ele>0</ele>
        <time>2013-03-24T11:24:23Z</time>
      </trkpt>
      <trkpt lat="59.4813686365" lon="17.7787129738">
        <ele>0</ele>
        <time>2013-03-24T11:24:24Z</time>
      </trkpt>
      <trkpt lat="59.481390178" lon="17.7786216111">
        <ele>0</ele>
        <time>2013-03-24T11:24:25Z</time>
      </trkpt>
      <trkpt lat="59.4815050939" lon="17.7781288392">
        <ele>0</ele>
        <time>2013-03-24T11:24:30Z</time>
      </trkpt>
      <trkpt lat="59.4815278088" lon="17.7780295975">
        <ele>0</ele>
        <time>2013-03-24T11:24:31Z</time>
      </trkpt>
      <trkpt lat="59.4815502723" lon="17.7779320321">
        <ele>0</ele>
        <time>2013-03-24T11:24:32Z</time>
      </trkpt>
      <trkpt lat="59.4815724843" lon="17.7778342154">
        <ele>0</ele>
        <time>2013-03-24T11:24:33Z</time>
      </trkpt>
      <trkpt lat="59.4815956184" lon="17.7777356442">
        <ele>0</ele>
        <time>2013-03-24T11:24:34Z</time>
      </trkpt>
      <trkpt lat="59.4816683733" lon="17.7774212392">
        <ele>0</ele>
        <time>2013-03-24T11:24:37Z</time>
      </trkpt>
      <trkpt lat="59.4816943572" lon="17.7773214107">
        <ele>0</ele>
        <time>2013-03-24T11:24:38Z</time>
      </trkpt>
      <trkpt lat="59.481719922" lon="17.7772211632">
        <ele>0</ele>
        <time>2013-03-24T11:24:39Z</time>
      </trkpt>
      <trkpt lat="59.481743978" lon="17.7771199937">
        <ele>0</ele>
        <time>2013-03-24T11:24:40Z</time>
      </trkpt>
      <trkpt lat="59.4817650166" lon="17.7770132083">
        <ele>0.2</ele>
        <time>2013-03-24T11:24:41Z</time>
      </trkpt>
      <trkpt lat="59.4818109494" lon="17.7767987155">
        <ele>0.6</ele>
        <time>2013-03-24T11:24:43Z</time>
      </trkpt>
      <trkpt lat="59.4818298925" lon="17.7766940255">
        <ele>1</ele>
        <time>2013-03-24T11:24:44Z</time>
      </trkpt>
      <trkpt lat="59.481851434" lon="17.7765897547">
        <ele>1.4</ele>
        <time>2013-03-24T11:24:45Z</time>
      </trkpt>
      <trkpt lat="59.4818720534" lon="17.7764828016">
        <ele>1.8</ele>
        <time>2013-03-24T11:24:46Z</time>
      </trkpt>
      <trkpt lat="59.4818919185" lon="17.7763786146">
        <ele>2.2</ele>
        <time>2013-03-24T11:24:47Z</time>
      </trkpt>
      <trkpt lat="59.4819478258" lon="17.7760617788">
        <ele>2.2</ele>
        <time>2013-03-24T11:24:50Z</time>
      </trkpt>
      <trkpt lat="59.4819666851" lon="17.775962118">
        <ele>2.6</ele>
        <time>2013-03-24T11:24:51Z</time>
      </trkpt>
      <trkpt lat="59.481977833" lon="17.7758700847">
        <ele>3</ele>
        <time>2013-03-24T11:24:52Z</time>
      </trkpt>
      <trkpt lat="59.4819904897" lon="17.775781991">
        <ele>3.4</ele>
        <time>2013-03-24T11:24:53Z</time>
      </trkpt>
      <trkpt lat="59.4820050742" lon="17.7756881137">
        <ele>3.8</ele>
        <time>2013-03-24T11:24:54Z</time>
      </trkpt>
      <trkpt lat="59.4820178985" lon="17.7755964157">
        <ele>4.2</ele>
        <time>2013-03-24T11:24:55Z</time>
      </trkpt>
      <trkpt lat="59.4820268671" lon="17.7755006944">
        <ele>4.2</ele>
        <time>2013-03-24T11:24:56Z</time>
      </trkpt>
      <trkpt lat="59.4821069143" lon="17.7748983711">
        <ele>4.6</ele>
        <time>2013-03-24T11:25:03Z</time>
      </trkpt>
      <trkpt lat="59.4821137036" lon="17.7747992132">
        <ele>5</ele>
        <time>2013-03-24T11:25:04Z</time>
      </trkpt>
      <trkpt lat="59.4821270308" lon="17.774704833">
        <ele>5.4</ele>
        <time>2013-03-24T11:25:05Z</time>
      </trkpt>
      <trkpt lat="59.4821466445" lon="17.7745977961">
        <ele>6.2</ele>
        <time>2013-03-24T11:25:06Z</time>
      </trkpt>
      <trkpt lat="59.4821705329" lon="17.7744158251">
        <ele>6.2</ele>
        <time>2013-03-24T11:25:08Z</time>
      </trkpt>
      <trkpt lat="59.4822364146" lon="17.7738718398">
        <ele>6.2</ele>
        <time>2013-03-24T11:25:14Z</time>
      </trkpt>
      <trkpt lat="59.4822509991" lon="17.7737825726">
        <ele>6.6</ele>
        <time>2013-03-24T11:25:15Z</time>
      </trkpt>
      <trkpt lat="59.4822631529" lon="17.7736908746">
        <ele>7.2</ele>
        <time>2013-03-24T11:25:16Z</time>
      </trkpt>
      <trkpt lat="59.4822722053" lon="17.7735972487">
        <ele>7.6</ele>
        <time>2013-03-24T11:25:17Z</time>
      </trkpt>
      <trkpt lat="59.4822831856" lon="17.7734998511">
        <ele>8</ele>
        <time>2013-03-24T11:25:18Z</time>
      </trkpt>
      <trkpt lat="59.4822961776" lon="17.7734012799">
        <ele>8.4</ele>
        <time>2013-03-24T11:25:19Z</time>
      </trkpt>
      <trkpt lat="59.4823312977" lon="17.7730924907">
        <ele>8.4</ele>
        <time>2013-03-24T11:25:22Z</time>
      </trkpt>
      <trkpt lat="59.4824289469" lon="17.7722760098">
        <ele>8.4</ele>
        <time>2013-03-24T11:25:29Z</time>
      </trkpt>
      <trkpt lat="59.482558112" lon="17.771215448">
        <ele>8.4</ele>
        <time>2013-03-24T11:25:37Z</time>
      </trkpt>
      <trkpt lat="59.4825737023" lon="17.7710768114">
        <ele>8</ele>
        <time>2013-03-24T11:25:38Z</time>
      </trkpt>
      <trkpt lat="59.4825888735" lon="17.770937169">
        <ele>7.6</ele>
        <time>2013-03-24T11:25:39Z</time>
      </trkpt>
      <trkpt lat="59.4826105826" lon="17.7707832773">
        <ele>7.2</ele>
        <time>2013-03-24T11:25:40Z</time>
      </trkpt>
      <trkpt lat="59.4826274303" lon="17.7706496698">
        <ele>6.8</ele>
        <time>2013-03-24T11:25:41Z</time>
      </trkpt>
      <trkpt lat="59.4826448646" lon="17.7705080995">
        <ele>6.4</ele>
        <time>2013-03-24T11:25:42Z</time>
      </trkpt>
      <trkpt lat="59.4827292703" lon="17.7697973982">
        <ele>6.4</ele>
        <time>2013-03-24T11:25:47Z</time>
      </trkpt>
      <trkpt lat="59.4828531548" lon="17.7687624012">
        <ele>6.4</ele>
        <time>2013-03-24T11:25:54Z</time>
      </trkpt>
      <trkpt lat="59.4828759536" lon="17.7685992894">
        <ele>6</ele>
        <time>2013-03-24T11:25:55Z</time>
      </trkpt>
      <trkpt lat="59.482895232" lon="17.7684495049">
        <ele>5.6</ele>
        <time>2013-03-24T11:25:56Z</time>
      </trkpt>
      <trkpt lat="59.4829140912" lon="17.7683082698">
        <ele>5.2</ele>
        <time>2013-03-24T11:25:57Z</time>
      </trkpt>
      <trkpt lat="59.4829333696" lon="17.7681516121">
        <ele>4.4</ele>
        <time>2013-03-24T11:25:58Z</time>
      </trkpt>
      <trkpt lat="59.48295357" lon="17.7679872431">
        <ele>3.8</ele>
        <time>2013-03-24T11:25:59Z</time>
      </trkpt>
      <trkpt lat="59.4829756144" lon="17.7678129834">
        <ele>3.2</ele>
        <time>2013-03-24T11:26:00Z</time>
      </trkpt>
      <trkpt lat="59.4829941384" lon="17.7676419926">
        <ele>2.4</ele>
        <time>2013-03-24T11:26:01Z</time>
      </trkpt>
      <trkpt lat="59.4830153446" lon="17.7674679844">
        <ele>1.8</ele>
        <time>2013-03-24T11:26:02Z</time>
      </trkpt>
      <trkpt lat="59.4830373052" lon="17.7672864324">
        <ele>1.4</ele>
        <time>2013-03-24T11:26:03Z</time>
      </trkpt>
      <trkpt lat="59.4830601039" lon="17.7670974206">
        <ele>0.8</ele>
        <time>2013-03-24T11:26:04Z</time>
      </trkpt>
      <trkpt lat="59.4830840762" lon="17.7669142761">
        <ele>0.4</ele>
        <time>2013-03-24T11:26:05Z</time>
      </trkpt>
      <trkpt lat="59.4831101439" lon="17.7667327241">
        <ele>0</ele>
        <time>2013-03-24T11:26:06Z</time>
      </trkpt>
      <trkpt lat="59.4831347029" lon="17.7665437961">
        <ele>0</ele>
        <time>2013-03-24T11:26:07Z</time>
      </trkpt>
      <trkpt lat="59.4831583398" lon="17.7663496713">
        <ele>0</ele>
        <time>2013-03-24T11:26:08Z</time>
      </trkpt>
      <trkpt lat="59.4831829826" lon="17.7661531995">
        <ele>0</ele>
        <time>2013-03-24T11:26:09Z</time>
      </trkpt>
      <trkpt lat="59.4832064519" lon="17.7659534589">
        <ele>0</ele>
        <time>2013-03-24T11:26:10Z</time>
      </trkpt>
      <trkpt lat="59.48323143" lon="17.7657367029">
        <ele>0</ele>
        <time>2013-03-24T11:26:11Z</time>
      </trkpt>
      <trkpt lat="59.4832613534" lon="17.7655321846">
        <ele>0</ele>
        <time>2013-03-24T11:26:12Z</time>
      </trkpt>
      <trkpt lat="59.4832870858" lon="17.7653321924">
        <ele>0</ele>
        <time>2013-03-24T11:26:13Z</time>
      </trkpt>
      <trkpt lat="59.4833142432" lon="17.7651229802">
        <ele>0</ele>
        <time>2013-03-24T11:26:14Z</time>
      </trkpt>
      <trkpt lat="59.4833428254" lon="17.7649109181">
        <ele>0</ele>
        <time>2013-03-24T11:26:15Z</time>
      </trkpt>
      <trkpt lat="59.4833658757" lon="17.7646997781">
        <ele>0</ele>
        <time>2013-03-24T11:26:16Z</time>
      </trkpt>
      <trkpt lat="59.4833923625" lon="17.7644893086">
        <ele>0</ele>
        <time>2013-03-24T11:26:17Z</time>
      </trkpt>
      <trkpt lat="59.4834191845" lon="17.7642812698">
        <ele>0</ele>
        <time>2013-03-24T11:26:18Z</time>
      </trkpt>
      <trkpt lat="59.4834450008" lon="17.7640853848">
        <ele>0</ele>
        <time>2013-03-24T11:26:19Z</time>
      </trkpt>
      <trkpt lat="59.483470817" lon="17.763889416">
        <ele>0</ele>
        <time>2013-03-24T11:26:20Z</time>
      </trkpt>
      <trkpt lat="59.483494454" lon="17.7637044275">
        <ele>0</ele>
        <time>2013-03-24T11:26:21Z</time>
      </trkpt>
      <trkpt lat="59.483517588" lon="17.763524049">
        <ele>0</ele>
        <time>2013-03-24T11:26:22Z</time>
      </trkpt>
      <trkpt lat="59.4835418117" lon="17.7633398148">
        <ele>0</ele>
        <time>2013-03-24T11:26:23Z</time>
      </trkpt>
      <trkpt lat="59.483562515" lon="17.7631519764">
        <ele>0</ele>
        <time>2013-03-24T11:26:24Z</time>
      </trkpt>
      <trkpt lat="59.4835775186" lon="17.7629638028">
        <ele>0</ele>
        <time>2013-03-24T11:26:25Z</time>
      </trkpt>
      <trkpt lat="59.483587074" lon="17.7627606255">
        <ele>0</ele>
        <time>2013-03-24T11:26:26Z</time>
      </trkpt>
      <trkpt lat="59.48358984" lon="17.7625753017">
        <ele>0</ele>
        <time>2013-03-24T11:26:27Z</time>
      </trkpt>
      <trkpt lat="59.4835888342" lon="17.7623914028">
        <ele>0</ele>
        <time>2013-03-24T11:26:28Z</time>
      </trkpt>
      <trkpt lat="59.4835800332" lon="17.7622094318">
        <ele>0</ele>
        <time>2013-03-24T11:26:29Z</time>
      </trkpt>
      <trkpt lat="59.4835624312" lon="17.7620324899">
        <ele>0</ele>
        <time>2013-03-24T11:26:30Z</time>
      </trkpt>
      <trkpt lat="59.4835374531" lon="17.7618542068">
        <ele>0</ele>
        <time>2013-03-24T11:26:31Z</time>
      </trkpt>
      <trkpt lat="59.4835003213" lon="17.7616785222">
        <ele>0</ele>
        <time>2013-03-24T11:26:32Z</time>
      </trkpt>
      <trkpt lat="59.483464363" lon="17.7615218645">
        <ele>0</ele>
        <time>2013-03-24T11:26:33Z</time>
      </trkpt>
      <trkpt lat="59.4834271473" lon="17.7613758518">
        <ele>0</ele>
        <time>2013-03-24T11:26:34Z</time>
      </trkpt>
      <trkpt lat="59.4831926218" lon="17.7606612948">
        <ele>0</ele>
        <time>2013-03-24T11:26:40Z</time>
      </trkpt>
      <trkpt lat="59.4831409055" lon="17.7605575269">
        <ele>0</ele>
        <time>2013-03-24T11:26:41Z</time>
      </trkpt>
      <trkpt lat="59.4829320285" lon="17.7602178923">
        <ele>0</ele>
        <time>2013-03-24T11:26:45Z</time>
      </trkpt>
      <trkpt lat="59.4828709245" lon="17.7601569559">
        <ele>0</ele>
        <time>2013-03-24T11:26:46Z</time>
      </trkpt>
      <trkpt lat="59.4826716867" lon="17.7600118652">
        <ele>0</ele>
        <time>2013-03-24T11:26:49Z</time>
      </trkpt>
      <trkpt lat="59.4822768992" lon="17.7598403716">
        <ele>0</ele>
        <time>2013-03-24T11:26:55Z</time>
      </trkpt>
      <trkpt lat="59.4822093411" lon="17.7598303133">
        <ele>0</ele>
        <time>2013-03-24T11:26:56Z</time>
      </trkpt>
      <trkpt lat="59.482148237" lon="17.7598143038">
        <ele>0</ele>
        <time>2013-03-24T11:26:57Z</time>
      </trkpt>
      <trkpt lat="59.4820902343" lon="17.7597982106">
        <ele>0</ele>
        <time>2013-03-24T11:26:58Z</time>
      </trkpt>
      <trkpt lat="59.4820360872" lon="17.7597796866">
        <ele>0</ele>
        <time>2013-03-24T11:26:59Z</time>
      </trkpt>
      <trkpt lat="59.4819342471" lon="17.7597437282">
        <ele>0</ele>
        <time>2013-03-24T11:27:01Z</time>
      </trkpt>
      <trkpt lat="59.4818869732" lon="17.7597164032">
        <ele>0</ele>
        <time>2013-03-24T11:27:02Z</time>
      </trkpt>
      <trkpt lat="59.4818369333" lon="17.7596962029">
        <ele>0</ele>
        <time>2013-03-24T11:27:03Z</time>
      </trkpt>
      <trkpt lat="59.4817911681" lon="17.7596770083">
        <ele>0</ele>
        <time>2013-03-24T11:27:04Z</time>
      </trkpt>
      <trkpt lat="59.4817446486" lon="17.7596592387">
        <ele>0</ele>
        <time>2013-03-24T11:27:05Z</time>
      </trkpt>
      <trkpt lat="59.4816972908" lon="17.7596360208">
        <ele>0</ele>
        <time>2013-03-24T11:27:06Z</time>
      </trkpt>
      <trkpt lat="59.4816505198" lon="17.7596052593">
        <ele>0</ele>
        <time>2013-03-24T11:27:07Z</time>
      </trkpt>
      <trkpt lat="59.4814613403" lon="17.7594304966">
        <ele>0</ele>
        <time>2013-03-24T11:27:11Z</time>
      </trkpt>
      <trkpt lat="59.4814138988" lon="17.7593827198">
        <ele>0</ele>
        <time>2013-03-24T11:27:12Z</time>
      </trkpt>
      <trkpt lat="59.481366541" lon="17.7593325122">
        <ele>0</ele>
        <time>2013-03-24T11:27:13Z</time>
      </trkpt>
      <trkpt lat="59.4813205244" lon="17.7592806283">
        <ele>0</ele>
        <time>2013-03-24T11:27:14Z</time>
      </trkpt>
      <trkpt lat="59.4812743401" lon="17.7592260621">
        <ele>0</ele>
        <time>2013-03-24T11:27:15Z</time>
      </trkpt>
      <trkpt lat="59.4811348653" lon="17.7590495393">
        <ele>0</ele>
        <time>2013-03-24T11:27:18Z</time>
      </trkpt>
      <trkpt lat="59.4810916985" lon="17.7589819812">
        <ele>0</ele>
        <time>2013-03-24T11:27:19Z</time>
      </trkpt>
      <trkpt lat="59.4810507111" lon="17.7589057059">
        <ele>0</ele>
        <time>2013-03-24T11:27:20Z</time>
      </trkpt>
      <trkpt lat="59.4810121543" lon="17.7588233956">
        <ele>0</ele>
        <time>2013-03-24T11:27:21Z</time>
      </trkpt>
      <trkpt lat="59.4809741843" lon="17.7587413368">
        <ele>0</ele>
        <time>2013-03-24T11:27:22Z</time>
      </trkpt>
      <trkpt lat="59.4809021" lon="17.7585856011">
        <ele>0</ele>
        <time>2013-03-24T11:27:24Z</time>
      </trkpt>
      <trkpt lat="59.4808679018" lon="17.7585069789">
        <ele>0</ele>
        <time>2013-03-24T11:27:25Z</time>
      </trkpt>
      <trkpt lat="59.4808361344" lon="17.7584276861">
        <ele>0</ele>
        <time>2013-03-24T11:27:26Z</time>
      </trkpt>
      <trkpt lat="59.4808057081" lon="17.7583537578">
        <ele>0</ele>
        <time>2013-03-24T11:27:27Z</time>
      </trkpt>
      <trkpt lat="59.4807755333" lon="17.7582816734">
        <ele>0</ele>
        <time>2013-03-24T11:27:28Z</time>
      </trkpt>
      <trkpt lat="59.480661288" lon="17.7579955154">
        <ele>0</ele>
        <time>2013-03-24T11:27:32Z</time>
      </trkpt>
      <trkpt lat="59.4805795645" lon="17.7577619118">
        <ele>0</ele>
        <time>2013-03-24T11:27:35Z</time>
      </trkpt>
      <trkpt lat="59.4805653152" lon="17.7575786835">
        <ele>0</ele>
        <time>2013-03-24T11:27:37Z</time>
      </trkpt>
      <trkpt lat="59.4805850127" lon="17.7574912603">
        <ele>0</ele>
        <time>2013-03-24T11:27:38Z</time>
      </trkpt>
      <trkpt lat="59.4806221445" lon="17.7574137277">
        <ele>0</ele>
        <time>2013-03-24T11:27:39Z</time>
      </trkpt>
      <trkpt lat="59.4806608689" lon="17.7573660347">
        <ele>0</ele>
        <time>2013-03-24T11:27:40Z</time>
      </trkpt>
      <trkpt lat="59.4807032813" lon="17.7573193475">
        <ele>0</ele>
        <time>2013-03-24T11:27:41Z</time>
      </trkpt>
      <trkpt lat="59.4807517287" lon="17.7572912681">
        <ele>0</ele>
        <time>2013-03-24T11:27:42Z</time>
      </trkpt>
      <trkpt lat="59.4808486234" lon="17.7572562318">
        <ele>0</ele>
        <time>2013-03-24T11:27:44Z</time>
      </trkpt>
      <trkpt lat="59.4808976576" lon="17.7572499454">
        <ele>0</ele>
        <time>2013-03-24T11:27:45Z</time>
      </trkpt>
      <trkpt lat="59.4809461049" lon="17.7572515379">
        <ele>0</ele>
        <time>2013-03-24T11:27:46Z</time>
      </trkpt>
      <trkpt lat="59.4809935465" lon="17.7572563994">
        <ele>0</ele>
        <time>2013-03-24T11:27:47Z</time>
      </trkpt>
      <trkpt lat="59.4810399822" lon="17.7572632726">
        <ele>0</ele>
        <time>2013-03-24T11:27:48Z</time>
      </trkpt>
      <trkpt lat="59.4812192711" lon="17.7573087863">
        <ele>0</ele>
        <time>2013-03-24T11:27:52Z</time>
      </trkpt>
      <trkpt lat="59.4813484361" lon="17.7573304954">
        <ele>0</ele>
        <time>2013-03-24T11:27:55Z</time>
      </trkpt>
      <trkpt lat="59.4813928602" lon="17.7573384582">
        <ele>0</ele>
        <time>2013-03-24T11:27:56Z</time>
      </trkpt>
      <trkpt lat="59.4814382901" lon="17.7573424815">
        <ele>0</ele>
        <time>2013-03-24T11:27:57Z</time>
      </trkpt>
      <trkpt lat="59.4814815407" lon="17.757347343">
        <ele>0</ele>
        <time>2013-03-24T11:27:58Z</time>
      </trkpt>
      <trkpt lat="59.4815257971" lon="17.7573527913">
        <ele>0</ele>
        <time>2013-03-24T11:27:59Z</time>
      </trkpt>
      <trkpt lat="59.481570305" lon="17.757357569">
        <ele>0</ele>
        <time>2013-03-24T11:28:00Z</time>
      </trkpt>
      <trkpt lat="59.4816144776" lon="17.7573579042">
        <ele>0</ele>
        <time>2013-03-24T11:28:01Z</time>
      </trkpt>
      <trkpt lat="59.4817539525" lon="17.7573417272">
        <ele>0</ele>
        <time>2013-03-24T11:28:04Z</time>
      </trkpt>
      <trkpt lat="59.4817997176" lon="17.7573349378">
        <ele>0</ele>
        <time>2013-03-24T11:28:05Z</time>
      </trkpt>
      <trkpt lat="59.4818438903" lon="17.7573287352">
        <ele>0</ele>
        <time>2013-03-24T11:28:06Z</time>
      </trkpt>
      <trkpt lat="59.4818880629" lon="17.7573216106">
        <ele>0</ele>
        <time>2013-03-24T11:28:07Z</time>
      </trkpt>
      <trkpt lat="59.4819305591" lon="17.757313564">
        <ele>0</ele>
        <time>2013-03-24T11:28:08Z</time>
      </trkpt>
      <trkpt lat="59.4819736421" lon="17.7573023322">
        <ele>0</ele>
        <time>2013-03-24T11:28:09Z</time>
      </trkpt>
      <trkpt lat="59.4821869614" lon="17.7572281524">
        <ele>0</ele>
        <time>2013-03-24T11:28:14Z</time>
      </trkpt>
      <trkpt lat="59.4824329702" lon="17.757101921">
        <ele>0.2</ele>
        <time>2013-03-24T11:28:20Z</time>
      </trkpt>
      <trkpt lat="59.4824727004" lon="17.757078787">
        <ele>0.6</ele>
        <time>2013-03-24T11:28:21Z</time>
      </trkpt>
      <trkpt lat="59.4825116762" lon="17.7570565749">
        <ele>1.2</ele>
        <time>2013-03-24T11:28:22Z</time>
      </trkpt>
      <trkpt lat="59.4825504006" lon="17.757034782">
        <ele>1.6</ele>
        <time>2013-03-24T11:28:23Z</time>
      </trkpt>
      <trkpt lat="59.4825901308" lon="17.7570119832">
        <ele>2</ele>
        <time>2013-03-24T11:28:24Z</time>
      </trkpt>
      <trkpt lat="59.4827446092" lon="17.7569261526">
        <ele>2.6</ele>
        <time>2013-03-24T11:28:28Z</time>
      </trkpt>
      <trkpt lat="59.4827829983" lon="17.7569033538">
        <ele>3</ele>
        <time>2013-03-24T11:28:29Z</time>
      </trkpt>
      <trkpt lat="59.4828230638" lon="17.7568801359">
        <ele>3.4</ele>
        <time>2013-03-24T11:28:30Z</time>
      </trkpt>
      <trkpt lat="59.4828615367" lon="17.756858343">
        <ele>3.8</ele>
        <time>2013-03-24T11:28:31Z</time>
      </trkpt>
      <trkpt lat="59.4828990038" lon="17.7568404895">
        <ele>4.2</ele>
        <time>2013-03-24T11:28:32Z</time>
      </trkpt>
      <trkpt lat="59.4830150931" lon="17.7567798046">
        <ele>4.2</ele>
        <time>2013-03-24T11:28:35Z</time>
      </trkpt>
      <trkpt lat="59.4830563321" lon="17.7567509708">
        <ele>4.6</ele>
        <time>2013-03-24T11:28:36Z</time>
      </trkpt>
      <trkpt lat="59.4830937992" lon="17.7567269986">
        <ele>5</ele>
        <time>2013-03-24T11:28:37Z</time>
      </trkpt>
      <trkpt lat="59.4831324397" lon="17.7567089775">
        <ele>5.6</ele>
        <time>2013-03-24T11:28:38Z</time>
      </trkpt>
      <trkpt lat="59.4831720861" lon="17.7566928843">
        <ele>6</ele>
        <time>2013-03-24T11:28:39Z</time>
      </trkpt>
      <trkpt lat="59.4832117325" lon="17.7566734383">
        <ele>6.4</ele>
        <time>2013-03-24T11:28:40Z</time>
      </trkpt>
      <trkpt lat="59.4833275704" lon="17.7566219734">
        <ele>6.4</ele>
        <time>2013-03-24T11:28:43Z</time>
      </trkpt>
      <trkpt lat="59.4833664624" lon="17.7566071374">
        <ele>6.8</ele>
        <time>2013-03-24T11:28:44Z</time>
      </trkpt>
      <trkpt lat="59.4834048515" lon="17.7565900384">
        <ele>7.2</ele>
        <time>2013-03-24T11:28:45Z</time>
      </trkpt>
      <trkpt lat="59.4834441626" lon="17.7565695865">
        <ele>7.6</ele>
        <time>2013-03-24T11:28:46Z</time>
      </trkpt>
      <trkpt lat="59.4834843119" lon="17.7565508949">
        <ele>8</ele>
        <time>2013-03-24T11:28:47Z</time>
      </trkpt>
      <trkpt lat="59.4835248803" lon="17.7565315327">
        <ele>8.4</ele>
        <time>2013-03-24T11:28:48Z</time>
      </trkpt>
      <trkpt lat="59.4836475075" lon="17.7564712668">
        <ele>8.4</ele>
        <time>2013-03-24T11:28:51Z</time>
      </trkpt>
      <trkpt lat="59.4836881597" lon="17.756451737">
        <ele>8.8</ele>
        <time>2013-03-24T11:28:52Z</time>
      </trkpt>
      <trkpt lat="59.483729231" lon="17.7564361467">
        <ele>9.2</ele>
        <time>2013-03-24T11:28:53Z</time>
      </trkpt>
      <trkpt lat="59.4837710567" lon="17.7564208078">
        <ele>9.6</ele>
        <time>2013-03-24T11:28:54Z</time>
      </trkpt>
      <trkpt lat="59.4838114575" lon="17.7564054689">
        <ele>10</ele>
        <time>2013-03-24T11:28:55Z</time>
      </trkpt>
      <trkpt lat="59.4838527802" lon="17.7563902977">
        <ele>10.6</ele>
        <time>2013-03-24T11:28:56Z</time>
      </trkpt>
      <trkpt lat="59.4839300613" lon="17.7563529144">
        <ele>10.6</ele>
        <time>2013-03-24T11:28:58Z</time>
      </trkpt>
      <trkpt lat="59.4841546124" lon="17.7562643177">
        <ele>10.6</ele>
        <time>2013-03-24T11:29:03Z</time>
      </trkpt>
      <trkpt lat="59.4842002938" lon="17.7562416866">
        <ele>10.6</ele>
        <time>2013-03-24T11:29:04Z</time>
      </trkpt>
      <trkpt lat="59.4842433768" lon="17.7562196422">
        <ele>11</ele>
        <time>2013-03-24T11:29:05Z</time>
      </trkpt>
      <trkpt lat="59.4842888067" lon="17.7562009506">
        <ele>11.4</ele>
        <time>2013-03-24T11:29:06Z</time>
      </trkpt>
      <trkpt lat="59.4843373379" lon="17.7561841868">
        <ele>11.8</ele>
        <time>2013-03-24T11:29:07Z</time>
      </trkpt>
      <trkpt lat="59.4843853662" lon="17.756172033">
        <ele>12.2</ele>
        <time>2013-03-24T11:29:08Z</time>
      </trkpt>
      <trkpt lat="59.4844339812" lon="17.7561599631">
        <ele>12.6</ele>
        <time>2013-03-24T11:29:09Z</time>
      </trkpt>
      <trkpt lat="59.4847296108" lon="17.7560623139">
        <ele>12.6</ele>
        <time>2013-03-24T11:29:15Z</time>
      </trkpt>
      <trkpt lat="59.4851477" lon="17.7559208275">
        <ele>12.6</ele>
        <time>2013-03-24T11:29:23Z</time>
      </trkpt>
      <trkpt lat="59.4854305053" lon="17.7558577956">
        <ele>12.6</ele>
        <time>2013-03-24T11:29:28Z</time>
      </trkpt>
      <trkpt lat="59.4854869154" lon="17.7558566221">
        <ele>12.6</ele>
        <time>2013-03-24T11:29:29Z</time>
      </trkpt>
      <trkpt lat="59.4855885879" lon="17.7558557839">
        <ele>12.6</ele>
        <time>2013-03-24T11:29:31Z</time>
      </trkpt>
      <trkpt lat="59.4856784419" lon="17.7557865494">
        <ele>12.6</ele>
        <time>2013-03-24T11:29:33Z</time>
      </trkpt>
      <trkpt lat="59.485769134" lon="17.7555212623">
        <ele>12.6</ele>
        <time>2013-03-24T11:29:36Z</time>
      </trkpt>
      <trkpt lat="59.4858034998" lon="17.7551816277">
        <ele>12.6</ele>
        <time>2013-03-24T11:29:39Z</time>
      </trkpt>
      <trkpt lat="59.485812217" lon="17.7550589167">
        <ele>12.6</ele>
        <time>2013-03-24T11:29:40Z</time>
      </trkpt>
      <trkpt lat="59.4858535398" lon="17.754693885">
        <ele>12.6</ele>
        <time>2013-03-24T11:29:43Z</time>
      </trkpt>
      <trkpt lat="59.485890923" lon="17.7546029413">
        <ele>12.2</ele>
        <time>2013-03-24T11:29:44Z</time>
      </trkpt>
      <trkpt lat="59.4859443157" lon="17.7545321143">
        <ele>11.8</ele>
        <time>2013-03-24T11:29:45Z</time>
      </trkpt>
      <trkpt lat="59.4860008097" lon="17.7544742792">
        <ele>11.4</ele>
        <time>2013-03-24T11:29:46Z</time>
      </trkpt>
      <trkpt lat="59.4860621652" lon="17.7544227305">
        <ele>11</ele>
        <time>2013-03-24T11:29:47Z</time>
      </trkpt>
      <trkpt lat="59.4861293043" lon="17.7543781388">
        <ele>10.4</ele>
        <time>2013-03-24T11:29:48Z</time>
      </trkpt>
      <trkpt lat="59.4862745626" lon="17.7543023664">
        <ele>10.4</ele>
        <time>2013-03-24T11:29:50Z</time>
      </trkpt>
      <trkpt lat="59.4865089205" lon="17.7541841816">
        <ele>10</ele>
        <time>2013-03-24T11:29:53Z</time>
      </trkpt>
      <trkpt lat="59.4865880457" lon="17.7541342255">
        <ele>9.6</ele>
        <time>2013-03-24T11:29:54Z</time>
      </trkpt>
      <trkpt lat="59.4866664164" lon="17.7540709421">
        <ele>9.2</ele>
        <time>2013-03-24T11:29:55Z</time>
      </trkpt>
      <trkpt lat="59.4867413506" lon="17.7539957565">
        <ele>8.8</ele>
        <time>2013-03-24T11:29:56Z</time>
      </trkpt>
      <trkpt lat="59.4868149437" lon="17.7539069922">
        <ele>8.2</ele>
        <time>2013-03-24T11:29:57Z</time>
      </trkpt>
      <trkpt lat="59.4868814122" lon="17.7538051521">
        <ele>7.8</ele>
        <time>2013-03-24T11:29:58Z</time>
      </trkpt>
      <trkpt lat="59.486944947" lon="17.7536929185">
        <ele>7.2</ele>
        <time>2013-03-24T11:29:59Z</time>
      </trkpt>
      <trkpt lat="59.4870049614" lon="17.7535737278">
        <ele>6.6</ele>
        <time>2013-03-24T11:30:00Z</time>
      </trkpt>
      <trkpt lat="59.4870617906" lon="17.7534503463">
        <ele>6.2</ele>
        <time>2013-03-24T11:30:01Z</time>
      </trkpt>
      <trkpt lat="59.4871649718" lon="17.753186065">
        <ele>5.2</ele>
        <time>2013-03-24T11:30:03Z</time>
      </trkpt>
      <trkpt lat="59.4872126648" lon="17.7530468416">
        <ele>4.8</ele>
        <time>2013-03-24T11:30:04Z</time>
      </trkpt>
      <trkpt lat="59.4872578433" lon="17.7529028406">
        <ele>4.4</ele>
        <time>2013-03-24T11:30:05Z</time>
      </trkpt>
      <trkpt lat="59.4872992499" lon="17.7527559897">
        <ele>4</ele>
        <time>2013-03-24T11:30:06Z</time>
      </trkpt>
      <trkpt lat="59.4874501241" lon="17.7521488048">
        <ele>4</ele>
        <time>2013-03-24T11:30:10Z</time>
      </trkpt>
      <trkpt lat="59.4875482761" lon="17.7517218308">
        <ele>3.6</ele>
        <time>2013-03-24T11:30:13Z</time>
      </trkpt>
      <trkpt lat="59.4875759364" lon="17.7516043166">
        <ele>3</ele>
        <time>2013-03-24T11:30:14Z</time>
      </trkpt>
      <trkpt lat="59.4875963882" lon="17.7515059969">
        <ele>2.6</ele>
        <time>2013-03-24T11:30:15Z</time>
      </trkpt>
      <trkpt lat="59.4876088773" lon="17.751409186">
        <ele>2</ele>
        <time>2013-03-24T11:30:16Z</time>
      </trkpt>
      <trkpt lat="59.4876050216" lon="17.7513157278">
        <ele>1.2</ele>
        <time>2013-03-24T11:30:17Z</time>
      </trkpt>
      <trkpt lat="59.487584905" lon="17.7512153965">
        <ele>0.6</ele>
        <time>2013-03-24T11:30:18Z</time>
      </trkpt>
      <trkpt lat="59.4875524671" lon="17.7511136402">
        <ele>0</ele>
        <time>2013-03-24T11:30:19Z</time>
      </trkpt>
      <trkpt lat="59.4875127369" lon="17.751005849">
        <ele>0</ele>
        <time>2013-03-24T11:30:20Z</time>
      </trkpt>
      <trkpt lat="59.4874316001" lon="17.7507548949">
        <ele>0</ele>
        <time>2013-03-24T11:30:22Z</time>
      </trkpt>
      <trkpt lat="59.4874036045" lon="17.750595052">
        <ele>0</ele>
        <time>2013-03-24T11:30:23Z</time>
      </trkpt>
      <trkpt lat="59.487392289" lon="17.7504280008">
        <ele>0</ele>
        <time>2013-03-24T11:30:24Z</time>
      </trkpt>
      <trkpt lat="59.4873914508" lon="17.7502553336">
        <ele>0</ele>
        <time>2013-03-24T11:30:25Z</time>
      </trkpt>
      <trkpt lat="59.4873956417" lon="17.7500818283">
        <ele>0</ele>
        <time>2013-03-24T11:30:26Z</time>
      </trkpt>
      <trkpt lat="59.4874032692" lon="17.7499030424">
        <ele>0</ele>
        <time>2013-03-24T11:30:27Z</time>
      </trkpt>
      <trkpt lat="59.4874133275" lon="17.7497208199">
        <ele>0</ele>
        <time>2013-03-24T11:30:28Z</time>
      </trkpt>
      <trkpt lat="59.4874264033" lon="17.7495391003">
        <ele>0</ele>
        <time>2013-03-24T11:30:29Z</time>
      </trkpt>
      <trkpt lat="59.4874397305" lon="17.7493557043">
        <ele>0</ele>
        <time>2013-03-24T11:30:30Z</time>
      </trkpt>
      <trkpt lat="59.4874567458" lon="17.7491616633">
        <ele>0</ele>
        <time>2013-03-24T11:30:31Z</time>
      </trkpt>
      <trkpt lat="59.4874778682" lon="17.7489767586">
        <ele>0</ele>
        <time>2013-03-24T11:30:32Z</time>
      </trkpt>
      <trkpt lat="59.487503433" lon="17.7487973021">
        <ele>0</ele>
        <time>2013-03-24T11:30:33Z</time>
      </trkpt>
      <trkpt lat="59.4875591726" lon="17.7484558235">
        <ele>0</ele>
        <time>2013-03-24T11:30:35Z</time>
      </trkpt>
      <trkpt lat="59.4875836477" lon="17.7482897781">
        <ele>0</ele>
        <time>2013-03-24T11:30:36Z</time>
      </trkpt>
      <trkpt lat="59.4876058598" lon="17.7481266663">
        <ele>0</ele>
        <time>2013-03-24T11:30:37Z</time>
      </trkpt>
      <trkpt lat="59.4876294129" lon="17.7479754568">
        <ele>0</ele>
        <time>2013-03-24T11:30:38Z</time>
      </trkpt>
      <trkpt lat="59.4876533013" lon="17.747821649">
        <ele>0</ele>
        <time>2013-03-24T11:30:39Z</time>
      </trkpt>
      <trkpt lat="59.4876755134" lon="17.7476752172">
        <ele>0</ele>
        <time>2013-03-24T11:30:40Z</time>
      </trkpt>
      <trkpt lat="59.4878122221" lon="17.7467315829">
        <ele>0</ele>
        <time>2013-03-24T11:30:47Z</time>
      </trkpt>
      <trkpt lat="59.4878941133" lon="17.7460699157">
        <ele>0</ele>
        <time>2013-03-24T11:30:52Z</time>
      </trkpt>
      <trkpt lat="59.4879206839" lon="17.7459719313">
        <ele>0</ele>
        <time>2013-03-24T11:30:53Z</time>
      </trkpt>
      <trkpt lat="59.4879595759" lon="17.745899344">
        <ele>0</ele>
        <time>2013-03-24T11:30:54Z</time>
      </trkpt>
      <trkpt lat="59.4880060955" lon="17.7458619607">
        <ele>0</ele>
        <time>2013-03-24T11:30:55Z</time>
      </trkpt>
      <trkpt lat="59.4880551296" lon="17.7458637209">
        <ele>0</ele>
        <time>2013-03-24T11:30:56Z</time>
      </trkpt>
      <trkpt lat="59.4881641781" lon="17.7459401639">
        <ele>0</ele>
        <time>2013-03-24T11:30:58Z</time>
      </trkpt>
      <trkpt lat="59.4882754059" lon="17.7460513079">
        <ele>0</ele>
        <time>2013-03-24T11:31:00Z</time>
      </trkpt>
      <trkpt lat="59.4885793336" lon="17.7463631145">
        <ele>0</ele>
        <time>2013-03-24T11:31:05Z</time>
      </trkpt>
      <trkpt lat="59.4889499813" lon="17.7467003184">
        <ele>0</ele>
        <time>2013-03-24T11:31:11Z</time>
      </trkpt>
      <trkpt lat="59.4894500454" lon="17.747151097">
        <ele>0</ele>
        <time>2013-03-24T11:31:20Z</time>
      </trkpt>
      <trkpt lat="59.4895032705" lon="17.7472038191">
        <ele>0</ele>
        <time>2013-03-24T11:31:21Z</time>
      </trkpt>
      <trkpt lat="59.4898905981" lon="17.7475673421">
        <ele>0</ele>
        <time>2013-03-24T11:31:28Z</time>
      </trkpt>
      <trkpt lat="59.4903170691" lon="17.7478628879">
        <ele>0</ele>
        <time>2013-03-24T11:31:35Z</time>
      </trkpt>
      <trkpt lat="59.4905592222" lon="17.7480192103">
        <ele>0</ele>
        <time>2013-03-24T11:31:39Z</time>
      </trkpt>
      <trkpt lat="59.4907929934" lon="17.7481848367">
        <ele>0</ele>
        <time>2013-03-24T11:31:43Z</time>
      </trkpt>
      <trkpt lat="59.4912042933" lon="17.7484052807">
        <ele>0</ele>
        <time>2013-03-24T11:31:50Z</time>
      </trkpt>
      <trkpt lat="59.4913685785" lon="17.748463451">
        <ele>0</ele>
        <time>2013-03-24T11:31:53Z</time>
      </trkpt>
      <trkpt lat="59.4914151819" lon="17.7485182687">
        <ele>0</ele>
        <time>2013-03-24T11:31:54Z</time>
      </trkpt>
      <trkpt lat="59.4915689059" lon="17.7486684723">
        <ele>0</ele>
        <time>2013-03-24T11:31:57Z</time>
      </trkpt>
      <trkpt lat="59.4916246455" lon="17.7487146566">
        <ele>0</ele>
        <time>2013-03-24T11:31:58Z</time>
      </trkpt>
      <trkpt lat="59.491793457" lon="17.7488054326">
        <ele>0</ele>
        <time>2013-03-24T11:32:01Z</time>
      </trkpt>
      <trkpt lat="59.4919078699" lon="17.748845079">
        <ele>0</ele>
        <time>2013-03-24T11:32:03Z</time>
      </trkpt>
      <trkpt lat="59.4919631905" lon="17.7488806182">
        <ele>0</ele>
        <time>2013-03-24T11:32:04Z</time>
      </trkpt>
      <trkpt lat="59.4920855662" lon="17.7490430594">
        <ele>0</ele>
        <time>2013-03-24T11:32:07Z</time>
      </trkpt>
      <trkpt lat="59.4921687985" lon="17.7491754934">
        <ele>0</ele>
        <time>2013-03-24T11:32:09Z</time>
      </trkpt>
      <trkpt lat="59.4922618376" lon="17.7492840391">
        <ele>0</ele>
        <time>2013-03-24T11:32:11Z</time>
      </trkpt>
      <trkpt lat="59.4926308088" lon="17.7495577081">
        <ele>0</ele>
        <time>2013-03-24T11:32:18Z</time>
      </trkpt>
      <trkpt lat="59.4929645761" lon="17.7499049702">
        <ele>0</ele>
        <time>2013-03-24T11:32:25Z</time>
      </trkpt>
      <trkpt lat="59.4933425159" lon="17.7502783839">
        <ele>0</ele>
        <time>2013-03-24T11:32:33Z</time>
      </trkpt>
      <trkpt lat="59.4936262433" lon="17.750583485">
        <ele>0</ele>
        <time>2013-03-24T11:32:39Z</time>
      </trkpt>
      <trkpt lat="59.4936725114" lon="17.7506434994">
        <ele>0</ele>
        <time>2013-03-24T11:32:40Z</time>
      </trkpt>
      <trkpt lat="59.4939616869" lon="17.7509372012">
        <ele>0</ele>
        <time>2013-03-24T11:32:46Z</time>
      </trkpt>
      <trkpt lat="59.4941554764" lon="17.7511527837">
        <ele>0</ele>
        <time>2013-03-24T11:32:50Z</time>
      </trkpt>
      <trkpt lat="59.4942165805" lon="17.7513213437">
        <ele>0</ele>
        <time>2013-03-24T11:32:52Z</time>
      </trkpt>
      <trkpt lat="59.4942574003" lon="17.7516200746">
        <ele>0</ele>
        <time>2013-03-24T11:32:55Z</time>
      </trkpt>
      <trkpt lat="59.4942637706" lon="17.7517148739">
        <ele>0</ele>
        <time>2013-03-24T11:32:56Z</time>
      </trkpt>
      <trkpt lat="59.4942693865" lon="17.7518127745">
        <ele>0</ele>
        <time>2013-03-24T11:32:57Z</time>
      </trkpt>
      <trkpt lat="59.4942729907" lon="17.7519107589">
        <ele>0</ele>
        <time>2013-03-24T11:32:58Z</time>
      </trkpt>
      <trkpt lat="59.494292269" lon="17.7524090628">
        <ele>0</ele>
        <time>2013-03-24T11:33:03Z</time>
      </trkpt>
      <trkpt lat="59.4942932749" lon="17.7525167702">
        <ele>0</ele>
        <time>2013-03-24T11:33:04Z</time>
      </trkpt>
      <trkpt lat="59.4942985555" lon="17.7528170937">
        <ele>0</ele>
        <time>2013-03-24T11:33:07Z</time>
      </trkpt>
      <trkpt lat="59.4943076917" lon="17.7529061095">
        <ele>0</ele>
        <time>2013-03-24T11:33:08Z</time>
      </trkpt>
      <trkpt lat="59.4943686281" lon="17.7533330835">
        <ele>0</ele>
        <time>2013-03-24T11:33:13Z</time>
      </trkpt>
      <trkpt lat="59.4943882418" lon="17.7534152261">
        <ele>0</ele>
        <time>2013-03-24T11:33:14Z</time>
      </trkpt>
      <trkpt lat="59.4944292293" lon="17.7535683634">
        <ele>0</ele>
        <time>2013-03-24T11:33:16Z</time>
      </trkpt>
      <trkpt lat="59.4944557999" lon="17.7536401125">
        <ele>0</ele>
        <time>2013-03-24T11:33:17Z</time>
      </trkpt>
      <trkpt lat="59.4944848851" lon="17.7537106881">
        <ele>0</ele>
        <time>2013-03-24T11:33:18Z</time>
      </trkpt>
      <trkpt lat="59.4945176583" lon="17.753782521">
        <ele>0</ele>
        <time>2013-03-24T11:33:19Z</time>
      </trkpt>
      <trkpt lat="59.4945519403" lon="17.7538460558">
        <ele>0</ele>
        <time>2013-03-24T11:33:20Z</time>
      </trkpt>
      <trkpt lat="59.4945878148" lon="17.753903388">
        <ele>0</ele>
        <time>2013-03-24T11:33:21Z</time>
      </trkpt>
      <trkpt lat="59.4947083466" lon="17.7540329721">
        <ele>0</ele>
        <time>2013-03-24T11:33:24Z</time>
      </trkpt>
      <trkpt lat="59.4950148726" lon="17.7542254206">
        <ele>0</ele>
        <time>2013-03-24T11:33:30Z</time>
      </trkpt>
      <trkpt lat="59.4953817484" lon="17.754389622">
        <ele>0</ele>
        <time>2013-03-24T11:33:36Z</time>
      </trkpt>
      <trkpt lat="59.4959136638" lon="17.7545950624">
        <ele>0</ele>
        <time>2013-03-24T11:33:44Z</time>
      </trkpt>
      <trkpt lat="59.4963500255" lon="17.7547651311">
        <ele>0</ele>
        <time>2013-03-24T11:33:51Z</time>
      </trkpt>
      <trkpt lat="59.4964690485" lon="17.7548031011">
        <ele>0</ele>
        <time>2013-03-24T11:33:53Z</time>
      </trkpt>
      <trkpt lat="59.4965265483" lon="17.7548234691">
        <ele>0</ele>
        <time>2013-03-24T11:33:54Z</time>
      </trkpt>
      <trkpt lat="59.4965847187" lon="17.754849453">
        <ele>0</ele>
        <time>2013-03-24T11:33:55Z</time>
      </trkpt>
      <trkpt lat="59.49664247" lon="17.7548771971">
        <ele>0</ele>
        <time>2013-03-24T11:33:56Z</time>
      </trkpt>
      <trkpt lat="59.4967029035" lon="17.7549117305">
        <ele>0</ele>
        <time>2013-03-24T11:33:57Z</time>
      </trkpt>
      <trkpt lat="59.4968134607" lon="17.7549876705">
        <ele>0</ele>
        <time>2013-03-24T11:33:59Z</time>
      </trkpt>
      <trkpt lat="59.4971989443" lon="17.7552553884">
        <ele>0</ele>
        <time>2013-03-24T11:34:06Z</time>
      </trkpt>
      <trkpt lat="59.4975738667" lon="17.7555179934">
        <ele>0</ele>
        <time>2013-03-24T11:34:13Z</time>
      </trkpt>
      <trkpt lat="59.4978285926" lon="17.7557326538">
        <ele>0</ele>
        <time>2013-03-24T11:34:18Z</time>
      </trkpt>
      <trkpt lat="59.4978762857" lon="17.7557868847">
        <ele>0</ele>
        <time>2013-03-24T11:34:19Z</time>
      </trkpt>
      <trkpt lat="59.4981735917" lon="17.7560956739">
        <ele>0</ele>
        <time>2013-03-24T11:34:25Z</time>
      </trkpt>
      <trkpt lat="59.4985233683" lon="17.7565394117">
        <ele>0</ele>
        <time>2013-03-24T11:34:32Z</time>
      </trkpt>
      <trkpt lat="59.4987812794" lon="17.7567876836">
        <ele>0</ele>
        <time>2013-03-24T11:34:37Z</time>
      </trkpt>
      <trkpt lat="59.4988860532" lon="17.7568509669">
        <ele>0</ele>
        <time>2013-03-24T11:34:39Z</time>
      </trkpt>
      <trkpt lat="59.4989437206" lon="17.7568725922">
        <ele>0</ele>
        <time>2013-03-24T11:34:40Z</time>
      </trkpt>
      <trkpt lat="59.4991138732" lon="17.7569093049">
        <ele>0</ele>
        <time>2013-03-24T11:34:43Z</time>
      </trkpt>
      <trkpt lat="59.4991743067" lon="17.7569306788">
        <ele>0</ele>
        <time>2013-03-24T11:34:44Z</time>
      </trkpt>
      <trkpt lat="59.4993395978" lon="17.7569556568">
        <ele>0</ele>
        <time>2013-03-24T11:34:47Z</time>
      </trkpt>
      <trkpt lat="59.4995006979" lon="17.7569212072">
        <ele>0</ele>
        <time>2013-03-24T11:34:50Z</time>
      </trkpt>
      <trkpt lat="59.4998605328" lon="17.7568104823">
        <ele>0</ele>
        <time>2013-03-24T11:34:56Z</time>
      </trkpt>
      <trkpt lat="59.4999203796" lon="17.7568239772">
        <ele>0</ele>
        <time>2013-03-24T11:34:57Z</time>
      </trkpt>
      <trkpt lat="59.5001829845" lon="17.7569924534">
        <ele>0</ele>
        <time>2013-03-24T11:35:02Z</time>
      </trkpt>
      <trkpt lat="59.5002260675" lon="17.7570585866">
        <ele>0</ele>
        <time>2013-03-24T11:35:03Z</time>
      </trkpt>
      <trkpt lat="59.5003863294" lon="17.7573224488">
        <ele>0</ele>
        <time>2013-03-24T11:35:07Z</time>
      </trkpt>
      <trkpt lat="59.5004333519" lon="17.7573667052">
        <ele>0</ele>
        <time>2013-03-24T11:35:08Z</time>
      </trkpt>
      <trkpt lat="59.5007563903" lon="17.7576009793">
        <ele>0</ele>
        <time>2013-03-24T11:35:14Z</time>
      </trkpt>
      <trkpt lat="59.5008595715" lon="17.7576782604">
        <ele>0</ele>
        <time>2013-03-24T11:35:16Z</time>
      </trkpt>
      <trkpt lat="59.5009123775" lon="17.7577174877">
        <ele>0</ele>
        <time>2013-03-24T11:35:17Z</time>
      </trkpt>
      <trkpt lat="59.5009652673" lon="17.7577535299">
        <ele>0</ele>
        <time>2013-03-24T11:35:18Z</time>
      </trkpt>
      <trkpt lat="59.50101866" lon="17.7577885662">
        <ele>0</ele>
        <time>2013-03-24T11:35:19Z</time>
      </trkpt>
      <trkpt lat="59.5010722203" lon="17.7578126223">
        <ele>0</ele>
        <time>2013-03-24T11:35:20Z</time>
      </trkpt>
      <trkpt lat="59.5011289658" lon="17.7578417913">
        <ele>0</ele>
        <time>2013-03-24T11:35:21Z</time>
      </trkpt>
      <trkpt lat="59.5013964322" lon="17.7579416197">
        <ele>0</ele>
        <time>2013-03-24T11:35:26Z</time>
      </trkpt>
      <trkpt lat="59.5014529262" lon="17.7579406139">
        <ele>0</ele>
        <time>2013-03-24T11:35:27Z</time>
      </trkpt>
      <trkpt lat="59.5017817481" lon="17.7578559567">
        <ele>0</ele>
        <time>2013-03-24T11:35:33Z</time>
      </trkpt>
      <trkpt lat="59.50193279" lon="17.7578128738">
        <ele>0</ele>
        <time>2013-03-24T11:35:36Z</time>
      </trkpt>
      <trkpt lat="59.5020788027" lon="17.7577671086">
        <ele>0</ele>
        <time>2013-03-24T11:35:39Z</time>
      </trkpt>
      <trkpt lat="59.5021273339" lon="17.7577339163">
        <ele>0</ele>
        <time>2013-03-24T11:35:40Z</time>
      </trkpt>
      <trkpt lat="59.5022426688" lon="17.7576252868">
        <ele>0</ele>
        <time>2013-03-24T11:35:43Z</time>
      </trkpt>
      <trkpt lat="59.5023182736" lon="17.7575383665">
        <ele>0</ele>
        <time>2013-03-24T11:35:45Z</time>
      </trkpt>
      <trkpt lat="59.502387089" lon="17.7573989755">
        <ele>0</ele>
        <time>2013-03-24T11:35:47Z</time>
      </trkpt>
      <trkpt lat="59.5024168447" lon="17.7573168329">
        <ele>0</ele>
        <time>2013-03-24T11:35:48Z</time>
      </trkpt>
      <trkpt lat="59.5024925333" lon="17.7570150845">
        <ele>0</ele>
        <time>2013-03-24T11:35:51Z</time>
      </trkpt>
      <trkpt lat="59.5025697306" lon="17.7566868493">
        <ele>0</ele>
        <time>2013-03-24T11:35:54Z</time>
      </trkpt>
      <trkpt lat="59.502595463" lon="17.7565882782">
        <ele>0</ele>
        <time>2013-03-24T11:35:55Z</time>
      </trkpt>
      <trkpt lat="59.502620022" lon="17.7564985918">
        <ele>0</ele>
        <time>2013-03-24T11:35:56Z</time>
      </trkpt>
      <trkpt lat="59.5026454191" lon="17.7563992663">
        <ele>0</ele>
        <time>2013-03-24T11:35:57Z</time>
      </trkpt>
      <trkpt lat="59.5026683017" lon="17.7563004437">
        <ele>0</ele>
        <time>2013-03-24T11:35:58Z</time>
      </trkpt>
      <trkpt lat="59.5027413081" lon="17.7560605537">
        <ele>0</ele>
        <time>2013-03-24T11:36:01Z</time>
      </trkpt>
      <trkpt lat="59.5027736622" lon="17.7560129446">
        <ele>0</ele>
        <time>2013-03-24T11:36:02Z</time>
      </trkpt>
      <trkpt lat="59.5029606624" lon="17.7559625693">
        <ele>0</ele>
        <time>2013-03-24T11:36:06Z</time>
      </trkpt>
      <trkpt lat="59.5030705491" lon="17.7560002879">
        <ele>0</ele>
        <time>2013-03-24T11:36:08Z</time>
      </trkpt>
      <trkpt lat="59.5032849581" lon="17.7560727913">
        <ele>0</ele>
        <time>2013-03-24T11:36:12Z</time>
      </trkpt>
      <trkpt lat="59.5036552704" lon="17.7561696023">
        <ele>0</ele>
        <time>2013-03-24T11:36:19Z</time>
      </trkpt>
      <trkpt lat="59.5037060647" lon="17.7561779842">
        <ele>0</ele>
        <time>2013-03-24T11:36:20Z</time>
      </trkpt>
      <trkpt lat="59.5037576134" lon="17.7561835162">
        <ele>0</ele>
        <time>2013-03-24T11:36:21Z</time>
      </trkpt>
      <trkpt lat="59.5038130178" lon="17.7561840191">
        <ele>0</ele>
        <time>2013-03-24T11:36:22Z</time>
      </trkpt>
      <trkpt lat="59.503864315" lon="17.7561837677">
        <ele>0</ele>
        <time>2013-03-24T11:36:23Z</time>
      </trkpt>
      <trkpt lat="59.504020386" lon="17.7561830133">
        <ele>0</ele>
        <time>2013-03-24T11:36:26Z</time>
      </trkpt>
      <trkpt lat="59.5041670692" lon="17.7561718654">
        <ele>0</ele>
        <time>2013-03-24T11:36:29Z</time>
      </trkpt>
      <trkpt lat="59.5043452684" lon="17.7561571971">
        <ele>0</ele>
        <time>2013-03-24T11:36:33Z</time>
      </trkpt>
      <trkpt lat="59.5045414887" lon="17.7561463006">
        <ele>0</ele>
        <time>2013-03-24T11:36:37Z</time>
      </trkpt>
      <trkpt lat="59.5045923669" lon="17.7561240047">
        <ele>0</ele>
        <time>2013-03-24T11:36:38Z</time>
      </trkpt>
      <trkpt lat="59.5046380482" lon="17.7560934108">
        <ele>0</ele>
        <time>2013-03-24T11:36:39Z</time>
      </trkpt>
      <trkpt lat="59.5046762697" lon="17.7560596317">
        <ele>0</ele>
        <time>2013-03-24T11:36:40Z</time>
      </trkpt>
      <trkpt lat="59.5047132339" lon="17.7560307142">
        <ele>0</ele>
        <time>2013-03-24T11:36:41Z</time>
      </trkpt>
      <trkpt lat="59.5047487731" lon="17.7560024672">
        <ele>0</ele>
        <time>2013-03-24T11:36:42Z</time>
      </trkpt>
      <trkpt lat="59.5047817978" lon="17.7559800875">
        <ele>0</ele>
        <time>2013-03-24T11:36:43Z</time>
      </trkpt>
      <trkpt lat="59.504809961" lon="17.7559572887">
        <ele>0</ele>
        <time>2013-03-24T11:36:44Z</time>
      </trkpt>
      <trkpt lat="59.5048379565" lon="17.7559320592">
        <ele>0</ele>
        <time>2013-03-24T11:36:45Z</time>
      </trkpt>
      <trkpt lat="59.5048699754" lon="17.7558937539">
        <ele>0</ele>
        <time>2013-03-24T11:36:46Z</time>
      </trkpt>
      <trkpt lat="59.5048978871" lon="17.7558599749">
        <ele>0</ele>
        <time>2013-03-24T11:36:47Z</time>
      </trkpt>
      <trkpt lat="59.5049272238" lon="17.7558354997">
        <ele>0</ele>
        <time>2013-03-24T11:36:48Z</time>
      </trkpt>
      <trkpt lat="59.5049570633" lon="17.7558127848">
        <ele>0.2</ele>
        <time>2013-03-24T11:36:49Z</time>
      </trkpt>
      <trkpt lat="59.505021101" lon="17.7557585539">
        <ele>0.6</ele>
        <time>2013-03-24T11:36:51Z</time>
      </trkpt>
      <trkpt lat="59.5050574785" lon="17.7557238528">
        <ele>1</ele>
        <time>2013-03-24T11:36:52Z</time>
      </trkpt>
      <trkpt lat="59.5050956999" lon="17.7556800993">
        <ele>1.4</ele>
        <time>2013-03-24T11:36:53Z</time>
      </trkpt>
      <trkpt lat="59.5051291437" lon="17.7556379383">
        <ele>1.8</ele>
        <time>2013-03-24T11:36:54Z</time>
      </trkpt>
      <trkpt lat="59.5051601568" lon="17.7555935143">
        <ele>2.2</ele>
        <time>2013-03-24T11:36:55Z</time>
      </trkpt>
      <trkpt lat="59.5052081012" lon="17.7554848849">
        <ele>2.6</ele>
        <time>2013-03-24T11:36:57Z</time>
      </trkpt>
      <trkpt lat="59.505223943" lon="17.7554280556">
        <ele>3.2</ele>
        <time>2013-03-24T11:36:58Z</time>
      </trkpt>
      <trkpt lat="59.5052400363" lon="17.7553700528">
        <ele>3.6</ele>
        <time>2013-03-24T11:36:59Z</time>
      </trkpt>
      <trkpt lat="59.5052559619" lon="17.7553151514">
        <ele>4</ele>
        <time>2013-03-24T11:37:00Z</time>
      </trkpt>
      <trkpt lat="59.5052723066" lon="17.7552610043">
        <ele>4.4</ele>
        <time>2013-03-24T11:37:01Z</time>
      </trkpt>
      <trkpt lat="59.5053367634" lon="17.7551134829">
        <ele>5</ele>
        <time>2013-03-24T11:37:04Z</time>
      </trkpt>
      <trkpt lat="59.5053674411" lon="17.7550843139">
        <ele>5.4</ele>
        <time>2013-03-24T11:37:05Z</time>
      </trkpt>
      <trkpt lat="59.5054037348" lon="17.7550554801">
        <ele>5.8</ele>
        <time>2013-03-24T11:37:06Z</time>
      </trkpt>
      <trkpt lat="59.5054381006" lon="17.7550178454">
        <ele>6.4</ele>
        <time>2013-03-24T11:37:07Z</time>
      </trkpt>
      <trkpt lat="59.5054719634" lon="17.7549728346">
        <ele>6.8</ele>
        <time>2013-03-24T11:37:08Z</time>
      </trkpt>
      <trkpt lat="59.5055882204" lon="17.7546634587">
        <ele>6.8</ele>
        <time>2013-03-24T11:37:13Z</time>
      </trkpt>
      <trkpt lat="59.5056281182" lon="17.7545168592">
        <ele>6.8</ele>
        <time>2013-03-24T11:37:15Z</time>
      </trkpt>
      <trkpt lat="59.5057175531" lon="17.7542076509">
        <ele>6.8</ele>
        <time>2013-03-24T11:37:19Z</time>
      </trkpt>
      <trkpt lat="59.5058854426" lon="17.7535749013">
        <ele>7.6</ele>
        <time>2013-03-24T11:37:27Z</time>
      </trkpt>
      <trkpt lat="59.505906062" lon="17.7534913338">
        <ele>8</ele>
        <time>2013-03-24T11:37:28Z</time>
      </trkpt>
      <trkpt lat="59.505926933" lon="17.753409275">
        <ele>8.4</ele>
        <time>2013-03-24T11:37:29Z</time>
      </trkpt>
      <trkpt lat="59.5059494803" lon="17.7533211812">
        <ele>8.8</ele>
        <time>2013-03-24T11:37:30Z</time>
      </trkpt>
      <trkpt lat="59.5060434414" lon="17.7529330154">
        <ele>8.8</ele>
        <time>2013-03-24T11:37:34Z</time>
      </trkpt>
      <trkpt lat="59.5062241551" lon="17.7522031195">
        <ele>8.8</ele>
        <time>2013-03-24T11:37:41Z</time>
      </trkpt>
      <trkpt lat="59.5063969899" lon="17.7515831942">
        <ele>8.8</ele>
        <time>2013-03-24T11:37:47Z</time>
      </trkpt>
      <trkpt lat="59.506493298" lon="17.7511692122">
        <ele>8.8</ele>
        <time>2013-03-24T11:37:51Z</time>
      </trkpt>
      <trkpt lat="59.5065133307" lon="17.7510597446">
        <ele>9.6</ele>
        <time>2013-03-24T11:37:52Z</time>
      </trkpt>
      <trkpt lat="59.5065330282" lon="17.7509510313">
        <ele>10</ele>
        <time>2013-03-24T11:37:53Z</time>
      </trkpt>
      <trkpt lat="59.5065539829" lon="17.7508414799">
        <ele>10.4</ele>
        <time>2013-03-24T11:37:54Z</time>
      </trkpt>
      <trkpt lat="59.506575692" lon="17.7507271508">
        <ele>10.8</ele>
        <time>2013-03-24T11:37:55Z</time>
      </trkpt>
      <trkpt lat="59.5067251413" lon="17.7499055569">
        <ele>10.8</ele>
        <time>2013-03-24T11:38:02Z</time>
      </trkpt>
      <trkpt lat="59.5068571562" lon="17.7489025788">
        <ele>10.8</ele>
        <time>2013-03-24T11:38:10Z</time>
      </trkpt>
      <trkpt lat="59.5069299111" lon="17.748067071">
        <ele>10.8</ele>
        <time>2013-03-24T11:38:17Z</time>
      </trkpt>
      <trkpt lat="59.5069414781" lon="17.747948048">
        <ele>10.8</ele>
        <time>2013-03-24T11:38:18Z</time>
      </trkpt>
      <trkpt lat="59.5069801187" lon="17.7475416097">
        <ele>10.8</ele>
        <time>2013-03-24T11:38:22Z</time>
      </trkpt>
      <trkpt lat="59.5070759238" lon="17.747336756">
        <ele>10.8</ele>
        <time>2013-03-24T11:38:25Z</time>
      </trkpt>
      <trkpt lat="59.5072391194" lon="17.7473882209">
        <ele>10.8</ele>
        <time>2013-03-24T11:38:28Z</time>
      </trkpt>
      <trkpt lat="59.5076251059" lon="17.7475644084">
        <ele>10.8</ele>
        <time>2013-03-24T11:38:34Z</time>
      </trkpt>
      <trkpt lat="59.5081649841" lon="17.7478478843">
        <ele>10.8</ele>
        <time>2013-03-24T11:38:42Z</time>
      </trkpt>
      <trkpt lat="59.5082318717" lon="17.747886944">
        <ele>10.8</ele>
        <time>2013-03-24T11:38:43Z</time>
      </trkpt>
      <trkpt lat="59.5087539802" lon="17.7482514728">
        <ele>10.8</ele>
        <time>2013-03-24T11:38:51Z</time>
      </trkpt>
      <trkpt lat="59.5089987317" lon="17.7484423287">
        <ele>10.8</ele>
        <time>2013-03-24T11:38:55Z</time>
      </trkpt>
      <trkpt lat="59.5092977141" lon="17.7486952944">
        <ele>10.8</ele>
        <time>2013-03-24T11:39:00Z</time>
      </trkpt>
      <trkpt lat="59.5097863788" lon="17.7491573885">
        <ele>10.8</ele>
        <time>2013-03-24T11:39:08Z</time>
      </trkpt>
      <trkpt lat="59.5102702659" lon="17.7497059001">
        <ele>10.8</ele>
        <time>2013-03-24T11:39:16Z</time>
      </trkpt>
      <trkpt lat="59.5107391494" lon="17.7503095645">
        <ele>10.8</ele>
        <time>2013-03-24T11:39:24Z</time>
      </trkpt>
      <trkpt lat="59.5111196877" lon="17.7509107144">
        <ele>10.8</ele>
        <time>2013-03-24T11:39:31Z</time>
      </trkpt>
      <trkpt lat="59.5114896647" lon="17.751582356">
        <ele>10.4</ele>
        <time>2013-03-24T11:39:38Z</time>
      </trkpt>
      <trkpt lat="59.5115420516" lon="17.7516841961">
        <ele>10</ele>
        <time>2013-03-24T11:39:39Z</time>
      </trkpt>
      <trkpt lat="59.5115966178" lon="17.7517852818">
        <ele>9.6</ele>
        <time>2013-03-24T11:39:40Z</time>
      </trkpt>
      <trkpt lat="59.5116553749" lon="17.751885697">
        <ele>9.2</ele>
        <time>2013-03-24T11:39:41Z</time>
      </trkpt>
      <trkpt lat="59.5117110307" lon="17.7519825079">
        <ele>8.8</ele>
        <time>2013-03-24T11:39:42Z</time>
      </trkpt>
      <trkpt lat="59.5119898127" lon="17.7524418361">
        <ele>8.8</ele>
        <time>2013-03-24T11:39:47Z</time>
      </trkpt>
      <trkpt lat="59.5123022061" lon="17.7530465063">
        <ele>8.8</ele>
        <time>2013-03-24T11:39:53Z</time>
      </trkpt>
      <trkpt lat="59.5123990171" lon="17.7532600771">
        <ele>8</ele>
        <time>2013-03-24T11:39:55Z</time>
      </trkpt>
      <trkpt lat="59.5124480512" lon="17.7533693771">
        <ele>7.6</ele>
        <time>2013-03-24T11:39:56Z</time>
      </trkpt>
      <trkpt lat="59.512498594" lon="17.7534920881">
        <ele>7</ele>
        <time>2013-03-24T11:39:57Z</time>
      </trkpt>
      <trkpt lat="59.5125479634" lon="17.7536078422">
        <ele>6.6</ele>
        <time>2013-03-24T11:39:58Z</time>
      </trkpt>
      <trkpt lat="59.5126411701" lon="17.7538502467">
        <ele>6.6</ele>
        <time>2013-03-24T11:40:00Z</time>
      </trkpt>
      <trkpt lat="59.5129229696" lon="17.7545694976">
        <ele>6.2</ele>
        <time>2013-03-24T11:40:06Z</time>
      </trkpt>
      <trkpt lat="59.5129680642" lon="17.7546857545">
        <ele>5.8</ele>
        <time>2013-03-24T11:40:07Z</time>
      </trkpt>
      <trkpt lat="59.5130095547" lon="17.7548043584">
        <ele>5.4</ele>
        <time>2013-03-24T11:40:08Z</time>
      </trkpt>
      <trkpt lat="59.5130517994" lon="17.7549248063">
        <ele>5</ele>
        <time>2013-03-24T11:40:09Z</time>
      </trkpt>
      <trkpt lat="59.5130921164" lon="17.7550469306">
        <ele>4.6</ele>
        <time>2013-03-24T11:40:10Z</time>
      </trkpt>
      <trkpt lat="59.5132484388" lon="17.7555446478">
        <ele>4.6</ele>
        <time>2013-03-24T11:40:14Z</time>
      </trkpt>
      <trkpt lat="59.5134695533" lon="17.7562890443">
        <ele>4.2</ele>
        <time>2013-03-24T11:40:20Z</time>
      </trkpt>
      <trkpt lat="59.5135028295" lon="17.7564172874">
        <ele>3.8</ele>
        <time>2013-03-24T11:40:21Z</time>
      </trkpt>
      <trkpt lat="59.5135366923" lon="17.7565432674">
        <ele>3.2</ele>
        <time>2013-03-24T11:40:22Z</time>
      </trkpt>
      <trkpt lat="59.5135718963" lon="17.7566673195">
        <ele>2.8</ele>
        <time>2013-03-24T11:40:23Z</time>
      </trkpt>
      <trkpt lat="59.5136062621" lon="17.7567950596">
        <ele>2.4</ele>
        <time>2013-03-24T11:40:24Z</time>
      </trkpt>
      <trkpt lat="59.513762836" lon="17.7574568945">
        <ele>2.4</ele>
        <time>2013-03-24T11:40:29Z</time>
      </trkpt>
      <trkpt lat="59.5139334915" lon="17.7582801647">
        <ele>2.4</ele>
        <time>2013-03-24T11:40:35Z</time>
      </trkpt>
      <trkpt lat="59.514066177" lon="17.7591160078">
        <ele>2</ele>
        <time>2013-03-24T11:40:41Z</time>
      </trkpt>
      <trkpt lat="59.5140876346" lon="17.7592612661">
        <ele>1.6</ele>
        <time>2013-03-24T11:40:42Z</time>
      </trkpt>
      <trkpt lat="59.5141090085" lon="17.7593976396">
        <ele>1.2</ele>
        <time>2013-03-24T11:40:43Z</time>
      </trkpt>
      <trkpt lat="59.5141334836" lon="17.7595297383">
        <ele>0.4</ele>
        <time>2013-03-24T11:40:44Z</time>
      </trkpt>
      <trkpt lat="59.5142691866" lon="17.7603185589">
        <ele>0.4</ele>
        <time>2013-03-24T11:40:50Z</time>
      </trkpt>
      <trkpt lat="59.5144430272" lon="17.7613683919">
        <ele>0.4</ele>
        <time>2013-03-24T11:40:58Z</time>
      </trkpt>
      <trkpt lat="59.5146031215" lon="17.7624060711">
        <ele>0.4</ele>
        <time>2013-03-24T11:41:06Z</time>
      </trkpt>
      <trkpt lat="59.5146203882" lon="17.7625327217">
        <ele>0.4</ele>
        <time>2013-03-24T11:41:07Z</time>
      </trkpt>
      <trkpt lat="59.5147928877" lon="17.7636471791">
        <ele>0.4</ele>
        <time>2013-03-24T11:41:16Z</time>
      </trkpt>
      <trkpt lat="59.51495206" lon="17.7647089982">
        <ele>0.4</ele>
        <time>2013-03-24T11:41:25Z</time>
      </trkpt>
      <trkpt lat="59.5150991623" lon="17.7656617687">
        <ele>0.4</ele>
        <time>2013-03-24T11:41:33Z</time>
      </trkpt>
      <trkpt lat="59.5151336119" lon="17.7659000662">
        <ele>0.4</ele>
        <time>2013-03-24T11:41:35Z</time>
      </trkpt>
      <trkpt lat="59.5152903535" lon="17.766939757">
        <ele>0.4</ele>
        <time>2013-03-24T11:41:44Z</time>
      </trkpt>
      <trkpt lat="59.5154250506" lon="17.767780294">
        <ele>0.4</ele>
        <time>2013-03-24T11:41:52Z</time>
      </trkpt>
      <trkpt lat="59.5155048463" lon="17.7681603293">
        <ele>0.4</ele>
        <time>2013-03-24T11:41:56Z</time>
      </trkpt>
      <trkpt lat="59.5155419781" lon="17.7682296476">
        <ele>0.4</ele>
        <time>2013-03-24T11:41:57Z</time>
      </trkpt>
      <trkpt lat="59.515686063" lon="17.768308186">
        <ele>0.4</ele>
        <time>2013-03-24T11:42:00Z</time>
      </trkpt>
      <trkpt lat="59.5157333369" lon="17.7683363492">
        <ele>0.4</ele>
        <time>2013-03-24T11:42:01Z</time>
      </trkpt>
      <trkpt lat="59.5158128811" lon="17.7684353394">
        <ele>0.4</ele>
        <time>2013-03-24T11:42:03Z</time>
      </trkpt>
      <trkpt lat="59.5159122904" lon="17.7687204079">
        <ele>0.4</ele>
        <time>2013-03-24T11:42:08Z</time>
      </trkpt>
      <trkpt lat="59.5159134639" lon="17.7687253532">
        <ele>0.4</ele>
        <time>2013-03-24T11:42:12Z</time>
      </trkpt>
      <trkpt lat="59.5158520246" lon="17.7685456453">
        <ele>0.4</ele>
        <time>2013-03-24T11:42:26Z</time>
      </trkpt>
      <trkpt lat="59.5158162339" lon="17.7684525223">
        <ele>0.4</ele>
        <time>2013-03-24T11:42:28Z</time>
      </trkpt>
      <trkpt lat="59.5156732387" lon="17.768311455">
        <ele>0.4</ele>
        <time>2013-03-24T11:42:33Z</time>
      </trkpt>
      <trkpt lat="59.5156372803" lon="17.7683039113">
        <ele>0.4</ele>
        <time>2013-03-24T11:42:34Z</time>
      </trkpt>
      <trkpt lat="59.5156055967" lon="17.7682644325">
        <ele>0.4</ele>
        <time>2013-03-24T11:42:35Z</time>
      </trkpt>
      <trkpt lat="59.5155778526" lon="17.7681184198">
        <ele>0.4</ele>
        <time>2013-03-24T11:42:37Z</time>
      </trkpt>
      <trkpt lat="59.5155553891" lon="17.7679333475">
        <ele>0.4</ele>
        <time>2013-03-24T11:42:39Z</time>
      </trkpt>
      <trkpt lat="59.5155180059" lon="17.7676590917">
        <ele>0.4</ele>
        <time>2013-03-24T11:42:42Z</time>
      </trkpt>
      <trkpt lat="59.5154867414" lon="17.7674901126">
        <ele>0.4</ele>
        <time>2013-03-24T11:42:44Z</time>
      </trkpt>
      <trkpt lat="59.5154386293" lon="17.7672464508">
        <ele>0.4</ele>
        <time>2013-03-24T11:42:47Z</time>
      </trkpt>
      <trkpt lat="59.5153663773" lon="17.7668149505">
        <ele>0.4</ele>
        <time>2013-03-24T11:42:51Z</time>
      </trkpt>
      <trkpt lat="59.515238721" lon="17.7659502737">
        <ele>0.4</ele>
        <time>2013-03-24T11:42:58Z</time>
      </trkpt>
      <trkpt lat="59.5150797163" lon="17.7649103314">
        <ele>0.4</ele>
        <time>2013-03-24T11:43:06Z</time>
      </trkpt>
      <trkpt lat="59.5149171075" lon="17.7638535415">
        <ele>0.4</ele>
        <time>2013-03-24T11:43:14Z</time>
      </trkpt>
      <trkpt lat="59.5147469549" lon="17.7627551773">
        <ele>0.4</ele>
        <time>2013-03-24T11:43:22Z</time>
      </trkpt>
      <trkpt lat="59.5147057998" lon="17.7624722043">
        <ele>0.4</ele>
        <time>2013-03-24T11:43:24Z</time>
      </trkpt>
      <trkpt lat="59.5145107529" lon="17.7613637819">
        <ele>0.4</ele>
        <time>2013-03-24T11:43:32Z</time>
      </trkpt>
      <trkpt lat="59.5143745471" lon="17.7604613027">
        <ele>0.4</ele>
        <time>2013-03-24T11:43:39Z</time>
      </trkpt>
      <trkpt lat="59.5143665843" lon="17.7603422797">
        <ele>0.4</ele>
        <time>2013-03-24T11:43:40Z</time>
      </trkpt>
      <trkpt lat="59.5143975135" lon="17.7601375937">
        <ele>0.4</ele>
        <time>2013-03-24T11:43:42Z</time>
      </trkpt>
      <trkpt lat="59.5145690071" lon="17.7599577182">
        <ele>0.4</ele>
        <time>2013-03-24T11:43:45Z</time>
      </trkpt>
      <trkpt lat="59.5147068894" lon="17.7599054989">
        <ele>0.4</ele>
        <time>2013-03-24T11:43:47Z</time>
      </trkpt>
      <trkpt lat="59.5147763754" lon="17.7598728095">
        <ele>0</ele>
        <time>2013-03-24T11:43:48Z</time>
      </trkpt>
      <trkpt lat="59.51484737" lon="17.7598399525">
        <ele>0</ele>
        <time>2013-03-24T11:43:49Z</time>
      </trkpt>
      <trkpt lat="59.5149206279" lon="17.7598042456">
        <ele>0</ele>
        <time>2013-03-24T11:43:50Z</time>
      </trkpt>
      <trkpt lat="59.5149954782" lon="17.7597690416">
        <ele>0</ele>
        <time>2013-03-24T11:43:51Z</time>
      </trkpt>
      <trkpt lat="59.5150719211" lon="17.759737358">
        <ele>0</ele>
        <time>2013-03-24T11:43:52Z</time>
      </trkpt>
      <trkpt lat="59.5154524594" lon="17.7595598294">
        <ele>0</ele>
        <time>2013-03-24T11:43:57Z</time>
      </trkpt>
      <trkpt lat="59.5155266392" lon="17.7595258827">
        <ele>0</ele>
        <time>2013-03-24T11:43:58Z</time>
      </trkpt>
      <trkpt lat="59.5155996456" lon="17.7594905949">
        <ele>0</ele>
        <time>2013-03-24T11:43:59Z</time>
      </trkpt>
      <trkpt lat="59.5156812015" lon="17.7594542174">
        <ele>0</ele>
        <time>2013-03-24T11:44:00Z</time>
      </trkpt>
      <trkpt lat="59.5157535373" lon="17.7594196002">
        <ele>0</ele>
        <time>2013-03-24T11:44:01Z</time>
      </trkpt>
      <trkpt lat="59.5158293096" lon="17.7593855697">
        <ele>0</ele>
        <time>2013-03-24T11:44:02Z</time>
      </trkpt>
      <trkpt lat="59.5159044953" lon="17.759352545">
        <ele>0</ele>
        <time>2013-03-24T11:44:03Z</time>
      </trkpt>
      <trkpt lat="59.5159803515" lon="17.7593161675">
        <ele>0</ele>
        <time>2013-03-24T11:44:04Z</time>
      </trkpt>
      <trkpt lat="59.516055118" lon="17.7592735875">
        <ele>0</ele>
        <time>2013-03-24T11:44:05Z</time>
      </trkpt>
      <trkpt lat="59.5161309742" lon="17.7592358689">
        <ele>0</ele>
        <time>2013-03-24T11:44:06Z</time>
      </trkpt>
      <trkpt lat="59.5166586148" lon="17.7589707494">
        <ele>0</ele>
        <time>2013-03-24T11:44:13Z</time>
      </trkpt>
      <trkpt lat="59.5167322917" lon="17.758934372">
        <ele>0</ele>
        <time>2013-03-24T11:44:14Z</time>
      </trkpt>
      <trkpt lat="59.5172667217" lon="17.7586700907">
        <ele>0</ele>
        <time>2013-03-24T11:44:21Z</time>
      </trkpt>
      <trkpt lat="59.5178558854" lon="17.7583996906">
        <ele>0</ele>
        <time>2013-03-24T11:44:29Z</time>
      </trkpt>
      <trkpt lat="59.5183606434" lon="17.7581535142">
        <ele>0</ele>
        <time>2013-03-24T11:44:36Z</time>
      </trkpt>
      <trkpt lat="59.5188193848" lon="17.7579260294">
        <ele>0</ele>
        <time>2013-03-24T11:44:42Z</time>
      </trkpt>
      <trkpt lat="59.5192852508" lon="17.7576894922">
        <ele>0</ele>
        <time>2013-03-24T11:44:48Z</time>
      </trkpt>
      <trkpt lat="59.5197543019" lon="17.7574495184">
        <ele>0</ele>
        <time>2013-03-24T11:44:54Z</time>
      </trkpt>
      <trkpt lat="59.5198318345" lon="17.7574127219">
        <ele>0</ele>
        <time>2013-03-24T11:44:55Z</time>
      </trkpt>
      <trkpt lat="59.5201378577" lon="17.7572664577">
        <ele>0</ele>
        <time>2013-03-24T11:44:59Z</time>
      </trkpt>
      <trkpt lat="59.5206757242" lon="17.7569779527">
        <ele>0</ele>
        <time>2013-03-24T11:45:06Z</time>
      </trkpt>
      <trkpt lat="59.5207486467" lon="17.7569298406">
        <ele>0</ele>
        <time>2013-03-24T11:45:07Z</time>
      </trkpt>
      <trkpt lat="59.5212524827" lon="17.7565829138">
        <ele>0</ele>
        <time>2013-03-24T11:45:14Z</time>
      </trkpt>
      <trkpt lat="59.52179278" lon="17.7561178859">
        <ele>0</ele>
        <time>2013-03-24T11:45:22Z</time>
      </trkpt>
      <trkpt lat="59.5222163174" lon="17.755681608">
        <ele>0</ele>
        <time>2013-03-24T11:45:29Z</time>
      </trkpt>
      <trkpt lat="59.5224464844" lon="17.7554370242">
        <ele>0</ele>
        <time>2013-03-24T11:45:33Z</time>
      </trkpt>
      <trkpt lat="59.5225001286" lon="17.7553716454">
        <ele>0</ele>
        <time>2013-03-24T11:45:34Z</time>
      </trkpt>
      <trkpt lat="59.5225508391" lon="17.7553031653">
        <ele>0</ele>
        <time>2013-03-24T11:45:35Z</time>
      </trkpt>
      <trkpt lat="59.5226029745" lon="17.7552376188">
        <ele>0</ele>
        <time>2013-03-24T11:45:36Z</time>
      </trkpt>
      <trkpt lat="59.5226579597" lon="17.7551789455">
        <ele>0</ele>
        <time>2013-03-24T11:45:37Z</time>
      </trkpt>
      <trkpt lat="59.5229740412" lon="17.7547894386">
        <ele>0</ele>
        <time>2013-03-24T11:45:43Z</time>
      </trkpt>
      <trkpt lat="59.5232916314" lon="17.7544080622">
        <ele>0</ele>
        <time>2013-03-24T11:45:49Z</time>
      </trkpt>
      <trkpt lat="59.523772501" lon="17.7538205748">
        <ele>0</ele>
        <time>2013-03-24T11:45:58Z</time>
      </trkpt>
      <trkpt lat="59.5238277377" lon="17.7537556151">
        <ele>0</ele>
        <time>2013-03-24T11:45:59Z</time>
      </trkpt>
      <trkpt lat="59.5242028277" lon="17.7533015675">
        <ele>0</ele>
        <time>2013-03-24T11:46:06Z</time>
      </trkpt>
      <trkpt lat="59.5244838728" lon="17.7529876654">
        <ele>0</ele>
        <time>2013-03-24T11:46:11Z</time>
      </trkpt>
      <trkpt lat="59.5245392772" lon="17.7529204425">
        <ele>0</ele>
        <time>2013-03-24T11:46:12Z</time>
      </trkpt>
      <trkpt lat="59.5245968608" lon="17.7528568239">
        <ele>0</ele>
        <time>2013-03-24T11:46:13Z</time>
      </trkpt>
      <trkpt lat="59.5246527681" lon="17.7527958875">
        <ele>0</ele>
        <time>2013-03-24T11:46:14Z</time>
      </trkpt>
      <trkpt lat="59.5247086754" lon="17.7527398964">
        <ele>0</ele>
        <time>2013-03-24T11:46:15Z</time>
      </trkpt>
      <trkpt lat="59.5250328873" lon="17.7524330351">
        <ele>0</ele>
        <time>2013-03-24T11:46:21Z</time>
      </trkpt>
      <trkpt lat="59.5254145152" lon="17.7521005251">
        <ele>0</ele>
        <time>2013-03-24T11:46:28Z</time>
      </trkpt>
      <trkpt lat="59.5256473644" lon="17.7519143631">
        <ele>0</ele>
        <time>2013-03-24T11:46:32Z</time>
      </trkpt>
      <trkpt lat="59.5257046128" lon="17.7518711963">
        <ele>0</ele>
        <time>2013-03-24T11:46:33Z</time>
      </trkpt>
      <trkpt lat="59.5257626993" lon="17.7518268561">
        <ele>0</ele>
        <time>2013-03-24T11:46:34Z</time>
      </trkpt>
      <trkpt lat="59.5258212888" lon="17.7517725413">
        <ele>0</ele>
        <time>2013-03-24T11:46:35Z</time>
      </trkpt>
      <trkpt lat="59.525878621" lon="17.7517257703">
        <ele>0.2</ele>
        <time>2013-03-24T11:46:36Z</time>
      </trkpt>
      <trkpt lat="59.5260455884" lon="17.7515955994">
        <ele>0.2</ele>
        <time>2013-03-24T11:46:39Z</time>
      </trkpt>
      <trkpt lat="59.5260960475" lon="17.751567101">
        <ele>0.6</ele>
        <time>2013-03-24T11:46:40Z</time>
      </trkpt>
      <trkpt lat="59.5261455007" lon="17.7515769916">
        <ele>1</ele>
        <time>2013-03-24T11:46:41Z</time>
      </trkpt>
      <trkpt lat="59.5261942834" lon="17.7516194879">
        <ele>1.4</ele>
        <time>2013-03-24T11:46:42Z</time>
      </trkpt>
      <trkpt lat="59.5262343488" lon="17.7516929133">
        <ele>1.8</ele>
        <time>2013-03-24T11:46:43Z</time>
      </trkpt>
      <trkpt lat="59.5262592431" lon="17.7517915683">
        <ele>2.2</ele>
        <time>2013-03-24T11:46:44Z</time>
      </trkpt>
      <trkpt lat="59.5262742467" lon="17.7518941627">
        <ele>2.2</ele>
        <time>2013-03-24T11:46:45Z</time>
      </trkpt>
      <trkpt lat="59.5262854784" lon="17.7519964219">
        <ele>3</ele>
        <time>2013-03-24T11:46:46Z</time>
      </trkpt>
      <trkpt lat="59.5263013202" lon="17.7520998545">
        <ele>3.6</ele>
        <time>2013-03-24T11:46:47Z</time>
      </trkpt>
      <trkpt lat="59.5263160724" lon="17.7522011917">
        <ele>4.2</ele>
        <time>2013-03-24T11:46:48Z</time>
      </trkpt>
      <trkpt lat="59.5263284776" lon="17.7523037023">
        <ele>5</ele>
        <time>2013-03-24T11:46:49Z</time>
      </trkpt>
      <trkpt lat="59.5263449061" lon="17.7524081408">
        <ele>5.6</ele>
        <time>2013-03-24T11:46:50Z</time>
      </trkpt>
      <trkpt lat="59.5263669505" lon="17.7525119087">
        <ele>5.6</ele>
        <time>2013-03-24T11:46:51Z</time>
      </trkpt>
      <trkpt lat="59.5264816149" lon="17.7528935366">
        <ele>5.6</ele>
        <time>2013-03-24T11:46:55Z</time>
      </trkpt>
      <trkpt lat="59.5265179085" lon="17.7529755955">
        <ele>5</ele>
        <time>2013-03-24T11:46:56Z</time>
      </trkpt>
      <trkpt lat="59.5265526096" lon="17.7530605041">
        <ele>4.6</ele>
        <time>2013-03-24T11:46:57Z</time>
      </trkpt>
      <trkpt lat="59.5265858019" lon="17.7531503581">
        <ele>4.2</ele>
        <time>2013-03-24T11:46:58Z</time>
      </trkpt>
      <trkpt lat="59.5266235205" lon="17.7532376136">
        <ele>3.6</ele>
        <time>2013-03-24T11:46:59Z</time>
      </trkpt>
      <trkpt lat="59.5266648432" lon="17.7533272162">
        <ele>3.2</ele>
        <time>2013-03-24T11:47:00Z</time>
      </trkpt>
      <trkpt lat="59.5267898173" lon="17.7535720515">
        <ele>3.2</ele>
        <time>2013-03-24T11:47:03Z</time>
      </trkpt>
      <trkpt lat="59.527082178" lon="17.7541291963">
        <ele>3.2</ele>
        <time>2013-03-24T11:47:10Z</time>
      </trkpt>
      <trkpt lat="59.527357272" lon="17.7546841619">
        <ele>3.2</ele>
        <time>2013-03-24T11:47:17Z</time>
      </trkpt>
      <trkpt lat="59.5275560906" lon="17.7550984793">
        <ele>3.2</ele>
        <time>2013-03-24T11:47:22Z</time>
      </trkpt>
      <trkpt lat="59.5278114033" lon="17.7555981243">
        <ele>3.2</ele>
        <time>2013-03-24T11:47:28Z</time>
      </trkpt>
      <trkpt lat="59.5281201925" lon="17.7562332209">
        <ele>3.2</ele>
        <time>2013-03-24T11:47:35Z</time>
      </trkpt>
      <trkpt lat="59.528315407" lon="17.7566389048">
        <ele>3.6</ele>
        <time>2013-03-24T11:47:40Z</time>
      </trkpt>
      <trkpt lat="59.5283547181" lon="17.7567197902">
        <ele>4</ele>
        <time>2013-03-24T11:47:41Z</time>
      </trkpt>
      <trkpt lat="59.5283960408" lon="17.7567968198">
        <ele>4.4</ele>
        <time>2013-03-24T11:47:42Z</time>
      </trkpt>
      <trkpt lat="59.5284350167" lon="17.756882902">
        <ele>5.2</ele>
        <time>2013-03-24T11:47:43Z</time>
      </trkpt>
      <trkpt lat="59.528690497" lon="17.7574097044">
        <ele>5.2</ele>
        <time>2013-03-24T11:47:49Z</time>
      </trkpt>
      <trkpt lat="59.5290243481" lon="17.7580909014">
        <ele>5.2</ele>
        <time>2013-03-24T11:47:57Z</time>
      </trkpt>
      <trkpt lat="59.529370772" lon="17.7587892813">
        <ele>5.2</ele>
        <time>2013-03-24T11:48:05Z</time>
      </trkpt>
      <trkpt lat="59.5296390766" lon="17.7593459233">
        <ele>5.2</ele>
        <time>2013-03-24T11:48:11Z</time>
      </trkpt>
      <trkpt lat="59.5300549027" lon="17.7601562854">
        <ele>5.2</ele>
        <time>2013-03-24T11:48:20Z</time>
      </trkpt>
      <trkpt lat="59.5303014144" lon="17.7607910466">
        <ele>5.2</ele>
        <time>2013-03-24T11:48:27Z</time>
      </trkpt>
      <trkpt lat="59.5304244606" lon="17.7612185235">
        <ele>5.2</ele>
        <time>2013-03-24T11:48:32Z</time>
      </trkpt>
      <trkpt lat="59.5304620116" lon="17.7613001633">
        <ele>5.2</ele>
        <time>2013-03-24T11:48:33Z</time>
      </trkpt>
      <trkpt lat="59.5305954514" lon="17.7614876664">
        <ele>5.2</ele>
        <time>2013-03-24T11:48:36Z</time>
      </trkpt>
      <trkpt lat="59.5306976268" lon="17.7615634387">
        <ele>5.2</ele>
        <time>2013-03-24T11:48:38Z</time>
      </trkpt>
      <trkpt lat="59.5309142989" lon="17.7617220243">
        <ele>5.2</ele>
        <time>2013-03-24T11:48:42Z</time>
      </trkpt>
      <trkpt lat="59.5311537698" lon="17.7619211782">
        <ele>5.2</ele>
        <time>2013-03-24T11:48:47Z</time>
      </trkpt>
      <trkpt lat="59.5314059811" lon="17.7621555362">
        <ele>5.2</ele>
        <time>2013-03-24T11:48:52Z</time>
      </trkpt>
      <trkpt lat="59.531462056" lon="17.7621789217">
        <ele>5.2</ele>
        <time>2013-03-24T11:48:53Z</time>
      </trkpt>
      <trkpt lat="59.5316753754" lon="17.7622515089">
        <ele>5.2</ele>
        <time>2013-03-24T11:48:57Z</time>
      </trkpt>
      <trkpt lat="59.5317268403" lon="17.7622568733">
        <ele>5.2</ele>
        <time>2013-03-24T11:48:58Z</time>
      </trkpt>
      <trkpt lat="59.5319430095" lon="17.7623207434">
        <ele>5.6</ele>
        <time>2013-03-24T11:49:02Z</time>
      </trkpt>
      <trkpt lat="59.5319985815" lon="17.7623373396">
        <ele>6.2</ele>
        <time>2013-03-24T11:49:03Z</time>
      </trkpt>
      <trkpt lat="59.5320573386" lon="17.7623530137">
        <ele>6.6</ele>
        <time>2013-03-24T11:49:04Z</time>
      </trkpt>
      <trkpt lat="59.532113162" lon="17.7623651675">
        <ele>7</ele>
        <time>2013-03-24T11:49:05Z</time>
      </trkpt>
      <trkpt lat="59.5321700751" lon="17.7623713701">
        <ele>7.4</ele>
        <time>2013-03-24T11:49:06Z</time>
      </trkpt>
      <trkpt lat="59.5323403953" lon="17.7623760639">
        <ele>7.4</ele>
        <time>2013-03-24T11:49:09Z</time>
      </trkpt>
      <trkpt lat="59.5326402159" lon="17.7624892196">
        <ele>7.4</ele>
        <time>2013-03-24T11:49:14Z</time>
      </trkpt>
      <trkpt lat="59.5330385238" lon="17.7627940693">
        <ele>7.4</ele>
        <time>2013-03-24T11:49:21Z</time>
      </trkpt>
      <trkpt lat="59.533470024" lon="17.7631779603">
        <ele>6.8</ele>
        <time>2013-03-24T11:49:28Z</time>
      </trkpt>
      <trkpt lat="59.5335382527" lon="17.7632181934">
        <ele>6.4</ele>
        <time>2013-03-24T11:49:29Z</time>
      </trkpt>
      <trkpt lat="59.5336068166" lon="17.7632626175">
        <ele>6</ele>
        <time>2013-03-24T11:49:30Z</time>
      </trkpt>
      <trkpt lat="59.5336759673" lon="17.7633036888">
        <ele>5.6</ele>
        <time>2013-03-24T11:49:31Z</time>
      </trkpt>
      <trkpt lat="59.5337457885" lon="17.7633445087">
        <ele>5</ele>
        <time>2013-03-24T11:49:32Z</time>
      </trkpt>
      <trkpt lat="59.5338134305" lon="17.763398991">
        <ele>5</ele>
        <time>2013-03-24T11:49:33Z</time>
      </trkpt>
      <trkpt lat="59.5338748698" lon="17.7634868333">
        <ele>5</ele>
        <time>2013-03-24T11:49:34Z</time>
      </trkpt>
      <trkpt lat="59.5339658134" lon="17.7638641026">
        <ele>5</ele>
        <time>2013-03-24T11:49:37Z</time>
      </trkpt>
      <trkpt lat="59.5339819905" lon="17.7641429685">
        <ele>5</ele>
        <time>2013-03-24T11:49:39Z</time>
      </trkpt>
      <trkpt lat="59.5340117462" lon="17.7644270311">
        <ele>5</ele>
        <time>2013-03-24T11:49:41Z</time>
      </trkpt>
      <trkpt lat="59.5340387359" lon="17.7645660868">
        <ele>5</ele>
        <time>2013-03-24T11:49:42Z</time>
      </trkpt>
      <trkpt lat="59.5341326132" lon="17.7649047994">
        <ele>5</ele>
        <time>2013-03-24T11:49:45Z</time>
      </trkpt>
      <trkpt lat="59.5342152587" lon="17.7652325316">
        <ele>5</ele>
        <time>2013-03-24T11:49:48Z</time>
      </trkpt>
      <trkpt lat="59.5342140015" lon="17.7655002495">
        <ele>5</ele>
        <time>2013-03-24T11:49:50Z</time>
      </trkpt>
      <trkpt lat="59.5341889396" lon="17.7656240502">
        <ele>4.6</ele>
        <time>2013-03-24T11:49:51Z</time>
      </trkpt>
      <trkpt lat="59.53415449" lon="17.7657245492">
        <ele>4.2</ele>
        <time>2013-03-24T11:49:52Z</time>
      </trkpt>
      <trkpt lat="59.5341152627" lon="17.7658067756">
        <ele>3.8</ele>
        <time>2013-03-24T11:49:53Z</time>
      </trkpt>
      <trkpt lat="59.534071593" lon="17.7658740823">
        <ele>3.4</ele>
        <time>2013-03-24T11:49:54Z</time>
      </trkpt>
      <trkpt lat="59.534027588" lon="17.7659465019">
        <ele>3</ele>
        <time>2013-03-24T11:49:55Z</time>
      </trkpt>
      <trkpt lat="59.5338971656" lon="17.7661773394">
        <ele>3</ele>
        <time>2013-03-24T11:49:58Z</time>
      </trkpt>
      <trkpt lat="59.533815945" lon="17.7663413732">
        <ele>2.6</ele>
        <time>2013-03-24T11:50:00Z</time>
      </trkpt>
      <trkpt lat="59.5337920566" lon="17.7664476557">
        <ele>2.2</ele>
        <time>2013-03-24T11:50:01Z</time>
      </trkpt>
      <trkpt lat="59.5337833394" lon="17.7665605599">
        <ele>1.8</ele>
        <time>2013-03-24T11:50:02Z</time>
      </trkpt>
      <trkpt lat="59.5337897935" lon="17.7666743861">
        <ele>1.4</ele>
        <time>2013-03-24T11:50:03Z</time>
      </trkpt>
      <trkpt lat="59.5338056353" lon="17.7667830993">
        <ele>1</ele>
        <time>2013-03-24T11:50:04Z</time>
      </trkpt>
      <trkpt lat="59.5338306972" lon="17.7668871187">
        <ele>1</ele>
        <time>2013-03-24T11:50:05Z</time>
      </trkpt>
      <trkpt lat="59.533967825" lon="17.7672387394">
        <ele>1</ele>
        <time>2013-03-24T11:50:09Z</time>
      </trkpt>
      <trkpt lat="59.5340058789" lon="17.7673373105">
        <ele>0.4</ele>
        <time>2013-03-24T11:50:10Z</time>
      </trkpt>
      <trkpt lat="59.5340431783" lon="17.7674399888">
        <ele>0</ele>
        <time>2013-03-24T11:50:11Z</time>
      </trkpt>
      <trkpt lat="59.5340807292" lon="17.7675488697">
        <ele>0</ele>
        <time>2013-03-24T11:50:12Z</time>
      </trkpt>
      <trkpt lat="59.5341224711" lon="17.7676687309">
        <ele>0</ele>
        <time>2013-03-24T11:50:13Z</time>
      </trkpt>
      <trkpt lat="59.534165135" lon="17.7677863289">
        <ele>0</ele>
        <time>2013-03-24T11:50:14Z</time>
      </trkpt>
      <trkpt lat="59.5342119898" lon="17.7679066092">
        <ele>0</ele>
        <time>2013-03-24T11:50:15Z</time>
      </trkpt>
      <trkpt lat="59.5342602695" lon="17.7680277277">
        <ele>0</ele>
        <time>2013-03-24T11:50:16Z</time>
      </trkpt>
      <trkpt lat="59.5343062024" lon="17.7681520312">
        <ele>0</ele>
        <time>2013-03-24T11:50:17Z</time>
      </trkpt>
      <trkpt lat="59.534353141" lon="17.7682776759">
        <ele>0</ele>
        <time>2013-03-24T11:50:18Z</time>
      </trkpt>
      <trkpt lat="59.5344015046" lon="17.7684113672">
        <ele>0</ele>
        <time>2013-03-24T11:50:19Z</time>
      </trkpt>
      <trkpt lat="59.5344546458" lon="17.7685580505">
        <ele>0</ele>
        <time>2013-03-24T11:50:20Z</time>
      </trkpt>
      <trkpt lat="59.5345009139" lon="17.7686898978">
        <ele>0</ele>
        <time>2013-03-24T11:50:21Z</time>
      </trkpt>
      <trkpt lat="59.5345492775" lon="17.7688244272">
        <ele>0</ele>
        <time>2013-03-24T11:50:22Z</time>
      </trkpt>
      <trkpt lat="59.534594875" lon="17.7689559393">
        <ele>0</ele>
        <time>2013-03-24T11:50:23Z</time>
      </trkpt>
      <trkpt lat="59.5348689631" lon="17.7696837396">
        <ele>0</ele>
        <time>2013-03-24T11:50:29Z</time>
      </trkpt>
      <trkpt lat="59.535193175" lon="17.7705093568">
        <ele>0</ele>
        <time>2013-03-24T11:50:37Z</time>
      </trkpt>
      <trkpt lat="59.5353971905" lon="17.7709978539">
        <ele>0</ele>
        <time>2013-03-24T11:50:43Z</time>
      </trkpt>
      <trkpt lat="59.5354343223" lon="17.7710711955">
        <ele>0</ele>
        <time>2013-03-24T11:50:44Z</time>
      </trkpt>
      <trkpt lat="59.5354706997" lon="17.7711442857">
        <ele>0</ele>
        <time>2013-03-24T11:50:45Z</time>
      </trkpt>
      <trkpt lat="59.5355068257" lon="17.7712245843">
        <ele>0</ele>
        <time>2013-03-24T11:50:46Z</time>
      </trkpt>
      <trkpt lat="59.5355425326" lon="17.7713032904">
        <ele>0</ele>
        <time>2013-03-24T11:50:47Z</time>
      </trkpt>
      <trkpt lat="59.5356251781" lon="17.7714514823">
        <ele>0</ele>
        <time>2013-03-24T11:50:49Z</time>
      </trkpt>
      <trkpt lat="59.5359394156" lon="17.7720321804">
        <ele>0</ele>
        <time>2013-03-24T11:50:56Z</time>
      </trkpt>
      <trkpt lat="59.5359927245" lon="17.7721095453">
        <ele>0</ele>
        <time>2013-03-24T11:50:57Z</time>
      </trkpt>
      <trkpt lat="59.5363812255" lon="17.7726096933">
        <ele>0</ele>
        <time>2013-03-24T11:51:05Z</time>
      </trkpt>
      <trkpt lat="59.5364674753" lon="17.7727194962">
        <ele>0</ele>
        <time>2013-03-24T11:51:07Z</time>
      </trkpt>
      <trkpt lat="59.5367020846" lon="17.7730216637">
        <ele>0</ele>
        <time>2013-03-24T11:51:12Z</time>
      </trkpt>
      <trkpt lat="59.5370169926" lon="17.7734134337">
        <ele>0</ele>
        <time>2013-03-24T11:51:19Z</time>
      </trkpt>
      <trkpt lat="59.5370559685" lon="17.7734738672">
        <ele>0</ele>
        <time>2013-03-24T11:51:20Z</time>
      </trkpt>
      <trkpt lat="59.5372101954" lon="17.7736866836">
        <ele>0</ele>
        <time>2013-03-24T11:51:24Z</time>
      </trkpt>
      <trkpt lat="59.5373745645" lon="17.7739017632">
        <ele>0</ele>
        <time>2013-03-24T11:51:28Z</time>
      </trkpt>
      <trkpt lat="59.5374154682" lon="17.7739518869">
        <ele>0</ele>
        <time>2013-03-24T11:51:29Z</time>
      </trkpt>
      <trkpt lat="59.5374560366" lon="17.77400419">
        <ele>0</ele>
        <time>2013-03-24T11:51:30Z</time>
      </trkpt>
      <trkpt lat="59.5374917434" lon="17.7740632824">
        <ele>0</ele>
        <time>2013-03-24T11:51:31Z</time>
      </trkpt>
      <trkpt lat="59.5375226727" lon="17.7741420722">
        <ele>0</ele>
        <time>2013-03-24T11:51:32Z</time>
      </trkpt>
      <trkpt lat="59.5375404423" lon="17.7743442437">
        <ele>0</ele>
        <time>2013-03-24T11:51:34Z</time>
      </trkpt>
      <trkpt lat="59.5375344911" lon="17.7744522864">
        <ele>0</ele>
        <time>2013-03-24T11:51:35Z</time>
      </trkpt>
      <trkpt lat="59.5375204095" lon="17.774561754">
        <ele>0</ele>
        <time>2013-03-24T11:51:36Z</time>
      </trkpt>
      <trkpt lat="59.5375096807" lon="17.7746720598">
        <ele>0</ele>
        <time>2013-03-24T11:51:37Z</time>
      </trkpt>
      <trkpt lat="59.5374998739" lon="17.7747858022">
        <ele>0</ele>
        <time>2013-03-24T11:51:38Z</time>
      </trkpt>
      <trkpt lat="59.5374900671" lon="17.7751443798">
        <ele>0</ele>
        <time>2013-03-24T11:51:41Z</time>
      </trkpt>
      <trkpt lat="59.5375381792" lon="17.7753706073">
        <ele>0</ele>
        <time>2013-03-24T11:51:43Z</time>
      </trkpt>
      <trkpt lat="59.5376986926" lon="17.7755541709">
        <ele>0</ele>
        <time>2013-03-24T11:51:46Z</time>
      </trkpt>
      <trkpt lat="59.5377576173" lon="17.7755918057">
        <ele>0</ele>
        <time>2013-03-24T11:51:47Z</time>
      </trkpt>
      <trkpt lat="59.5381120879" lon="17.7758404128">
        <ele>0</ele>
        <time>2013-03-24T11:51:53Z</time>
      </trkpt>
      <trkpt lat="59.5385944662" lon="17.7762253097">
        <ele>0</ele>
        <time>2013-03-24T11:52:01Z</time>
      </trkpt>
      <trkpt lat="59.5386548159" lon="17.7762761878">
        <ele>0</ele>
        <time>2013-03-24T11:52:02Z</time>
      </trkpt>
      <trkpt lat="59.5387193565" lon="17.776330754">
        <ele>0</ele>
        <time>2013-03-24T11:52:03Z</time>
      </trkpt>
      <trkpt lat="59.538780712" lon="17.7763835599">
        <ele>0</ele>
        <time>2013-03-24T11:52:04Z</time>
      </trkpt>
      <trkpt lat="59.5388417323" lon="17.7764354439">
        <ele>0</ele>
        <time>2013-03-24T11:52:05Z</time>
      </trkpt>
      <trkpt lat="59.5389016628" lon="17.7764876631">
        <ele>0</ele>
        <time>2013-03-24T11:52:06Z</time>
      </trkpt>
      <trkpt lat="59.5391460791" lon="17.776693355">
        <ele>0</ele>
        <time>2013-03-24T11:52:10Z</time>
      </trkpt>
      <trkpt lat="59.5395646711" lon="17.7770637511">
        <ele>0</ele>
        <time>2013-03-24T11:52:17Z</time>
      </trkpt>
      <trkpt lat="59.5399932377" lon="17.7774131087">
        <ele>0</ele>
        <time>2013-03-24T11:52:24Z</time>
      </trkpt>
      <trkpt lat="59.5400550961" lon="17.7774601312">
        <ele>0</ele>
        <time>2013-03-24T11:52:25Z</time>
      </trkpt>
      <trkpt lat="59.5401171222" lon="17.777506064">
        <ele>0</ele>
        <time>2013-03-24T11:52:26Z</time>
      </trkpt>
      <trkpt lat="59.5401807408" lon="17.7775483088">
        <ele>0</ele>
        <time>2013-03-24T11:52:27Z</time>
      </trkpt>
      <trkpt lat="59.5402449461" lon="17.7775831775">
        <ele>0</ele>
        <time>2013-03-24T11:52:28Z</time>
      </trkpt>
      <trkpt lat="59.5403117499" lon="17.7776113407">
        <ele>0</ele>
        <time>2013-03-24T11:52:29Z</time>
      </trkpt>
      <trkpt lat="59.5403803138" lon="17.7776392524">
        <ele>0</ele>
        <time>2013-03-24T11:52:30Z</time>
      </trkpt>
      <trkpt lat="59.540449716" lon="17.7776605424">
        <ele>0</ele>
        <time>2013-03-24T11:52:31Z</time>
      </trkpt>
      <trkpt lat="59.5405190343" lon="17.777671858">
        <ele>0</ele>
        <time>2013-03-24T11:52:32Z</time>
      </trkpt>
      <trkpt lat="59.5407370475" lon="17.7776920584">
        <ele>0</ele>
        <time>2013-03-24T11:52:35Z</time>
      </trkpt>
      <trkpt lat="59.5408105568" lon="17.7776838441">
        <ele>0</ele>
        <time>2013-03-24T11:52:36Z</time>
      </trkpt>
      <trkpt lat="59.5408847366" lon="17.7776703492">
        <ele>0</ele>
        <time>2013-03-24T11:52:37Z</time>
      </trkpt>
      <trkpt lat="59.5409551445" lon="17.7776586146">
        <ele>0</ele>
        <time>2013-03-24T11:52:38Z</time>
      </trkpt>
      <trkpt lat="59.5410269774" lon="17.7776495621">
        <ele>0</ele>
        <time>2013-03-24T11:52:39Z</time>
      </trkpt>
      <trkpt lat="59.5411009896" lon="17.7776632246">
        <ele>0</ele>
        <time>2013-03-24T11:52:40Z</time>
      </trkpt>
      <trkpt lat="59.5412189229" lon="17.7777964968">
        <ele>0</ele>
        <time>2013-03-24T11:52:42Z</time>
      </trkpt>
      <trkpt lat="59.5413168235" lon="17.7781513865">
        <ele>0</ele>
        <time>2013-03-24T11:52:45Z</time>
      </trkpt>
      <trkpt lat="59.5414086053" lon="17.7787391253">
        <ele>0</ele>
        <time>2013-03-24T11:52:50Z</time>
      </trkpt>
      <trkpt lat="59.5415251137" lon="17.7794266926">
        <ele>0</ele>
        <time>2013-03-24T11:52:57Z</time>
      </trkpt>
      <trkpt lat="59.5415415423" lon="17.7795193964">
        <ele>0</ele>
        <time>2013-03-24T11:52:58Z</time>
      </trkpt>
      <trkpt lat="59.5415609883" lon="17.779608496">
        <ele>0</ele>
        <time>2013-03-24T11:52:59Z</time>
      </trkpt>
      <trkpt lat="59.5415760757" lon="17.7797037144">
        <ele>0</ele>
        <time>2013-03-24T11:53:00Z</time>
      </trkpt>
      <trkpt lat="59.5415920013" lon="17.7797998547">
        <ele>0</ele>
        <time>2013-03-24T11:53:01Z</time>
      </trkpt>
      <trkpt lat="59.5416086813" lon="17.7798978392">
        <ele>0</ele>
        <time>2013-03-24T11:53:02Z</time>
      </trkpt>
      <trkpt lat="59.5416458131" lon="17.7800932212">
        <ele>0</ele>
        <time>2013-03-24T11:53:04Z</time>
      </trkpt>
      <trkpt lat="59.5417580467" lon="17.7807747535">
        <ele>0</ele>
        <time>2013-03-24T11:53:11Z</time>
      </trkpt>
      <trkpt lat="59.5417757325" lon="17.7808682117">
        <ele>0</ele>
        <time>2013-03-24T11:53:12Z</time>
      </trkpt>
      <trkpt lat="59.5417927478" lon="17.7809634301">
        <ele>0</ele>
        <time>2013-03-24T11:53:13Z</time>
      </trkpt>
      <trkpt lat="59.5418125291" lon="17.7810599896">
        <ele>0</ele>
        <time>2013-03-24T11:53:14Z</time>
      </trkpt>
      <trkpt lat="59.541831556" lon="17.7811589798">
        <ele>0</ele>
        <time>2013-03-24T11:53:15Z</time>
      </trkpt>
      <trkpt lat="59.5419253495" lon="17.7815799188">
        <ele>0</ele>
        <time>2013-03-24T11:53:19Z</time>
      </trkpt>
      <trkpt lat="59.5421240005" lon="17.7822929671">
        <ele>0</ele>
        <time>2013-03-24T11:53:26Z</time>
      </trkpt>
      <trkpt lat="59.5423883656" lon="17.7829655307">
        <ele>0</ele>
        <time>2013-03-24T11:53:33Z</time>
      </trkpt>
      <trkpt lat="59.5427785431" lon="17.7838099233">
        <ele>0</ele>
        <time>2013-03-24T11:53:42Z</time>
      </trkpt>
      <trkpt lat="59.5428207878" lon="17.7838992744">
        <ele>0</ele>
        <time>2013-03-24T11:53:43Z</time>
      </trkpt>
      <trkpt lat="59.5428657148" lon="17.7839877034">
        <ele>0</ele>
        <time>2013-03-24T11:53:44Z</time>
      </trkpt>
      <trkpt lat="59.5429092169" lon="17.7840811616">
        <ele>0</ele>
        <time>2013-03-24T11:53:45Z</time>
      </trkpt>
      <trkpt lat="59.5429486118" lon="17.7841802357">
        <ele>0</ele>
        <time>2013-03-24T11:53:46Z</time>
      </trkpt>
      <trkpt lat="59.5429906051" lon="17.7842700897">
        <ele>0</ele>
        <time>2013-03-24T11:53:47Z</time>
      </trkpt>
      <trkpt lat="59.5430280722" lon="17.7843583511">
        <ele>0</ele>
        <time>2013-03-24T11:53:48Z</time>
      </trkpt>
      <trkpt lat="59.5430643658" lon="17.7844608617">
        <ele>0</ele>
        <time>2013-03-24T11:53:49Z</time>
      </trkpt>
      <trkpt lat="59.5432681298" lon="17.7850599161">
        <ele>0</ele>
        <time>2013-03-24T11:53:55Z</time>
      </trkpt>
      <trkpt lat="59.5433574809" lon="17.7854052504">
        <ele>0</ele>
        <time>2013-03-24T11:53:58Z</time>
      </trkpt>
      <trkpt lat="59.5433825428" lon="17.7855206691">
        <ele>0</ele>
        <time>2013-03-24T11:53:59Z</time>
      </trkpt>
      <trkpt lat="59.5434038328" lon="17.7856412009">
        <ele>0</ele>
        <time>2013-03-24T11:54:00Z</time>
      </trkpt>
      <trkpt lat="59.5434218539" lon="17.7857692763">
        <ele>0</ele>
        <time>2013-03-24T11:54:01Z</time>
      </trkpt>
      <trkpt lat="59.5434433115" lon="17.785893496">
        <ele>0</ele>
        <time>2013-03-24T11:54:02Z</time>
      </trkpt>
      <trkpt lat="59.5434948602" lon="17.786154257">
        <ele>0</ele>
        <time>2013-03-24T11:54:04Z</time>
      </trkpt>
      <trkpt lat="59.5435193354" lon="17.7862852661">
        <ele>0</ele>
        <time>2013-03-24T11:54:05Z</time>
      </trkpt>
      <trkpt lat="59.5435460736" lon="17.7864166942">
        <ele>0</ele>
        <time>2013-03-24T11:54:06Z</time>
      </trkpt>
      <trkpt lat="59.5435736501" lon="17.7865512237">
        <ele>0</ele>
        <time>2013-03-24T11:54:07Z</time>
      </trkpt>
      <trkpt lat="59.5435999693" lon="17.7866907824">
        <ele>0</ele>
        <time>2013-03-24T11:54:08Z</time>
      </trkpt>
      <trkpt lat="59.5436277972" lon="17.7868383876">
        <ele>0</ele>
        <time>2013-03-24T11:54:09Z</time>
      </trkpt>
      <trkpt lat="59.5436571338" lon="17.786983143">
        <ele>0</ele>
        <time>2013-03-24T11:54:10Z</time>
      </trkpt>
      <trkpt lat="59.5436887336" lon="17.7871244619">
        <ele>0</ele>
        <time>2013-03-24T11:54:11Z</time>
      </trkpt>
      <trkpt lat="59.5437218421" lon="17.7872741626">
        <ele>0</ele>
        <time>2013-03-24T11:54:12Z</time>
      </trkpt>
      <trkpt lat="59.5437529389" lon="17.7874134698">
        <ele>0</ele>
        <time>2013-03-24T11:54:13Z</time>
      </trkpt>
      <trkpt lat="59.5437893164" lon="17.7875473287">
        <ele>0</ele>
        <time>2013-03-24T11:54:14Z</time>
      </trkpt>
      <trkpt lat="59.5438299686" lon="17.7876805171">
        <ele>0</ele>
        <time>2013-03-24T11:54:15Z</time>
      </trkpt>
      <trkpt lat="59.5438734707" lon="17.7878132026">
        <ele>0</ele>
        <time>2013-03-24T11:54:16Z</time>
      </trkpt>
      <trkpt lat="59.5439232591" lon="17.7879401884">
        <ele>0</ele>
        <time>2013-03-24T11:54:17Z</time>
      </trkpt>
      <trkpt lat="59.5439762327" lon="17.7880676771">
        <ele>0</ele>
        <time>2013-03-24T11:54:18Z</time>
      </trkpt>
      <trkpt lat="59.5440304636" lon="17.7881911425">
        <ele>0</ele>
        <time>2013-03-24T11:54:19Z</time>
      </trkpt>
      <trkpt lat="59.5440815094" lon="17.788317793">
        <ele>0</ele>
        <time>2013-03-24T11:54:20Z</time>
      </trkpt>
      <trkpt lat="59.544128951" lon="17.7884392467">
        <ele>0</ele>
        <time>2013-03-24T11:54:21Z</time>
      </trkpt>
      <trkpt lat="59.5441743809" lon="17.7885522347">
        <ele>0</ele>
        <time>2013-03-24T11:54:22Z</time>
      </trkpt>
      <trkpt lat="59.5444765484" lon="17.7892702283">
        <ele>0</ele>
        <time>2013-03-24T11:54:29Z</time>
      </trkpt>
      <trkpt lat="59.544741584" lon="17.7899039837">
        <ele>0</ele>
        <time>2013-03-24T11:54:36Z</time>
      </trkpt>
      <trkpt lat="59.5448713358" lon="17.790223837">
        <ele>0</ele>
        <time>2013-03-24T11:54:40Z</time>
      </trkpt>
      <trkpt lat="59.544907378" lon="17.7903037165">
        <ele>0</ele>
        <time>2013-03-24T11:54:41Z</time>
      </trkpt>
      <trkpt lat="59.5451050232" lon="17.7908095642">
        <ele>0</ele>
        <time>2013-03-24T11:54:47Z</time>
      </trkpt>
      <trkpt lat="59.5453347711" lon="17.7914151565">
        <ele>0</ele>
        <time>2013-03-24T11:54:54Z</time>
      </trkpt>
      <trkpt lat="59.5454443225" lon="17.7917704652">
        <ele>0</ele>
        <time>2013-03-24T11:54:58Z</time>
      </trkpt>
      <trkpt lat="59.5454661993" lon="17.7918625823">
        <ele>0</ele>
        <time>2013-03-24T11:54:59Z</time>
      </trkpt>
      <trkpt lat="59.5454858129" lon="17.7919587227">
        <ele>0</ele>
        <time>2013-03-24T11:55:00Z</time>
      </trkpt>
      <trkpt lat="59.5455023253" lon="17.7920538573">
        <ele>0</ele>
        <time>2013-03-24T11:55:01Z</time>
      </trkpt>
      <trkpt lat="59.5455213522" lon="17.7921491595">
        <ele>0</ele>
        <time>2013-03-24T11:55:02Z</time>
      </trkpt>
      <trkpt lat="59.54557793" lon="17.7925369062">
        <ele>0</ele>
        <time>2013-03-24T11:55:06Z</time>
      </trkpt>
      <trkpt lat="59.5455906705" lon="17.7926392492">
        <ele>0</ele>
        <time>2013-03-24T11:55:07Z</time>
      </trkpt>
      <trkpt lat="59.5456138884" lon="17.7928423426">
        <ele>0</ele>
        <time>2013-03-24T11:55:09Z</time>
      </trkpt>
      <trkpt lat="59.5456313227" lon="17.7929327833">
        <ele>0</ele>
        <time>2013-03-24T11:55:10Z</time>
      </trkpt>
      <trkpt lat="59.5456561331" lon="17.7930224696">
        <ele>0</ele>
        <time>2013-03-24T11:55:11Z</time>
      </trkpt>
      <trkpt lat="59.5456947737" lon="17.7930895248">
        <ele>0</ele>
        <time>2013-03-24T11:55:12Z</time>
      </trkpt>
      <trkpt lat="59.5458441392" lon="17.793148282">
        <ele>0</ele>
        <time>2013-03-24T11:55:15Z</time>
      </trkpt>
      <trkpt lat="59.5459952648" lon="17.7931202864">
        <ele>0</ele>
        <time>2013-03-24T11:55:18Z</time>
      </trkpt>
      <trkpt lat="59.5460884715" lon="17.7931093899">
        <ele>0</ele>
        <time>2013-03-24T11:55:20Z</time>
      </trkpt>
      <trkpt lat="59.5464473007" lon="17.7931285007">
        <ele>0</ele>
        <time>2013-03-24T11:55:27Z</time>
      </trkpt>
      <trkpt lat="59.5468248215" lon="17.7931816419">
        <ele>0</ele>
        <time>2013-03-24T11:55:34Z</time>
      </trkpt>
      <trkpt lat="59.5472070361" lon="17.7932849069">
        <ele>0</ele>
        <time>2013-03-24T11:55:41Z</time>
      </trkpt>
      <trkpt lat="59.5474790288" lon="17.7933957156">
        <ele>0</ele>
        <time>2013-03-24T11:55:46Z</time>
      </trkpt>
      <trkpt lat="59.547587742" lon="17.793449276">
        <ele>0</ele>
        <time>2013-03-24T11:55:48Z</time>
      </trkpt>
      <trkpt lat="59.5477579784" lon="17.7935252998">
        <ele>0</ele>
        <time>2013-03-24T11:55:51Z</time>
      </trkpt>
      <trkpt lat="59.5479148876" lon="17.7936162434">
        <ele>0</ele>
        <time>2013-03-24T11:55:54Z</time>
      </trkpt>
      <trkpt lat="59.5479678612" lon="17.7936448257">
        <ele>0</ele>
        <time>2013-03-24T11:55:55Z</time>
      </trkpt>
      <trkpt lat="59.5480194937" lon="17.7936801135">
        <ele>0</ele>
        <time>2013-03-24T11:55:56Z</time>
      </trkpt>
      <trkpt lat="59.5480724673" lon="17.7937102045">
        <ele>0</ele>
        <time>2013-03-24T11:55:57Z</time>
      </trkpt>
      <trkpt lat="59.5481262791" lon="17.7937479231">
        <ele>0</ele>
        <time>2013-03-24T11:55:58Z</time>
      </trkpt>
      <trkpt lat="59.5483417777" lon="17.7938804409">
        <ele>0</ele>
        <time>2013-03-24T11:56:02Z</time>
      </trkpt>
      <trkpt lat="59.5487695899" lon="17.794114715">
        <ele>0</ele>
        <time>2013-03-24T11:56:10Z</time>
      </trkpt>
      <trkpt lat="59.5492382219" lon="17.7943845284">
        <ele>0</ele>
        <time>2013-03-24T11:56:19Z</time>
      </trkpt>
      <trkpt lat="59.5496760924" lon="17.7946344766">
        <ele>0</ele>
        <time>2013-03-24T11:56:28Z</time>
      </trkpt>
      <trkpt lat="59.5498648528" lon="17.7947462912">
        <ele>0</ele>
        <time>2013-03-24T11:56:32Z</time>
      </trkpt>
      <trkpt lat="59.5499092768" lon="17.7947657372">
        <ele>0</ele>
        <time>2013-03-24T11:56:33Z</time>
      </trkpt>
      <trkpt lat="59.5499556287" lon="17.7947863567">
        <ele>0</ele>
        <time>2013-03-24T11:56:34Z</time>
      </trkpt>
      <trkpt lat="59.5500026512" lon="17.7948082334">
        <ele>0</ele>
        <time>2013-03-24T11:56:35Z</time>
      </trkpt>
      <trkpt lat="59.5500536132" lon="17.7948375701">
        <ele>0</ele>
        <time>2013-03-24T11:56:36Z</time>
      </trkpt>
      <trkpt lat="59.5501538607" lon="17.7948757077">
        <ele>0</ele>
        <time>2013-03-24T11:56:38Z</time>
      </trkpt>
      <trkpt lat="59.5503119433" lon="17.7949163599">
        <ele>0</ele>
        <time>2013-03-24T11:56:41Z</time>
      </trkpt>
      <trkpt lat="59.5504683496" lon="17.7949400807">
        <ele>0</ele>
        <time>2013-03-24T11:56:44Z</time>
      </trkpt>
      <trkpt lat="59.5505176351" lon="17.7949460319">
        <ele>0</ele>
        <time>2013-03-24T11:56:45Z</time>
      </trkpt>
      <trkpt lat="59.5505685133" lon="17.7949446908">
        <ele>0</ele>
        <time>2013-03-24T11:56:46Z</time>
      </trkpt>
      <trkpt lat="59.5506199781" lon="17.7949356383">
        <ele>0</ele>
        <time>2013-03-24T11:56:47Z</time>
      </trkpt>
      <trkpt lat="59.5506740414" lon="17.7949204671">
        <ele>0</ele>
        <time>2013-03-24T11:56:48Z</time>
      </trkpt>
      <trkpt lat="59.5507755462" lon="17.7948871071">
        <ele>0</ele>
        <time>2013-03-24T11:56:50Z</time>
      </trkpt>
      <trkpt lat="59.550984507" lon="17.7948054674">
        <ele>0</ele>
        <time>2013-03-24T11:56:54Z</time>
      </trkpt>
      <trkpt lat="59.5510336249" lon="17.7947758793">
        <ele>0</ele>
        <time>2013-03-24T11:56:55Z</time>
      </trkpt>
      <trkpt lat="59.5510830781" lon="17.7947380769">
        <ele>0</ele>
        <time>2013-03-24T11:56:56Z</time>
      </trkpt>
      <trkpt lat="59.5511347106" lon="17.7947040464">
        <ele>0</ele>
        <time>2013-03-24T11:56:57Z</time>
      </trkpt>
      <trkpt lat="59.5511918752" lon="17.7946630589">
        <ele>0</ele>
        <time>2013-03-24T11:56:58Z</time>
      </trkpt>
      <trkpt lat="59.5513409892" lon="17.7945446227">
        <ele>0</ele>
        <time>2013-03-24T11:57:01Z</time>
      </trkpt>
      <trkpt lat="59.5515952122" lon="17.7943154615">
        <ele>0</ele>
        <time>2013-03-24T11:57:06Z</time>
      </trkpt>
      <trkpt lat="59.5517408896" lon="17.7941838657">
        <ele>0</ele>
        <time>2013-03-24T11:57:09Z</time>
      </trkpt>
      <trkpt lat="59.5518339287" lon="17.7940972807">
        <ele>0</ele>
        <time>2013-03-24T11:57:11Z</time>
      </trkpt>
      <trkpt lat="59.5519141435" lon="17.7940437203">
        <ele>0</ele>
        <time>2013-03-24T11:57:13Z</time>
      </trkpt>
      <trkpt lat="59.5520544565" lon="17.7939677803">
        <ele>0</ele>
        <time>2013-03-24T11:57:16Z</time>
      </trkpt>
      <trkpt lat="59.5520985453" lon="17.7939451492">
        <ele>0</ele>
        <time>2013-03-24T11:57:17Z</time>
      </trkpt>
      <trkpt lat="59.5521451487" lon="17.7939253679">
        <ele>0</ele>
        <time>2013-03-24T11:57:18Z</time>
      </trkpt>
      <trkpt lat="59.5521916682" lon="17.793903072">
        <ele>0</ele>
        <time>2013-03-24T11:57:19Z</time>
      </trkpt>
      <trkpt lat="59.5522377687" lon="17.7938897448">
        <ele>0</ele>
        <time>2013-03-24T11:57:20Z</time>
      </trkpt>
      <trkpt lat="59.5523336576" lon="17.7938628389">
        <ele>0</ele>
        <time>2013-03-24T11:57:22Z</time>
      </trkpt>
      <trkpt lat="59.5526479788" lon="17.7938272159">
        <ele>0</ele>
        <time>2013-03-24T11:57:29Z</time>
      </trkpt>
      <trkpt lat="59.5526907265" lon="17.7938283055">
        <ele>0</ele>
        <time>2013-03-24T11:57:30Z</time>
      </trkpt>
      <trkpt lat="59.5527312949" lon="17.7938221867">
        <ele>0</ele>
        <time>2013-03-24T11:57:31Z</time>
      </trkpt>
      <trkpt lat="59.5527714442" lon="17.7938242822">
        <ele>0</ele>
        <time>2013-03-24T11:57:32Z</time>
      </trkpt>
      <trkpt lat="59.5528093304" lon="17.7938251204">
        <ele>0</ele>
        <time>2013-03-24T11:57:33Z</time>
      </trkpt>
      <trkpt lat="59.5529188819" lon="17.793803076">
        <ele>0</ele>
        <time>2013-03-24T11:57:36Z</time>
      </trkpt>
      <trkpt lat="59.5529777228" lon="17.7937174968">
        <ele>0</ele>
        <time>2013-03-24T11:57:38Z</time>
      </trkpt>
      <trkpt lat="59.5530058022" lon="17.7935911815">
        <ele>0</ele>
        <time>2013-03-24T11:57:40Z</time>
      </trkpt>
      <trkpt lat="59.5530157766" lon="17.7935187619">
        <ele>0</ele>
        <time>2013-03-24T11:57:41Z</time>
      </trkpt>
      <trkpt lat="59.5530182912" lon="17.7934437439">
        <ele>0</ele>
        <time>2013-03-24T11:57:42Z</time>
      </trkpt>
      <trkpt lat="59.5530193808" lon="17.7933711567">
        <ele>0</ele>
        <time>2013-03-24T11:57:43Z</time>
      </trkpt>
      <trkpt lat="59.5530240747" lon="17.7932961387">
        <ele>0</ele>
        <time>2013-03-24T11:57:44Z</time>
      </trkpt>
      <trkpt lat="59.5530305288" lon="17.793220953">
        <ele>0</ele>
        <time>2013-03-24T11:57:45Z</time>
      </trkpt>
      <trkpt lat="59.5530327919" lon="17.7929839967">
        <ele>0</ele>
        <time>2013-03-24T11:57:48Z</time>
      </trkpt>
      <trkpt lat="59.5530375696" lon="17.7927750359">
        <ele>0</ele>
        <time>2013-03-24T11:57:51Z</time>
      </trkpt>
      <trkpt lat="59.5530393298" lon="17.7927123393">
        <ele>0</ele>
        <time>2013-03-24T11:57:52Z</time>
      </trkpt>
      <trkpt lat="59.5530434369" lon="17.7926576055">
        <ele>0</ele>
        <time>2013-03-24T11:57:53Z</time>
      </trkpt>
      <trkpt lat="59.5530523217" lon="17.7926202223">
        <ele>0</ele>
        <time>2013-03-24T11:57:54Z</time>
      </trkpt>
      <trkpt lat="59.553072103" lon="17.792587449">
        <ele>0</ele>
        <time>2013-03-24T11:57:55Z</time>
      </trkpt>
      <trkpt lat="59.5530964105" lon="17.7925472159">
        <ele>0</ele>
        <time>2013-03-24T11:57:56Z</time>
      </trkpt>
      <trkpt lat="59.5531889467" lon="17.7925742056">
        <ele>0</ele>
        <time>2013-03-24T11:58:00Z</time>
      </trkpt>
      <trkpt lat="59.5532140086" lon="17.7925996028">
        <ele>0</ele>
        <time>2013-03-24T11:58:01Z</time>
      </trkpt>
      <trkpt lat="59.5533010965" lon="17.792783334">
        <ele>0</ele>
        <time>2013-03-24T11:58:05Z</time>
      </trkpt>
      <trkpt lat="59.553339318" lon="17.7928132574">
        <ele>0</ele>
        <time>2013-03-24T11:58:06Z</time>
      </trkpt>
      <trkpt lat="59.553418024" lon="17.7928428455">
        <ele>0</ele>
        <time>2013-03-24T11:58:08Z</time>
      </trkpt>
      <trkpt lat="59.5534583409" lon="17.7928553345">
        <ele>0</ele>
        <time>2013-03-24T11:58:09Z</time>
      </trkpt>
      <trkpt lat="59.5535030165" lon="17.7928609504">
        <ele>0</ele>
        <time>2013-03-24T11:58:10Z</time>
      </trkpt>
      <trkpt lat="59.5535488655" lon="17.7928641355">
        <ele>0</ele>
        <time>2013-03-24T11:58:11Z</time>
      </trkpt>
      <trkpt lat="59.5535952174" lon="17.7928715954">
        <ele>0</ele>
        <time>2013-03-24T11:58:12Z</time>
      </trkpt>
      <trkpt lat="59.5536417369" lon="17.7928731042">
        <ele>0.2</ele>
        <time>2013-03-24T11:58:13Z</time>
      </trkpt>
      <trkpt lat="59.553688927" lon="17.792863465">
        <ele>0.2</ele>
        <time>2013-03-24T11:58:14Z</time>
      </trkpt>
      <trkpt lat="59.5537413139" lon="17.7928448572">
        <ele>0.2</ele>
        <time>2013-03-24T11:58:15Z</time>
      </trkpt>
      <trkpt lat="59.5540317467" lon="17.7926643949">
        <ele>0.2</ele>
        <time>2013-03-24T11:58:21Z</time>
      </trkpt>
      <trkpt lat="59.5543690344" lon="17.7924259298">
        <ele>0.2</ele>
        <time>2013-03-24T11:58:28Z</time>
      </trkpt>
      <trkpt lat="59.5546495766" lon="17.7921864589">
        <ele>0.2</ele>
        <time>2013-03-24T11:58:35Z</time>
      </trkpt>
      <trkpt lat="59.5548848565" lon="17.7920006322">
        <ele>0.2</ele>
        <time>2013-03-24T11:58:42Z</time>
      </trkpt>
      <trkpt lat="59.5549250896" lon="17.7919082637">
        <ele>0.2</ele>
        <time>2013-03-24T11:58:46Z</time>
      </trkpt>
      <trkpt lat="59.5549093316" lon="17.7916807789">
        <ele>0.2</ele>
        <time>2013-03-24T11:58:52Z</time>
      </trkpt>
      <trkpt lat="59.5548980999" lon="17.7916205969">
        <ele>0.2</ele>
        <time>2013-03-24T11:58:54Z</time>
      </trkpt>
      <trkpt lat="59.5547884646" lon="17.7920739738">
        <ele>0.2</ele>
        <time>2013-03-24T12:00:40Z</time>
      </trkpt>
      <trkpt lat="59.5547592956" lon="17.7920941742">
        <ele>0.2</ele>
        <time>2013-03-24T12:00:41Z</time>
      </trkpt>
      <trkpt lat="59.5545403604" lon="17.792247563">
        <ele>0.2</ele>
        <time>2013-03-24T12:00:47Z</time>
      </trkpt>
      <trkpt lat="59.5542913342" lon="17.7924454596">
        <ele>0.2</ele>
        <time>2013-03-24T12:00:53Z</time>
      </trkpt>
      <trkpt lat="59.553957064" lon="17.7926779735">
        <ele>0.2</ele>
        <time>2013-03-24T12:01:00Z</time>
      </trkpt>
      <trkpt lat="59.5536878374" lon="17.7928441866">
        <ele>0.2</ele>
        <time>2013-03-24T12:01:06Z</time>
      </trkpt>
      <trkpt lat="59.5535934572" lon="17.7928544125">
        <ele>0.2</ele>
        <time>2013-03-24T12:01:08Z</time>
      </trkpt>
      <trkpt lat="59.5534492885" lon="17.7928211364">
        <ele>0.2</ele>
        <time>2013-03-24T12:01:11Z</time>
      </trkpt>
      <trkpt lat="59.5532246536" lon="17.792797248">
        <ele>0.2</ele>
        <time>2013-03-24T12:01:16Z</time>
      </trkpt>
      <trkpt lat="59.5531181196" lon="17.7928064681">
        <ele>0.2</ele>
        <time>2013-03-24T12:01:21Z</time>
      </trkpt>
      <trkpt lat="59.5531206342" lon="17.7928074739">
        <ele>0.2</ele>
        <time>2013-03-24T12:01:25Z</time>
      </trkpt>
      <trkpt lat="59.5530983383" lon="17.792837062">
        <ele>0.2</ele>
        <time>2013-03-24T12:01:27Z</time>
      </trkpt>
      <trkpt lat="59.5530513159" lon="17.7929169415">
        <ele>0.2</ele>
        <time>2013-03-24T12:01:29Z</time>
      </trkpt>
      <trkpt lat="59.5530136811" lon="17.7931318534">
        <ele>0.2</ele>
        <time>2013-03-24T12:01:32Z</time>
      </trkpt>
      <trkpt lat="59.5530105798" lon="17.7932070391">
        <ele>0</ele>
        <time>2013-03-24T12:01:33Z</time>
      </trkpt>
      <trkpt lat="59.5530069756" lon="17.7932817218">
        <ele>0</ele>
        <time>2013-03-24T12:01:34Z</time>
      </trkpt>
      <trkpt lat="59.5530050478" lon="17.7933528003">
        <ele>0</ele>
        <time>2013-03-24T12:01:35Z</time>
      </trkpt>
      <trkpt lat="59.5530012759" lon="17.793426561">
        <ele>0</ele>
        <time>2013-03-24T12:01:36Z</time>
      </trkpt>
      <trkpt lat="59.5530015274" lon="17.7934931971">
        <ele>0</ele>
        <time>2013-03-24T12:01:37Z</time>
      </trkpt>
      <trkpt lat="59.5529877811" lon="17.7936913453">
        <ele>0</ele>
        <time>2013-03-24T12:01:40Z</time>
      </trkpt>
      <trkpt lat="59.552942435" lon="17.7937989688">
        <ele>0</ele>
        <time>2013-03-24T12:01:42Z</time>
      </trkpt>
      <trkpt lat="59.5529058899" lon="17.7938257071">
        <ele>0</ele>
        <time>2013-03-24T12:01:43Z</time>
      </trkpt>
      <trkpt lat="59.5528571911" lon="17.7938308201">
        <ele>0</ele>
        <time>2013-03-24T12:01:44Z</time>
      </trkpt>
      <trkpt lat="59.5528019543" lon="17.7938190016">
        <ele>0</ele>
        <time>2013-03-24T12:01:45Z</time>
      </trkpt>
      <trkpt lat="59.5527462985" lon="17.7938106197">
        <ele>0</ele>
        <time>2013-03-24T12:01:46Z</time>
      </trkpt>
      <trkpt lat="59.5526872061" lon="17.793799807">
        <ele>0</ele>
        <time>2013-03-24T12:01:47Z</time>
      </trkpt>
      <trkpt lat="59.552627527" lon="17.7937974601">
        <ele>0</ele>
        <time>2013-03-24T12:01:48Z</time>
      </trkpt>
      <trkpt lat="59.5523588871" lon="17.7938142239">
        <ele>0</ele>
        <time>2013-03-24T12:01:52Z</time>
      </trkpt>
      <trkpt lat="59.5520207613" lon="17.7939375217">
        <ele>0</ele>
        <time>2013-03-24T12:01:57Z</time>
      </trkpt>
      <trkpt lat="59.5519484255" lon="17.7939783415">
        <ele>0</ele>
        <time>2013-03-24T12:01:58Z</time>
      </trkpt>
      <trkpt lat="59.5518783528" lon="17.7940251963">
        <ele>0</ele>
        <time>2013-03-24T12:01:59Z</time>
      </trkpt>
      <trkpt lat="59.5518081125" lon="17.7940715482">
        <ele>0</ele>
        <time>2013-03-24T12:02:00Z</time>
      </trkpt>
      <trkpt lat="59.5517341841" lon="17.7941366756">
        <ele>0</ele>
        <time>2013-03-24T12:02:01Z</time>
      </trkpt>
      <trkpt lat="59.5514706572" lon="17.7943857857">
        <ele>0</ele>
        <time>2013-03-24T12:02:05Z</time>
      </trkpt>
      <trkpt lat="59.5510791386" lon="17.7947125121">
        <ele>0</ele>
        <time>2013-03-24T12:02:11Z</time>
      </trkpt>
      <trkpt lat="59.5510080601" lon="17.7947525776">
        <ele>0</ele>
        <time>2013-03-24T12:02:12Z</time>
      </trkpt>
      <trkpt lat="59.5509399991" lon="17.7947900447">
        <ele>0</ele>
        <time>2013-03-24T12:02:13Z</time>
      </trkpt>
      <trkpt lat="59.550870094" lon="17.7948237399">
        <ele>0</ele>
        <time>2013-03-24T12:02:14Z</time>
      </trkpt>
      <trkpt lat="59.5505845227" lon="17.794869086">
        <ele>0</ele>
        <time>2013-03-24T12:02:18Z</time>
      </trkpt>
      <trkpt lat="59.5504388453" lon="17.7948649789">
        <ele>0</ele>
        <time>2013-03-24T12:02:20Z</time>
      </trkpt>
      <trkpt lat="59.5503648331" lon="17.7948596145">
        <ele>0</ele>
        <time>2013-03-24T12:02:21Z</time>
      </trkpt>
      <trkpt lat="59.5502915753" lon="17.794850562">
        <ele>0</ele>
        <time>2013-03-24T12:02:22Z</time>
      </trkpt>
      <trkpt lat="59.5502144618" lon="17.7948315351">
        <ele>0</ele>
        <time>2013-03-24T12:02:23Z</time>
      </trkpt>
      <trkpt lat="59.5501404496" lon="17.7948027852">
        <ele>0</ele>
        <time>2013-03-24T12:02:24Z</time>
      </trkpt>
      <trkpt lat="59.5500657669" lon="17.7947762984">
        <ele>0</ele>
        <time>2013-03-24T12:02:25Z</time>
      </trkpt>
      <trkpt lat="59.5495469273" lon="17.7944927387">
        <ele>0</ele>
        <time>2013-03-24T12:02:32Z</time>
      </trkpt>
      <trkpt lat="59.5490485395" lon="17.7942046528">
        <ele>0</ele>
        <time>2013-03-24T12:02:39Z</time>
      </trkpt>
      <trkpt lat="59.5487509821" lon="17.7940507611">
        <ele>0</ele>
        <time>2013-03-24T12:02:43Z</time>
      </trkpt>
      <trkpt lat="59.5486799036" lon="17.7940101927">
        <ele>0</ele>
        <time>2013-03-24T12:02:44Z</time>
      </trkpt>
      <trkpt lat="59.5486075678" lon="17.7939666068">
        <ele>0</ele>
        <time>2013-03-24T12:02:45Z</time>
      </trkpt>
      <trkpt lat="59.5485347291" lon="17.7939351747">
        <ele>0</ele>
        <time>2013-03-24T12:02:46Z</time>
      </trkpt>
      <trkpt lat="59.5484599625" lon="17.7938936005">
        <ele>0</ele>
        <time>2013-03-24T12:02:47Z</time>
      </trkpt>
      <trkpt lat="59.5478982914" lon="17.7935569834">
        <ele>0</ele>
        <time>2013-03-24T12:02:55Z</time>
      </trkpt>
      <trkpt lat="59.5478261232" lon="17.7935230367">
        <ele>0</ele>
        <time>2013-03-24T12:02:56Z</time>
      </trkpt>
      <trkpt lat="59.5473859058" lon="17.7932787043">
        <ele>0</ele>
        <time>2013-03-24T12:03:02Z</time>
      </trkpt>
      <trkpt lat="59.5469178605" lon="17.793143169">
        <ele>0</ele>
        <time>2013-03-24T12:03:08Z</time>
      </trkpt>
      <trkpt lat="59.5464284414" lon="17.7930774549">
        <ele>0</ele>
        <time>2013-03-24T12:03:15Z</time>
      </trkpt>
      <trkpt lat="59.5459189057" lon="17.7930752756">
        <ele>0</ele>
        <time>2013-03-24T12:03:23Z</time>
      </trkpt>
      <trkpt lat="59.5457029041" lon="17.7930382276">
        <ele>0</ele>
        <time>2013-03-24T12:03:27Z</time>
      </trkpt>
      <trkpt lat="59.5456543729" lon="17.7929712562">
        <ele>0</ele>
        <time>2013-03-24T12:03:28Z</time>
      </trkpt>
      <trkpt lat="59.5456207615" lon="17.7928814023">
        <ele>0</ele>
        <time>2013-03-24T12:03:29Z</time>
      </trkpt>
      <trkpt lat="59.545606177" lon="17.7927760418">
        <ele>0</ele>
        <time>2013-03-24T12:03:30Z</time>
      </trkpt>
      <trkpt lat="59.5456040815" lon="17.7926710166">
        <ele>0</ele>
        <time>2013-03-24T12:03:31Z</time>
      </trkpt>
      <trkpt lat="59.5455945262" lon="17.7925589506">
        <ele>0</ele>
        <time>2013-03-24T12:03:32Z</time>
      </trkpt>
      <trkpt lat="59.5455774271" lon="17.7924408496">
        <ele>0</ele>
        <time>2013-03-24T12:03:33Z</time>
      </trkpt>
      <trkpt lat="59.5455651895" lon="17.7923199826">
        <ele>0</ele>
        <time>2013-03-24T12:03:34Z</time>
      </trkpt>
      <trkpt lat="59.545531159" lon="17.7921013826">
        <ele>0</ele>
        <time>2013-03-24T12:03:36Z</time>
      </trkpt>
      <trkpt lat="59.5453659518" lon="17.7913855684">
        <ele>0</ele>
        <time>2013-03-24T12:03:42Z</time>
      </trkpt>
      <trkpt lat="59.5451196077" lon="17.7907512262">
        <ele>0</ele>
        <time>2013-03-24T12:03:48Z</time>
      </trkpt>
      <trkpt lat="59.5448084716" lon="17.7900016329">
        <ele>0</ele>
        <time>2013-03-24T12:03:55Z</time>
      </trkpt>
      <trkpt lat="59.5444937313" lon="17.7891962161">
        <ele>0</ele>
        <time>2013-03-24T12:04:02Z</time>
      </trkpt>
      <trkpt lat="59.544115037" lon="17.7882794877">
        <ele>0</ele>
        <time>2013-03-24T12:04:10Z</time>
      </trkpt>
      <trkpt lat="59.5439805913" lon="17.787948235">
        <ele>0</ele>
        <time>2013-03-24T12:04:13Z</time>
      </trkpt>
      <trkpt lat="59.5439365864" lon="17.78784958">
        <ele>0</ele>
        <time>2013-03-24T12:04:14Z</time>
      </trkpt>
      <trkpt lat="59.5438959341" lon="17.787746315">
        <ele>0</ele>
        <time>2013-03-24T12:04:15Z</time>
      </trkpt>
      <trkpt lat="59.5438601434" lon="17.7876457322">
        <ele>0</ele>
        <time>2013-03-24T12:04:16Z</time>
      </trkpt>
      <trkpt lat="59.5438257776" lon="17.7875426349">
        <ele>0</ele>
        <time>2013-03-24T12:04:17Z</time>
      </trkpt>
      <trkpt lat="59.5437086825" lon="17.7871271441">
        <ele>0</ele>
        <time>2013-03-24T12:04:21Z</time>
      </trkpt>
      <trkpt lat="59.5436842912" lon="17.7870268966">
        <ele>0</ele>
        <time>2013-03-24T12:04:22Z</time>
      </trkpt>
      <trkpt lat="59.54366166" lon="17.7869300018">
        <ele>0</ele>
        <time>2013-03-24T12:04:23Z</time>
      </trkpt>
      <trkpt lat="59.5436423817" lon="17.7868315145">
        <ele>0</ele>
        <time>2013-03-24T12:04:24Z</time>
      </trkpt>
      <trkpt lat="59.5436220975" lon="17.7867329433">
        <ele>0</ele>
        <time>2013-03-24T12:04:25Z</time>
      </trkpt>
      <trkpt lat="59.5435702135" lon="17.7864299376">
        <ele>0</ele>
        <time>2013-03-24T12:04:28Z</time>
      </trkpt>
      <trkpt lat="59.5435521086" lon="17.7863259183">
        <ele>0</ele>
        <time>2013-03-24T12:04:29Z</time>
      </trkpt>
      <trkpt lat="59.5435341713" lon="17.7862275986">
        <ele>0</ele>
        <time>2013-03-24T12:04:30Z</time>
      </trkpt>
      <trkpt lat="59.5435177428" lon="17.7861255909">
        <ele>0</ele>
        <time>2013-03-24T12:04:31Z</time>
      </trkpt>
      <trkpt lat="59.5434999732" lon="17.7860314621">
        <ele>0</ele>
        <time>2013-03-24T12:04:32Z</time>
      </trkpt>
      <trkpt lat="59.5434801919" lon="17.7859246767">
        <ele>0</ele>
        <time>2013-03-24T12:04:33Z</time>
      </trkpt>
      <trkpt lat="59.5434573093" lon="17.7858267761">
        <ele>0</ele>
        <time>2013-03-24T12:04:34Z</time>
      </trkpt>
      <trkpt lat="59.5434402941" lon="17.7857246008">
        <ele>0</ele>
        <time>2013-03-24T12:04:35Z</time>
      </trkpt>
      <trkpt lat="59.5434216024" lon="17.7856162228">
        <ele>0</ele>
        <time>2013-03-24T12:04:36Z</time>
      </trkpt>
      <trkpt lat="59.5434057606" lon="17.7855133769">
        <ele>0</ele>
        <time>2013-03-24T12:04:37Z</time>
      </trkpt>
      <trkpt lat="59.5433854764" lon="17.7854158954">
        <ele>0</ele>
        <time>2013-03-24T12:04:38Z</time>
      </trkpt>
      <trkpt lat="59.5433639349" lon="17.7853203417">
        <ele>0</ele>
        <time>2013-03-24T12:04:39Z</time>
      </trkpt>
      <trkpt lat="59.5433400465" lon="17.785223447">
        <ele>0</ele>
        <time>2013-03-24T12:04:40Z</time>
      </trkpt>
      <trkpt lat="59.5433188403" lon="17.7851364428">
        <ele>0</ele>
        <time>2013-03-24T12:04:41Z</time>
      </trkpt>
      <trkpt lat="59.5433012383" lon="17.7850513666">
        <ele>0</ele>
        <time>2013-03-24T12:04:42Z</time>
      </trkpt>
      <trkpt lat="59.5432154077" lon="17.784789516">
        <ele>0</ele>
        <time>2013-03-24T12:04:45Z</time>
      </trkpt>
      <trkpt lat="59.5429521322" lon="17.7841185449">
        <ele>0</ele>
        <time>2013-03-24T12:04:53Z</time>
      </trkpt>
      <trkpt lat="59.542879042" lon="17.7839473865">
        <ele>0</ele>
        <time>2013-03-24T12:04:55Z</time>
      </trkpt>
      <trkpt lat="59.5427149244" lon="17.7836051535">
        <ele>0</ele>
        <time>2013-03-24T12:04:59Z</time>
      </trkpt>
      <trkpt lat="59.542352072" lon="17.7828051012">
        <ele>0</ele>
        <time>2013-03-24T12:05:08Z</time>
      </trkpt>
      <trkpt lat="59.5423151916" lon="17.7827170074">
        <ele>0</ele>
        <time>2013-03-24T12:05:09Z</time>
      </trkpt>
      <trkpt lat="59.542281664" lon="17.7826335237">
        <ele>0</ele>
        <time>2013-03-24T12:05:10Z</time>
      </trkpt>
      <trkpt lat="59.5422496452" lon="17.7825644568">
        <ele>0</ele>
        <time>2013-03-24T12:05:11Z</time>
      </trkpt>
      <trkpt lat="59.5422216496" lon="17.782468987">
        <ele>0</ele>
        <time>2013-03-24T12:05:12Z</time>
      </trkpt>
      <trkpt lat="59.5421893793" lon="17.7823688233">
        <ele>0</ele>
        <time>2013-03-24T12:05:13Z</time>
      </trkpt>
      <trkpt lat="59.5421536724" lon="17.7822775444">
        <ele>0</ele>
        <time>2013-03-24T12:05:14Z</time>
      </trkpt>
      <trkpt lat="59.5419747188" lon="17.7816572838">
        <ele>0</ele>
        <time>2013-03-24T12:05:20Z</time>
      </trkpt>
      <trkpt lat="59.5418800872" lon="17.7812349198">
        <ele>0</ele>
        <time>2013-03-24T12:05:24Z</time>
      </trkpt>
      <trkpt lat="59.5418568693" lon="17.7811339179">
        <ele>0</ele>
        <time>2013-03-24T12:05:25Z</time>
      </trkpt>
      <trkpt lat="59.5418350764" lon="17.7810291442">
        <ele>0</ele>
        <time>2013-03-24T12:05:26Z</time>
      </trkpt>
      <trkpt lat="59.5418156304" lon="17.7809224426">
        <ele>0</ele>
        <time>2013-03-24T12:05:27Z</time>
      </trkpt>
      <trkpt lat="59.5417958491" lon="17.7808139808">
        <ele>0</ele>
        <time>2013-03-24T12:05:28Z</time>
      </trkpt>
      <trkpt lat="59.5416350843" lon="17.7798995155">
        <ele>0</ele>
        <time>2013-03-24T12:05:36Z</time>
      </trkpt>
      <trkpt lat="59.5415328251" lon="17.7792909058">
        <ele>0</ele>
        <time>2013-03-24T12:05:41Z</time>
      </trkpt>
      <trkpt lat="59.5414909156" lon="17.7790409575">
        <ele>0</ele>
        <time>2013-03-24T12:05:43Z</time>
      </trkpt>
      <trkpt lat="59.5414033247" lon="17.7785051865">
        <ele>0</ele>
        <time>2013-03-24T12:05:47Z</time>
      </trkpt>
      <trkpt lat="59.5413826214" lon="17.7783641191">
        <ele>0</ele>
        <time>2013-03-24T12:05:48Z</time>
      </trkpt>
      <trkpt lat="59.5413595712" lon="17.7782232194">
        <ele>0</ele>
        <time>2013-03-24T12:05:49Z</time>
      </trkpt>
      <trkpt lat="59.5413345093" lon="17.7780874326">
        <ele>0</ele>
        <time>2013-03-24T12:05:50Z</time>
      </trkpt>
      <trkpt lat="59.5413076872" lon="17.7779531545">
        <ele>0</ele>
        <time>2013-03-24T12:05:51Z</time>
      </trkpt>
      <trkpt lat="59.5412822901" lon="17.7778310303">
        <ele>0</ele>
        <time>2013-03-24T12:05:52Z</time>
      </trkpt>
      <trkpt lat="59.5412400453" lon="17.7777230714">
        <ele>0</ele>
        <time>2013-03-24T12:05:53Z</time>
      </trkpt>
      <trkpt lat="59.5411880775" lon="17.7776421022">
        <ele>0</ele>
        <time>2013-03-24T12:05:54Z</time>
      </trkpt>
      <trkpt lat="59.5411299071" lon="17.7775976782">
        <ele>0</ele>
        <time>2013-03-24T12:05:55Z</time>
      </trkpt>
      <trkpt lat="59.5410745028" lon="17.7775773101">
        <ele>0</ele>
        <time>2013-03-24T12:05:56Z</time>
      </trkpt>
      <trkpt lat="59.5409506183" lon="17.7775578641">
        <ele>0</ele>
        <time>2013-03-24T12:05:58Z</time>
      </trkpt>
      <trkpt lat="59.5408848204" lon="17.7775593729">
        <ele>0</ele>
        <time>2013-03-24T12:05:59Z</time>
      </trkpt>
      <trkpt lat="59.5406479479" lon="17.7775599596">
        <ele>0</ele>
        <time>2013-03-24T12:06:03Z</time>
      </trkpt>
      <trkpt lat="59.5403521506" lon="17.7775068184">
        <ele>0</ele>
        <time>2013-03-24T12:06:08Z</time>
      </trkpt>
      <trkpt lat="59.540291298" lon="17.7774706924">
        <ele>0</ele>
        <time>2013-03-24T12:06:09Z</time>
      </trkpt>
      <trkpt lat="59.5401049684" lon="17.777360638">
        <ele>0</ele>
        <time>2013-03-24T12:06:12Z</time>
      </trkpt>
      <trkpt lat="59.540038919" lon="17.7773230033">
        <ele>0</ele>
        <time>2013-03-24T12:06:13Z</time>
      </trkpt>
      <trkpt lat="59.5399725344" lon="17.7772665931">
        <ele>0</ele>
        <time>2013-03-24T12:06:14Z</time>
      </trkpt>
      <trkpt lat="59.5399078261" lon="17.77720507">
        <ele>0</ele>
        <time>2013-03-24T12:06:15Z</time>
      </trkpt>
      <trkpt lat="59.5398452133" lon="17.77715042">
        <ele>0</ele>
        <time>2013-03-24T12:06:16Z</time>
      </trkpt>
      <trkpt lat="59.5396541898" lon="17.7769972827">
        <ele>0</ele>
        <time>2013-03-24T12:06:19Z</time>
      </trkpt>
      <trkpt lat="59.5393958597" lon="17.7767819517">
        <ele>0</ele>
        <time>2013-03-24T12:06:23Z</time>
      </trkpt>
      <trkpt lat="59.5393352585" lon="17.776727134">
        <ele>0</ele>
        <time>2013-03-24T12:06:24Z</time>
      </trkpt>
      <trkpt lat="59.5392755794" lon="17.7766692151">
        <ele>0</ele>
        <time>2013-03-24T12:06:25Z</time>
      </trkpt>
      <trkpt lat="59.5392133019" lon="17.7766180855">
        <ele>0</ele>
        <time>2013-03-24T12:06:26Z</time>
      </trkpt>
      <trkpt lat="59.5391532875" lon="17.7765643575">
        <ele>0</ele>
        <time>2013-03-24T12:06:27Z</time>
      </trkpt>
      <trkpt lat="59.5387784489" lon="17.7762516288">
        <ele>0</ele>
        <time>2013-03-24T12:06:33Z</time>
      </trkpt>
      <trkpt lat="59.5387180992" lon="17.7761998287">
        <ele>0</ele>
        <time>2013-03-24T12:06:34Z</time>
      </trkpt>
      <trkpt lat="59.5386575819" lon="17.7761555723">
        <ele>0</ele>
        <time>2013-03-24T12:06:35Z</time>
      </trkpt>
      <trkpt lat="59.5385983219" lon="17.7761064543">
        <ele>0</ele>
        <time>2013-03-24T12:06:36Z</time>
      </trkpt>
      <trkpt lat="59.5385383075" lon="17.7760614435">
        <ele>0</ele>
        <time>2013-03-24T12:06:37Z</time>
      </trkpt>
      <trkpt lat="59.5384772872" lon="17.7760065421">
        <ele>0</ele>
        <time>2013-03-24T12:06:38Z</time>
      </trkpt>
      <trkpt lat="59.5383057098" lon="17.7758648042">
        <ele>0</ele>
        <time>2013-03-24T12:06:41Z</time>
      </trkpt>
      <trkpt lat="59.5379012831" lon="17.7755696775">
        <ele>0</ele>
        <time>2013-03-24T12:06:48Z</time>
      </trkpt>
      <trkpt lat="59.5376787436" lon="17.7754333039">
        <ele>0</ele>
        <time>2013-03-24T12:06:52Z</time>
      </trkpt>
      <trkpt lat="59.537626692" lon="17.7753976809">
        <ele>0</ele>
        <time>2013-03-24T12:06:53Z</time>
      </trkpt>
      <trkpt lat="59.5375779932" lon="17.775350826">
        <ele>0</ele>
        <time>2013-03-24T12:06:54Z</time>
      </trkpt>
      <trkpt lat="59.5375348264" lon="17.7752862854">
        <ele>0</ele>
        <time>2013-03-24T12:06:55Z</time>
      </trkpt>
      <trkpt lat="59.5375075014" lon="17.7751886363">
        <ele>0</ele>
        <time>2013-03-24T12:06:56Z</time>
      </trkpt>
      <trkpt lat="59.5375100998" lon="17.7748874746">
        <ele>0</ele>
        <time>2013-03-24T12:06:59Z</time>
      </trkpt>
      <trkpt lat="59.5375351617" lon="17.7746760831">
        <ele>0</ele>
        <time>2013-03-24T12:07:01Z</time>
      </trkpt>
      <trkpt lat="59.5375809269" lon="17.7742257236">
        <ele>0</ele>
        <time>2013-03-24T12:07:05Z</time>
      </trkpt>
      <trkpt lat="59.5376881314" lon="17.7731825123">
        <ele>0</ele>
        <time>2013-03-24T12:07:14Z</time>
      </trkpt>
      <trkpt lat="59.5377877083" lon="17.7720705695">
        <ele>0</ele>
        <time>2013-03-24T12:07:23Z</time>
      </trkpt>
      <trkpt lat="59.5378104233" lon="17.7718172685">
        <ele>0</ele>
        <time>2013-03-24T12:07:25Z</time>
      </trkpt>
      <trkpt lat="59.5378970921" lon="17.7708214149">
        <ele>0</ele>
        <time>2013-03-24T12:07:33Z</time>
      </trkpt>
      <trkpt lat="59.5379895445" lon="17.7698390562">
        <ele>0</ele>
        <time>2013-03-24T12:07:41Z</time>
      </trkpt>
      <trkpt lat="59.53808426" lon="17.7687734653">
        <ele>0</ele>
        <time>2013-03-24T12:07:49Z</time>
      </trkpt>
      <trkpt lat="59.5381582721" lon="17.7679196011">
        <ele>0</ele>
        <time>2013-03-24T12:07:55Z</time>
      </trkpt>
      <trkpt lat="59.5381694201" lon="17.7677744266">
        <ele>0</ele>
        <time>2013-03-24T12:07:56Z</time>
      </trkpt>
      <trkpt lat="59.538182412" lon="17.767623301">
        <ele>0</ele>
        <time>2013-03-24T12:07:57Z</time>
      </trkpt>
      <trkpt lat="59.5381954878" lon="17.7674676491">
        <ele>0</ele>
        <time>2013-03-24T12:07:58Z</time>
      </trkpt>
      <trkpt lat="59.5382076415" lon="17.7673126678">
        <ele>0</ele>
        <time>2013-03-24T12:07:59Z</time>
      </trkpt>
      <trkpt lat="59.5382542449" lon="17.7668245059">
        <ele>0</ele>
        <time>2013-03-24T12:08:02Z</time>
      </trkpt>
      <trkpt lat="59.5382705058" lon="17.7666590472">
        <ele>0</ele>
        <time>2013-03-24T12:08:03Z</time>
      </trkpt>
      <trkpt lat="59.538286599" lon="17.766496606">
        <ele>0</ele>
        <time>2013-03-24T12:08:04Z</time>
      </trkpt>
      <trkpt lat="59.5383058774" lon="17.7663286327">
        <ele>0</ele>
        <time>2013-03-24T12:08:05Z</time>
      </trkpt>
      <trkpt lat="59.5383281732" lon="17.7661708853">
        <ele>0</ele>
        <time>2013-03-24T12:08:06Z</time>
      </trkpt>
      <trkpt lat="59.5383960666" lon="17.765684819">
        <ele>0</ele>
        <time>2013-03-24T12:08:09Z</time>
      </trkpt>
      <trkpt lat="59.538420458" lon="17.7655164266">
        <ele>0</ele>
        <time>2013-03-24T12:08:10Z</time>
      </trkpt>
      <trkpt lat="59.5384430053" lon="17.7653573381">
        <ele>0</ele>
        <time>2013-03-24T12:08:11Z</time>
      </trkpt>
      <trkpt lat="59.5384654688" lon="17.7651976629">
        <ele>0</ele>
        <time>2013-03-24T12:08:12Z</time>
      </trkpt>
      <trkpt lat="59.5384886028" lon="17.7650342997">
        <ele>0</ele>
        <time>2013-03-24T12:08:13Z</time>
      </trkpt>
      <trkpt lat="59.5385112339" lon="17.7648720261">
        <ele>0</ele>
        <time>2013-03-24T12:08:14Z</time>
      </trkpt>
      <trkpt lat="59.5386423269" lon="17.7641906615">
        <ele>0</ele>
        <time>2013-03-24T12:08:18Z</time>
      </trkpt>
      <trkpt lat="59.5386740943" lon="17.7640253704">
        <ele>0</ele>
        <time>2013-03-24T12:08:19Z</time>
      </trkpt>
      <trkpt lat="59.5387059455" lon="17.7638613366">
        <ele>0</ele>
        <time>2013-03-24T12:08:20Z</time>
      </trkpt>
      <trkpt lat="59.5387374614" lon="17.7637017452">
        <ele>0</ele>
        <time>2013-03-24T12:08:21Z</time>
      </trkpt>
      <trkpt lat="59.5387698156" lon="17.7635413157">
        <ele>0</ele>
        <time>2013-03-24T12:08:22Z</time>
      </trkpt>
      <trkpt lat="59.5388771039" lon="17.7630648885">
        <ele>0</ele>
        <time>2013-03-24T12:08:25Z</time>
      </trkpt>
      <trkpt lat="59.5389132299" lon="17.7629094881">
        <ele>0</ele>
        <time>2013-03-24T12:08:26Z</time>
      </trkpt>
      <trkpt lat="59.5389505293" lon="17.7627556802">
        <ele>0</ele>
        <time>2013-03-24T12:08:27Z</time>
      </trkpt>
      <trkpt lat="59.5389895052" lon="17.7626065662">
        <ele>0</ele>
        <time>2013-03-24T12:08:28Z</time>
      </trkpt>
      <trkpt lat="59.5392542894" lon="17.7615772689">
        <ele>0</ele>
        <time>2013-03-24T12:08:35Z</time>
      </trkpt>
      <trkpt lat="59.539293349" lon="17.7614400572">
        <ele>0</ele>
        <time>2013-03-24T12:08:36Z</time>
      </trkpt>
      <trkpt lat="59.5395899845" lon="17.7605246699">
        <ele>0</ele>
        <time>2013-03-24T12:08:43Z</time>
      </trkpt>
      <trkpt lat="59.5396327322" lon="17.7604053116">
        <ele>0</ele>
        <time>2013-03-24T12:08:44Z</time>
      </trkpt>
      <trkpt lat="59.5399753842" lon="17.7595077778">
        <ele>0</ele>
        <time>2013-03-24T12:08:52Z</time>
      </trkpt>
      <trkpt lat="59.5403404998" lon="17.7586355572">
        <ele>0</ele>
        <time>2013-03-24T12:09:01Z</time>
      </trkpt>
      <trkpt lat="59.5403824093" lon="17.758547212">
        <ele>0</ele>
        <time>2013-03-24T12:09:02Z</time>
      </trkpt>
      <trkpt lat="59.5406685674" lon="17.7579641671">
        <ele>0</ele>
        <time>2013-03-24T12:09:09Z</time>
      </trkpt>
      <trkpt lat="59.541041059" lon="17.7572310023">
        <ele>0</ele>
        <time>2013-03-24T12:09:18Z</time>
      </trkpt>
      <trkpt lat="59.5410830523" lon="17.7571550622">
        <ele>0</ele>
        <time>2013-03-24T12:09:19Z</time>
      </trkpt>
      <trkpt lat="59.5411272249" lon="17.7570797928">
        <ele>0</ele>
        <time>2013-03-24T12:09:20Z</time>
      </trkpt>
      <trkpt lat="59.5411695535" lon="17.7570005">
        <ele>0</ele>
        <time>2013-03-24T12:09:21Z</time>
      </trkpt>
      <trkpt lat="59.5412116307" lon="17.7569181898">
        <ele>0</ele>
        <time>2013-03-24T12:09:22Z</time>
      </trkpt>
      <trkpt lat="59.5413443161" lon="17.7566885257">
        <ele>0</ele>
        <time>2013-03-24T12:09:25Z</time>
      </trkpt>
      <trkpt lat="59.5416477409" lon="17.7561558559">
        <ele>0</ele>
        <time>2013-03-24T12:09:32Z</time>
      </trkpt>
      <trkpt lat="59.5417354156" lon="17.7560009584">
        <ele>0</ele>
        <time>2013-03-24T12:09:34Z</time>
      </trkpt>
      <trkpt lat="59.5419250142" lon="17.7557005511">
        <ele>0</ele>
        <time>2013-03-24T12:09:38Z</time>
      </trkpt>
      <trkpt lat="59.542292309" lon="17.7550336872">
        <ele>0</ele>
        <time>2013-03-24T12:09:46Z</time>
      </trkpt>
      <trkpt lat="59.5426236455" lon="17.7544632989">
        <ele>0</ele>
        <time>2013-03-24T12:09:53Z</time>
      </trkpt>
      <trkpt lat="59.5428542316" lon="17.7540800784">
        <ele>0</ele>
        <time>2013-03-24T12:09:58Z</time>
      </trkpt>
      <trkpt lat="59.542898488" lon="17.7540063177">
        <ele>0</ele>
        <time>2013-03-24T12:09:59Z</time>
      </trkpt>
      <trkpt lat="59.5429404814" lon="17.7539349877">
        <ele>0</ele>
        <time>2013-03-24T12:10:00Z</time>
      </trkpt>
      <trkpt lat="59.542982307" lon="17.7538669267">
        <ele>0</ele>
        <time>2013-03-24T12:10:01Z</time>
      </trkpt>
      <trkpt lat="59.5430232107" lon="17.7538007935">
        <ele>0</ele>
        <time>2013-03-24T12:10:02Z</time>
      </trkpt>
      <trkpt lat="59.5432543835" lon="17.7533901642">
        <ele>0</ele>
        <time>2013-03-24T12:10:08Z</time>
      </trkpt>
      <trkpt lat="59.543495447" lon="17.7529773556">
        <ele>0</ele>
        <time>2013-03-24T12:10:14Z</time>
      </trkpt>
      <trkpt lat="59.5435734824" lon="17.7528252242">
        <ele>0</ele>
        <time>2013-03-24T12:10:16Z</time>
      </trkpt>
      <trkpt lat="59.5436115363" lon="17.7527588395">
        <ele>0</ele>
        <time>2013-03-24T12:10:17Z</time>
      </trkpt>
      <trkpt lat="59.5436495901" lon="17.7526907785">
        <ele>0</ele>
        <time>2013-03-24T12:10:18Z</time>
      </trkpt>
      <trkpt lat="59.5436873087" lon="17.7526228851">
        <ele>0</ele>
        <time>2013-03-24T12:10:19Z</time>
      </trkpt>
      <trkpt lat="59.5437262845" lon="17.7525521419">
        <ele>0</ele>
        <time>2013-03-24T12:10:20Z</time>
      </trkpt>
      <trkpt lat="59.5438828584" lon="17.7522498905">
        <ele>0</ele>
        <time>2013-03-24T12:10:25Z</time>
      </trkpt>
      <trkpt lat="59.5439106025" lon="17.7521992639">
        <ele>0</ele>
        <time>2013-03-24T12:10:26Z</time>
      </trkpt>
      <trkpt lat="59.5439431242" lon="17.7521467932">
        <ele>0</ele>
        <time>2013-03-24T12:10:27Z</time>
      </trkpt>
      <trkpt lat="59.5439769871" lon="17.7520939034">
        <ele>0</ele>
        <time>2013-03-24T12:10:28Z</time>
      </trkpt>
      <trkpt lat="59.5440107662" lon="17.7520368227">
        <ele>0</ele>
        <time>2013-03-24T12:10:29Z</time>
      </trkpt>
      <trkpt lat="59.5440408572" lon="17.751979239">
        <ele>0</ele>
        <time>2013-03-24T12:10:30Z</time>
      </trkpt>
      <trkpt lat="59.5441613051" lon="17.7517588788">
        <ele>0</ele>
        <time>2013-03-24T12:10:34Z</time>
      </trkpt>
      <trkpt lat="59.544309078" lon="17.7514362595">
        <ele>0</ele>
        <time>2013-03-24T12:10:39Z</time>
      </trkpt>
      <trkpt lat="59.5443414321" lon="17.7513590622">
        <ele>0</ele>
        <time>2013-03-24T12:10:40Z</time>
      </trkpt>
      <trkpt lat="59.5444395842" lon="17.7511324156">
        <ele>0</ele>
        <time>2013-03-24T12:10:43Z</time>
      </trkpt>
      <trkpt lat="59.5444715192" lon="17.7510651928">
        <ele>0</ele>
        <time>2013-03-24T12:10:44Z</time>
      </trkpt>
      <trkpt lat="59.5445927215" lon="17.7508100478">
        <ele>0</ele>
        <time>2013-03-24T12:10:48Z</time>
      </trkpt>
      <trkpt lat="59.5446213876" lon="17.7507340239">
        <ele>0</ele>
        <time>2013-03-24T12:10:49Z</time>
      </trkpt>
      <trkpt lat="59.5446552505" lon="17.7506543959">
        <ele>0</ele>
        <time>2013-03-24T12:10:50Z</time>
      </trkpt>
      <trkpt lat="59.5448158477" lon="17.7503016855">
        <ele>0</ele>
        <time>2013-03-24T12:10:55Z</time>
      </trkpt>
      <trkpt lat="59.5449014269" lon="17.7500628014">
        <ele>0</ele>
        <time>2013-03-24T12:10:58Z</time>
      </trkpt>
      <trkpt lat="59.5449313502" lon="17.749975462">
        <ele>0</ele>
        <time>2013-03-24T12:10:59Z</time>
      </trkpt>
      <trkpt lat="59.5449627824" lon="17.7498848536">
        <ele>0</ele>
        <time>2013-03-24T12:11:00Z</time>
      </trkpt>
      <trkpt lat="59.5449964776" lon="17.7497893">
        <ele>0</ele>
        <time>2013-03-24T12:11:01Z</time>
      </trkpt>
      <trkpt lat="59.5450296699" lon="17.7496901421">
        <ele>0</ele>
        <time>2013-03-24T12:11:02Z</time>
      </trkpt>
      <trkpt lat="59.5453003215" lon="17.7488384572">
        <ele>0</ele>
        <time>2013-03-24T12:11:10Z</time>
      </trkpt>
      <trkpt lat="59.5455540416" lon="17.7479397499">
        <ele>0</ele>
        <time>2013-03-24T12:11:18Z</time>
      </trkpt>
      <trkpt lat="59.5457728092" lon="17.7469438126">
        <ele>0</ele>
        <time>2013-03-24T12:11:27Z</time>
      </trkpt>
      <trkpt lat="59.5457946021" lon="17.7468293158">
        <ele>0</ele>
        <time>2013-03-24T12:11:28Z</time>
      </trkpt>
      <trkpt lat="59.5459491644" lon="17.7459109949">
        <ele>0</ele>
        <time>2013-03-24T12:11:36Z</time>
      </trkpt>
      <trkpt lat="59.5460879686" lon="17.7449362637">
        <ele>0</ele>
        <time>2013-03-24T12:11:44Z</time>
      </trkpt>
      <trkpt lat="59.5461747213" lon="17.7440691561">
        <ele>0</ele>
        <time>2013-03-24T12:11:51Z</time>
      </trkpt>
      <trkpt lat="59.5461845281" lon="17.7439328665">
        <ele>0</ele>
        <time>2013-03-24T12:11:52Z</time>
      </trkpt>
      <trkpt lat="59.5461924071" lon="17.7438049587">
        <ele>0</ele>
        <time>2013-03-24T12:11:53Z</time>
      </trkpt>
      <trkpt lat="59.5462008728" lon="17.7436799007">
        <ele>0</ele>
        <time>2013-03-24T12:11:54Z</time>
      </trkpt>
      <trkpt lat="59.5462110149" lon="17.7435614645">
        <ele>0</ele>
        <time>2013-03-24T12:11:55Z</time>
      </trkpt>
      <trkpt lat="59.5462164632" lon="17.7434498176">
        <ele>0</ele>
        <time>2013-03-24T12:11:56Z</time>
      </trkpt>
      <trkpt lat="59.5462245098" lon="17.7432378393">
        <ele>0</ele>
        <time>2013-03-24T12:11:58Z</time>
      </trkpt>
      <trkpt lat="59.546242447" lon="17.7430105222">
        <ele>0</ele>
        <time>2013-03-24T12:12:00Z</time>
      </trkpt>
      <trkpt lat="59.5462473924" lon="17.7428940976">
        <ele>0</ele>
        <time>2013-03-24T12:12:01Z</time>
      </trkpt>
      <trkpt lat="59.5462523377" lon="17.7427759128">
        <ele>0</ele>
        <time>2013-03-24T12:12:02Z</time>
      </trkpt>
      <trkpt lat="59.5462590432" lon="17.7426591529">
        <ele>0</ele>
        <time>2013-03-24T12:12:03Z</time>
      </trkpt>
      <trkpt lat="59.5462659164" lon="17.742541052">
        <ele>0</ele>
        <time>2013-03-24T12:12:04Z</time>
      </trkpt>
      <trkpt lat="59.5462843565" lon="17.7419435063">
        <ele>0</ele>
        <time>2013-03-24T12:12:09Z</time>
      </trkpt>
      <trkpt lat="59.5462831831" lon="17.7418275846">
        <ele>0</ele>
        <time>2013-03-24T12:12:10Z</time>
      </trkpt>
      <trkpt lat="59.5462817582" lon="17.7417113277">
        <ele>0</ele>
        <time>2013-03-24T12:12:11Z</time>
      </trkpt>
      <trkpt lat="59.5462815067" lon="17.7415956575">
        <ele>0</ele>
        <time>2013-03-24T12:12:12Z</time>
      </trkpt>
      <trkpt lat="59.5462801656" lon="17.7414814122">
        <ele>0</ele>
        <time>2013-03-24T12:12:13Z</time>
      </trkpt>
      <trkpt lat="59.546279076" lon="17.7409342417">
        <ele>0</ele>
        <time>2013-03-24T12:12:18Z</time>
      </trkpt>
      <trkpt lat="59.5462763099" lon="17.740842879">
        <ele>0</ele>
        <time>2013-03-24T12:12:19Z</time>
      </trkpt>
      <trkpt lat="59.5462734601" lon="17.7407541147">
        <ele>0</ele>
        <time>2013-03-24T12:12:20Z</time>
      </trkpt>
      <trkpt lat="59.5462690177" lon="17.7406684517">
        <ele>0</ele>
        <time>2013-03-24T12:12:21Z</time>
      </trkpt>
      <trkpt lat="59.5462629827" lon="17.7405834592">
        <ele>0</ele>
        <time>2013-03-24T12:12:22Z</time>
      </trkpt>
      <trkpt lat="59.5462479791" lon="17.7404072717">
        <ele>0</ele>
        <time>2013-03-24T12:12:24Z</time>
      </trkpt>
      <trkpt lat="59.5462478115" lon="17.7403204352">
        <ele>0</ele>
        <time>2013-03-24T12:12:25Z</time>
      </trkpt>
      <trkpt lat="59.5462442072" lon="17.7402351075">
        <ele>0</ele>
        <time>2013-03-24T12:12:26Z</time>
      </trkpt>
      <trkpt lat="59.5462373341" lon="17.7401539707">
        <ele>0</ele>
        <time>2013-03-24T12:12:27Z</time>
      </trkpt>
      <trkpt lat="59.5462305447" lon="17.7400776115">
        <ele>0</ele>
        <time>2013-03-24T12:12:28Z</time>
      </trkpt>
      <trkpt lat="59.5462242583" lon="17.7399989893">
        <ele>0</ele>
        <time>2013-03-24T12:12:29Z</time>
      </trkpt>
      <trkpt lat="59.5462184748" lon="17.7399202833">
        <ele>0</ele>
        <time>2013-03-24T12:12:30Z</time>
      </trkpt>
      <trkpt lat="59.5462113502" lon="17.7398408229">
        <ele>0</ele>
        <time>2013-03-24T12:12:31Z</time>
      </trkpt>
      <trkpt lat="59.546204477" lon="17.7397649667">
        <ele>0.2</ele>
        <time>2013-03-24T12:12:32Z</time>
      </trkpt>
      <trkpt lat="59.5461991964" lon="17.7396953969">
        <ele>0.6</ele>
        <time>2013-03-24T12:12:33Z</time>
      </trkpt>
      <trkpt lat="59.5461934129" lon="17.7396301019">
        <ele>1.4</ele>
        <time>2013-03-24T12:12:34Z</time>
      </trkpt>
      <trkpt lat="59.5461934968" lon="17.7395057145">
        <ele>1.4</ele>
        <time>2013-03-24T12:12:36Z</time>
      </trkpt>
      <trkpt lat="59.5461984421" lon="17.7393634737">
        <ele>1.8</ele>
        <time>2013-03-24T12:12:38Z</time>
      </trkpt>
      <trkpt lat="59.5461990288" lon="17.7392919761">
        <ele>2.2</ele>
        <time>2013-03-24T12:12:39Z</time>
      </trkpt>
      <trkpt lat="59.5461991126" lon="17.7392196403">
        <ele>2.6</ele>
        <time>2013-03-24T12:12:40Z</time>
      </trkpt>
      <trkpt lat="59.5461976877" lon="17.7391477236">
        <ele>3</ele>
        <time>2013-03-24T12:12:41Z</time>
      </trkpt>
      <trkpt lat="59.5461965142" lon="17.739074801">
        <ele>3.4</ele>
        <time>2013-03-24T12:12:42Z</time>
      </trkpt>
      <trkpt lat="59.5461928262" lon="17.7390006212">
        <ele>3.4</ele>
        <time>2013-03-24T12:12:43Z</time>
      </trkpt>
      <trkpt lat="59.5461510005" lon="17.7387658442">
        <ele>3.8</ele>
        <time>2013-03-24T12:12:47Z</time>
      </trkpt>
      <trkpt lat="59.5461394335" lon="17.7387205819">
        <ele>4.2</ele>
        <time>2013-03-24T12:12:48Z</time>
      </trkpt>
      <trkpt lat="59.5461225021" lon="17.7386788401">
        <ele>4.6</ele>
        <time>2013-03-24T12:12:49Z</time>
      </trkpt>
      <trkpt lat="59.5460953447" lon="17.7386486652">
        <ele>5</ele>
        <time>2013-03-24T12:12:50Z</time>
      </trkpt>
      <trkpt lat="59.5460601407" lon="17.7386338293">
        <ele>5.4</ele>
        <time>2013-03-24T12:12:51Z</time>
      </trkpt>
      <trkpt lat="59.5459697838" lon="17.7386485814">
        <ele>5.4</ele>
        <time>2013-03-24T12:12:53Z</time>
      </trkpt>
      <trkpt lat="59.5459237672" lon="17.7386660158">
        <ele>5.4</ele>
        <time>2013-03-24T12:12:54Z</time>
      </trkpt>
      <trkpt lat="59.5458801813" lon="17.7386885631">
        <ele>5.4</ele>
        <time>2013-03-24T12:12:55Z</time>
      </trkpt>
      <trkpt lat="59.5457897406" lon="17.7387274551">
        <ele>5.8</ele>
        <time>2013-03-24T12:12:57Z</time>
      </trkpt>
      <trkpt lat="59.5457429696" lon="17.7387447218">
        <ele>6.4</ele>
        <time>2013-03-24T12:12:58Z</time>
      </trkpt>
      <trkpt lat="59.5456958633" lon="17.738759474">
        <ele>7.2</ele>
        <time>2013-03-24T12:12:59Z</time>
      </trkpt>
      <trkpt lat="59.5456482542" lon="17.7387771598">
        <ele>7.6</ele>
        <time>2013-03-24T12:13:00Z</time>
      </trkpt>
      <trkpt lat="59.5455516108" lon="17.7388174767">
        <ele>7.6</ele>
        <time>2013-03-24T12:13:02Z</time>
      </trkpt>
      <trkpt lat="59.5451781134" lon="17.7389380084">
        <ele>7.6</ele>
        <time>2013-03-24T12:13:10Z</time>
      </trkpt>
      <trkpt lat="59.5451301689" lon="17.7389533473">
        <ele>8</ele>
        <time>2013-03-24T12:13:11Z</time>
      </trkpt>
      <trkpt lat="59.5450818892" lon="17.7389744697">
        <ele>8.6</ele>
        <time>2013-03-24T12:13:12Z</time>
      </trkpt>
      <trkpt lat="59.5450331065" lon="17.7389978552">
        <ele>9</ele>
        <time>2013-03-24T12:13:13Z</time>
      </trkpt>
      <trkpt lat="59.5449841562" lon="17.7390153734">
        <ele>9.4</ele>
        <time>2013-03-24T12:13:14Z</time>
      </trkpt>
      <trkpt lat="59.5449338648" lon="17.7390281977">
        <ele>9.8</ele>
        <time>2013-03-24T12:13:15Z</time>
      </trkpt>
      <trkpt lat="59.5448822323" lon="17.7390427822">
        <ele>9.8</ele>
        <time>2013-03-24T12:13:16Z</time>
      </trkpt>
      <trkpt lat="59.5445246605" lon="17.7391730369">
        <ele>9.8</ele>
        <time>2013-03-24T12:13:23Z</time>
      </trkpt>
      <trkpt lat="59.5441560245" lon="17.7393112544">
        <ele>9.8</ele>
        <time>2013-03-24T12:13:30Z</time>
      </trkpt>
      <trkpt lat="59.5436992948" lon="17.7394747853">
        <ele>9.8</ele>
        <time>2013-03-24T12:13:38Z</time>
      </trkpt>
      <trkpt lat="59.543420429" lon="17.7395829956">
        <ele>9.8</ele>
        <time>2013-03-24T12:13:43Z</time>
      </trkpt>
      <trkpt lat="59.5430158346" lon="17.7397252365">
        <ele>10.2</ele>
        <time>2013-03-24T12:13:50Z</time>
      </trkpt>
      <trkpt lat="59.5429548144" lon="17.7397463589">
        <ele>10.8</ele>
        <time>2013-03-24T12:13:51Z</time>
      </trkpt>
      <trkpt lat="59.5428921178" lon="17.7397673974">
        <ele>11.2</ele>
        <time>2013-03-24T12:13:52Z</time>
      </trkpt>
      <trkpt lat="59.5428281639" lon="17.7397929622">
        <ele>11.6</ele>
        <time>2013-03-24T12:13:53Z</time>
      </trkpt>
      <trkpt lat="59.5427658864" lon="17.7398184432">
        <ele>12</ele>
        <time>2013-03-24T12:13:54Z</time>
      </trkpt>
      <trkpt lat="59.5425071371" lon="17.7399000829">
        <ele>12</ele>
        <time>2013-03-24T12:13:58Z</time>
      </trkpt>
      <trkpt lat="59.5420136947" lon="17.7400864964">
        <ele>12</ele>
        <time>2013-03-24T12:14:06Z</time>
      </trkpt>
      <trkpt lat="59.5416447234" lon="17.7402098779">
        <ele>12</ele>
        <time>2013-03-24T12:14:12Z</time>
      </trkpt>
      <trkpt lat="59.5411983873" lon="17.7404048409">
        <ele>12</ele>
        <time>2013-03-24T12:14:20Z</time>
      </trkpt>
      <trkpt lat="59.5410860698" lon="17.7404635142">
        <ele>12</ele>
        <time>2013-03-24T12:14:22Z</time>
      </trkpt>
      <trkpt lat="59.5409714054" lon="17.7405184995">
        <ele>12</ele>
        <time>2013-03-24T12:14:24Z</time>
      </trkpt>
      <trkpt lat="59.5407341976" lon="17.7406562979">
        <ele>12</ele>
        <time>2013-03-24T12:14:28Z</time>
      </trkpt>
      <trkpt lat="59.5403154379" lon="17.74092301">
        <ele>12.6</ele>
        <time>2013-03-24T12:14:35Z</time>
      </trkpt>
      <trkpt lat="59.5402544177" lon="17.7409666797">
        <ele>13</ele>
        <time>2013-03-24T12:14:36Z</time>
      </trkpt>
      <trkpt lat="59.5401926431" lon="17.741012361">
        <ele>13.4</ele>
        <time>2013-03-24T12:14:37Z</time>
      </trkpt>
      <trkpt lat="59.5401305332" lon="17.7410588806">
        <ele>14.4</ele>
        <time>2013-03-24T12:14:38Z</time>
      </trkpt>
      <trkpt lat="59.5397586283" lon="17.7413365729">
        <ele>14.4</ele>
        <time>2013-03-24T12:14:44Z</time>
      </trkpt>
      <trkpt lat="59.5393277148" lon="17.7416845056">
        <ele>14.4</ele>
        <time>2013-03-24T12:14:51Z</time>
      </trkpt>
      <trkpt lat="59.5388165027" lon="17.7421341107">
        <ele>14.4</ele>
        <time>2013-03-24T12:14:59Z</time>
      </trkpt>
      <trkpt lat="59.5387517107" lon="17.7421941251">
        <ele>14.4</ele>
        <time>2013-03-24T12:15:00Z</time>
      </trkpt>
      <trkpt lat="59.5383419196" lon="17.742543818">
        <ele>14.4</ele>
        <time>2013-03-24T12:15:06Z</time>
      </trkpt>
      <trkpt lat="59.537829534" lon="17.7430010506">
        <ele>14.4</ele>
        <time>2013-03-24T12:15:13Z</time>
      </trkpt>
      <trkpt lat="59.5377579526" lon="17.7430750628">
        <ele>13.8</ele>
        <time>2013-03-24T12:15:14Z</time>
      </trkpt>
      <trkpt lat="59.5376865388" lon="17.7431477339">
        <ele>13.4</ele>
        <time>2013-03-24T12:15:15Z</time>
      </trkpt>
      <trkpt lat="59.537615125" lon="17.7432197344">
        <ele>12.8</ele>
        <time>2013-03-24T12:15:16Z</time>
      </trkpt>
      <trkpt lat="59.5375435436" lon="17.7432915673">
        <ele>12.4</ele>
        <time>2013-03-24T12:15:17Z</time>
      </trkpt>
      <trkpt lat="59.5374722136" lon="17.7433598798">
        <ele>12</ele>
        <time>2013-03-24T12:15:18Z</time>
      </trkpt>
      <trkpt lat="59.537106176" lon="17.7437332096">
        <ele>11.4</ele>
        <time>2013-03-24T12:15:23Z</time>
      </trkpt>
      <trkpt lat="59.5370318286" lon="17.7438156037">
        <ele>11</ele>
        <time>2013-03-24T12:15:24Z</time>
      </trkpt>
      <trkpt lat="59.5369587384" lon="17.7438987521">
        <ele>10.4</ele>
        <time>2013-03-24T12:15:25Z</time>
      </trkpt>
      <trkpt lat="59.536886235" lon="17.7439800566">
        <ele>10</ele>
        <time>2013-03-24T12:15:26Z</time>
      </trkpt>
      <trkpt lat="59.5368102112" lon="17.744072006">
        <ele>9.6</ele>
        <time>2013-03-24T12:15:27Z</time>
      </trkpt>
      <trkpt lat="59.5365279088" lon="17.74441097">
        <ele>9.6</ele>
        <time>2013-03-24T12:15:31Z</time>
      </trkpt>
      <trkpt lat="59.5360360589" lon="17.7449797658">
        <ele>9.6</ele>
        <time>2013-03-24T12:15:38Z</time>
      </trkpt>
      <trkpt lat="59.5355096756" lon="17.7455781496">
        <ele>9.6</ele>
        <time>2013-03-24T12:15:46Z</time>
      </trkpt>
      <trkpt lat="59.535449745" lon="17.7456526647">
        <ele>9.6</ele>
        <time>2013-03-24T12:15:47Z</time>
      </trkpt>
      <trkpt lat="59.5350781753" lon="17.7460798901">
        <ele>9.6</ele>
        <time>2013-03-24T12:15:53Z</time>
      </trkpt>
      <trkpt lat="59.5345787817" lon="17.7466381247">
        <ele>9.6</ele>
        <time>2013-03-24T12:16:01Z</time>
      </trkpt>
      <trkpt lat="59.5343909434" lon="17.7468350155">
        <ele>9.6</ele>
        <time>2013-03-24T12:16:04Z</time>
      </trkpt>
      <trkpt lat="59.5342011771" lon="17.7470309005">
        <ele>10</ele>
        <time>2013-03-24T12:16:07Z</time>
      </trkpt>
      <trkpt lat="59.534139654" lon="17.7470901605">
        <ele>10.4</ele>
        <time>2013-03-24T12:16:08Z</time>
      </trkpt>
      <trkpt lat="59.5340810645" lon="17.7471481633">
        <ele>10.8</ele>
        <time>2013-03-24T12:16:09Z</time>
      </trkpt>
      <trkpt lat="59.5340239838" lon="17.7472068366">
        <ele>11.2</ele>
        <time>2013-03-24T12:16:10Z</time>
      </trkpt>
      <trkpt lat="59.5339674898" lon="17.7472630791">
        <ele>11.8</ele>
        <time>2013-03-24T12:16:11Z</time>
      </trkpt>
      <trkpt lat="59.5337463753" lon="17.7474717885">
        <ele>11.8</ele>
        <time>2013-03-24T12:16:15Z</time>
      </trkpt>
      <trkpt lat="59.5333235084" lon="17.747849393">
        <ele>12.2</ele>
        <time>2013-03-24T12:16:21Z</time>
      </trkpt>
      <trkpt lat="59.5332699481" lon="17.7478949906">
        <ele>12.6</ele>
        <time>2013-03-24T12:16:24Z</time>
      </trkpt>
      <trkpt lat="59.5332156333" lon="17.7479363972">
        <ele>13</ele>
        <time>2013-03-24T12:16:25Z</time>
      </trkpt>
      <trkpt lat="59.5331580497" lon="17.7479830005">
        <ele>13.4</ele>
        <time>2013-03-24T12:16:26Z</time>
      </trkpt>
      <trkpt lat="59.5331030644" lon="17.7480270055">
        <ele>13.8</ele>
        <time>2013-03-24T12:16:27Z</time>
      </trkpt>
      <trkpt lat="59.5328846321" lon="17.7482104015">
        <ele>13.8</ele>
        <time>2013-03-24T12:16:31Z</time>
      </trkpt>
      <trkpt lat="59.5325087039" lon="17.7485045224">
        <ele>14.2</ele>
        <time>2013-03-24T12:16:38Z</time>
      </trkpt>
      <trkpt lat="59.532454473" lon="17.7485449231">
        <ele>14.6</ele>
        <time>2013-03-24T12:16:39Z</time>
      </trkpt>
      <trkpt lat="59.5324001583" lon="17.7485862459">
        <ele>15.2</ele>
        <time>2013-03-24T12:16:40Z</time>
      </trkpt>
      <trkpt lat="59.5323465141" lon="17.748622288">
        <ele>15.6</ele>
        <time>2013-03-24T12:16:41Z</time>
      </trkpt>
      <trkpt lat="59.5322890981" lon="17.7486610124">
        <ele>16</ele>
        <time>2013-03-24T12:16:42Z</time>
      </trkpt>
      <trkpt lat="59.5320579253" lon="17.7488203523">
        <ele>16</ele>
        <time>2013-03-24T12:16:46Z</time>
      </trkpt>
      <trkpt lat="59.5316291911" lon="17.749088154">
        <ele>16</ele>
        <time>2013-03-24T12:16:53Z</time>
      </trkpt>
      <trkpt lat="59.5311427895" lon="17.7493596438">
        <ele>16</ele>
        <time>2013-03-24T12:17:01Z</time>
      </trkpt>
      <trkpt lat="59.5306275541" lon="17.7496238413">
        <ele>16</ele>
        <time>2013-03-24T12:17:10Z</time>
      </trkpt>
      <trkpt lat="59.5302476026" lon="17.7497954188">
        <ele>16</ele>
        <time>2013-03-24T12:17:16Z</time>
      </trkpt>
      <trkpt lat="59.5296737777" lon="17.7500128453">
        <ele>16</ele>
        <time>2013-03-24T12:17:25Z</time>
      </trkpt>
      <trkpt lat="59.5291419461" lon="17.7501799803">
        <ele>16</ele>
        <time>2013-03-24T12:17:33Z</time>
      </trkpt>
      <trkpt lat="59.5285794368" lon="17.750346864">
        <ele>15.4</ele>
        <time>2013-03-24T12:17:41Z</time>
      </trkpt>
      <trkpt lat="59.528509448" lon="17.7503686569">
        <ele>15</ele>
        <time>2013-03-24T12:17:42Z</time>
      </trkpt>
      <trkpt lat="59.5284329212" lon="17.7503923777">
        <ele>14.6</ele>
        <time>2013-03-24T12:17:43Z</time>
      </trkpt>
      <trkpt lat="59.528361256" lon="17.7504141706">
        <ele>14</ele>
        <time>2013-03-24T12:17:44Z</time>
      </trkpt>
      <trkpt lat="59.5282890878" lon="17.7504370532">
        <ele>13.6</ele>
        <time>2013-03-24T12:17:45Z</time>
      </trkpt>
      <trkpt lat="59.5279283308" lon="17.7505560762">
        <ele>13.6</ele>
        <time>2013-03-24T12:17:50Z</time>
      </trkpt>
      <trkpt lat="59.527570759" lon="17.7506875044">
        <ele>13.2</ele>
        <time>2013-03-24T12:17:55Z</time>
      </trkpt>
      <trkpt lat="59.527500351" lon="17.7507238818">
        <ele>12.4</ele>
        <time>2013-03-24T12:17:56Z</time>
      </trkpt>
      <trkpt lat="59.5274283505" lon="17.7507472673">
        <ele>11.8</ele>
        <time>2013-03-24T12:17:57Z</time>
      </trkpt>
      <trkpt lat="59.5273594513" lon="17.7507796215">
        <ele>11.4</ele>
        <time>2013-03-24T12:17:58Z</time>
      </trkpt>
      <trkpt lat="59.527286864" lon="17.7508092934">
        <ele>11.4</ele>
        <time>2013-03-24T12:17:59Z</time>
      </trkpt>
      <trkpt lat="59.5270095908" lon="17.7509309986">
        <ele>11.4</ele>
        <time>2013-03-24T12:18:03Z</time>
      </trkpt>
      <trkpt lat="59.5268044019" lon="17.7510481775">
        <ele>11.4</ele>
        <time>2013-03-24T12:18:06Z</time>
      </trkpt>
      <trkpt lat="59.5267370114" lon="17.7510927693">
        <ele>11.4</ele>
        <time>2013-03-24T12:18:07Z</time>
      </trkpt>
      <trkpt lat="59.5265985424" lon="17.751162339">
        <ele>11.4</ele>
        <time>2013-03-24T12:18:09Z</time>
      </trkpt>
      <trkpt lat="59.5264695449" lon="17.7512293104">
        <ele>11</ele>
        <time>2013-03-24T12:18:11Z</time>
      </trkpt>
      <trkpt lat="59.5264180801" lon="17.7512649335">
        <ele>10.6</ele>
        <time>2013-03-24T12:18:12Z</time>
      </trkpt>
      <trkpt lat="59.5263713091" lon="17.7513081841">
        <ele>10.2</ele>
        <time>2013-03-24T12:18:13Z</time>
      </trkpt>
      <trkpt lat="59.5263257954" lon="17.7513647619">
        <ele>9.6</ele>
        <time>2013-03-24T12:18:14Z</time>
      </trkpt>
      <trkpt lat="59.5262848079" lon="17.7514333259">
        <ele>9.2</ele>
        <time>2013-03-24T12:18:15Z</time>
      </trkpt>
      <trkpt lat="59.5262599136" lon="17.751516139">
        <ele>9.2</ele>
        <time>2013-03-24T12:18:16Z</time>
      </trkpt>
      <trkpt lat="59.526246335" lon="17.7516007124">
        <ele>8.8</ele>
        <time>2013-03-24T12:18:17Z</time>
      </trkpt>
      <trkpt lat="59.5262391265" lon="17.751679167">
        <ele>8.4</ele>
        <time>2013-03-24T12:18:18Z</time>
      </trkpt>
      <trkpt lat="59.5262381207" lon="17.7517474795">
        <ele>8</ele>
        <time>2013-03-24T12:18:19Z</time>
      </trkpt>
      <trkpt lat="59.5261728257" lon="17.7515317294">
        <ele>5</ele>
        <time>2013-03-24T12:20:33Z</time>
      </trkpt>
      <trkpt lat="59.526069393" lon="17.7514924182">
        <ele>5</ele>
        <time>2013-03-24T12:20:36Z</time>
      </trkpt>
      <trkpt lat="59.5260284056" lon="17.7515044044">
        <ele>5</ele>
        <time>2013-03-24T12:20:37Z</time>
      </trkpt>
      <trkpt lat="59.5258554031" lon="17.7516350782">
        <ele>5</ele>
        <time>2013-03-24T12:20:41Z</time>
      </trkpt>
      <trkpt lat="59.5256999189" lon="17.7517520895">
        <ele>5</ele>
        <time>2013-03-24T12:20:44Z</time>
      </trkpt>
      <trkpt lat="59.525591038" lon="17.7518428655">
        <ele>5</ele>
        <time>2013-03-24T12:20:46Z</time>
      </trkpt>
      <trkpt lat="59.5251267646" lon="17.7522529919">
        <ele>5</ele>
        <time>2013-03-24T12:20:55Z</time>
      </trkpt>
      <trkpt lat="59.5250390061" lon="17.7523235675">
        <ele>5</ele>
        <time>2013-03-24T12:20:57Z</time>
      </trkpt>
      <trkpt lat="59.5249627308" lon="17.752281155">
        <ele>4.6</ele>
        <time>2013-03-24T12:20:59Z</time>
      </trkpt>
      <trkpt lat="59.5249327236" lon="17.7522180393">
        <ele>4.2</ele>
        <time>2013-03-24T12:21:00Z</time>
      </trkpt>
      <trkpt lat="59.5249115174" lon="17.7521280177">
        <ele>3.8</ele>
        <time>2013-03-24T12:21:01Z</time>
      </trkpt>
      <trkpt lat="59.5248999504" lon="17.7520206456">
        <ele>3.4</ele>
        <time>2013-03-24T12:21:02Z</time>
      </trkpt>
      <trkpt lat="59.5248919875" lon="17.751903299">
        <ele>3</ele>
        <time>2013-03-24T12:21:03Z</time>
      </trkpt>
      <trkpt lat="59.5248437078" lon="17.7512635086">
        <ele>3</ele>
        <time>2013-03-24T12:21:08Z</time>
      </trkpt>
      <trkpt lat="59.5248157123" lon="17.750772413">
        <ele>2.6</ele>
        <time>2013-03-24T12:21:12Z</time>
      </trkpt>
      <trkpt lat="59.5248070789" lon="17.7506563237">
        <ele>1.8</ele>
        <time>2013-03-24T12:21:13Z</time>
      </trkpt>
      <trkpt lat="59.5247991999" lon="17.7505457665">
        <ele>1.4</ele>
        <time>2013-03-24T12:21:14Z</time>
      </trkpt>
      <trkpt lat="59.5247919915" lon="17.7504382267">
        <ele>1</ele>
        <time>2013-03-24T12:21:15Z</time>
      </trkpt>
      <trkpt lat="59.5247471483" lon="17.7501665693">
        <ele>1</ele>
        <time>2013-03-24T12:21:18Z</time>
      </trkpt>
      <trkpt lat="59.5247131178" lon="17.7501306948">
        <ele>1</ele>
        <time>2013-03-24T12:21:19Z</time>
      </trkpt>
      <trkpt lat="59.5245105273" lon="17.7500255019">
        <ele>1</ele>
        <time>2013-03-24T12:21:23Z</time>
      </trkpt>
      <trkpt lat="59.524083218" lon="17.7497525873">
        <ele>1</ele>
        <time>2013-03-24T12:21:30Z</time>
      </trkpt>
      <trkpt lat="59.5238910211" lon="17.7496475621">
        <ele>1</ele>
        <time>2013-03-24T12:21:33Z</time>
      </trkpt>
      <trkpt lat="59.5237714952" lon="17.7496121904">
        <ele>1</ele>
        <time>2013-03-24T12:21:35Z</time>
      </trkpt>
      <trkpt lat="59.5234981614" lon="17.7496403536">
        <ele>1</ele>
        <time>2013-03-24T12:21:40Z</time>
      </trkpt>
      <trkpt lat="59.5233218062" lon="17.7497994421">
        <ele>1</ele>
        <time>2013-03-24T12:21:44Z</time>
      </trkpt>
      <trkpt lat="59.5232773822" lon="17.7498473027">
        <ele>1</ele>
        <time>2013-03-24T12:21:45Z</time>
      </trkpt>
      <trkpt lat="59.5230609615" lon="17.7500556768">
        <ele>1</ele>
        <time>2013-03-24T12:21:51Z</time>
      </trkpt>
      <trkpt lat="59.5230353129" lon="17.7500508991">
        <ele>1</ele>
        <time>2013-03-24T12:21:52Z</time>
      </trkpt>
      <trkpt lat="59.5230126817" lon="17.7500295252">
        <ele>0.6</ele>
        <time>2013-03-24T12:21:53Z</time>
      </trkpt>
      <trkpt lat="59.52299684" lon="17.7499993504">
        <ele>0.2</ele>
        <time>2013-03-24T12:21:54Z</time>
      </trkpt>
      <trkpt lat="59.5229821716" lon="17.7499525794">
        <ele>0</ele>
        <time>2013-03-24T12:21:55Z</time>
      </trkpt>
      <trkpt lat="59.5229726163" lon="17.7498999411">
        <ele>0</ele>
        <time>2013-03-24T12:21:56Z</time>
      </trkpt>
      <trkpt lat="59.5229695988" lon="17.7498434471">
        <ele>0</ele>
        <time>2013-03-24T12:21:57Z</time>
      </trkpt>
      <trkpt lat="59.5229688444" lon="17.7497757213">
        <ele>0</ele>
        <time>2013-03-24T12:21:58Z</time>
      </trkpt>
      <trkpt lat="59.5229582832" lon="17.7491657704">
        <ele>0</ele>
        <time>2013-03-24T12:22:06Z</time>
      </trkpt>
      <trkpt lat="59.5229552657" lon="17.7488666204">
        <ele>0</ele>
        <time>2013-03-24T12:22:09Z</time>
      </trkpt>
      <trkpt lat="59.5229707722" lon="17.7486445839">
        <ele>0</ele>
        <time>2013-03-24T12:22:11Z</time>
      </trkpt>
      <trkpt lat="59.5229790703" lon="17.7485314283">
        <ele>0</ele>
        <time>2013-03-24T12:22:12Z</time>
      </trkpt>
      <trkpt lat="59.5229881228" lon="17.748419027">
        <ele>0</ele>
        <time>2013-03-24T12:22:13Z</time>
      </trkpt>
      <trkpt lat="59.5229990193" lon="17.7483031891">
        <ele>0.2</ele>
        <time>2013-03-24T12:22:14Z</time>
      </trkpt>
      <trkpt lat="59.5230050542" lon="17.7481890276">
        <ele>0.6</ele>
        <time>2013-03-24T12:22:15Z</time>
      </trkpt>
      <trkpt lat="59.5230104186" lon="17.7480771293">
        <ele>1</ele>
        <time>2013-03-24T12:22:16Z</time>
      </trkpt>
      <trkpt lat="59.5230109216" lon="17.747959615">
        <ele>1</ele>
        <time>2013-03-24T12:22:17Z</time>
      </trkpt>
      <trkpt lat="59.5230068982" lon="17.7477196412">
        <ele>1</ele>
        <time>2013-03-24T12:22:19Z</time>
      </trkpt>
      <trkpt lat="59.5229861111" lon="17.7474859539">
        <ele>1</ele>
        <time>2013-03-24T12:22:21Z</time>
      </trkpt>
      <trkpt lat="59.522906986" lon="17.7470461556">
        <ele>1</ele>
        <time>2013-03-24T12:22:25Z</time>
      </trkpt>
      <trkpt lat="59.5228545991" lon="17.7468437327">
        <ele>1</ele>
        <time>2013-03-24T12:22:27Z</time>
      </trkpt>
      <trkpt lat="59.5227991948" lon="17.7466461713">
        <ele>1</ele>
        <time>2013-03-24T12:22:29Z</time>
      </trkpt>
      <trkpt lat="59.5226988634" lon="17.7463393938">
        <ele>1</ele>
        <time>2013-03-24T12:22:32Z</time>
      </trkpt>
      <trkpt lat="59.5225108574" lon="17.745659454">
        <ele>1</ele>
        <time>2013-03-24T12:22:38Z</time>
      </trkpt>
      <trkpt lat="59.5223703768" lon="17.7450466533">
        <ele>1</ele>
        <time>2013-03-24T12:22:44Z</time>
      </trkpt>
      <trkpt lat="59.5223268747" lon="17.7448563842">
        <ele>1.4</ele>
        <time>2013-03-24T12:22:46Z</time>
      </trkpt>
      <trkpt lat="59.5223039083" lon="17.7447497664">
        <ele>1.8</ele>
        <time>2013-03-24T12:22:47Z</time>
      </trkpt>
      <trkpt lat="59.5222819477" lon="17.7446485131">
        <ele>2.2</ele>
        <time>2013-03-24T12:22:48Z</time>
      </trkpt>
      <trkpt lat="59.5222611606" lon="17.744544829">
        <ele>2.6</ele>
        <time>2013-03-24T12:22:49Z</time>
      </trkpt>
      <trkpt lat="59.5222375236" lon="17.7444442462">
        <ele>3.2</ele>
        <time>2013-03-24T12:22:50Z</time>
      </trkpt>
      <trkpt lat="59.5222128809" lon="17.7443445854">
        <ele>3.2</ele>
        <time>2013-03-24T12:22:51Z</time>
      </trkpt>
      <trkpt lat="59.5220947799" lon="17.7438257458">
        <ele>3.6</ele>
        <time>2013-03-24T12:22:56Z</time>
      </trkpt>
      <trkpt lat="59.5220718135" lon="17.743725163">
        <ele>4</ele>
        <time>2013-03-24T12:22:57Z</time>
      </trkpt>
      <trkpt lat="59.5220480089" lon="17.7436265918">
        <ele>4.4</ele>
        <time>2013-03-24T12:22:58Z</time>
      </trkpt>
      <trkpt lat="59.5220263836" lon="17.7435254223">
        <ele>4.8</ele>
        <time>2013-03-24T12:22:59Z</time>
      </trkpt>
      <trkpt lat="59.5220051774" lon="17.7434217382">
        <ele>5.2</ele>
        <time>2013-03-24T12:23:00Z</time>
      </trkpt>
      <trkpt lat="59.5218920217" lon="17.7429147171">
        <ele>5.2</ele>
        <time>2013-03-24T12:23:05Z</time>
      </trkpt>
      <trkpt lat="59.5217143254" lon="17.74219094">
        <ele>5.2</ele>
        <time>2013-03-24T12:23:12Z</time>
      </trkpt>
      <trkpt lat="59.5216807978" lon="17.742097398">
        <ele>5.2</ele>
        <time>2013-03-24T12:23:13Z</time>
      </trkpt>
      <trkpt lat="59.5215982361" lon="17.7419311011">
        <ele>5.6</ele>
        <time>2013-03-24T12:23:15Z</time>
      </trkpt>
      <trkpt lat="59.521549202" lon="17.7418647164">
        <ele>6.4</ele>
        <time>2013-03-24T12:23:16Z</time>
      </trkpt>
      <trkpt lat="59.5215025986" lon="17.7417946438">
        <ele>7</ele>
        <time>2013-03-24T12:23:17Z</time>
      </trkpt>
      <trkpt lat="59.5214548218" lon="17.7417203801">
        <ele>7.4</ele>
        <time>2013-03-24T12:23:18Z</time>
      </trkpt>
      <trkpt lat="59.5211200487" lon="17.7412426118">
        <ele>7.4</ele>
        <time>2013-03-24T12:23:25Z</time>
      </trkpt>
      <trkpt lat="59.5208201443" lon="17.7408316473">
        <ele>7.4</ele>
        <time>2013-03-24T12:23:31Z</time>
      </trkpt>
      <trkpt lat="59.520476235" lon="17.7403408032">
        <ele>7.4</ele>
        <time>2013-03-24T12:23:38Z</time>
      </trkpt>
      <trkpt lat="59.5200842135" lon="17.7397320258">
        <ele>7.4</ele>
        <time>2013-03-24T12:23:46Z</time>
      </trkpt>
      <trkpt lat="59.5199166593" lon="17.7394076463">
        <ele>7.4</ele>
        <time>2013-03-24T12:23:50Z</time>
      </trkpt>
      <trkpt lat="59.5198202675" lon="17.7392390863">
        <ele>7.4</ele>
        <time>2013-03-24T12:23:52Z</time>
      </trkpt>
      <trkpt lat="59.5195358696" lon="17.7386774152">
        <ele>7.4</ele>
        <time>2013-03-24T12:23:58Z</time>
      </trkpt>
      <trkpt lat="59.5194326884" lon="17.7384824522">
        <ele>7</ele>
        <time>2013-03-24T12:24:00Z</time>
      </trkpt>
      <trkpt lat="59.5193837381" lon="17.7383882396">
        <ele>6.6</ele>
        <time>2013-03-24T12:24:01Z</time>
      </trkpt>
      <trkpt lat="59.5193332791" lon="17.7382947814">
        <ele>6.2</ele>
        <time>2013-03-24T12:24:02Z</time>
      </trkpt>
      <trkpt lat="59.5192829877" lon="17.7382040893">
        <ele>5.8</ele>
        <time>2013-03-24T12:24:03Z</time>
      </trkpt>
      <trkpt lat="59.5192318581" lon="17.738110212">
        <ele>5.2</ele>
        <time>2013-03-24T12:24:04Z</time>
      </trkpt>
      <trkpt lat="59.5190845043" lon="17.7378365429">
        <ele>5.2</ele>
        <time>2013-03-24T12:24:07Z</time>
      </trkpt>
      <trkpt lat="59.5188130984" lon="17.7373007719">
        <ele>5.2</ele>
        <time>2013-03-24T12:24:13Z</time>
      </trkpt>
      <trkpt lat="59.5185645751" lon="17.736754272">
        <ele>5.2</ele>
        <time>2013-03-24T12:24:19Z</time>
      </trkpt>
      <trkpt lat="59.5182843681" lon="17.7362322473">
        <ele>5.2</ele>
        <time>2013-03-24T12:24:25Z</time>
      </trkpt>
      <trkpt lat="59.5179725615" lon="17.7357186045">
        <ele>5.2</ele>
        <time>2013-03-24T12:24:31Z</time>
      </trkpt>
      <trkpt lat="59.5176785244" lon="17.7352101584">
        <ele>5.2</ele>
        <time>2013-03-24T12:24:37Z</time>
      </trkpt>
      <trkpt lat="59.5173431646" lon="17.7345414504">
        <ele>5.2</ele>
        <time>2013-03-24T12:24:44Z</time>
      </trkpt>
      <trkpt lat="59.5171725929" lon="17.7340909233">
        <ele>5.2</ele>
        <time>2013-03-24T12:24:48Z</time>
      </trkpt>
      <trkpt lat="59.5171425857" lon="17.7339593275">
        <ele>5.2</ele>
        <time>2013-03-24T12:24:49Z</time>
      </trkpt>
      <trkpt lat="59.5170036138" lon="17.7334643763">
        <ele>5.2</ele>
        <time>2013-03-24T12:24:53Z</time>
      </trkpt>
      <trkpt lat="59.5169477065" lon="17.733378378">
        <ele>5.8</ele>
        <time>2013-03-24T12:24:54Z</time>
      </trkpt>
      <trkpt lat="59.5168893685" lon="17.7333046173">
        <ele>6.6</ele>
        <time>2013-03-24T12:24:55Z</time>
      </trkpt>
      <trkpt lat="59.516830779" lon="17.73323203">
        <ele>7</ele>
        <time>2013-03-24T12:24:56Z</time>
      </trkpt>
      <trkpt lat="59.51677571" lon="17.7331534078">
        <ele>7.4</ele>
        <time>2013-03-24T12:24:57Z</time>
      </trkpt>
      <trkpt lat="59.5166003606" lon="17.7327571954">
        <ele>7.4</ele>
        <time>2013-03-24T12:25:01Z</time>
      </trkpt>
      <trkpt lat="59.5165107581" lon="17.7324023057">
        <ele>7.4</ele>
        <time>2013-03-24T12:25:04Z</time>
      </trkpt>
      <trkpt lat="59.516462646" lon="17.7321568837">
        <ele>7.4</ele>
        <time>2013-03-24T12:25:06Z</time>
      </trkpt>
      <trkpt lat="59.5163926571" lon="17.7317892536">
        <ele>7.8</ele>
        <time>2013-03-24T12:25:09Z</time>
      </trkpt>
      <trkpt lat="59.5163723729" lon="17.7316766846">
        <ele>8.2</ele>
        <time>2013-03-24T12:25:10Z</time>
      </trkpt>
      <trkpt lat="59.5163494065" lon="17.7315659597">
        <ele>8.8</ele>
        <time>2013-03-24T12:25:11Z</time>
      </trkpt>
      <trkpt lat="59.5163211595" lon="17.7314585038">
        <ele>9.2</ele>
        <time>2013-03-24T12:25:12Z</time>
      </trkpt>
      <trkpt lat="59.5162886378" lon="17.7313497905">
        <ele>9.6</ele>
        <time>2013-03-24T12:25:13Z</time>
      </trkpt>
      <trkpt lat="59.5162499134" lon="17.7312552427">
        <ele>9.6</ele>
        <time>2013-03-24T12:25:14Z</time>
      </trkpt>
      <trkpt lat="59.5161112767" lon="17.7309731918">
        <ele>9.6</ele>
        <time>2013-03-24T12:25:17Z</time>
      </trkpt>
      <trkpt lat="59.5158877315" lon="17.7304783244">
        <ele>9.6</ele>
        <time>2013-03-24T12:25:22Z</time>
      </trkpt>
      <trkpt lat="59.5158281362" lon="17.730243715">
        <ele>9.6</ele>
        <time>2013-03-24T12:25:24Z</time>
      </trkpt>
      <trkpt lat="59.515705509" lon="17.7295560639">
        <ele>9.6</ele>
        <time>2013-03-24T12:25:30Z</time>
      </trkpt>
      <trkpt lat="59.5156659464" lon="17.7288893676">
        <ele>9.6</ele>
        <time>2013-03-24T12:25:36Z</time>
      </trkpt>
      <trkpt lat="59.5156702212" lon="17.7279573842">
        <ele>9.6</ele>
        <time>2013-03-24T12:25:44Z</time>
      </trkpt>
      <trkpt lat="59.5156825426" lon="17.7272404802">
        <ele>9.6</ele>
        <time>2013-03-24T12:25:50Z</time>
      </trkpt>
      <trkpt lat="59.5156713108" lon="17.7269359658">
        <ele>9.6</ele>
        <time>2013-03-24T12:25:53Z</time>
      </trkpt>
      <trkpt lat="59.5156583189" lon="17.7267539948">
        <ele>9.6</ele>
        <time>2013-03-24T12:25:55Z</time>
      </trkpt>
      <trkpt lat="59.5156558881" lon="17.7266673259">
        <ele>9.6</ele>
        <time>2013-03-24T12:25:56Z</time>
      </trkpt>
      <trkpt lat="59.5156395434" lon="17.7263750491">
        <ele>9.6</ele>
        <time>2013-03-24T12:26:00Z</time>
      </trkpt>
      <trkpt lat="59.515669383" lon="17.7259581334">
        <ele>9.6</ele>
        <time>2013-03-24T12:26:06Z</time>
      </trkpt>
      <trkpt lat="59.5156659464" lon="17.7256480031">
        <ele>9.6</ele>
        <time>2013-03-24T12:26:11Z</time>
      </trkpt>
      <trkpt lat="59.5156356877" lon="17.7256422196">
        <ele>9.2</ele>
        <time>2013-03-24T12:26:12Z</time>
      </trkpt>
      <trkpt lat="59.5155961252" lon="17.72565496">
        <ele>8.8</ele>
        <time>2013-03-24T12:26:13Z</time>
      </trkpt>
      <trkpt lat="59.5155535451" lon="17.7256900802">
        <ele>8.4</ele>
        <time>2013-03-24T12:26:14Z</time>
      </trkpt>
      <trkpt lat="59.5155056007" lon="17.7257320735">
        <ele>8</ele>
        <time>2013-03-24T12:26:15Z</time>
      </trkpt>
      <trkpt lat="59.5154563151" lon="17.7257728934">
        <ele>7.6</ele>
        <time>2013-03-24T12:26:16Z</time>
      </trkpt>
      <trkpt lat="59.5152911078" lon="17.7258992086">
        <ele>7.6</ele>
        <time>2013-03-24T12:26:19Z</time>
      </trkpt>
      <trkpt lat="59.514921969" lon="17.7261975204">
        <ele>7.6</ele>
        <time>2013-03-24T12:26:25Z</time>
      </trkpt>
      <trkpt lat="59.5147934744" lon="17.7263529209">
        <ele>7.6</ele>
        <time>2013-03-24T12:26:27Z</time>
      </trkpt>
      <trkpt lat="59.5146747029" lon="17.7265425194">
        <ele>7.6</ele>
        <time>2013-03-24T12:26:29Z</time>
      </trkpt>
      <trkpt lat="59.51429911" lon="17.7270380574">
        <ele>7.6</ele>
        <time>2013-03-24T12:26:35Z</time>
      </trkpt>
      <trkpt lat="59.5142321386" lon="17.7271048611">
        <ele>7</ele>
        <time>2013-03-24T12:26:36Z</time>
      </trkpt>
      <trkpt lat="59.5141639937" lon="17.7271692341">
        <ele>6.6</ele>
        <time>2013-03-24T12:26:37Z</time>
      </trkpt>
      <trkpt lat="59.5140935858" lon="17.7272346129">
        <ele>6.2</ele>
        <time>2013-03-24T12:26:38Z</time>
      </trkpt>
      <trkpt lat="59.5140256924" lon="17.7272993212">
        <ele>5.6</ele>
        <time>2013-03-24T12:26:39Z</time>
      </trkpt>
      <trkpt lat="59.5139545301" lon="17.7273633589">
        <ele>5.2</ele>
        <time>2013-03-24T12:26:40Z</time>
      </trkpt>
      <trkpt lat="59.5137595671" lon="17.7275486827">
        <ele>5.2</ele>
        <time>2013-03-24T12:26:43Z</time>
      </trkpt>
      <trkpt lat="59.5132512886" lon="17.7280643372">
        <ele>5.2</ele>
        <time>2013-03-24T12:26:51Z</time>
      </trkpt>
      <trkpt lat="59.5128714209" lon="17.7284343981">
        <ele>5.2</ele>
        <time>2013-03-24T12:26:57Z</time>
      </trkpt>
      <trkpt lat="59.5128053716" lon="17.7284947478">
        <ele>4.4</ele>
        <time>2013-03-24T12:26:58Z</time>
      </trkpt>
      <trkpt lat="59.51273664" lon="17.7285462126">
        <ele>4</ele>
        <time>2013-03-24T12:26:59Z</time>
      </trkpt>
      <trkpt lat="59.5126602809" lon="17.7286038801">
        <ele>3.4</ele>
        <time>2013-03-24T12:27:00Z</time>
      </trkpt>
      <trkpt lat="59.5125954888" lon="17.7286642298">
        <ele>3</ele>
        <time>2013-03-24T12:27:01Z</time>
      </trkpt>
      <trkpt lat="59.5124602887" lon="17.7287875275">
        <ele>3</ele>
        <time>2013-03-24T12:27:03Z</time>
      </trkpt>
      <trkpt lat="59.5119591349" lon="17.7292736777">
        <ele>3</ele>
        <time>2013-03-24T12:27:11Z</time>
      </trkpt>
      <trkpt lat="59.5115050036" lon="17.7296705607">
        <ele>3</ele>
        <time>2013-03-24T12:27:18Z</time>
      </trkpt>
      <trkpt lat="59.5111076177" lon="17.7300055014">
        <ele>2.6</ele>
        <time>2013-03-24T12:27:24Z</time>
      </trkpt>
      <trkpt lat="59.5110424065" lon="17.7300624983">
        <ele>2</ele>
        <time>2013-03-24T12:27:25Z</time>
      </trkpt>
      <trkpt lat="59.5109772792" lon="17.7301218422">
        <ele>1.6</ele>
        <time>2013-03-24T12:27:26Z</time>
      </trkpt>
      <trkpt lat="59.5109123195" lon="17.7301795097">
        <ele>1.2</ele>
        <time>2013-03-24T12:27:27Z</time>
      </trkpt>
      <trkpt lat="59.5108492876" lon="17.7302402784">
        <ele>0.6</ele>
        <time>2013-03-24T12:27:28Z</time>
      </trkpt>
      <trkpt lat="59.5105332061" lon="17.7305046436">
        <ele>0.6</ele>
        <time>2013-03-24T12:27:33Z</time>
      </trkpt>
      <trkpt lat="59.5102583636" lon="17.7307728644">
        <ele>0.6</ele>
        <time>2013-03-24T12:27:38Z</time>
      </trkpt>
      <trkpt lat="59.5100916476" lon="17.7309509797">
        <ele>0.6</ele>
        <time>2013-03-24T12:27:41Z</time>
      </trkpt>
      <trkpt lat="59.509990059" lon="17.7311297657">
        <ele>0.6</ele>
        <time>2013-03-24T12:27:43Z</time>
      </trkpt>
      <trkpt lat="59.5098950921" lon="17.7313355413">
        <ele>0.6</ele>
        <time>2013-03-24T12:27:45Z</time>
      </trkpt>
      <trkpt lat="59.5098328146" lon="17.7315955478">
        <ele>0.6</ele>
        <time>2013-03-24T12:27:47Z</time>
      </trkpt>
      <trkpt lat="59.5097904021" lon="17.7318692169">
        <ele>0.6</ele>
        <time>2013-03-24T12:27:49Z</time>
      </trkpt>
      <trkpt lat="59.5097427929" lon="17.7322559577">
        <ele>0.6</ele>
        <time>2013-03-24T12:27:52Z</time>
      </trkpt>
      <trkpt lat="59.5096786714" lon="17.733036145">
        <ele>0.6</ele>
        <time>2013-03-24T12:27:58Z</time>
      </trkpt>
      <trkpt lat="59.5096697028" lon="17.7332882726">
        <ele>0.6</ele>
        <time>2013-03-24T12:28:00Z</time>
      </trkpt>
      <trkpt lat="59.5096668529" lon="17.7336337745">
        <ele>0.6</ele>
        <time>2013-03-24T12:28:03Z</time>
      </trkpt>
      <trkpt lat="59.5096032343" lon="17.7344655942">
        <ele>0.6</ele>
        <time>2013-03-24T12:28:08Z</time>
      </trkpt>
      <trkpt lat="59.5095823634" lon="17.7345551967">
        <ele>0.6</ele>
        <time>2013-03-24T12:28:11Z</time>
      </trkpt>
      <trkpt lat="59.5094120432" lon="17.73509826">
        <ele>0.6</ele>
        <time>2013-03-24T12:28:17Z</time>
      </trkpt>
      <trkpt lat="59.5092601631" lon="17.7352368967">
        <ele>0.6</ele>
        <time>2013-03-24T12:28:20Z</time>
      </trkpt>
      <trkpt lat="59.509091184" lon="17.7350554285">
        <ele>0.6</ele>
        <time>2013-03-24T12:28:23Z</time>
      </trkpt>
      <trkpt lat="59.5090020006" lon="17.7348681769">
        <ele>0.6</ele>
        <time>2013-03-24T12:28:25Z</time>
      </trkpt>
      <trkpt lat="59.508871243" lon="17.7345914904">
        <ele>0.6</ele>
        <time>2013-03-24T12:28:28Z</time>
      </trkpt>
      <trkpt lat="59.5088444209" lon="17.7344921648">
        <ele>0.6</ele>
        <time>2013-03-24T12:28:29Z</time>
      </trkpt>
      <trkpt lat="59.5088751825" lon="17.7341594034">
        <ele>0.6</ele>
        <time>2013-03-24T12:28:32Z</time>
      </trkpt>
      <trkpt lat="59.5089035133" lon="17.7340523666">
        <ele>0.6</ele>
        <time>2013-03-24T12:28:33Z</time>
      </trkpt>
      <trkpt lat="59.508965707" lon="17.7337009135">
        <ele>0.6</ele>
        <time>2013-03-24T12:28:36Z</time>
      </trkpt>
      <trkpt lat="59.508973586" lon="17.7335775319">
        <ele>0.6</ele>
        <time>2013-03-24T12:28:37Z</time>
      </trkpt>
      <trkpt lat="59.5089705685" lon="17.7332404119">
        <ele>0.6</ele>
        <time>2013-03-24T12:28:40Z</time>
      </trkpt>
      <trkpt lat="59.5089626057" lon="17.7330115022">
        <ele>0.6</ele>
        <time>2013-03-24T12:28:42Z</time>
      </trkpt>
      <trkpt lat="59.5089220373" lon="17.7321964463">
        <ele>0.6</ele>
        <time>2013-03-24T12:28:49Z</time>
      </trkpt>
      <trkpt lat="59.5088843187" lon="17.7312726771">
        <ele>0.6</ele>
        <time>2013-03-24T12:28:57Z</time>
      </trkpt>
      <trkpt lat="59.5088625258" lon="17.7308145224">
        <ele>1</ele>
        <time>2013-03-24T12:29:01Z</time>
      </trkpt>
      <trkpt lat="59.5088554012" lon="17.7306963376">
        <ele>1.4</ele>
        <time>2013-03-24T12:29:02Z</time>
      </trkpt>
      <trkpt lat="59.5088506235" lon="17.7305805836">
        <ele>2.2</ele>
        <time>2013-03-24T12:29:03Z</time>
      </trkpt>
      <trkpt lat="59.5088450076" lon="17.7304647457">
        <ele>2.6</ele>
        <time>2013-03-24T12:29:04Z</time>
      </trkpt>
      <trkpt lat="59.5087751026" lon="17.7297879073">
        <ele>2.6</ele>
        <time>2013-03-24T12:29:10Z</time>
      </trkpt>
      <trkpt lat="59.5086873441" lon="17.7294838958">
        <ele>2.6</ele>
        <time>2013-03-24T12:29:13Z</time>
      </trkpt>
      <trkpt lat="59.5086200374" lon="17.7292975661">
        <ele>2.6</ele>
        <time>2013-03-24T12:29:15Z</time>
      </trkpt>
      <trkpt lat="59.5083603662" lon="17.7286752939">
        <ele>2.6</ele>
        <time>2013-03-24T12:29:22Z</time>
      </trkpt>
      <trkpt lat="59.5082670756" lon="17.7284963403">
        <ele>2.6</ele>
        <time>2013-03-24T12:29:24Z</time>
      </trkpt>
      <trkpt lat="59.5080561032" lon="17.7281937537">
        <ele>2.6</ele>
        <time>2013-03-24T12:29:28Z</time>
      </trkpt>
      <trkpt lat="59.507933476" lon="17.7280839508">
        <ele>2.6</ele>
        <time>2013-03-24T12:29:30Z</time>
      </trkpt>
      <trkpt lat="59.5078064902" lon="17.7279624133">
        <ele>2.6</ele>
        <time>2013-03-24T12:29:32Z</time>
      </trkpt>
      <trkpt lat="59.5073460725" lon="17.7275613394">
        <ele>2.6</ele>
        <time>2013-03-24T12:29:39Z</time>
      </trkpt>
      <trkpt lat="59.5069880815" lon="17.727114165">
        <ele>2.6</ele>
        <time>2013-03-24T12:29:45Z</time>
      </trkpt>
      <trkpt lat="59.506678957" lon="17.7266976684">
        <ele>2.6</ele>
        <time>2013-03-24T12:29:50Z</time>
      </trkpt>
      <trkpt lat="59.5066025979" lon="17.7266156096">
        <ele>2.6</ele>
        <time>2013-03-24T12:29:51Z</time>
      </trkpt>
      <trkpt lat="59.50647754" lon="17.7264546771">
        <ele>2.6</ele>
        <time>2013-03-24T12:29:53Z</time>
      </trkpt>
      <trkpt lat="59.5061739476" lon="17.7259553673">
        <ele>2.6</ele>
        <time>2013-03-24T12:29:59Z</time>
      </trkpt>
      <trkpt lat="59.5059896296" lon="17.72565035">
        <ele>3</ele>
        <time>2013-03-24T12:30:03Z</time>
      </trkpt>
      <trkpt lat="59.5059496479" lon="17.7255833786">
        <ele>3.6</ele>
        <time>2013-03-24T12:30:04Z</time>
      </trkpt>
      <trkpt lat="59.5059115103" lon="17.7255199276">
        <ele>4</ele>
        <time>2013-03-24T12:30:05Z</time>
      </trkpt>
      <trkpt lat="59.5058732888" lon="17.7254580692">
        <ele>4.4</ele>
        <time>2013-03-24T12:30:06Z</time>
      </trkpt>
      <trkpt lat="59.5058346483" lon="17.7253975519">
        <ele>4.8</ele>
        <time>2013-03-24T12:30:07Z</time>
      </trkpt>
      <trkpt lat="59.5056289564" lon="17.7249989087">
        <ele>4.8</ele>
        <time>2013-03-24T12:30:13Z</time>
      </trkpt>
      <trkpt lat="59.5056631546" lon="17.7246896166">
        <ele>4.8</ele>
        <time>2013-03-24T12:30:16Z</time>
      </trkpt>
      <trkpt lat="59.5057266056" lon="17.7244985093">
        <ele>4.8</ele>
        <time>2013-03-24T12:30:18Z</time>
      </trkpt>
      <trkpt lat="59.5058160404" lon="17.7241951683">
        <ele>4.8</ele>
        <time>2013-03-24T12:30:21Z</time>
      </trkpt>
      <trkpt lat="59.5059161203" lon="17.7238809309">
        <ele>4.8</ele>
        <time>2013-03-24T12:30:24Z</time>
      </trkpt>
      <trkpt lat="59.5059840137" lon="17.7236797653">
        <ele>4.8</ele>
        <time>2013-03-24T12:30:26Z</time>
      </trkpt>
      <trkpt lat="59.5061864366" lon="17.7230810462">
        <ele>4.8</ele>
        <time>2013-03-24T12:30:32Z</time>
      </trkpt>
      <trkpt lat="59.5063967385" lon="17.7224043754">
        <ele>4.8</ele>
        <time>2013-03-24T12:30:39Z</time>
      </trkpt>
      <trkpt lat="59.5065837387" lon="17.7217681892">
        <ele>4.8</ele>
        <time>2013-03-24T12:30:45Z</time>
      </trkpt>
      <trkpt lat="59.506678957" lon="17.7212726513">
        <ele>4.8</ele>
        <time>2013-03-24T12:30:50Z</time>
      </trkpt>
      <trkpt lat="59.5066688988" lon="17.7208335235">
        <ele>4.8</ele>
        <time>2013-03-24T12:30:55Z</time>
      </trkpt>
      <trkpt lat="59.5066456809" lon="17.7206660532">
        <ele>5.2</ele>
        <time>2013-03-24T12:30:57Z</time>
      </trkpt>
      <trkpt lat="59.5066421605" lon="17.7205836591">
        <ele>5.6</ele>
        <time>2013-03-24T12:30:58Z</time>
      </trkpt>
      <trkpt lat="59.5066481955" lon="17.7205047016">
        <ele>6</ele>
        <time>2013-03-24T12:30:59Z</time>
      </trkpt>
      <trkpt lat="59.5066526379" lon="17.7204209664">
        <ele>6.4</ele>
        <time>2013-03-24T12:31:00Z</time>
      </trkpt>
      <trkpt lat="59.5066562421" lon="17.7203349681">
        <ele>7</ele>
        <time>2013-03-24T12:31:01Z</time>
      </trkpt>
      <trkpt lat="59.5066719162" lon="17.7199653263">
        <ele>7</ele>
        <time>2013-03-24T12:31:05Z</time>
      </trkpt>
      <trkpt lat="59.5066659651" lon="17.7198750533">
        <ele>7</ele>
        <time>2013-03-24T12:31:06Z</time>
      </trkpt>
      <trkpt lat="59.5066373828" lon="17.7195054115">
        <ele>7.4</ele>
        <time>2013-03-24T12:31:11Z</time>
      </trkpt>
      <trkpt lat="59.5066362932" lon="17.7194578023">
        <ele>7.8</ele>
        <time>2013-03-24T12:31:12Z</time>
      </trkpt>
      <trkpt lat="59.5066348682" lon="17.7194091873">
        <ele>8.2</ele>
        <time>2013-03-24T12:31:13Z</time>
      </trkpt>
      <trkpt lat="59.5066304258" lon="17.7193633383">
        <ele>8.6</ele>
        <time>2013-03-24T12:31:14Z</time>
      </trkpt>
      <trkpt lat="59.5066284142" lon="17.7193028209">
        <ele>9</ele>
        <time>2013-03-24T12:31:15Z</time>
      </trkpt>
      <trkpt lat="59.5066242232" lon="17.7192513561">
        <ele>9</ele>
        <time>2013-03-24T12:31:17Z</time>
      </trkpt>
      <trkpt lat="59.5066246423" lon="17.7192287249">
        <ele>9</ele>
        <time>2013-03-24T12:31:18Z</time>
      </trkpt>
      <trkpt lat="59.5066241394" lon="17.7191979634">
        <ele>8.6</ele>
        <time>2013-03-24T12:31:20Z</time>
      </trkpt>
      <trkpt lat="59.5066233012" lon="17.7191991368">
        <ele>8.2</ele>
        <time>2013-03-24T12:31:21Z</time>
      </trkpt>
      <trkpt lat="59.5066233012" lon="17.7191991368">
        <ele>7.8</ele>
        <time>2013-03-24T12:31:22Z</time>
      </trkpt>
      <trkpt lat="59.5066233012" lon="17.7191991368">
        <ele>7</ele>
        <time>2013-03-24T12:31:51Z</time>
      </trkpt>
      <trkpt lat="59.506637299" lon="17.7191058463">
        <ele>7</ele>
        <time>2013-03-24T12:31:54Z</time>
      </trkpt>
      <trkpt lat="59.5066547333" lon="17.7188229572">
        <ele>7</ele>
        <time>2013-03-24T12:31:58Z</time>
      </trkpt>
      <trkpt lat="59.5066674738" lon="17.7186793752">
        <ele>6.4</ele>
        <time>2013-03-24T12:32:00Z</time>
      </trkpt>
      <trkpt lat="59.5066724192" lon="17.7186100569">
        <ele>6</ele>
        <time>2013-03-24T12:32:01Z</time>
      </trkpt>
      <trkpt lat="59.5066761072" lon="17.7185459354">
        <ele>5.6</ele>
        <time>2013-03-24T12:32:02Z</time>
      </trkpt>
      <trkpt lat="59.5066776998" lon="17.7184819815">
        <ele>5.2</ele>
        <time>2013-03-24T12:32:03Z</time>
      </trkpt>
      <trkpt lat="59.5066799629" lon="17.7184109868">
        <ele>4.8</ele>
        <time>2013-03-24T12:32:04Z</time>
      </trkpt>
      <trkpt lat="59.5067161727" lon="17.7178818374">
        <ele>4.8</ele>
        <time>2013-03-24T12:32:11Z</time>
      </trkpt>
      <trkpt lat="59.5067700683" lon="17.7172103634">
        <ele>4.8</ele>
        <time>2013-03-24T12:32:20Z</time>
      </trkpt>
      <trkpt lat="59.5067893467" lon="17.7169081959">
        <ele>4.8</ele>
        <time>2013-03-24T12:32:24Z</time>
      </trkpt>
      <trkpt lat="59.5067887599" lon="17.7168318368">
        <ele>4.8</ele>
        <time>2013-03-24T12:32:25Z</time>
      </trkpt>
      <trkpt lat="59.5067736725" lon="17.7165283282">
        <ele>5.2</ele>
        <time>2013-03-24T12:32:29Z</time>
      </trkpt>
      <trkpt lat="59.5067742592" lon="17.7164498736">
        <ele>5.6</ele>
        <time>2013-03-24T12:32:30Z</time>
      </trkpt>
      <trkpt lat="59.5067776958" lon="17.7163751909">
        <ele>6</ele>
        <time>2013-03-24T12:32:31Z</time>
      </trkpt>
      <trkpt lat="59.5067758518" lon="17.7162922939">
        <ele>6.4</ele>
        <time>2013-03-24T12:32:32Z</time>
      </trkpt>
      <trkpt lat="59.5067731696" lon="17.7161984166">
        <ele>6.8</ele>
        <time>2013-03-24T12:32:33Z</time>
      </trkpt>
      <trkpt lat="59.5067608482" lon="17.7159022003">
        <ele>6.8</ele>
        <time>2013-03-24T12:32:36Z</time>
      </trkpt>
      <trkpt lat="59.5067635304" lon="17.7155447961">
        <ele>6.8</ele>
        <time>2013-03-24T12:32:39Z</time>
      </trkpt>
      <trkpt lat="59.5067643686" lon="17.7152891481">
        <ele>6.8</ele>
        <time>2013-03-24T12:32:41Z</time>
      </trkpt>
      <trkpt lat="59.5067700683" lon="17.7144933705">
        <ele>6.8</ele>
        <time>2013-03-24T12:32:48Z</time>
      </trkpt>
      <trkpt lat="59.5067679728" lon="17.7140822383">
        <ele>6.8</ele>
        <time>2013-03-24T12:32:52Z</time>
      </trkpt>
      <trkpt lat="59.5067725829" lon="17.7139820746">
        <ele>6.8</ele>
        <time>2013-03-24T12:32:53Z</time>
      </trkpt>
      <trkpt lat="59.5067812162" lon="17.7138238244">
        <ele>6.4</ele>
        <time>2013-03-24T12:32:55Z</time>
      </trkpt>
      <trkpt lat="59.5067862454" lon="17.713766576">
        <ele>6</ele>
        <time>2013-03-24T12:32:56Z</time>
      </trkpt>
      <trkpt lat="59.506792448" lon="17.7137071483">
        <ele>5.6</ele>
        <time>2013-03-24T12:32:57Z</time>
      </trkpt>
      <trkpt lat="59.5067999079" lon="17.7136452899">
        <ele>5.2</ele>
        <time>2013-03-24T12:32:58Z</time>
      </trkpt>
      <trkpt lat="59.5068025062" lon="17.7135778994">
        <ele>4.6</ele>
        <time>2013-03-24T12:32:59Z</time>
      </trkpt>
      <trkpt lat="59.5068075354" lon="17.7133617302">
        <ele>4.6</ele>
        <time>2013-03-24T12:33:02Z</time>
      </trkpt>
      <trkpt lat="59.5068004108" lon="17.7128293119">
        <ele>4.6</ele>
        <time>2013-03-24T12:33:08Z</time>
      </trkpt>
      <trkpt lat="59.5067647039" lon="17.7121223825">
        <ele>4.6</ele>
        <time>2013-03-24T12:33:15Z</time>
      </trkpt>
      <trkpt lat="59.5066926195" lon="17.7116431893">
        <ele>4.6</ele>
        <time>2013-03-24T12:33:20Z</time>
      </trkpt>
      <trkpt lat="59.5066735926" lon="17.711553">
        <ele>4.6</ele>
        <time>2013-03-24T12:33:21Z</time>
      </trkpt>
      <trkpt lat="59.5066527217" lon="17.7114717794">
        <ele>4.6</ele>
        <time>2013-03-24T12:33:22Z</time>
      </trkpt>
      <trkpt lat="59.5066075433" lon="17.7113143673">
        <ele>4.6</ele>
        <time>2013-03-24T12:33:24Z</time>
      </trkpt>
      <trkpt lat="59.506525233" lon="17.7110685262">
        <ele>4.6</ele>
        <time>2013-03-24T12:33:27Z</time>
      </trkpt>
      <trkpt lat="59.5063329522" lon="17.7105903388">
        <ele>4.6</ele>
        <time>2013-03-24T12:33:34Z</time>
      </trkpt>
      <trkpt lat="59.5062842534" lon="17.7104169173">
        <ele>4.6</ele>
        <time>2013-03-24T12:33:36Z</time>
      </trkpt>
      <trkpt lat="59.5062460319" lon="17.7102369579">
        <ele>5.2</ele>
        <time>2013-03-24T12:33:38Z</time>
      </trkpt>
      <trkpt lat="59.506224239" lon="17.7101453437">
        <ele>5.6</ele>
        <time>2013-03-24T12:33:39Z</time>
      </trkpt>
      <trkpt lat="59.506210325" lon="17.7100498739">
        <ele>6</ele>
        <time>2013-03-24T12:33:40Z</time>
      </trkpt>
      <trkpt lat="59.5061929745" lon="17.7099513866">
        <ele>6.4</ele>
        <time>2013-03-24T12:33:41Z</time>
      </trkpt>
      <trkpt lat="59.5061733608" lon="17.7098478701">
        <ele>6.8</ele>
        <time>2013-03-24T12:33:42Z</time>
      </trkpt>
      <trkpt lat="59.5061014441" lon="17.7095484686">
        <ele>6.8</ele>
        <time>2013-03-24T12:33:45Z</time>
      </trkpt>
      <trkpt lat="59.5059171261" lon="17.7090665932">
        <ele>6.8</ele>
        <time>2013-03-24T12:33:50Z</time>
      </trkpt>
      <trkpt lat="59.5058266854" lon="17.7088878911">
        <ele>6.8</ele>
        <time>2013-03-24T12:33:52Z</time>
      </trkpt>
      <trkpt lat="59.5056347399" lon="17.7085850531">
        <ele>6.8</ele>
        <time>2013-03-24T12:33:56Z</time>
      </trkpt>
      <trkpt lat="59.5052987096" lon="17.7082031737">
        <ele>6.8</ele>
        <time>2013-03-24T12:34:02Z</time>
      </trkpt>
      <trkpt lat="59.5050158204" lon="17.7078370523">
        <ele>6.8</ele>
        <time>2013-03-24T12:34:08Z</time>
      </trkpt>
      <trkpt lat="59.5045699034" lon="17.7072764708">
        <ele>6.8</ele>
        <time>2013-03-24T12:34:17Z</time>
      </trkpt>
      <trkpt lat="59.5041912929" lon="17.706795685">
        <ele>6.8</ele>
        <time>2013-03-24T12:34:25Z</time>
      </trkpt>
      <trkpt lat="59.5040410055" lon="17.7066369319">
        <ele>6.4</ele>
        <time>2013-03-24T12:34:28Z</time>
      </trkpt>
      <trkpt lat="59.5039934801" lon="17.706581779">
        <ele>6</ele>
        <time>2013-03-24T12:34:29Z</time>
      </trkpt>
      <trkpt lat="59.5039465415" lon="17.7065224351">
        <ele>5.4</ele>
        <time>2013-03-24T12:34:30Z</time>
      </trkpt>
      <trkpt lat="59.503904129" lon="17.7064705511">
        <ele>5</ele>
        <time>2013-03-24T12:34:31Z</time>
      </trkpt>
      <trkpt lat="59.5038673325" lon="17.7064199245">
        <ele>4.4</ele>
        <time>2013-03-24T12:34:32Z</time>
      </trkpt>
      <trkpt lat="59.5037872854" lon="17.7062883286">
        <ele>4.4</ele>
        <time>2013-03-24T12:34:34Z</time>
      </trkpt>
      <trkpt lat="59.5037216551" lon="17.7061286534">
        <ele>4.4</ele>
        <time>2013-03-24T12:34:36Z</time>
      </trkpt>
      <trkpt lat="59.5036458827" lon="17.7058497876">
        <ele>4.4</ele>
        <time>2013-03-24T12:34:39Z</time>
      </trkpt>
      <trkpt lat="59.5036044761" lon="17.7056677328">
        <ele>4.4</ele>
        <time>2013-03-24T12:34:41Z</time>
      </trkpt>
      <trkpt lat="59.5035687692" lon="17.7054919643">
        <ele>4.4</ele>
        <time>2013-03-24T12:34:43Z</time>
      </trkpt>
      <trkpt lat="59.503505905" lon="17.7052921398">
        <ele>4.4</ele>
        <time>2013-03-24T12:34:46Z</time>
      </trkpt>
      <trkpt lat="59.5034909014" lon="17.7052274315">
        <ele>4.8</ele>
        <time>2013-03-24T12:34:47Z</time>
      </trkpt>
      <trkpt lat="59.5034753949" lon="17.7051641482">
        <ele>5.4</ele>
        <time>2013-03-24T12:34:48Z</time>
      </trkpt>
      <trkpt lat="59.5034571223" lon="17.7051014516">
        <ele>5.8</ele>
        <time>2013-03-24T12:34:49Z</time>
      </trkpt>
      <trkpt lat="59.5034408614" lon="17.7050385873">
        <ele>6.2</ele>
        <time>2013-03-24T12:34:50Z</time>
      </trkpt>
      <trkpt lat="59.5034243491" lon="17.7049726218">
        <ele>6.6</ele>
        <time>2013-03-24T12:34:51Z</time>
      </trkpt>
      <trkpt lat="59.5033848703" lon="17.7048529283">
        <ele>6.6</ele>
        <time>2013-03-24T12:34:53Z</time>
      </trkpt>
      <trkpt lat="59.5032479101" lon="17.7044977033">
        <ele>6.6</ele>
        <time>2013-03-24T12:34:59Z</time>
      </trkpt>
      <trkpt lat="59.50316736" lon="17.7042963701">
        <ele>6.6</ele>
        <time>2013-03-24T12:35:02Z</time>
      </trkpt>
      <trkpt lat="59.5030883187" lon="17.7041443224">
        <ele>6.6</ele>
        <time>2013-03-24T12:35:05Z</time>
      </trkpt>
      <trkpt lat="59.5029612491" lon="17.7038607628">
        <ele>7</ele>
        <time>2013-03-24T12:35:10Z</time>
      </trkpt>
      <trkpt lat="59.502938618" lon="17.7038066995">
        <ele>7.4</ele>
        <time>2013-03-24T12:35:11Z</time>
      </trkpt>
      <trkpt lat="59.502912215" lon="17.703755989">
        <ele>7.8</ele>
        <time>2013-03-24T12:35:12Z</time>
      </trkpt>
      <trkpt lat="59.502889081" lon="17.7037026801">
        <ele>8.2</ele>
        <time>2013-03-24T12:35:13Z</time>
      </trkpt>
      <trkpt lat="59.5028667013" lon="17.7036515505">
        <ele>8.6</ele>
        <time>2013-03-24T12:35:14Z</time>
      </trkpt>
      <trkpt lat="59.5027957904" lon="17.7034055418">
        <ele>8.6</ele>
        <time>2013-03-24T12:35:18Z</time>
      </trkpt>
      <trkpt lat="59.5026409767" lon="17.7029892128">
        <ele>8.6</ele>
        <time>2013-03-24T12:35:24Z</time>
      </trkpt>
      <trkpt lat="59.5024110612" lon="17.7023548706">
        <ele>8.6</ele>
        <time>2013-03-24T12:35:32Z</time>
      </trkpt>
      <trkpt lat="59.5022967321" lon="17.7020868174">
        <ele>9</ele>
        <time>2013-03-24T12:35:36Z</time>
      </trkpt>
      <trkpt lat="59.5022678983" lon="17.7020215224">
        <ele>9.6</ele>
        <time>2013-03-24T12:35:37Z</time>
      </trkpt>
      <trkpt lat="59.5022341193" lon="17.7019605022">
        <ele>10</ele>
        <time>2013-03-24T12:35:38Z</time>
      </trkpt>
      <trkpt lat="59.5021995859" lon="17.7018967998">
        <ele>10.4</ele>
        <time>2013-03-24T12:35:39Z</time>
      </trkpt>
      <trkpt lat="59.5021623702" lon="17.7018382941">
        <ele>10.8</ele>
        <time>2013-03-24T12:35:40Z</time>
      </trkpt>
      <trkpt lat="59.5019384059" lon="17.7014114039">
        <ele>10.8</ele>
        <time>2013-03-24T12:35:46Z</time>
      </trkpt>
      <trkpt lat="59.5016286108" lon="17.7008141936">
        <ele>10.8</ele>
        <time>2013-03-24T12:35:53Z</time>
      </trkpt>
      <trkpt lat="59.5015199814" lon="17.7005127804">
        <ele>10.8</ele>
        <time>2013-03-24T12:35:56Z</time>
      </trkpt>
      <trkpt lat="59.501501206" lon="17.7004016364">
        <ele>10.8</ele>
        <time>2013-03-24T12:35:57Z</time>
      </trkpt>
      <trkpt lat="59.5014783234" lon="17.7000796877">
        <ele>10.8</ele>
        <time>2013-03-24T12:36:00Z</time>
      </trkpt>
      <trkpt lat="59.5014743839" lon="17.6999742434">
        <ele>10.8</ele>
        <time>2013-03-24T12:36:01Z</time>
      </trkpt>
      <trkpt lat="59.5014564466" lon="17.699344595">
        <ele>10.8</ele>
        <time>2013-03-24T12:36:07Z</time>
      </trkpt>
      <trkpt lat="59.5014184766" lon="17.6987703511">
        <ele>10.8</ele>
        <time>2013-03-24T12:36:12Z</time>
      </trkpt>
      <trkpt lat="59.5013957616" lon="17.6986558543">
        <ele>10.8</ele>
        <time>2013-03-24T12:36:13Z</time>
      </trkpt>
      <trkpt lat="59.5011867171" lon="17.6978362721">
        <ele>10.8</ele>
        <time>2013-03-24T12:36:20Z</time>
      </trkpt>
      <trkpt lat="59.5010511817" lon="17.6974942906">
        <ele>10.8</ele>
        <time>2013-03-24T12:36:23Z</time>
      </trkpt>
      <trkpt lat="59.5009299795" lon="17.6973139121">
        <ele>10.8</ele>
        <time>2013-03-24T12:36:25Z</time>
      </trkpt>
      <trkpt lat="59.5008026584" lon="17.6971720066">
        <ele>10.8</ele>
        <time>2013-03-24T12:36:27Z</time>
      </trkpt>
      <trkpt lat="59.500624543" lon="17.6969213877">
        <ele>10.8</ele>
        <time>2013-03-24T12:36:30Z</time>
      </trkpt>
      <trkpt lat="59.5002885965" lon="17.6962997022">
        <ele>10.8</ele>
        <time>2013-03-24T12:36:36Z</time>
      </trkpt>
      <trkpt lat="59.4998927193" lon="17.6955472591">
        <ele>10.8</ele>
        <time>2013-03-24T12:36:43Z</time>
      </trkpt>
      <trkpt lat="59.4997868559" lon="17.695337041">
        <ele>10.8</ele>
        <time>2013-03-24T12:36:45Z</time>
      </trkpt>
      <trkpt lat="59.4997346367" lon="17.6952274058">
        <ele>10.4</ele>
        <time>2013-03-24T12:36:46Z</time>
      </trkpt>
      <trkpt lat="59.4996813278" lon="17.695124476">
        <ele>9.4</ele>
        <time>2013-03-24T12:36:47Z</time>
      </trkpt>
      <trkpt lat="59.4996568527" lon="17.6950803034">
        <ele>9</ele>
        <time>2013-03-24T12:36:48Z</time>
      </trkpt>
      <trkpt lat="59.4996495604" lon="17.6950793814">
        <ele>8.6</ele>
        <time>2013-03-24T12:36:49Z</time>
      </trkpt>
      <trkpt lat="59.4996543381" lon="17.6950888529">
        <ele>8.2</ele>
        <time>2013-03-24T12:36:52Z</time>
      </trkpt>
      <trkpt lat="59.4997639734" lon="17.695326396">
        <ele>6.6</ele>
        <time>2013-03-24T12:37:07Z</time>
      </trkpt>
      <trkpt lat="59.4997922204" lon="17.6953682217">
        <ele>6.6</ele>
        <time>2013-03-24T12:37:08Z</time>
      </trkpt>
      <trkpt lat="59.4999233971" lon="17.6956192596">
        <ele>6.6</ele>
        <time>2013-03-24T12:37:12Z</time>
      </trkpt>
      <trkpt lat="59.4999648875" lon="17.6956887455">
        <ele>6.6</ele>
        <time>2013-03-24T12:37:13Z</time>
      </trkpt>
      <trkpt lat="59.500042001" lon="17.6958641787">
        <ele>6.6</ele>
        <time>2013-03-24T12:37:15Z</time>
      </trkpt>
      <trkpt lat="59.5001321902" lon="17.6960454792">
        <ele>6.6</ele>
        <time>2013-03-24T12:37:17Z</time>
      </trkpt>
      <trkpt lat="59.5002126565" lon="17.6962069146">
        <ele>7</ele>
        <time>2013-03-24T12:37:19Z</time>
      </trkpt>
      <trkpt lat="59.5002525543" lon="17.6962861235">
        <ele>7.6</ele>
        <time>2013-03-24T12:37:20Z</time>
      </trkpt>
      <trkpt lat="59.5002928712" lon="17.6963648296">
        <ele>8</ele>
        <time>2013-03-24T12:37:21Z</time>
      </trkpt>
      <trkpt lat="59.5003358704" lon="17.6964416078">
        <ele>8.4</ele>
        <time>2013-03-24T12:37:22Z</time>
      </trkpt>
      <trkpt lat="59.5003773608" lon="17.6965249239">
        <ele>9</ele>
        <time>2013-03-24T12:37:23Z</time>
      </trkpt>
      <trkpt lat="59.5006387923" lon="17.6970135886">
        <ele>9</ele>
        <time>2013-03-24T12:37:29Z</time>
      </trkpt>
      <trkpt lat="59.5007939412" lon="17.6972151733">
        <ele>9</ele>
        <time>2013-03-24T12:37:32Z</time>
      </trkpt>
      <trkpt lat="59.5009583941" lon="17.6973923667">
        <ele>9</ele>
        <time>2013-03-24T12:37:35Z</time>
      </trkpt>
      <trkpt lat="59.5010619106" lon="17.6975405587">
        <ele>9</ele>
        <time>2013-03-24T12:37:37Z</time>
      </trkpt>
      <trkpt lat="59.5011843701" lon="17.6978294828">
        <ele>9</ele>
        <time>2013-03-24T12:37:40Z</time>
      </trkpt>
      <trkpt lat="59.5012520959" lon="17.6980479989">
        <ele>9</ele>
        <time>2013-03-24T12:37:42Z</time>
      </trkpt>
      <trkpt lat="59.5013574564" lon="17.6984903956">
        <ele>9</ele>
        <time>2013-03-24T12:37:46Z</time>
      </trkpt>
      <trkpt lat="59.5014148724" lon="17.6987011166">
        <ele>9</ele>
        <time>2013-03-24T12:37:48Z</time>
      </trkpt>
      <trkpt lat="59.5014965959" lon="17.6987753802">
        <ele>9</ele>
        <time>2013-03-24T12:37:50Z</time>
      </trkpt>
      <trkpt lat="59.5016139425" lon="17.6986626436">
        <ele>9</ele>
        <time>2013-03-24T12:37:53Z</time>
      </trkpt>
      <trkpt lat="59.5016614679" lon="17.6986012043">
        <ele>9</ele>
        <time>2013-03-24T12:37:54Z</time>
      </trkpt>
      <trkpt lat="59.501748472" lon="17.6985181397">
        <ele>9.4</ele>
        <time>2013-03-24T12:37:56Z</time>
      </trkpt>
      <trkpt lat="59.5017936504" lon="17.6984608913">
        <ele>9.8</ele>
        <time>2013-03-24T12:37:57Z</time>
      </trkpt>
      <trkpt lat="59.5018393318" lon="17.6984074148">
        <ele>10.4</ele>
        <time>2013-03-24T12:37:58Z</time>
      </trkpt>
      <trkpt lat="59.5018830853" lon="17.6983681875">
        <ele>10.8</ele>
        <time>2013-03-24T12:37:59Z</time>
      </trkpt>
      <trkpt lat="59.5019283476" lon="17.6983141242">
        <ele>11.2</ele>
        <time>2013-03-24T12:38:00Z</time>
      </trkpt>
      <trkpt lat="59.5021079717" lon="17.6980945185">
        <ele>11.2</ele>
        <time>2013-03-24T12:38:04Z</time>
      </trkpt>
      <trkpt lat="59.5022030224" lon="17.6980064247">
        <ele>11.2</ele>
        <time>2013-03-24T12:38:06Z</time>
      </trkpt>
      <trkpt lat="59.5023341992" lon="17.6978874017">
        <ele>11.2</ele>
        <time>2013-03-24T12:38:09Z</time>
      </trkpt>
      <trkpt lat="59.5024427448" lon="17.6977815383">
        <ele>11.6</ele>
        <time>2013-03-24T12:38:12Z</time>
      </trkpt>
      <trkpt lat="59.5024719138" lon="17.6977526208">
        <ele>12</ele>
        <time>2013-03-24T12:38:13Z</time>
      </trkpt>
      <trkpt lat="59.5025062796" lon="17.6977277265">
        <ele>12.6</ele>
        <time>2013-03-24T12:38:14Z</time>
      </trkpt>
      <trkpt lat="59.5025410645" lon="17.6976961268">
        <ele>13</ele>
        <time>2013-03-24T12:38:15Z</time>
      </trkpt>
      <trkpt lat="59.5025745921" lon="17.6976652814">
        <ele>13.4</ele>
        <time>2013-03-24T12:38:16Z</time>
      </trkpt>
      <trkpt lat="59.5027406375" lon="17.697427906">
        <ele>13.4</ele>
        <time>2013-03-24T12:38:20Z</time>
      </trkpt>
      <trkpt lat="59.5027704771" lon="17.6973271555">
        <ele>13.4</ele>
        <time>2013-03-24T12:38:21Z</time>
      </trkpt>
      <trkpt lat="59.5028470038" lon="17.6968603675">
        <ele>13.4</ele>
        <time>2013-03-24T12:38:25Z</time>
      </trkpt>
      <trkpt lat="59.5028470038" lon="17.6967398358">
        <ele>13.4</ele>
        <time>2013-03-24T12:38:26Z</time>
      </trkpt>
      <trkpt lat="59.5028340957" lon="17.6963411926">
        <ele>13.4</ele>
        <time>2013-03-24T12:38:29Z</time>
      </trkpt>
      <trkpt lat="59.5027672919" lon="17.6955085347">
        <ele>13.4</ele>
        <time>2013-03-24T12:38:35Z</time>
      </trkpt>
      <trkpt lat="59.5027138992" lon="17.6951533098">
        <ele>13.4</ele>
        <time>2013-03-24T12:38:38Z</time>
      </trkpt>
      <trkpt lat="59.5026462573" lon="17.6949654714">
        <ele>13.4</ele>
        <time>2013-03-24T12:38:40Z</time>
      </trkpt>
      <trkpt lat="59.502500077" lon="17.6947393277">
        <ele>13.4</ele>
        <time>2013-03-24T12:38:43Z</time>
      </trkpt>
      <trkpt lat="59.502450037" lon="17.694661879">
        <ele>13.4</ele>
        <time>2013-03-24T12:38:44Z</time>
      </trkpt>
      <trkpt lat="59.5022058723" lon="17.6941624854">
        <ele>13.4</ele>
        <time>2013-03-24T12:38:49Z</time>
      </trkpt>
      <trkpt lat="59.5021548265" lon="17.6940692786">
        <ele>13.4</ele>
        <time>2013-03-24T12:38:50Z</time>
      </trkpt>
      <trkpt lat="59.501991128" lon="17.6937629202">
        <ele>13</ele>
        <time>2013-03-24T12:38:53Z</time>
      </trkpt>
      <trkpt lat="59.501941591" lon="17.6936664445">
        <ele>12.6</ele>
        <time>2013-03-24T12:38:54Z</time>
      </trkpt>
      <trkpt lat="59.5019001844" lon="17.6935827093">
        <ele>12.2</ele>
        <time>2013-03-24T12:38:55Z</time>
      </trkpt>
      <trkpt lat="59.5018648966" lon="17.6934975492">
        <ele>11.6</ele>
        <time>2013-03-24T12:38:56Z</time>
      </trkpt>
      <trkpt lat="59.5018343865" lon="17.6934042587">
        <ele>11.2</ele>
        <time>2013-03-24T12:38:57Z</time>
      </trkpt>
      <trkpt lat="59.5018071453" lon="17.6933042626">
        <ele>11.2</ele>
        <time>2013-03-24T12:38:58Z</time>
      </trkpt>
      <trkpt lat="59.5017839274" lon="17.6931961361">
        <ele>11.2</ele>
        <time>2013-03-24T12:38:59Z</time>
      </trkpt>
      <trkpt lat="59.5016856078" lon="17.6927644683">
        <ele>10.8</ele>
        <time>2013-03-24T12:39:03Z</time>
      </trkpt>
      <trkpt lat="59.5016635634" lon="17.6926449424">
        <ele>10.4</ele>
        <time>2013-03-24T12:39:04Z</time>
      </trkpt>
      <trkpt lat="59.5016385015" lon="17.692540001">
        <ele>9.8</ele>
        <time>2013-03-24T12:39:05Z</time>
      </trkpt>
      <trkpt lat="59.5016012858" lon="17.69243858">
        <ele>9.4</ele>
        <time>2013-03-24T12:39:06Z</time>
      </trkpt>
      <trkpt lat="59.5015582867" lon="17.6923527493">
        <ele>9</ele>
        <time>2013-03-24T12:39:07Z</time>
      </trkpt>
      <trkpt lat="59.501304818" lon="17.6919753124">
        <ele>9</ele>
        <time>2013-03-24T12:39:12Z</time>
      </trkpt>
      <trkpt lat="59.5011475736" lon="17.6917154735">
        <ele>8.6</ele>
        <time>2013-03-24T12:39:15Z</time>
      </trkpt>
      <trkpt lat="59.5010951867" lon="17.6916260386">
        <ele>8.2</ele>
        <time>2013-03-24T12:39:16Z</time>
      </trkpt>
      <trkpt lat="59.5010398662" lon="17.6915330833">
        <ele>7.6</ele>
        <time>2013-03-24T12:39:17Z</time>
      </trkpt>
      <trkpt lat="59.5009865573" lon="17.6914450734">
        <ele>7.2</ele>
        <time>2013-03-24T12:39:18Z</time>
      </trkpt>
      <trkpt lat="59.5009343381" lon="17.6913471728">
        <ele>6.8</ele>
        <time>2013-03-24T12:39:19Z</time>
      </trkpt>
      <trkpt lat="59.5006386246" lon="17.690890946">
        <ele>6.8</ele>
        <time>2013-03-24T12:39:24Z</time>
      </trkpt>
      <trkpt lat="59.5005238764" lon="17.6907197876">
        <ele>6.4</ele>
        <time>2013-03-24T12:39:26Z</time>
      </trkpt>
      <trkpt lat="59.5004639458" lon="17.6906306042">
        <ele>6</ele>
        <time>2013-03-24T12:39:27Z</time>
      </trkpt>
      <trkpt lat="59.5004040152" lon="17.6905544127">
        <ele>5.6</ele>
        <time>2013-03-24T12:39:28Z</time>
      </trkpt>
      <trkpt lat="59.5003449228" lon="17.690476461">
        <ele>5</ele>
        <time>2013-03-24T12:39:29Z</time>
      </trkpt>
      <trkpt lat="59.5002870877" lon="17.6904015268">
        <ele>4.6</ele>
        <time>2013-03-24T12:39:30Z</time>
      </trkpt>
      <trkpt lat="59.5000907836" lon="17.690114782">
        <ele>4.6</ele>
        <time>2013-03-24T12:39:34Z</time>
      </trkpt>
      <trkpt lat="59.5000478683" lon="17.6900173005">
        <ele>4.2</ele>
        <time>2013-03-24T12:39:35Z</time>
      </trkpt>
      <trkpt lat="59.5000106527" lon="17.6899222498">
        <ele>3.8</ele>
        <time>2013-03-24T12:39:36Z</time>
      </trkpt>
      <trkpt lat="59.4999786338" lon="17.6898023886">
        <ele>3.4</ele>
        <time>2013-03-24T12:39:37Z</time>
      </trkpt>
      <trkpt lat="59.4999514765" lon="17.6896900712">
        <ele>3</ele>
        <time>2013-03-24T12:39:38Z</time>
      </trkpt>
      <trkpt lat="59.499927588" lon="17.6895673601">
        <ele>2.6</ele>
        <time>2013-03-24T12:39:39Z</time>
      </trkpt>
      <trkpt lat="59.4999079744" lon="17.6894412125">
        <ele>2.6</ele>
        <time>2013-03-24T12:39:40Z</time>
      </trkpt>
      <trkpt lat="59.4998247421" lon="17.6887378873">
        <ele>2.6</ele>
        <time>2013-03-24T12:39:46Z</time>
      </trkpt>
      <trkpt lat="59.4998111635" lon="17.6885983287">
        <ele>2.2</ele>
        <time>2013-03-24T12:39:47Z</time>
      </trkpt>
      <trkpt lat="59.4997961599" lon="17.6884665652">
        <ele>1.8</ele>
        <time>2013-03-24T12:39:48Z</time>
      </trkpt>
      <trkpt lat="59.499770176" lon="17.6883237376">
        <ele>1.2</ele>
        <time>2013-03-24T12:39:49Z</time>
      </trkpt>
      <trkpt lat="59.4997341338" lon="17.6881853525">
        <ele>0.8</ele>
        <time>2013-03-24T12:39:50Z</time>
      </trkpt>
      <trkpt lat="59.4996903803" lon="17.6880553492">
        <ele>0.4</ele>
        <time>2013-03-24T12:39:51Z</time>
      </trkpt>
      <trkpt lat="59.4994939924" lon="17.6875910758">
        <ele>0</ele>
        <time>2013-03-24T12:39:55Z</time>
      </trkpt>
      <trkpt lat="59.4994354029" lon="17.6875044907">
        <ele>0</ele>
        <time>2013-03-24T12:39:56Z</time>
      </trkpt>
      <trkpt lat="59.4993675933" lon="17.6874354239">
        <ele>0</ele>
        <time>2013-03-24T12:39:57Z</time>
      </trkpt>
      <trkpt lat="59.4992774041" lon="17.6873935144">
        <ele>0</ele>
        <time>2013-03-24T12:39:58Z</time>
      </trkpt>
      <trkpt lat="59.4991994524" lon="17.6873686201">
        <ele>0</ele>
        <time>2013-03-24T12:39:59Z</time>
      </trkpt>
      <trkpt lat="59.4990412021" lon="17.6873545385">
        <ele>0</ele>
        <time>2013-03-24T12:40:01Z</time>
      </trkpt>
      <trkpt lat="59.4989621608" lon="17.6873573046">
        <ele>0</ele>
        <time>2013-03-24T12:40:02Z</time>
      </trkpt>
      <trkpt lat="59.4988802696" lon="17.6873586457">
        <ele>0</ele>
        <time>2013-03-24T12:40:03Z</time>
      </trkpt>
      <trkpt lat="59.49879117" lon="17.6873734816">
        <ele>0</ele>
        <time>2013-03-24T12:40:04Z</time>
      </trkpt>
      <trkpt lat="59.4986977119" lon="17.6874067578">
        <ele>0</ele>
        <time>2013-03-24T12:40:05Z</time>
      </trkpt>
      <trkpt lat="59.498524458" lon="17.6874338313">
        <ele>0</ele>
        <time>2013-03-24T12:40:07Z</time>
      </trkpt>
      <trkpt lat="59.4984402199" lon="17.6874412074">
        <ele>0</ele>
        <time>2013-03-24T12:40:08Z</time>
      </trkpt>
      <trkpt lat="59.4983604242" lon="17.6874489187">
        <ele>0</ele>
        <time>2013-03-24T12:40:09Z</time>
      </trkpt>
      <trkpt lat="59.4982807123" lon="17.6874587256">
        <ele>0</ele>
        <time>2013-03-24T12:40:10Z</time>
      </trkpt>
      <trkpt lat="59.4982056105" lon="17.6874709631">
        <ele>0</ele>
        <time>2013-03-24T12:40:11Z</time>
      </trkpt>
      <trkpt lat="59.4980618609" lon="17.6874854638">
        <ele>0</ele>
        <time>2013-03-24T12:40:13Z</time>
      </trkpt>
      <trkpt lat="59.497924733" lon="17.6874779201">
        <ele>0</ele>
        <time>2013-03-24T12:40:15Z</time>
      </trkpt>
      <trkpt lat="59.4974892095" lon="17.6873101983">
        <ele>0</ele>
        <time>2013-03-24T12:40:21Z</time>
      </trkpt>
      <trkpt lat="59.4972326396" lon="17.6870626808">
        <ele>0</ele>
        <time>2013-03-24T12:40:25Z</time>
      </trkpt>
      <trkpt lat="59.4971686018" lon="17.6870042589">
        <ele>0</ele>
        <time>2013-03-24T12:40:26Z</time>
      </trkpt>
      <trkpt lat="59.4971031392" lon="17.6869429873">
        <ele>0</ele>
        <time>2013-03-24T12:40:27Z</time>
      </trkpt>
      <trkpt lat="59.497036084" lon="17.6868718249">
        <ele>0</ele>
        <time>2013-03-24T12:40:28Z</time>
      </trkpt>
      <trkpt lat="59.4969701184" lon="17.6868103856">
        <ele>0</ele>
        <time>2013-03-24T12:40:29Z</time>
      </trkpt>
      <trkpt lat="59.4966216829" lon="17.6865744351">
        <ele>0</ele>
        <time>2013-03-24T12:40:34Z</time>
      </trkpt>
      <trkpt lat="59.4965462458" lon="17.6865607726">
        <ele>0</ele>
        <time>2013-03-24T12:40:35Z</time>
      </trkpt>
      <trkpt lat="59.4964716469" lon="17.6865524745">
        <ele>0</ele>
        <time>2013-03-24T12:40:36Z</time>
      </trkpt>
      <trkpt lat="59.4964015742" lon="17.6865404046">
        <ele>0</ele>
        <time>2013-03-24T12:40:37Z</time>
      </trkpt>
      <trkpt lat="59.4963309148" lon="17.6865249819">
        <ele>0</ele>
        <time>2013-03-24T12:40:38Z</time>
      </trkpt>
      <trkpt lat="59.4961890092" lon="17.6864691584">
        <ele>0</ele>
        <time>2013-03-24T12:40:40Z</time>
      </trkpt>
      <trkpt lat="59.4960530548" lon="17.6863801427">
        <ele>0</ele>
        <time>2013-03-24T12:40:42Z</time>
      </trkpt>
      <trkpt lat="59.4959854967" lon="17.6863323658">
        <ele>0</ele>
        <time>2013-03-24T12:40:43Z</time>
      </trkpt>
      <trkpt lat="59.4959171842" lon="17.6862858463">
        <ele>0</ele>
        <time>2013-03-24T12:40:44Z</time>
      </trkpt>
      <trkpt lat="59.4958515539" lon="17.6862348005">
        <ele>0</ele>
        <time>2013-03-24T12:40:45Z</time>
      </trkpt>
      <trkpt lat="59.4957856722" lon="17.6861756243">
        <ele>0</ele>
        <time>2013-03-24T12:40:46Z</time>
      </trkpt>
      <trkpt lat="59.4954432715" lon="17.6858930705">
        <ele>0</ele>
        <time>2013-03-24T12:40:51Z</time>
      </trkpt>
      <trkpt lat="59.4953749591" lon="17.6858398454">
        <ele>0</ele>
        <time>2013-03-24T12:40:52Z</time>
      </trkpt>
      <trkpt lat="59.4953067304" lon="17.6857834352">
        <ele>0</ele>
        <time>2013-03-24T12:40:53Z</time>
      </trkpt>
      <trkpt lat="59.4952393399" lon="17.6857231693">
        <ele>0</ele>
        <time>2013-03-24T12:40:54Z</time>
      </trkpt>
      <trkpt lat="59.4947517648" lon="17.6853223469">
        <ele>0</ele>
        <time>2013-03-24T12:41:01Z</time>
      </trkpt>
      <trkpt lat="59.4943623417" lon="17.6850112946">
        <ele>0</ele>
        <time>2013-03-24T12:41:07Z</time>
      </trkpt>
      <trkpt lat="59.4942995613" lon="17.6849597459">
        <ele>0</ele>
        <time>2013-03-24T12:41:08Z</time>
      </trkpt>
      <trkpt lat="59.4942333443" lon="17.6849084487">
        <ele>0</ele>
        <time>2013-03-24T12:41:09Z</time>
      </trkpt>
      <trkpt lat="59.4941663729" lon="17.6848549721">
        <ele>0</ele>
        <time>2013-03-24T12:41:10Z</time>
      </trkpt>
      <trkpt lat="59.494101497" lon="17.6848011603">
        <ele>0</ele>
        <time>2013-03-24T12:41:11Z</time>
      </trkpt>
      <trkpt lat="59.4940369564" lon="17.6847481867">
        <ele>0</ele>
        <time>2013-03-24T12:41:12Z</time>
      </trkpt>
      <trkpt lat="59.4937980722" lon="17.6844992443">
        <ele>0</ele>
        <time>2013-03-24T12:41:16Z</time>
      </trkpt>
      <trkpt lat="59.4937045302" lon="17.684357674">
        <ele>0</ele>
        <time>2013-03-24T12:41:18Z</time>
      </trkpt>
      <trkpt lat="59.493604618" lon="17.6841995076">
        <ele>0</ele>
        <time>2013-03-24T12:41:22Z</time>
      </trkpt>
      <trkpt lat="59.493576371" lon="17.6841834981">
        <ele>0</ele>
        <time>2013-03-24T12:41:26Z</time>
      </trkpt>
      <trkpt lat="59.4935622055" lon="17.6841795586">
        <ele>0</ele>
        <time>2013-03-24T12:41:27Z</time>
      </trkpt>
      <trkpt lat="59.4934149356" lon="17.6841495514">
        <ele>0</ele>
        <time>2013-03-24T12:41:32Z</time>
      </trkpt>
      <trkpt lat="59.493374451" lon="17.6841817379">
        <ele>0</ele>
        <time>2013-03-24T12:41:33Z</time>
      </trkpt>
      <trkpt lat="59.4932989301" lon="17.6843225539">
        <ele>0</ele>
        <time>2013-03-24T12:41:35Z</time>
      </trkpt>
      <trkpt lat="59.4930758877" lon="17.6847873302">
        <ele>0</ele>
        <time>2013-03-24T12:41:40Z</time>
      </trkpt>
      <trkpt lat="59.4928057391" lon="17.685264428">
        <ele>0</ele>
        <time>2013-03-24T12:41:45Z</time>
      </trkpt>
      <trkpt lat="59.4927598063" lon="17.6853399489">
        <ele>0</ele>
        <time>2013-03-24T12:41:46Z</time>
      </trkpt>
      <trkpt lat="59.492715466" lon="17.6854205828">
        <ele>0</ele>
        <time>2013-03-24T12:41:47Z</time>
      </trkpt>
      <trkpt lat="59.4926717963" lon="17.6855031445">
        <ele>0</ele>
        <time>2013-03-24T12:41:48Z</time>
      </trkpt>
      <trkpt lat="59.4926267855" lon="17.6855824372">
        <ele>0</ele>
        <time>2013-03-24T12:41:49Z</time>
      </trkpt>
      <trkpt lat="59.4925791763" lon="17.6856572038">
        <ele>0</ele>
        <time>2013-03-24T12:41:50Z</time>
      </trkpt>
      <trkpt lat="59.4925326568" lon="17.6857315512">
        <ele>0</ele>
        <time>2013-03-24T12:41:51Z</time>
      </trkpt>
      <trkpt lat="59.4924823654" lon="17.6858103411">
        <ele>0</ele>
        <time>2013-03-24T12:41:52Z</time>
      </trkpt>
      <trkpt lat="59.492430649" lon="17.6858815034">
        <ele>0</ele>
        <time>2013-03-24T12:41:53Z</time>
      </trkpt>
      <trkpt lat="59.4921006536" lon="17.6863133389">
        <ele>0</ele>
        <time>2013-03-24T12:41:59Z</time>
      </trkpt>
      <trkpt lat="59.4917413216" lon="17.6866466871">
        <ele>0</ele>
        <time>2013-03-24T12:42:05Z</time>
      </trkpt>
      <trkpt lat="59.491387773" lon="17.6869339348">
        <ele>0</ele>
        <time>2013-03-24T12:42:11Z</time>
      </trkpt>
      <trkpt lat="59.4910092464" lon="17.6872193385">
        <ele>0</ele>
        <time>2013-03-24T12:42:17Z</time>
      </trkpt>
      <trkpt lat="59.4906543568" lon="17.6875034849">
        <ele>0</ele>
        <time>2013-03-24T12:42:23Z</time>
      </trkpt>
      <trkpt lat="59.4903645945" lon="17.6877992822">
        <ele>0</ele>
        <time>2013-03-24T12:42:29Z</time>
      </trkpt>
      <trkpt lat="59.4902806917" lon="17.6878787426">
        <ele>0</ele>
        <time>2013-03-24T12:42:31Z</time>
      </trkpt>
      <trkpt lat="59.4902390337" lon="17.6879143656">
        <ele>0</ele>
        <time>2013-03-24T12:42:32Z</time>
      </trkpt>
      <trkpt lat="59.4901977109" lon="17.6879480609">
        <ele>0</ele>
        <time>2013-03-24T12:42:33Z</time>
      </trkpt>
      <trkpt lat="59.4901553823" lon="17.6879703567">
        <ele>0</ele>
        <time>2013-03-24T12:42:34Z</time>
      </trkpt>
      <trkpt lat="59.4901102039" lon="17.6879894675">
        <ele>0</ele>
        <time>2013-03-24T12:42:35Z</time>
      </trkpt>
      <trkpt lat="59.4900611697" lon="17.6880129368">
        <ele>0</ele>
        <time>2013-03-24T12:42:36Z</time>
      </trkpt>
      <trkpt lat="59.4900116327" lon="17.6880319637">
        <ele>0</ele>
        <time>2013-03-24T12:42:37Z</time>
      </trkpt>
      <trkpt lat="59.4899609222" lon="17.6880436145">
        <ele>0</ele>
        <time>2013-03-24T12:42:38Z</time>
      </trkpt>
      <trkpt lat="59.4899131454" lon="17.6880560198">
        <ele>0</ele>
        <time>2013-03-24T12:42:39Z</time>
      </trkpt>
      <trkpt lat="59.4897245526" lon="17.6881602068">
        <ele>0</ele>
        <time>2013-03-24T12:42:43Z</time>
      </trkpt>
      <trkpt lat="59.489682727" lon="17.6882165331">
        <ele>0</ele>
        <time>2013-03-24T12:42:44Z</time>
      </trkpt>
      <trkpt lat="59.4893994187" lon="17.6886507156">
        <ele>0</ele>
        <time>2013-03-24T12:42:50Z</time>
      </trkpt>
      <trkpt lat="59.48910337" lon="17.6890605066">
        <ele>0</ele>
        <time>2013-03-24T12:42:56Z</time>
      </trkpt>
      <trkpt lat="59.4888501528" lon="17.6893708046">
        <ele>0</ele>
        <time>2013-03-24T12:43:01Z</time>
      </trkpt>
      <trkpt lat="59.4888034656" lon="17.6894427213">
        <ele>0</ele>
        <time>2013-03-24T12:43:02Z</time>
      </trkpt>
      <trkpt lat="59.4884567903" lon="17.6899908137">
        <ele>0</ele>
        <time>2013-03-24T12:43:10Z</time>
      </trkpt>
      <trkpt lat="59.4882257851" lon="17.6904376528">
        <ele>0</ele>
        <time>2013-03-24T12:43:16Z</time>
      </trkpt>
      <trkpt lat="59.4878173351" lon="17.6911376253">
        <ele>0</ele>
        <time>2013-03-24T12:43:26Z</time>
      </trkpt>
      <trkpt lat="59.4876921095" lon="17.6913439038">
        <ele>0</ele>
        <time>2013-03-24T12:43:29Z</time>
      </trkpt>
      <trkpt lat="59.4876528822" lon="17.69141054">
        <ele>0</ele>
        <time>2013-03-24T12:43:30Z</time>
      </trkpt>
      <trkpt lat="59.4876145769" lon="17.6914778466">
        <ele>0</ele>
        <time>2013-03-24T12:43:31Z</time>
      </trkpt>
      <trkpt lat="59.487572416" lon="17.6915495957">
        <ele>0</ele>
        <time>2013-03-24T12:43:32Z</time>
      </trkpt>
      <trkpt lat="59.4875291654" lon="17.691615645">
        <ele>0</ele>
        <time>2013-03-24T12:43:33Z</time>
      </trkpt>
      <trkpt lat="59.4872912871" lon="17.6919854545">
        <ele>0</ele>
        <time>2013-03-24T12:43:38Z</time>
      </trkpt>
      <trkpt lat="59.4869617108" lon="17.6925600337">
        <ele>0</ele>
        <time>2013-03-24T12:43:44Z</time>
      </trkpt>
      <trkpt lat="59.4867429432" lon="17.6929293402">
        <ele>0</ele>
        <time>2013-03-24T12:43:48Z</time>
      </trkpt>
      <trkpt lat="59.4866871197" lon="17.6930087168">
        <ele>0</ele>
        <time>2013-03-24T12:43:49Z</time>
      </trkpt>
      <trkpt lat="59.4866317992" lon="17.693086417">
        <ele>0</ele>
        <time>2013-03-24T12:43:50Z</time>
      </trkpt>
      <trkpt lat="59.4865776521" lon="17.6931604292">
        <ele>0</ele>
        <time>2013-03-24T12:43:51Z</time>
      </trkpt>
      <trkpt lat="59.4865249299" lon="17.6932398058">
        <ele>0</ele>
        <time>2013-03-24T12:43:52Z</time>
      </trkpt>
      <trkpt lat="59.4864513369" lon="17.6934205196">
        <ele>0</ele>
        <time>2013-03-24T12:43:54Z</time>
      </trkpt>
      <trkpt lat="59.4864400213" lon="17.6935817873">
        <ele>0</ele>
        <time>2013-03-24T12:43:56Z</time>
      </trkpt>
      <trkpt lat="59.4864389317" lon="17.6936526144">
        <ele>0</ele>
        <time>2013-03-24T12:43:57Z</time>
      </trkpt>
      <trkpt lat="59.4864277837" lon="17.6937203401">
        <ele>0</ele>
        <time>2013-03-24T12:43:58Z</time>
      </trkpt>
      <trkpt lat="59.4863774923" lon="17.6938408719">
        <ele>0</ele>
        <time>2013-03-24T12:44:00Z</time>
      </trkpt>
      <trkpt lat="59.486316053" lon="17.6939702884">
        <ele>0</ele>
        <time>2013-03-24T12:44:02Z</time>
      </trkpt>
      <trkpt lat="59.4862825254" lon="17.6940354158">
        <ele>0</ele>
        <time>2013-03-24T12:44:03Z</time>
      </trkpt>
      <trkpt lat="59.4862506742" lon="17.6941011299">
        <ele>0</ele>
        <time>2013-03-24T12:44:04Z</time>
      </trkpt>
      <trkpt lat="59.4862190744" lon="17.6941665087">
        <ele>0</ele>
        <time>2013-03-24T12:44:05Z</time>
      </trkpt>
      <trkpt lat="59.4861879776" lon="17.6942303787">
        <ele>0</ele>
        <time>2013-03-24T12:44:06Z</time>
      </trkpt>
      <trkpt lat="59.4860482513" lon="17.694548388">
        <ele>0</ele>
        <time>2013-03-24T12:44:11Z</time>
      </trkpt>
      <trkpt lat="59.4860162324" lon="17.6946143536">
        <ele>0</ele>
        <time>2013-03-24T12:44:12Z</time>
      </trkpt>
      <trkpt lat="59.4859858061" lon="17.6946843425">
        <ele>0</ele>
        <time>2013-03-24T12:44:13Z</time>
      </trkpt>
      <trkpt lat="59.4859548769" lon="17.6947533255">
        <ele>0</ele>
        <time>2013-03-24T12:44:14Z</time>
      </trkpt>
      <trkpt lat="59.4859249535" lon="17.6948242364">
        <ele>0</ele>
        <time>2013-03-24T12:44:15Z</time>
      </trkpt>
      <trkpt lat="59.4858950302" lon="17.694896656">
        <ele>0</ele>
        <time>2013-03-24T12:44:16Z</time>
      </trkpt>
      <trkpt lat="59.4858618378" lon="17.6949709196">
        <ele>0</ele>
        <time>2013-03-24T12:44:17Z</time>
      </trkpt>
      <trkpt lat="59.4858287293" lon="17.6950400703">
        <ele>0</ele>
        <time>2013-03-24T12:44:18Z</time>
      </trkpt>
      <trkpt lat="59.4857963752" lon="17.6951052815">
        <ele>0</ele>
        <time>2013-03-24T12:44:19Z</time>
      </trkpt>
      <trkpt lat="59.4857347682" lon="17.6952499531">
        <ele>0</ele>
        <time>2013-03-24T12:44:21Z</time>
      </trkpt>
      <trkpt lat="59.4856703114" lon="17.6953960496">
        <ele>0</ele>
        <time>2013-03-24T12:44:23Z</time>
      </trkpt>
      <trkpt lat="59.4856120572" lon="17.6955175033">
        <ele>0</ele>
        <time>2013-03-24T12:44:25Z</time>
      </trkpt>
      <trkpt lat="59.485583894" lon="17.6955707284">
        <ele>0</ele>
        <time>2013-03-24T12:44:26Z</time>
      </trkpt>
      <trkpt lat="59.4855581616" lon="17.6956244564">
        <ele>0</ele>
        <time>2013-03-24T12:44:27Z</time>
      </trkpt>
      <trkpt lat="59.4855320939" lon="17.6956808665">
        <ele>0</ele>
        <time>2013-03-24T12:44:28Z</time>
      </trkpt>
      <trkpt lat="59.4855026734" lon="17.6957413">
        <ele>0</ele>
        <time>2013-03-24T12:44:29Z</time>
      </trkpt>
      <trkpt lat="59.4853959718" lon="17.6959739816">
        <ele>0</ele>
        <time>2013-03-24T12:44:33Z</time>
      </trkpt>
      <trkpt lat="59.485369485" lon="17.6960342474">
        <ele>0</ele>
        <time>2013-03-24T12:44:34Z</time>
      </trkpt>
      <trkpt lat="59.4853434173" lon="17.6960946809">
        <ele>0</ele>
        <time>2013-03-24T12:44:35Z</time>
      </trkpt>
      <trkpt lat="59.4853178525" lon="17.6961554497">
        <ele>0</ele>
        <time>2013-03-24T12:44:36Z</time>
      </trkpt>
      <trkpt lat="59.4852948023" lon="17.6962139554">
        <ele>0</ele>
        <time>2013-03-24T12:44:37Z</time>
      </trkpt>
      <trkpt lat="59.4852442594" lon="17.6963365826">
        <ele>0</ele>
        <time>2013-03-24T12:44:39Z</time>
      </trkpt>
      <trkpt lat="59.4852154257" lon="17.6964036378">
        <ele>0</ele>
        <time>2013-03-24T12:44:40Z</time>
      </trkpt>
      <trkpt lat="59.4851873463" lon="17.6964668373">
        <ele>0</ele>
        <time>2013-03-24T12:44:41Z</time>
      </trkpt>
      <trkpt lat="59.4851563333" lon="17.696533222">
        <ele>0</ele>
        <time>2013-03-24T12:44:42Z</time>
      </trkpt>
      <trkpt lat="59.4851238954" lon="17.6966017021">
        <ele>0</ele>
        <time>2013-03-24T12:44:43Z</time>
      </trkpt>
      <trkpt lat="59.485092128" lon="17.69667211">
        <ele>0</ele>
        <time>2013-03-24T12:44:44Z</time>
      </trkpt>
      <trkpt lat="59.4850598576" lon="17.6967394167">
        <ele>0</ele>
        <time>2013-03-24T12:44:45Z</time>
      </trkpt>
      <trkpt lat="59.485026833" lon="17.6968094056">
        <ele>0.2</ele>
        <time>2013-03-24T12:44:46Z</time>
      </trkpt>
      <trkpt lat="59.4849921319" lon="17.696880987">
        <ele>0.6</ele>
        <time>2013-03-24T12:44:47Z</time>
      </trkpt>
      <trkpt lat="59.4849587719" lon="17.6969556697">
        <ele>1.2</ele>
        <time>2013-03-24T12:44:48Z</time>
      </trkpt>
      <trkpt lat="59.4848671578" lon="17.6971718389">
        <ele>1.6</ele>
        <time>2013-03-24T12:44:51Z</time>
      </trkpt>
      <trkpt lat="59.4848394975" lon="17.6972425822">
        <ele>2</ele>
        <time>2013-03-24T12:44:52Z</time>
      </trkpt>
      <trkpt lat="59.4848089874" lon="17.6973151694">
        <ele>2.4</ele>
        <time>2013-03-24T12:44:53Z</time>
      </trkpt>
      <trkpt lat="59.4847778067" lon="17.6973887625">
        <ele>2.8</ele>
        <time>2013-03-24T12:44:54Z</time>
      </trkpt>
      <trkpt lat="59.4847461231" lon="17.697464032">
        <ele>3.2</ele>
        <time>2013-03-24T12:44:55Z</time>
      </trkpt>
      <trkpt lat="59.4846574426" lon="17.6976651137">
        <ele>3.8</ele>
        <time>2013-03-24T12:44:58Z</time>
      </trkpt>
      <trkpt lat="59.484629028" lon="17.6977300735">
        <ele>4.2</ele>
        <time>2013-03-24T12:44:59Z</time>
      </trkpt>
      <trkpt lat="59.4846000266" lon="17.6977970448">
        <ele>4.6</ele>
        <time>2013-03-24T12:45:00Z</time>
      </trkpt>
      <trkpt lat="59.4845672534" lon="17.6978665308">
        <ele>5.6</ele>
        <time>2013-03-24T12:45:01Z</time>
      </trkpt>
      <trkpt lat="59.4844158763" lon="17.6982153855">
        <ele>5.6</ele>
        <time>2013-03-24T12:45:06Z</time>
      </trkpt>
      <trkpt lat="59.4843585441" lon="17.698347568">
        <ele>6</ele>
        <time>2013-03-24T12:45:08Z</time>
      </trkpt>
      <trkpt lat="59.4843307162" lon="17.6984095103">
        <ele>6.4</ele>
        <time>2013-03-24T12:45:09Z</time>
      </trkpt>
      <trkpt lat="59.4843036426" lon="17.6984732127">
        <ele>6.8</ele>
        <time>2013-03-24T12:45:10Z</time>
      </trkpt>
      <trkpt lat="59.4842728811" lon="17.6985387592">
        <ele>7.2</ele>
        <time>2013-03-24T12:45:11Z</time>
      </trkpt>
      <trkpt lat="59.4842457237" lon="17.6985989412">
        <ele>7.6</ele>
        <time>2013-03-24T12:45:12Z</time>
      </trkpt>
      <trkpt lat="59.4840720507" lon="17.698982916">
        <ele>7.6</ele>
        <time>2013-03-24T12:45:18Z</time>
      </trkpt>
      <trkpt lat="59.4838820331" lon="17.6993963114">
        <ele>8</ele>
        <time>2013-03-24T12:45:24Z</time>
      </trkpt>
      <trkpt lat="59.4838474996" lon="17.6994666355">
        <ele>8.4</ele>
        <time>2013-03-24T12:45:25Z</time>
      </trkpt>
      <trkpt lat="59.4838141397" lon="17.6995396418">
        <ele>9.2</ele>
        <time>2013-03-24T12:45:26Z</time>
      </trkpt>
      <trkpt lat="59.4837830428" lon="17.6996074514">
        <ele>9.6</ele>
        <time>2013-03-24T12:45:27Z</time>
      </trkpt>
      <trkpt lat="59.4836226133" lon="17.6999578148">
        <ele>9.6</ele>
        <time>2013-03-24T12:45:32Z</time>
      </trkpt>
      <trkpt lat="59.4833823042" lon="17.7005042309">
        <ele>9.6</ele>
        <time>2013-03-24T12:45:39Z</time>
      </trkpt>
      <trkpt lat="59.4830537337" lon="17.7012372281">
        <ele>9.6</ele>
        <time>2013-03-24T12:45:47Z</time>
      </trkpt>
      <trkpt lat="59.4830117404" lon="17.7013292613">
        <ele>9.2</ele>
        <time>2013-03-24T12:45:48Z</time>
      </trkpt>
      <trkpt lat="59.4829668972" lon="17.7014271619">
        <ele>8.8</ele>
        <time>2013-03-24T12:45:49Z</time>
      </trkpt>
      <trkpt lat="59.4829254068" lon="17.7015185246">
        <ele>8.4</ele>
        <time>2013-03-24T12:45:50Z</time>
      </trkpt>
      <trkpt lat="59.482884084" lon="17.7016075404">
        <ele>7.6</ele>
        <time>2013-03-24T12:45:51Z</time>
      </trkpt>
      <trkpt lat="59.4827580203" lon="17.7018684689">
        <ele>7.6</ele>
        <time>2013-03-24T12:45:54Z</time>
      </trkpt>
      <trkpt lat="59.4824940742" lon="17.7024372647">
        <ele>7.6</ele>
        <time>2013-03-24T12:46:00Z</time>
      </trkpt>
      <trkpt lat="59.4824476385" lon="17.7025424575">
        <ele>7.2</ele>
        <time>2013-03-24T12:46:01Z</time>
      </trkpt>
      <trkpt lat="59.4823994426" lon="17.7026491591">
        <ele>6.8</ele>
        <time>2013-03-24T12:46:02Z</time>
      </trkpt>
      <trkpt lat="59.4823507437" lon="17.7027551063">
        <ele>6.4</ele>
        <time>2013-03-24T12:46:03Z</time>
      </trkpt>
      <trkpt lat="59.4822996142" lon="17.7028670885">
        <ele>6</ele>
        <time>2013-03-24T12:46:04Z</time>
      </trkpt>
      <trkpt lat="59.4822514182" lon="17.702976137">
        <ele>5.6</ele>
        <time>2013-03-24T12:46:05Z</time>
      </trkpt>
      <trkpt lat="59.4821095127" lon="17.7032887819">
        <ele>5.6</ele>
        <time>2013-03-24T12:46:08Z</time>
      </trkpt>
      <trkpt lat="59.4817903299" lon="17.7040014949">
        <ele>5.6</ele>
        <time>2013-03-24T12:46:15Z</time>
      </trkpt>
      <trkpt lat="59.4817469955" lon="17.7041111301">
        <ele>4.8</ele>
        <time>2013-03-24T12:46:16Z</time>
      </trkpt>
      <trkpt lat="59.4817039125" lon="17.7042223579">
        <ele>4.2</ele>
        <time>2013-03-24T12:46:17Z</time>
      </trkpt>
      <trkpt lat="59.4816612487" lon="17.7043346754">
        <ele>3.8</ele>
        <time>2013-03-24T12:46:18Z</time>
      </trkpt>
      <trkpt lat="59.4816153997" lon="17.704448753">
        <ele>3.4</ele>
        <time>2013-03-24T12:46:19Z</time>
      </trkpt>
      <trkpt lat="59.481537448" lon="17.7046601446">
        <ele>3.4</ele>
        <time>2013-03-24T12:46:21Z</time>
      </trkpt>
      <trkpt lat="59.4812739211" lon="17.7054741947">
        <ele>3.4</ele>
        <time>2013-03-24T12:46:28Z</time>
      </trkpt>
      <trkpt lat="59.481204016" lon="17.7057038587">
        <ele>3.4</ele>
        <time>2013-03-24T12:46:30Z</time>
      </trkpt>
      <trkpt lat="59.481065547" lon="17.7061692218">
        <ele>3</ele>
        <time>2013-03-24T12:46:34Z</time>
      </trkpt>
      <trkpt lat="59.4810269903" lon="17.7062870713">
        <ele>2.6</ele>
        <time>2013-03-24T12:46:35Z</time>
      </trkpt>
      <trkpt lat="59.4809875115" lon="17.7064045856">
        <ele>2.2</ele>
        <time>2013-03-24T12:46:36Z</time>
      </trkpt>
      <trkpt lat="59.4809500444" lon="17.7065216807">
        <ele>1.8</ele>
        <time>2013-03-24T12:46:37Z</time>
      </trkpt>
      <trkpt lat="59.4809124097" lon="17.7066435536">
        <ele>1.2</ele>
        <time>2013-03-24T12:46:38Z</time>
      </trkpt>
      <trkpt lat="59.480756674" lon="17.7071132752">
        <ele>1.2</ele>
        <time>2013-03-24T12:46:42Z</time>
      </trkpt>
      <trkpt lat="59.4804880341" lon="17.7079365454">
        <ele>1.2</ele>
        <time>2013-03-24T12:46:49Z</time>
      </trkpt>
      <trkpt lat="59.4803252576" lon="17.708410039">
        <ele>1.2</ele>
        <time>2013-03-24T12:46:53Z</time>
      </trkpt>
      <trkpt lat="59.4802577833" lon="17.7086274655">
        <ele>1.2</ele>
        <time>2013-03-24T12:46:55Z</time>
      </trkpt>
      <trkpt lat="59.4799603935" lon="17.7095792302">
        <ele>1.2</ele>
        <time>2013-03-24T12:47:04Z</time>
      </trkpt>
      <trkpt lat="59.4798028976" lon="17.7101235508">
        <ele>0.8</ele>
        <time>2013-03-24T12:47:09Z</time>
      </trkpt>
      <trkpt lat="59.4797677774" lon="17.7102331022">
        <ele>0.4</ele>
        <time>2013-03-24T12:47:10Z</time>
      </trkpt>
      <trkpt lat="59.4797342498" lon="17.7103444977">
        <ele>0</ele>
        <time>2013-03-24T12:47:11Z</time>
      </trkpt>
      <trkpt lat="59.4796982915" lon="17.7104584077">
        <ele>0</ele>
        <time>2013-03-24T12:47:12Z</time>
      </trkpt>
      <trkpt lat="59.4796632551" lon="17.7105694679">
        <ele>0</ele>
        <time>2013-03-24T12:47:13Z</time>
      </trkpt>
      <trkpt lat="59.4795667795" lon="17.7109031513">
        <ele>0</ele>
        <time>2013-03-24T12:47:16Z</time>
      </trkpt>
      <trkpt lat="59.4793730738" lon="17.7116982583">
        <ele>0</ele>
        <time>2013-03-24T12:47:23Z</time>
      </trkpt>
      <trkpt lat="59.4792443278" lon="17.712309718">
        <ele>0</ele>
        <time>2013-03-24T12:47:28Z</time>
      </trkpt>
      <trkpt lat="59.4790802102" lon="17.7131805974">
        <ele>0</ele>
        <time>2013-03-24T12:47:35Z</time>
      </trkpt>
      <trkpt lat="59.4789279949" lon="17.714200004">
        <ele>0</ele>
        <time>2013-03-24T12:47:43Z</time>
      </trkpt>
      <trkpt lat="59.4787910346" lon="17.7151695384">
        <ele>0</ele>
        <time>2013-03-24T12:47:51Z</time>
      </trkpt>
      <trkpt lat="59.4786540744" lon="17.7159921381">
        <ele>0</ele>
        <time>2013-03-24T12:47:58Z</time>
      </trkpt>
      <trkpt lat="59.4786327005" lon="17.7162582634">
        <ele>0</ele>
        <time>2013-03-24T12:48:00Z</time>
      </trkpt>
      <trkpt lat="59.4786109076" lon="17.716650704">
        <ele>0</ele>
        <time>2013-03-24T12:48:03Z</time>
      </trkpt>
      <trkpt lat="59.4785188743" lon="17.7174821884">
        <ele>0</ele>
        <time>2013-03-24T12:48:10Z</time>
      </trkpt>
      <trkpt lat="59.4784663198" lon="17.7180320411">
        <ele>0</ele>
        <time>2013-03-24T12:48:15Z</time>
      </trkpt>
      <trkpt lat="59.4784308644" lon="17.7186582528">
        <ele>0</ele>
        <time>2013-03-24T12:48:21Z</time>
      </trkpt>
      <trkpt lat="59.4784136815" lon="17.7189947023">
        <ele>0</ele>
        <time>2013-03-24T12:48:24Z</time>
      </trkpt>
      <trkpt lat="59.478411586" lon="17.7192048365">
        <ele>0</ele>
        <time>2013-03-24T12:48:26Z</time>
      </trkpt>
      <trkpt lat="59.478396331" lon="17.7197716206">
        <ele>0</ele>
        <time>2013-03-24T12:48:31Z</time>
      </trkpt>
      <trkpt lat="59.4783970853" lon="17.7200061462">
        <ele>0</ele>
        <time>2013-03-24T12:48:33Z</time>
      </trkpt>
      <trkpt lat="59.4783925591" lon="17.7203513966">
        <ele>0</ele>
        <time>2013-03-24T12:48:36Z</time>
      </trkpt>
      <trkpt lat="59.4783990132" lon="17.7206949707">
        <ele>0</ele>
        <time>2013-03-24T12:48:39Z</time>
      </trkpt>
      <trkpt lat="59.4784158608" lon="17.7217033971">
        <ele>0</ele>
        <time>2013-03-24T12:48:48Z</time>
      </trkpt>
      <trkpt lat="59.4784285175" lon="17.722683325">
        <ele>0</ele>
        <time>2013-03-24T12:48:56Z</time>
      </trkpt>
      <trkpt lat="59.4784301938" lon="17.7228119034">
        <ele>0</ele>
        <time>2013-03-24T12:48:57Z</time>
      </trkpt>
      <trkpt lat="59.4784334628" lon="17.7229422419">
        <ele>0</ele>
        <time>2013-03-24T12:48:58Z</time>
      </trkpt>
      <trkpt lat="59.4784364803" lon="17.7230705688">
        <ele>0</ele>
        <time>2013-03-24T12:48:59Z</time>
      </trkpt>
      <trkpt lat="59.4784391625" lon="17.7232004044">
        <ele>0</ele>
        <time>2013-03-24T12:49:00Z</time>
      </trkpt>
      <trkpt lat="59.4784424314" lon="17.7233375323">
        <ele>0</ele>
        <time>2013-03-24T12:49:01Z</time>
      </trkpt>
      <trkpt lat="59.4784526573" lon="17.7238837808">
        <ele>0</ele>
        <time>2013-03-24T12:49:05Z</time>
      </trkpt>
      <trkpt lat="59.4784586923" lon="17.7244369023">
        <ele>0</ele>
        <time>2013-03-24T12:49:09Z</time>
      </trkpt>
      <trkpt lat="59.4784586923" lon="17.7245702584">
        <ele>0</ele>
        <time>2013-03-24T12:49:10Z</time>
      </trkpt>
      <trkpt lat="59.4784586085" lon="17.7247005969">
        <ele>0</ele>
        <time>2013-03-24T12:49:11Z</time>
      </trkpt>
      <trkpt lat="59.478459279" lon="17.7248281694">
        <ele>0</ele>
        <time>2013-03-24T12:49:12Z</time>
      </trkpt>
      <trkpt lat="59.4784598658" lon="17.7249520539">
        <ele>0</ele>
        <time>2013-03-24T12:49:13Z</time>
      </trkpt>
      <trkpt lat="59.478458357" lon="17.7258171498">
        <ele>0</ele>
        <time>2013-03-24T12:49:20Z</time>
      </trkpt>
      <trkpt lat="59.4784568483" lon="17.7259374301">
        <ele>0</ele>
        <time>2013-03-24T12:49:21Z</time>
      </trkpt>
      <trkpt lat="59.4784560939" lon="17.7260572074">
        <ele>0</ele>
        <time>2013-03-24T12:49:22Z</time>
      </trkpt>
      <trkpt lat="59.4784567645" lon="17.7261819301">
        <ele>0</ele>
        <time>2013-03-24T12:49:23Z</time>
      </trkpt>
      <trkpt lat="59.4784550043" lon="17.7263009531">
        <ele>0</ele>
        <time>2013-03-24T12:49:24Z</time>
      </trkpt>
      <trkpt lat="59.4784487178" lon="17.72641721">
        <ele>0</ele>
        <time>2013-03-24T12:49:25Z</time>
      </trkpt>
      <trkpt lat="59.4784293556" lon="17.7266424317">
        <ele>0</ele>
        <time>2013-03-24T12:49:27Z</time>
      </trkpt>
      <trkpt lat="59.4784045452" lon="17.7274302465">
        <ele>0</ele>
        <time>2013-03-24T12:49:34Z</time>
      </trkpt>
      <trkpt lat="59.4784032879" lon="17.7276698012">
        <ele>0</ele>
        <time>2013-03-24T12:49:36Z</time>
      </trkpt>
      <trkpt lat="59.4784045452" lon="17.7277863934">
        <ele>0</ele>
        <time>2013-03-24T12:49:37Z</time>
      </trkpt>
      <trkpt lat="59.478407898" lon="17.7279038238">
        <ele>0</ele>
        <time>2013-03-24T12:49:38Z</time>
      </trkpt>
      <trkpt lat="59.4784084009" lon="17.728012118">
        <ele>0</ele>
        <time>2013-03-24T12:49:39Z</time>
      </trkpt>
      <trkpt lat="59.4784098258" lon="17.7281185681">
        <ele>0</ele>
        <time>2013-03-24T12:49:40Z</time>
      </trkpt>
      <trkpt lat="59.4784109155" lon="17.7282277004">
        <ele>0</ele>
        <time>2013-03-24T12:49:41Z</time>
      </trkpt>
      <trkpt lat="59.4784084009" lon="17.7283282832">
        <ele>0</ele>
        <time>2013-03-24T12:49:42Z</time>
      </trkpt>
      <trkpt lat="59.478399097" lon="17.7284324702">
        <ele>0</ele>
        <time>2013-03-24T12:49:43Z</time>
      </trkpt>
      <trkpt lat="59.4783574389" lon="17.7286236614">
        <ele>0</ele>
        <time>2013-03-24T12:49:45Z</time>
      </trkpt>
      <trkpt lat="59.478326845" lon="17.7287094082">
        <ele>0</ele>
        <time>2013-03-24T12:49:46Z</time>
      </trkpt>
      <trkpt lat="59.4782667468" lon="17.7288458655">
        <ele>0</ele>
        <time>2013-03-24T12:49:48Z</time>
      </trkpt>
      <trkpt lat="59.478226346" lon="17.7288661497">
        <ele>0</ele>
        <time>2013-03-24T12:49:49Z</time>
      </trkpt>
      <trkpt lat="59.4781302895" lon="17.7288765433">
        <ele>0</ele>
        <time>2013-03-24T12:49:51Z</time>
      </trkpt>
      <trkpt lat="59.4780106797" lon="17.7288491345">
        <ele>0</ele>
        <time>2013-03-24T12:49:53Z</time>
      </trkpt>
      <trkpt lat="59.4779482346" lon="17.7288265872">
        <ele>0</ele>
        <time>2013-03-24T12:49:54Z</time>
      </trkpt>
      <trkpt lat="59.4778841131" lon="17.7288034531">
        <ele>0</ele>
        <time>2013-03-24T12:49:55Z</time>
      </trkpt>
      <trkpt lat="59.4778194886" lon="17.7287778883">
        <ele>0</ele>
        <time>2013-03-24T12:49:56Z</time>
      </trkpt>
      <trkpt lat="59.477748913" lon="17.7287514854">
        <ele>0</ele>
        <time>2013-03-24T12:49:57Z</time>
      </trkpt>
      <trkpt lat="59.477677583" lon="17.7287235736">
        <ele>0</ele>
        <time>2013-03-24T12:49:58Z</time>
      </trkpt>
      <trkpt lat="59.4776043252" lon="17.7286881182">
        <ele>0</ele>
        <time>2013-03-24T12:49:59Z</time>
      </trkpt>
      <trkpt lat="59.4775299778" lon="17.7286412634">
        <ele>0</ele>
        <time>2013-03-24T12:50:00Z</time>
      </trkpt>
      <trkpt lat="59.4774529481" lon="17.7285904691">
        <ele>0</ele>
        <time>2013-03-24T12:50:01Z</time>
      </trkpt>
      <trkpt lat="59.477372901" lon="17.7285380822">
        <ele>0</ele>
        <time>2013-03-24T12:50:02Z</time>
      </trkpt>
      <trkpt lat="59.4772886629" lon="17.7284759723">
        <ele>0</ele>
        <time>2013-03-24T12:50:03Z</time>
      </trkpt>
      <trkpt lat="59.4772086996" lon="17.7284128566">
        <ele>0</ele>
        <time>2013-03-24T12:50:04Z</time>
      </trkpt>
      <trkpt lat="59.4771279819" lon="17.7283449632">
        <ele>0</ele>
        <time>2013-03-24T12:50:05Z</time>
      </trkpt>
      <trkpt lat="59.4770481862" lon="17.7282739685">
        <ele>0</ele>
        <time>2013-03-24T12:50:06Z</time>
      </trkpt>
      <trkpt lat="59.4769682228" lon="17.7282015489">
        <ele>0</ele>
        <time>2013-03-24T12:50:07Z</time>
      </trkpt>
      <trkpt lat="59.4768098049" lon="17.7280391077">
        <ele>0</ele>
        <time>2013-03-24T12:50:09Z</time>
      </trkpt>
      <trkpt lat="59.4766632893" lon="17.7278432227">
        <ele>0</ele>
        <time>2013-03-24T12:50:11Z</time>
      </trkpt>
      <trkpt lat="59.4762544202" lon="17.7271800467">
        <ele>0</ele>
        <time>2013-03-24T12:50:17Z</time>
      </trkpt>
      <trkpt lat="59.4759405181" lon="17.7264808286">
        <ele>0</ele>
        <time>2013-03-24T12:50:23Z</time>
      </trkpt>
      <trkpt lat="59.4756944255" lon="17.7257701273">
        <ele>0</ele>
        <time>2013-03-24T12:50:29Z</time>
      </trkpt>
      <trkpt lat="59.4755245244" lon="17.7250160078">
        <ele>0</ele>
        <time>2013-03-24T12:50:35Z</time>
      </trkpt>
      <trkpt lat="59.475378847" lon="17.7240510835">
        <ele>0</ele>
        <time>2013-03-24T12:50:42Z</time>
      </trkpt>
      <trkpt lat="59.4752639311" lon="17.7230068664">
        <ele>0</ele>
        <time>2013-03-24T12:50:49Z</time>
      </trkpt>
      <trkpt lat="59.4752291462" lon="17.7226969875">
        <ele>0</ele>
        <time>2013-03-24T12:50:51Z</time>
      </trkpt>
      <trkpt lat="59.4750549703" lon="17.7216168121">
        <ele>0</ele>
        <time>2013-03-24T12:50:58Z</time>
      </trkpt>
      <trkpt lat="59.4748803754" lon="17.720923126">
        <ele>0</ele>
        <time>2013-03-24T12:51:03Z</time>
      </trkpt>
      <trkpt lat="59.4748412319" lon="17.7207824777">
        <ele>0</ele>
        <time>2013-03-24T12:51:04Z</time>
      </trkpt>
      <trkpt lat="59.4748005797" lon="17.7206487864">
        <ele>0</ele>
        <time>2013-03-24T12:51:05Z</time>
      </trkpt>
      <trkpt lat="59.4747560718" lon="17.7205135864">
        <ele>0</ele>
        <time>2013-03-24T12:51:06Z</time>
      </trkpt>
      <trkpt lat="59.4747111448" lon="17.7203775482">
        <ele>0</ele>
        <time>2013-03-24T12:51:07Z</time>
      </trkpt>
      <trkpt lat="59.4743853404" lon="17.7196107719">
        <ele>0</ele>
        <time>2013-03-24T12:51:13Z</time>
      </trkpt>
      <trkpt lat="59.4739253417" lon="17.7188607595">
        <ele>0</ele>
        <time>2013-03-24T12:51:20Z</time>
      </trkpt>
      <trkpt lat="59.4734034846" lon="17.7182898683">
        <ele>0</ele>
        <time>2013-03-24T12:51:27Z</time>
      </trkpt>
      <trkpt lat="59.4729102936" lon="17.7179576936">
        <ele>0</ele>
        <time>2013-03-24T12:51:33Z</time>
      </trkpt>
      <trkpt lat="59.4725664681" lon="17.7178309593">
        <ele>0</ele>
        <time>2013-03-24T12:51:37Z</time>
      </trkpt>
      <trkpt lat="59.4724833196" lon="17.7178171292">
        <ele>0</ele>
        <time>2013-03-24T12:51:38Z</time>
      </trkpt>
      <trkpt lat="59.4724005903" lon="17.7178129382">
        <ele>0</ele>
        <time>2013-03-24T12:51:39Z</time>
      </trkpt>
      <trkpt lat="59.4723204593" lon="17.7178169615">
        <ele>0</ele>
        <time>2013-03-24T12:51:40Z</time>
      </trkpt>
      <trkpt lat="59.4722412503" lon="17.7178240861">
        <ele>0</ele>
        <time>2013-03-24T12:51:41Z</time>
      </trkpt>
      <trkpt lat="59.4719348919" lon="17.7178851064">
        <ele>0</ele>
        <time>2013-03-24T12:51:45Z</time>
      </trkpt>
      <trkpt lat="59.4715705307" lon="17.7179913889">
        <ele>0</ele>
        <time>2013-03-24T12:51:50Z</time>
      </trkpt>
      <trkpt lat="59.4711868073" lon="17.7181056342">
        <ele>0</ele>
        <time>2013-03-24T12:51:55Z</time>
      </trkpt>
      <trkpt lat="59.470619185" lon="17.718250641">
        <ele>0</ele>
        <time>2013-03-24T12:52:03Z</time>
      </trkpt>
      <trkpt lat="59.4701912052" lon="17.7183492122">
        <ele>0</ele>
        <time>2013-03-24T12:52:09Z</time>
      </trkpt>
      <trkpt lat="59.4696293665" lon="17.7185272437">
        <ele>0</ele>
        <time>2013-03-24T12:52:17Z</time>
      </trkpt>
      <trkpt lat="59.4695002852" lon="17.7185872581">
        <ele>0</ele>
        <time>2013-03-24T12:52:19Z</time>
      </trkpt>
      <trkpt lat="59.4692958507" lon="17.7186824765">
        <ele>0</ele>
        <time>2013-03-24T12:52:22Z</time>
      </trkpt>
      <trkpt lat="59.4687934396" lon="17.7188873302">
        <ele>0</ele>
        <time>2013-03-24T12:52:29Z</time>
      </trkpt>
      <trkpt lat="59.4683619394" lon="17.7189620129">
        <ele>0</ele>
        <time>2013-03-24T12:52:35Z</time>
      </trkpt>
      <trkpt lat="59.4679135915" lon="17.7188451692">
        <ele>0</ele>
        <time>2013-03-24T12:52:41Z</time>
      </trkpt>
      <trkpt lat="59.4673355757" lon="17.7185171855">
        <ele>0</ele>
        <time>2013-03-24T12:52:49Z</time>
      </trkpt>
      <trkpt lat="59.4671961847" lon="17.7183989168">
        <ele>0</ele>
        <time>2013-03-24T12:52:51Z</time>
      </trkpt>
      <trkpt lat="59.4671318956" lon="17.7183291794">
        <ele>0</ele>
        <time>2013-03-24T12:52:52Z</time>
      </trkpt>
      <trkpt lat="59.4670700371" lon="17.7182572627">
        <ele>0</ele>
        <time>2013-03-24T12:52:53Z</time>
      </trkpt>
      <trkpt lat="59.4670107771" lon="17.7181840888">
        <ele>0</ele>
        <time>2013-03-24T12:52:54Z</time>
      </trkpt>
      <trkpt lat="59.4669495054" lon="17.7181049636">
        <ele>0</ele>
        <time>2013-03-24T12:52:55Z</time>
      </trkpt>
      <trkpt lat="59.4667146446" lon="17.7178007006">
        <ele>0</ele>
        <time>2013-03-24T12:52:59Z</time>
      </trkpt>
      <trkpt lat="59.4666071048" lon="17.7176572863">
        <ele>0</ele>
        <time>2013-03-24T12:53:01Z</time>
      </trkpt>
      <trkpt lat="59.4665005708" lon="17.7175446336">
        <ele>0</ele>
        <time>2013-03-24T12:53:03Z</time>
      </trkpt>
      <trkpt lat="59.4663139898" lon="17.7173723856">
        <ele>0</ele>
        <time>2013-03-24T12:53:06Z</time>
      </trkpt>
      <trkpt lat="59.4662439171" lon="17.7173261175">
        <ele>0</ele>
        <time>2013-03-24T12:53:07Z</time>
      </trkpt>
      <trkpt lat="59.4661742635" lon="17.7173031511">
        <ele>0</ele>
        <time>2013-03-24T12:53:08Z</time>
      </trkpt>
      <trkpt lat="59.4660326094" lon="17.7172887342">
        <ele>0</ele>
        <time>2013-03-24T12:53:10Z</time>
      </trkpt>
      <trkpt lat="59.4658314438" lon="17.717246238">
        <ele>0</ele>
        <time>2013-03-24T12:53:13Z</time>
      </trkpt>
      <trkpt lat="59.4657059667" lon="17.7171298972">
        <ele>0</ele>
        <time>2013-03-24T12:53:15Z</time>
      </trkpt>
      <trkpt lat="59.4655927273" lon="17.7169600799">
        <ele>0</ele>
        <time>2013-03-24T12:53:17Z</time>
      </trkpt>
      <trkpt lat="59.465371026" lon="17.7166002449">
        <ele>0</ele>
        <time>2013-03-24T12:53:21Z</time>
      </trkpt>
      <trkpt lat="59.4649530206" lon="17.7160302757">
        <ele>0</ele>
        <time>2013-03-24T12:53:28Z</time>
      </trkpt>
      <trkpt lat="59.4645298185" lon="17.7156494022">
        <ele>0</ele>
        <time>2013-03-24T12:53:34Z</time>
      </trkpt>
      <trkpt lat="59.4644608355" lon="17.7156160422">
        <ele>0</ele>
        <time>2013-03-24T12:53:35Z</time>
      </trkpt>
      <trkpt lat="59.4641826402" lon="17.7154864581">
        <ele>0</ele>
        <time>2013-03-24T12:53:39Z</time>
      </trkpt>
      <trkpt lat="59.4638295946" lon="17.7153788345">
        <ele>0</ele>
        <time>2013-03-24T12:53:44Z</time>
      </trkpt>
      <trkpt lat="59.4637606954" lon="17.7153601428">
        <ele>0</ele>
        <time>2013-03-24T12:53:45Z</time>
      </trkpt>
      <trkpt lat="59.4636926343" lon="17.7153430437">
        <ele>0</ele>
        <time>2013-03-24T12:53:46Z</time>
      </trkpt>
      <trkpt lat="59.463624741" lon="17.7153241007">
        <ele>0</ele>
        <time>2013-03-24T12:53:47Z</time>
      </trkpt>
      <trkpt lat="59.4635569314" lon="17.7153062472">
        <ele>0</ele>
        <time>2013-03-24T12:53:48Z</time>
      </trkpt>
      <trkpt lat="59.4631209888" lon="17.7151815245">
        <ele>0</ele>
        <time>2013-03-24T12:53:54Z</time>
      </trkpt>
      <trkpt lat="59.4626870578" lon="17.7150550417">
        <ele>0</ele>
        <time>2013-03-24T12:54:00Z</time>
      </trkpt>
      <trkpt lat="59.4620838125" lon="17.7148734897">
        <ele>0</ele>
        <time>2013-03-24T12:54:08Z</time>
      </trkpt>
      <trkpt lat="59.4614906254" lon="17.7147132278">
        <ele>0</ele>
        <time>2013-03-24T12:54:16Z</time>
      </trkpt>
      <trkpt lat="59.4610691835" lon="17.7146750063">
        <ele>0</ele>
        <time>2013-03-24T12:54:22Z</time>
      </trkpt>
      <trkpt lat="59.460867934" lon="17.714880782">
        <ele>0</ele>
        <time>2013-03-24T12:54:25Z</time>
      </trkpt>
      <trkpt lat="59.4608056565" lon="17.7149571411">
        <ele>0</ele>
        <time>2013-03-24T12:54:26Z</time>
      </trkpt>
      <trkpt lat="59.4607426246" lon="17.7150353442">
        <ele>0</ele>
        <time>2013-03-24T12:54:27Z</time>
      </trkpt>
      <trkpt lat="59.4606798442" lon="17.7151150561">
        <ele>0</ele>
        <time>2013-03-24T12:54:28Z</time>
      </trkpt>
      <trkpt lat="59.4606128728" lon="17.7151910799">
        <ele>0</ele>
        <time>2013-03-24T12:54:29Z</time>
      </trkpt>
      <trkpt lat="59.4603531177" lon="17.7154737176">
        <ele>0</ele>
        <time>2013-03-24T12:54:33Z</time>
      </trkpt>
      <trkpt lat="59.4598861621" lon="17.7159721053">
        <ele>0</ele>
        <time>2013-03-24T12:54:40Z</time>
      </trkpt>
      <trkpt lat="59.4596152591" lon="17.7163285875">
        <ele>0</ele>
        <time>2013-03-24T12:54:45Z</time>
      </trkpt>
      <trkpt lat="59.4595679852" lon="17.7164150888">
        <ele>0</ele>
        <time>2013-03-24T12:54:46Z</time>
      </trkpt>
      <trkpt lat="59.4593674901" lon="17.7167551424">
        <ele>0</ele>
        <time>2013-03-24T12:54:50Z</time>
      </trkpt>
      <trkpt lat="59.4591884527" lon="17.7168916836">
        <ele>0</ele>
        <time>2013-03-24T12:54:54Z</time>
      </trkpt>
      <trkpt lat="59.4589630635" lon="17.7168564796">
        <ele>0</ele>
        <time>2013-03-24T12:54:59Z</time>
      </trkpt>
      <trkpt lat="59.4589188908" lon="17.7168429848">
        <ele>0</ele>
        <time>2013-03-24T12:55:00Z</time>
      </trkpt>
      <trkpt lat="59.4588746344" lon="17.7168332617">
        <ele>0</ele>
        <time>2013-03-24T12:55:01Z</time>
      </trkpt>
      <trkpt lat="59.4588276958" lon="17.716827143">
        <ele>0</ele>
        <time>2013-03-24T12:55:02Z</time>
      </trkpt>
      <trkpt lat="59.4587797513" lon="17.7168128937">
        <ele>0</ele>
        <time>2013-03-24T12:55:03Z</time>
      </trkpt>
      <trkpt lat="59.4587315554" lon="17.7167962976">
        <ele>0</ele>
        <time>2013-03-24T12:55:04Z</time>
      </trkpt>
      <trkpt lat="59.4586878019" lon="17.7167805396">
        <ele>0</ele>
        <time>2013-03-24T12:55:05Z</time>
      </trkpt>
      <trkpt lat="59.4585993728" lon="17.7167489398">
        <ele>0</ele>
        <time>2013-03-24T12:55:07Z</time>
      </trkpt>
      <trkpt lat="59.458555284" lon="17.7167267278">
        <ele>0</ele>
        <time>2013-03-24T12:55:08Z</time>
      </trkpt>
      <trkpt lat="59.4585148833" lon="17.716703007">
        <ele>0</ele>
        <time>2013-03-24T12:55:09Z</time>
      </trkpt>
      <trkpt lat="59.4584771647" lon="17.7166786995">
        <ele>0</ele>
        <time>2013-03-24T12:55:10Z</time>
      </trkpt>
      <trkpt lat="59.4584358419" lon="17.7166517098">
        <ele>0</ele>
        <time>2013-03-24T12:55:11Z</time>
      </trkpt>
      <trkpt lat="59.4583883166" lon="17.7166211159">
        <ele>0</ele>
        <time>2013-03-24T12:55:12Z</time>
      </trkpt>
      <trkpt lat="59.4581086126" lon="17.7163824832">
        <ele>0</ele>
        <time>2013-03-24T12:55:17Z</time>
      </trkpt>
      <trkpt lat="59.4578598378" lon="17.7161032821">
        <ele>0</ele>
        <time>2013-03-24T12:55:21Z</time>
      </trkpt>
      <trkpt lat="59.4577937884" lon="17.716016278">
        <ele>0</ele>
        <time>2013-03-24T12:55:22Z</time>
      </trkpt>
      <trkpt lat="59.4577265656" lon="17.7159306149">
        <ele>0</ele>
        <time>2013-03-24T12:55:23Z</time>
      </trkpt>
      <trkpt lat="59.4576523019" lon="17.7158396713">
        <ele>0</ele>
        <time>2013-03-24T12:55:24Z</time>
      </trkpt>
      <trkpt lat="59.45758466" lon="17.7157574449">
        <ele>0</ele>
        <time>2013-03-24T12:55:25Z</time>
      </trkpt>
      <trkpt lat="59.4573120806" lon="17.7154522599">
        <ele>0</ele>
        <time>2013-03-24T12:55:29Z</time>
      </trkpt>
      <trkpt lat="59.4572461151" lon="17.7153778286">
        <ele>0</ele>
        <time>2013-03-24T12:55:30Z</time>
      </trkpt>
      <trkpt lat="59.4571846757" lon="17.7153070016">
        <ele>0</ele>
        <time>2013-03-24T12:55:31Z</time>
      </trkpt>
      <trkpt lat="59.4571253319" lon="17.7152375994">
        <ele>0</ele>
        <time>2013-03-24T12:55:32Z</time>
      </trkpt>
      <trkpt lat="59.4570679159" lon="17.7151697061">
        <ele>0</ele>
        <time>2013-03-24T12:55:33Z</time>
      </trkpt>
      <trkpt lat="59.4569525809" lon="17.7150348413">
        <ele>0</ele>
        <time>2013-03-24T12:55:35Z</time>
      </trkpt>
      <trkpt lat="59.4568972604" lon="17.7149693786">
        <ele>0</ele>
        <time>2013-03-24T12:55:36Z</time>
      </trkpt>
      <trkpt lat="59.456837246" lon="17.7149004794">
        <ele>0</ele>
        <time>2013-03-24T12:55:37Z</time>
      </trkpt>
      <trkpt lat="59.4567750523" lon="17.7148331728">
        <ele>0</ele>
        <time>2013-03-24T12:55:38Z</time>
      </trkpt>
      <trkpt lat="59.4567119366" lon="17.714758993">
        <ele>0</ele>
        <time>2013-03-24T12:55:39Z</time>
      </trkpt>
      <trkpt lat="59.4564104396" lon="17.7144118147">
        <ele>0</ele>
        <time>2013-03-24T12:55:44Z</time>
      </trkpt>
      <trkpt lat="59.456235677" lon="17.714219953">
        <ele>0</ele>
        <time>2013-03-24T12:55:47Z</time>
      </trkpt>
      <trkpt lat="59.4560617526" lon="17.7140508062">
        <ele>0</ele>
        <time>2013-03-24T12:55:50Z</time>
      </trkpt>
      <trkpt lat="59.4559970443" lon="17.7139989223">
        <ele>0</ele>
        <time>2013-03-24T12:55:51Z</time>
      </trkpt>
      <trkpt lat="59.4558204377" lon="17.7139144327">
        <ele>0</ele>
        <time>2013-03-24T12:55:54Z</time>
      </trkpt>
      <trkpt lat="59.4555460143" lon="17.7138203878">
        <ele>0</ele>
        <time>2013-03-24T12:55:59Z</time>
      </trkpt>
      <trkpt lat="59.4554856646" lon="17.7138187114">
        <ele>0</ele>
        <time>2013-03-24T12:56:00Z</time>
      </trkpt>
      <trkpt lat="59.4553702458" lon="17.7138367325">
        <ele>0</ele>
        <time>2013-03-24T12:56:02Z</time>
      </trkpt>
      <trkpt lat="59.4553142547" lon="17.7138307813">
        <ele>0</ele>
        <time>2013-03-24T12:56:03Z</time>
      </trkpt>
      <trkpt lat="59.4552573416" lon="17.71381846">
        <ele>0</ele>
        <time>2013-03-24T12:56:04Z</time>
      </trkpt>
      <trkpt lat="59.4551961538" lon="17.7138122573">
        <ele>0</ele>
        <time>2013-03-24T12:56:05Z</time>
      </trkpt>
      <trkpt lat="59.4551387378" lon="17.7138014447">
        <ele>0</ele>
        <time>2013-03-24T12:56:06Z</time>
      </trkpt>
      <trkpt lat="59.4550252468" lon="17.713792057">
        <ele>0</ele>
        <time>2013-03-24T12:56:08Z</time>
      </trkpt>
      <trkpt lat="59.454621826" lon="17.713755009">
        <ele>0</ele>
        <time>2013-03-24T12:56:14Z</time>
      </trkpt>
      <trkpt lat="59.4542344146" lon="17.7137275163">
        <ele>0</ele>
        <time>2013-03-24T12:56:20Z</time>
      </trkpt>
      <trkpt lat="59.453879022" lon="17.7136237484">
        <ele>0</ele>
        <time>2013-03-24T12:56:26Z</time>
      </trkpt>
      <trkpt lat="59.4538263837" lon="17.7135887959">
        <ele>0</ele>
        <time>2013-03-24T12:56:27Z</time>
      </trkpt>
      <trkpt lat="59.4537212746" lon="17.7135011212">
        <ele>0</ele>
        <time>2013-03-24T12:56:29Z</time>
      </trkpt>
      <trkpt lat="59.4535754296" lon="17.713299788">
        <ele>0</ele>
        <time>2013-03-24T12:56:32Z</time>
      </trkpt>
      <trkpt lat="59.4534452587" lon="17.7130235206">
        <ele>0</ele>
        <time>2013-03-24T12:56:35Z</time>
      </trkpt>
      <trkpt lat="59.4533927042" lon="17.7127928507">
        <ele>0</ele>
        <time>2013-03-24T12:56:37Z</time>
      </trkpt>
      <trkpt lat="59.4533903572" lon="17.7124454209">
        <ele>0</ele>
        <time>2013-03-24T12:56:40Z</time>
      </trkpt>
      <trkpt lat="59.4534305065" lon="17.7121441754">
        <ele>0</ele>
        <time>2013-03-24T12:56:43Z</time>
      </trkpt>
      <trkpt lat="59.4534437499" lon="17.7120539862">
        <ele>0</ele>
        <time>2013-03-24T12:56:44Z</time>
      </trkpt>
      <trkpt lat="59.4534583344" lon="17.7119592707">
        <ele>0</ele>
        <time>2013-03-24T12:56:45Z</time>
      </trkpt>
      <trkpt lat="59.4534762717" lon="17.7118545808">
        <ele>0</ele>
        <time>2013-03-24T12:56:46Z</time>
      </trkpt>
      <trkpt lat="59.4534898504" lon="17.7117537465">
        <ele>0</ele>
        <time>2013-03-24T12:56:47Z</time>
      </trkpt>
      <trkpt lat="59.4534975617" lon="17.7116441951">
        <ele>0</ele>
        <time>2013-03-24T12:56:48Z</time>
      </trkpt>
      <trkpt lat="59.4535044349" lon="17.7114377489">
        <ele>0</ele>
        <time>2013-03-24T12:56:50Z</time>
      </trkpt>
      <trkpt lat="59.4534885093" lon="17.7111443824">
        <ele>0</ele>
        <time>2013-03-24T12:56:53Z</time>
      </trkpt>
      <trkpt lat="59.4534800436" lon="17.7110496669">
        <ele>0</ele>
        <time>2013-03-24T12:56:54Z</time>
      </trkpt>
      <trkpt lat="59.4534517966" lon="17.7108578891">
        <ele>0</ele>
        <time>2013-03-24T12:56:56Z</time>
      </trkpt>
      <trkpt lat="59.4533794608" lon="17.7106276383">
        <ele>0</ele>
        <time>2013-03-24T12:56:59Z</time>
      </trkpt>
      <trkpt lat="59.4533516329" lon="17.7105619242">
        <ele>0</ele>
        <time>2013-03-24T12:57:00Z</time>
      </trkpt>
      <trkpt lat="59.4532513015" lon="17.7102706531">
        <ele>0</ele>
        <time>2013-03-24T12:57:04Z</time>
      </trkpt>
      <trkpt lat="59.4532116551" lon="17.7100925378">
        <ele>0</ele>
        <time>2013-03-24T12:57:06Z</time>
      </trkpt>
      <trkpt lat="59.453168656" lon="17.7097570941">
        <ele>0</ele>
        <time>2013-03-24T12:57:09Z</time>
      </trkpt>
      <trkpt lat="59.4531278361" lon="17.7094465447">
        <ele>0</ele>
        <time>2013-03-24T12:57:12Z</time>
      </trkpt>
      <trkpt lat="59.453098248" lon="17.7092670883">
        <ele>0</ele>
        <time>2013-03-24T12:57:14Z</time>
      </trkpt>
      <trkpt lat="59.4530855914" lon="17.7091790783">
        <ele>0</ele>
        <time>2013-03-24T12:57:15Z</time>
      </trkpt>
      <trkpt lat="59.4530734376" lon="17.7090891405">
        <ele>0</ele>
        <time>2013-03-24T12:57:16Z</time>
      </trkpt>
      <trkpt lat="59.4530617029" lon="17.7089971911">
        <ele>0</ele>
        <time>2013-03-24T12:57:17Z</time>
      </trkpt>
      <trkpt lat="59.4530492139" lon="17.7089074209">
        <ele>0</ele>
        <time>2013-03-24T12:57:18Z</time>
      </trkpt>
      <trkpt lat="59.4530005151" lon="17.708598967">
        <ele>0</ele>
        <time>2013-03-24T12:57:21Z</time>
      </trkpt>
      <trkpt lat="59.4529249103" lon="17.7082874118">
        <ele>0</ele>
        <time>2013-03-24T12:57:24Z</time>
      </trkpt>
      <trkpt lat="59.4528684163" lon="17.7080880902">
        <ele>0</ele>
        <time>2013-03-24T12:57:26Z</time>
      </trkpt>
      <trkpt lat="59.452737994" lon="17.7076944762">
        <ele>0</ele>
        <time>2013-03-24T12:57:30Z</time>
      </trkpt>
      <trkpt lat="59.4527039634" lon="17.7075964918">
        <ele>0</ele>
        <time>2013-03-24T12:57:31Z</time>
      </trkpt>
      <trkpt lat="59.4526706035" lon="17.7075030336">
        <ele>0</ele>
        <time>2013-03-24T12:57:32Z</time>
      </trkpt>
      <trkpt lat="59.452635651" lon="17.7074054683">
        <ele>0</ele>
        <time>2013-03-24T12:57:33Z</time>
      </trkpt>
      <trkpt lat="59.4525980162" lon="17.7072965036">
        <ele>0</ele>
        <time>2013-03-24T12:57:34Z</time>
      </trkpt>
      <trkpt lat="59.4525255128" lon="17.70707958">
        <ele>0</ele>
        <time>2013-03-24T12:57:36Z</time>
      </trkpt>
      <trkpt lat="59.452419817" lon="17.7067654264">
        <ele>0</ele>
        <time>2013-03-24T12:57:39Z</time>
      </trkpt>
      <trkpt lat="59.4523121934" lon="17.7064968703">
        <ele>0</ele>
        <time>2013-03-24T12:57:42Z</time>
      </trkpt>
      <trkpt lat="59.4522258599" lon="17.7063496003">
        <ele>0</ele>
        <time>2013-03-24T12:57:44Z</time>
      </trkpt>
      <trkpt lat="59.4521754847" lon="17.7062869037">
        <ele>0</ele>
        <time>2013-03-24T12:57:45Z</time>
      </trkpt>
      <trkpt lat="59.4520754886" lon="17.7061786096">
        <ele>0</ele>
        <time>2013-03-24T12:57:46Z</time>
      </trkpt>
      <trkpt lat="59.4520213415" lon="17.7061378735">
        <ele>0</ele>
        <time>2013-03-24T12:57:48Z</time>
      </trkpt>
      <trkpt lat="59.4518288093" lon="17.7059976443">
        <ele>0</ele>
        <time>2013-03-24T12:57:52Z</time>
      </trkpt>
      <trkpt lat="59.4517363569" lon="17.7059502866">
        <ele>0</ele>
        <time>2013-03-24T12:57:54Z</time>
      </trkpt>
      <trkpt lat="59.4516889154" lon="17.7059293319">
        <ele>0</ele>
        <time>2013-03-24T12:57:55Z</time>
      </trkpt>
      <trkpt lat="59.4516443236" lon="17.7059034318">
        <ele>0</ele>
        <time>2013-03-24T12:57:56Z</time>
      </trkpt>
      <trkpt lat="59.4515976365" lon="17.7058751848">
        <ele>0</ele>
        <time>2013-03-24T12:57:57Z</time>
      </trkpt>
      <trkpt lat="59.4515492729" lon="17.7058465187">
        <ele>0</ele>
        <time>2013-03-24T12:57:58Z</time>
      </trkpt>
      <trkpt lat="59.4514082893" lon="17.7057600175">
        <ele>0</ele>
        <time>2013-03-24T12:58:01Z</time>
      </trkpt>
      <trkpt lat="59.4513632785" lon="17.7057274957">
        <ele>0</ele>
        <time>2013-03-24T12:58:02Z</time>
      </trkpt>
      <trkpt lat="59.4513209499" lon="17.7056940519">
        <ele>0.4</ele>
        <time>2013-03-24T12:58:03Z</time>
      </trkpt>
      <trkpt lat="59.4512796272" lon="17.7056638771">
        <ele>0.8</ele>
        <time>2013-03-24T12:58:04Z</time>
      </trkpt>
      <trkpt lat="59.45123294" lon="17.7056428385">
        <ele>1.2</ele>
        <time>2013-03-24T12:58:05Z</time>
      </trkpt>
      <trkpt lat="59.4511866719" lon="17.7056220514">
        <ele>1.6</ele>
        <time>2013-03-24T12:58:06Z</time>
      </trkpt>
      <trkpt lat="59.4511419126" lon="17.7055998394">
        <ele>1.6</ele>
        <time>2013-03-24T12:58:07Z</time>
      </trkpt>
      <trkpt lat="59.4510588479" lon="17.705558349">
        <ele>2</ele>
        <time>2013-03-24T12:58:09Z</time>
      </trkpt>
      <trkpt lat="59.4510146753" lon="17.705539825">
        <ele>2.6</ele>
        <time>2013-03-24T12:58:10Z</time>
      </trkpt>
      <trkpt lat="59.4509727658" lon="17.705518954">
        <ele>3</ele>
        <time>2013-03-24T12:58:11Z</time>
      </trkpt>
      <trkpt lat="59.4509296829" lon="17.7055005139">
        <ele>3.4</ele>
        <time>2013-03-24T12:58:12Z</time>
      </trkpt>
      <trkpt lat="59.450887941" lon="17.7054849235">
        <ele>3.8</ele>
        <time>2013-03-24T12:58:13Z</time>
      </trkpt>
      <trkpt lat="59.4507803174" lon="17.7054538267">
        <ele>4.4</ele>
        <time>2013-03-24T12:58:16Z</time>
      </trkpt>
      <trkpt lat="59.4507395814" lon="17.7054597778">
        <ele>4.8</ele>
        <time>2013-03-24T12:58:17Z</time>
      </trkpt>
      <trkpt lat="59.4506933971" lon="17.7054700876">
        <ele>5.2</ele>
        <time>2013-03-24T12:58:18Z</time>
      </trkpt>
      <trkpt lat="59.4506470452" lon="17.7054843368">
        <ele>5.8</ele>
        <time>2013-03-24T12:58:19Z</time>
      </trkpt>
      <trkpt lat="59.4506000227" lon="17.7054997595">
        <ele>6.2</ele>
        <time>2013-03-24T12:58:20Z</time>
      </trkpt>
      <trkpt lat="59.450555431" lon="17.7055130029">
        <ele>6.6</ele>
        <time>2013-03-24T12:58:21Z</time>
      </trkpt>
      <trkpt lat="59.4505089953" lon="17.7055264977">
        <ele>7</ele>
        <time>2013-03-24T12:58:22Z</time>
      </trkpt>
      <trkpt lat="59.4504647389" lon="17.7055461952">
        <ele>7.4</ele>
        <time>2013-03-24T12:58:23Z</time>
      </trkpt>
      <trkpt lat="59.4504197281" lon="17.7055810639">
        <ele>7.8</ele>
        <time>2013-03-24T12:58:24Z</time>
      </trkpt>
      <trkpt lat="59.4503764775" lon="17.7056204588">
        <ele>8.2</ele>
        <time>2013-03-24T12:58:25Z</time>
      </trkpt>
      <trkpt lat="59.4503361605" lon="17.7056638771">
        <ele>8.6</ele>
        <time>2013-03-24T12:58:26Z</time>
      </trkpt>
      <trkpt lat="59.4503015433" lon="17.7057018471">
        <ele>9</ele>
        <time>2013-03-24T12:58:27Z</time>
      </trkpt>
      <trkpt lat="59.4502652496" lon="17.7057387274">
        <ele>9.6</ele>
        <time>2013-03-24T12:58:28Z</time>
      </trkpt>
      <trkpt lat="59.4502297942" lon="17.7057670583">
        <ele>10</ele>
        <time>2013-03-24T12:58:29Z</time>
      </trkpt>
      <trkpt lat="59.4501903993" lon="17.7058047768">
        <ele>10.4</ele>
        <time>2013-03-24T12:58:30Z</time>
      </trkpt>
      <trkpt lat="59.4501470649" lon="17.7058374662">
        <ele>10.4</ele>
        <time>2013-03-24T12:58:31Z</time>
      </trkpt>
      <trkpt lat="59.4500178998" lon="17.705915837">
        <ele>10.4</ele>
        <time>2013-03-24T12:58:34Z</time>
      </trkpt>
      <trkpt lat="59.4499272076" lon="17.705979288">
        <ele>10.8</ele>
        <time>2013-03-24T12:58:36Z</time>
      </trkpt>
      <trkpt lat="59.4498854658" lon="17.7060032602">
        <ele>11.2</ele>
        <time>2013-03-24T12:58:37Z</time>
      </trkpt>
      <trkpt lat="59.4498433886" lon="17.7060203593">
        <ele>12</ele>
        <time>2013-03-24T12:58:38Z</time>
      </trkpt>
      <trkpt lat="59.4498024849" lon="17.7060356982">
        <ele>12.6</ele>
        <time>2013-03-24T12:58:39Z</time>
      </trkpt>
      <trkpt lat="59.4497598211" lon="17.7060535516">
        <ele>12.6</ele>
        <time>2013-03-24T12:58:40Z</time>
      </trkpt>
      <trkpt lat="59.4495065201" lon="17.7060337703">
        <ele>13</ele>
        <time>2013-03-24T12:58:46Z</time>
      </trkpt>
      <trkpt lat="59.4494689691" lon="17.7060000751">
        <ele>13.4</ele>
        <time>2013-03-24T12:58:47Z</time>
      </trkpt>
      <trkpt lat="59.4494298257" lon="17.7059595067">
        <ele>14</ele>
        <time>2013-03-24T12:58:48Z</time>
      </trkpt>
      <trkpt lat="59.4493967172" lon="17.7059076227">
        <ele>14.4</ele>
        <time>2013-03-24T12:58:49Z</time>
      </trkpt>
      <trkpt lat="59.4493671291" lon="17.7058537271">
        <ele>15</ele>
        <time>2013-03-24T12:58:50Z</time>
      </trkpt>
      <trkpt lat="59.4492315099" lon="17.7055042857">
        <ele>15.4</ele>
        <time>2013-03-24T12:58:55Z</time>
      </trkpt>
      <trkpt lat="59.449197647" lon="17.7054283457">
        <ele>15.8</ele>
        <time>2013-03-24T12:58:56Z</time>
      </trkpt>
      <trkpt lat="59.4491642871" lon="17.705351316">
        <ele>16.2</ele>
        <time>2013-03-24T12:58:57Z</time>
      </trkpt>
      <trkpt lat="59.449130508" lon="17.7052821654">
        <ele>16.6</ele>
        <time>2013-03-24T12:58:58Z</time>
      </trkpt>
      <trkpt lat="59.4490970642" lon="17.7052151102">
        <ele>17</ele>
        <time>2013-03-24T12:58:59Z</time>
      </trkpt>
      <trkpt lat="59.4490331942" lon="17.7050962548">
        <ele>17</ele>
        <time>2013-03-24T12:59:01Z</time>
      </trkpt>
      <trkpt lat="59.4488619519" lon="17.7047996194">
        <ele>17</ele>
        <time>2013-03-24T12:59:07Z</time>
      </trkpt>
      <trkpt lat="59.4486648097" lon="17.7045752359">
        <ele>17.4</ele>
        <time>2013-03-24T12:59:12Z</time>
      </trkpt>
      <trkpt lat="59.448611417" lon="17.7045250283">
        <ele>17.8</ele>
        <time>2013-03-24T12:59:13Z</time>
      </trkpt>
      <trkpt lat="59.4485575213" lon="17.7044796822">
        <ele>18.2</ele>
        <time>2013-03-24T12:59:14Z</time>
      </trkpt>
      <trkpt lat="59.4485010273" lon="17.7044350067">
        <ele>18.6</ele>
        <time>2013-03-24T12:59:15Z</time>
      </trkpt>
      <trkpt lat="59.4484426055" lon="17.7043896606">
        <ele>19</ele>
        <time>2013-03-24T12:59:16Z</time>
      </trkpt>
      <trkpt lat="59.448322409" lon="17.704288994">
        <ele>18.6</ele>
        <time>2013-03-24T12:59:18Z</time>
      </trkpt>
      <trkpt lat="59.4482592933" lon="17.7042354337">
        <ele>18.2</ele>
        <time>2013-03-24T12:59:19Z</time>
      </trkpt>
      <trkpt lat="59.4481891368" lon="17.7041718151">
        <ele>17.8</ele>
        <time>2013-03-24T12:59:20Z</time>
      </trkpt>
      <trkpt lat="59.4481120233" lon="17.7041014909">
        <ele>17.4</ele>
        <time>2013-03-24T12:59:21Z</time>
      </trkpt>
      <trkpt lat="59.4480328144" lon="17.7040389619">
        <ele>17</ele>
        <time>2013-03-24T12:59:22Z</time>
      </trkpt>
      <trkpt lat="59.447959808" lon="17.703985234">
        <ele>16.4</ele>
        <time>2013-03-24T12:59:23Z</time>
      </trkpt>
      <trkpt lat="59.4478894001" lon="17.7039398879">
        <ele>15.8</ele>
        <time>2013-03-24T12:59:24Z</time>
      </trkpt>
      <trkpt lat="59.4478177348" lon="17.703890267">
        <ele>15.4</ele>
        <time>2013-03-24T12:59:25Z</time>
      </trkpt>
      <trkpt lat="59.4477474107" lon="17.7038247206">
        <ele>14.8</ele>
        <time>2013-03-24T12:59:26Z</time>
      </trkpt>
      <trkpt lat="59.4476796849" lon="17.7037441705">
        <ele>13.8</ele>
        <time>2013-03-24T12:59:27Z</time>
      </trkpt>
      <trkpt lat="59.4476152281" lon="17.7036338647">
        <ele>13.2</ele>
        <time>2013-03-24T12:59:28Z</time>
      </trkpt>
      <trkpt lat="59.4475562196" lon="17.7035173563">
        <ele>12.4</ele>
        <time>2013-03-24T12:59:29Z</time>
      </trkpt>
      <trkpt lat="59.4475049223" lon="17.7033706731">
        <ele>11.8</ele>
        <time>2013-03-24T12:59:30Z</time>
      </trkpt>
      <trkpt lat="59.4474686287" lon="17.7032017778">
        <ele>11</ele>
        <time>2013-03-24T12:59:31Z</time>
      </trkpt>
      <trkpt lat="59.4474339276" lon="17.7030396718">
        <ele>10.2</ele>
        <time>2013-03-24T12:59:32Z</time>
      </trkpt>
      <trkpt lat="59.4474050101" lon="17.7028952517">
        <ele>9.4</ele>
        <time>2013-03-24T12:59:33Z</time>
      </trkpt>
      <trkpt lat="59.4473812055" lon="17.7027549387">
        <ele>8.6</ele>
        <time>2013-03-24T12:59:34Z</time>
      </trkpt>
      <trkpt lat="59.4473564789" lon="17.7026191519">
        <ele>7.8</ele>
        <time>2013-03-24T12:59:35Z</time>
      </trkpt>
      <trkpt lat="59.4473363623" lon="17.7024681101">
        <ele>7.4</ele>
        <time>2013-03-24T12:59:36Z</time>
      </trkpt>
      <trkpt lat="59.4473117195" lon="17.7023248634">
        <ele>7</ele>
        <time>2013-03-24T12:59:37Z</time>
      </trkpt>
      <trkpt lat="59.4472916868" lon="17.7021774258">
        <ele>6.6</ele>
        <time>2013-03-24T12:59:38Z</time>
      </trkpt>
      <trkpt lat="59.4472755935" lon="17.7020247914">
        <ele>6.2</ele>
        <time>2013-03-24T12:59:39Z</time>
      </trkpt>
      <trkpt lat="59.4472632722" lon="17.7018656191">
        <ele>5.4</ele>
        <time>2013-03-24T12:59:40Z</time>
      </trkpt>
      <trkpt lat="59.4472500288" lon="17.7016931196">
        <ele>4.8</ele>
        <time>2013-03-24T12:59:41Z</time>
      </trkpt>
      <trkpt lat="59.4472413116" lon="17.7015223803">
        <ele>4.2</ele>
        <time>2013-03-24T12:59:42Z</time>
      </trkpt>
      <trkpt lat="59.4472365339" lon="17.7013485397">
        <ele>3.6</ele>
        <time>2013-03-24T12:59:43Z</time>
      </trkpt>
      <trkpt lat="59.4472294093" lon="17.7011787224">
        <ele>3</ele>
        <time>2013-03-24T12:59:44Z</time>
      </trkpt>
      <trkpt lat="59.4472175908" lon="17.7010138504">
        <ele>2.4</ele>
        <time>2013-03-24T12:59:45Z</time>
      </trkpt>
      <trkpt lat="59.447197139" lon="17.7008550134">
        <ele>1.8</ele>
        <time>2013-03-24T12:59:46Z</time>
      </trkpt>
      <trkpt lat="59.447170736" lon="17.7007043069">
        <ele>1.2</ele>
        <time>2013-03-24T12:59:47Z</time>
      </trkpt>
      <trkpt lat="59.4471342747" lon="17.7005616469">
        <ele>0.6</ele>
        <time>2013-03-24T12:59:48Z</time>
      </trkpt>
      <trkpt lat="59.4470929519" lon="17.7004132873">
        <ele>0</ele>
        <time>2013-03-24T12:59:49Z</time>
      </trkpt>
      <trkpt lat="59.4470469353" lon="17.7002802665">
        <ele>0</ele>
        <time>2013-03-24T12:59:50Z</time>
      </trkpt>
      <trkpt lat="59.4469980688" lon="17.7001483354">
        <ele>0</ele>
        <time>2013-03-24T12:59:51Z</time>
      </trkpt>
      <trkpt lat="59.4469428321" lon="17.7000208467">
        <ele>0</ele>
        <time>2013-03-24T12:59:52Z</time>
      </trkpt>
      <trkpt lat="59.4468838235" lon="17.6999006503">
        <ele>0</ele>
        <time>2013-03-24T12:59:53Z</time>
      </trkpt>
      <trkpt lat="59.4468281677" lon="17.6997768496">
        <ele>0</ele>
        <time>2013-03-24T12:59:54Z</time>
      </trkpt>
      <trkpt lat="59.4467708355" lon="17.699656737">
        <ele>0</ele>
        <time>2013-03-24T12:59:55Z</time>
      </trkpt>
      <trkpt lat="59.446711324" lon="17.6995351156">
        <ele>0</ele>
        <time>2013-03-24T12:59:56Z</time>
      </trkpt>
      <trkpt lat="59.4466468672" lon="17.6994095548">
        <ele>0</ele>
        <time>2013-03-24T12:59:57Z</time>
      </trkpt>
      <trkpt lat="59.4465842544" lon="17.6992923758">
        <ele>0</ele>
        <time>2013-03-24T12:59:58Z</time>
      </trkpt>
      <trkpt lat="59.4463581108" lon="17.6988119253">
        <ele>0</ele>
        <time>2013-03-24T13:00:02Z</time>
      </trkpt>
      <trkpt lat="59.4463053886" lon="17.6986945787">
        <ele>0</ele>
        <time>2013-03-24T13:00:03Z</time>
      </trkpt>
      <trkpt lat="59.4462546781" lon="17.6985830994">
        <ele>0</ele>
        <time>2013-03-24T13:00:04Z</time>
      </trkpt>
      <trkpt lat="59.4462050573" lon="17.6984634897">
        <ele>0</ele>
        <time>2013-03-24T13:00:05Z</time>
      </trkpt>
      <trkpt lat="59.4461582025" lon="17.6983520104">
        <ele>0</ele>
        <time>2013-03-24T13:00:06Z</time>
      </trkpt>
      <trkpt lat="59.4460260199" lon="17.6980133817">
        <ele>0</ele>
        <time>2013-03-24T13:00:09Z</time>
      </trkpt>
      <trkpt lat="59.4457649237" lon="17.6973148341">
        <ele>0</ele>
        <time>2013-03-24T13:00:15Z</time>
      </trkpt>
      <trkpt lat="59.4456329926" lon="17.6969993394">
        <ele>0</ele>
        <time>2013-03-24T13:00:18Z</time>
      </trkpt>
      <trkpt lat="59.4455214295" lon="17.6968443581">
        <ele>0</ele>
        <time>2013-03-24T13:00:20Z</time>
      </trkpt>
      <trkpt lat="59.4451242113" lon="17.6963931604">
        <ele>0</ele>
        <time>2013-03-24T13:00:27Z</time>
      </trkpt>
      <trkpt lat="59.4448183557" lon="17.6961779132">
        <ele>0</ele>
        <time>2013-03-24T13:00:32Z</time>
      </trkpt>
      <trkpt lat="59.4447558268" lon="17.6961520131">
        <ele>0</ele>
        <time>2013-03-24T13:00:33Z</time>
      </trkpt>
      <trkpt lat="59.4443956565" lon="17.6960825272">
        <ele>0</ele>
        <time>2013-03-24T13:00:39Z</time>
      </trkpt>
      <trkpt lat="59.4443446946" lon="17.6960567948">
        <ele>0</ele>
        <time>2013-03-24T13:00:40Z</time>
      </trkpt>
      <trkpt lat="59.4442148589" lon="17.6959428847">
        <ele>0</ele>
        <time>2013-03-24T13:00:43Z</time>
      </trkpt>
      <trkpt lat="59.4440909745" lon="17.6957868976">
        <ele>0</ele>
        <time>2013-03-24T13:00:48Z</time>
      </trkpt>
      <trkpt lat="59.4440405154" lon="17.695773738">
        <ele>0</ele>
        <time>2013-03-24T13:00:51Z</time>
      </trkpt>
      <trkpt lat="59.4440308762" lon="17.6957863947">
        <ele>0</ele>
        <time>2013-03-24T13:00:53Z</time>
      </trkpt>
      <trkpt lat="59.4440288646" lon="17.6957906694">
        <ele>0</ele>
        <time>2013-03-24T13:00:55Z</time>
      </trkpt>
      <trkpt lat="59.4440687624" lon="17.6958509353">
        <ele>0</ele>
        <time>2013-03-24T13:01:49Z</time>
      </trkpt>
      <trkpt lat="59.4441097499" lon="17.6958006439">
        <ele>0</ele>
        <time>2013-03-24T13:01:51Z</time>
      </trkpt>
      <trkpt lat="59.4441836783" lon="17.6955500251">
        <ele>0</ele>
        <time>2013-03-24T13:01:55Z</time>
      </trkpt>
      <trkpt lat="59.4442756277" lon="17.6952326864">
        <ele>0</ele>
        <time>2013-03-24T13:01:59Z</time>
      </trkpt>
      <trkpt lat="59.4443049644" lon="17.6951576683">
        <ele>0</ele>
        <time>2013-03-24T13:02:00Z</time>
      </trkpt>
      <trkpt lat="59.444331535" lon="17.6950766154">
        <ele>0</ele>
        <time>2013-03-24T13:02:01Z</time>
      </trkpt>
      <trkpt lat="59.4443596982" lon="17.6949963168">
        <ele>0</ele>
        <time>2013-03-24T13:02:02Z</time>
      </trkpt>
      <trkpt lat="59.4443855982" lon="17.6949131683">
        <ele>0</ele>
        <time>2013-03-24T13:02:03Z</time>
      </trkpt>
      <trkpt lat="59.4444429304" lon="17.6946315365">
        <ele>0</ele>
        <time>2013-03-24T13:02:06Z</time>
      </trkpt>
      <trkpt lat="59.444461203" lon="17.6945410958">
        <ele>0</ele>
        <time>2013-03-24T13:02:07Z</time>
      </trkpt>
      <trkpt lat="59.4445280067" lon="17.694276563">
        <ele>0</ele>
        <time>2013-03-24T13:02:10Z</time>
      </trkpt>
      <trkpt lat="59.4445704191" lon="17.6941217493">
        <ele>0</ele>
        <time>2013-03-24T13:02:12Z</time>
      </trkpt>
      <trkpt lat="59.4446174416" lon="17.6939844538">
        <ele>0</ele>
        <time>2013-03-24T13:02:14Z</time>
      </trkpt>
      <trkpt lat="59.4447062897" lon="17.6937915025">
        <ele>0</ele>
        <time>2013-03-24T13:02:17Z</time>
      </trkpt>
      <trkpt lat="59.4447845767" lon="17.6936858067">
        <ele>0</ele>
        <time>2013-03-24T13:02:19Z</time>
      </trkpt>
      <trkpt lat="59.4448684795" lon="17.6935979644">
        <ele>0</ele>
        <time>2013-03-24T13:02:21Z</time>
      </trkpt>
      <trkpt lat="59.4449424917" lon="17.6935372794">
        <ele>0</ele>
        <time>2013-03-24T13:02:23Z</time>
      </trkpt>
      <trkpt lat="59.4450713215" lon="17.6934327571">
        <ele>0</ele>
        <time>2013-03-24T13:02:26Z</time>
      </trkpt>
      <trkpt lat="59.4451274802" lon="17.6933714855">
        <ele>0</ele>
        <time>2013-03-24T13:02:28Z</time>
      </trkpt>
      <trkpt lat="59.4451319226" lon="17.6933733295">
        <ele>0</ele>
        <time>2013-03-24T13:02:29Z</time>
      </trkpt>
      <trkpt lat="59.4451319226" lon="17.6933767661">
        <ele>0</ele>
        <time>2013-03-24T13:02:30Z</time>
      </trkpt>
      <trkpt lat="59.4451319226" lon="17.6933767661">
        <ele>0</ele>
        <time>2013-03-24T13:02:31Z</time>
      </trkpt>
      <trkpt lat="59.4451310006" lon="17.6933781072">
        <ele>0</ele>
        <time>2013-03-24T13:02:32Z</time>
      </trkpt>
      <trkpt lat="59.4451315035" lon="17.6933769337">
        <ele>0</ele>
        <time>2013-03-24T13:02:35Z</time>
      </trkpt>
      <trkpt lat="59.445161846" lon="17.6933476809">
        <ele>0</ele>
        <time>2013-03-24T13:02:41Z</time>
      </trkpt>
      <trkpt lat="59.4451838904" lon="17.6933313362">
        <ele>0</ele>
        <time>2013-03-24T13:02:42Z</time>
      </trkpt>
      <trkpt lat="59.4453564737" lon="17.6932266462">
        <ele>0</ele>
        <time>2013-03-24T13:02:47Z</time>
      </trkpt>
      <trkpt lat="59.4455450665" lon="17.6929936294">
        <ele>0</ele>
        <time>2013-03-24T13:02:52Z</time>
      </trkpt>
      <trkpt lat="59.4456172346" lon="17.6928711698">
        <ele>0</ele>
        <time>2013-03-24T13:02:54Z</time>
      </trkpt>
      <trkpt lat="59.4456495888" lon="17.6928109878">
        <ele>0</ele>
        <time>2013-03-24T13:02:55Z</time>
      </trkpt>
      <trkpt lat="59.4456749859" lon="17.6927587686">
        <ele>0</ele>
        <time>2013-03-24T13:02:56Z</time>
      </trkpt>
      <trkpt lat="59.4456987067" lon="17.6926992571">
        <ele>0</ele>
        <time>2013-03-24T13:02:57Z</time>
      </trkpt>
      <trkpt lat="59.4457191585" lon="17.692636309">
        <ele>0</ele>
        <time>2013-03-24T13:02:58Z</time>
      </trkpt>
      <trkpt lat="59.4457468188" lon="17.6925714331">
        <ele>0</ele>
        <time>2013-03-24T13:02:59Z</time>
      </trkpt>
      <trkpt lat="59.445779592" lon="17.6925103291">
        <ele>0</ele>
        <time>2013-03-24T13:03:00Z</time>
      </trkpt>
      <trkpt lat="59.4459422847" lon="17.6922343969">
        <ele>0</ele>
        <time>2013-03-24T13:03:04Z</time>
      </trkpt>
      <trkpt lat="59.4460266066" lon="17.6921105124">
        <ele>0</ele>
        <time>2013-03-24T13:03:06Z</time>
      </trkpt>
      <trkpt lat="59.4460670074" lon="17.6920515877">
        <ele>0</ele>
        <time>2013-03-24T13:03:07Z</time>
      </trkpt>
      <trkpt lat="59.446109336" lon="17.6919974406">
        <ele>0</ele>
        <time>2013-03-24T13:03:08Z</time>
      </trkpt>
      <trkpt lat="59.4461516646" lon="17.6919405275">
        <ele>0</ele>
        <time>2013-03-24T13:03:09Z</time>
      </trkpt>
      <trkpt lat="59.4461964239" lon="17.6918847879">
        <ele>0</ele>
        <time>2013-03-24T13:03:10Z</time>
      </trkpt>
      <trkpt lat="59.4462400936" lon="17.6918214207">
        <ele>0</ele>
        <time>2013-03-24T13:03:11Z</time>
      </trkpt>
      <trkpt lat="59.446280662" lon="17.6917624959">
        <ele>0</ele>
        <time>2013-03-24T13:03:12Z</time>
      </trkpt>
      <trkpt lat="59.4463226553" lon="17.6917041579">
        <ele>0</ele>
        <time>2013-03-24T13:03:13Z</time>
      </trkpt>
      <trkpt lat="59.4464576039" lon="17.6915493442">
        <ele>0</ele>
        <time>2013-03-24T13:03:16Z</time>
      </trkpt>
      <trkpt lat="59.4465783033" lon="17.6915204267">
        <ele>0</ele>
        <time>2013-03-24T13:03:19Z</time>
      </trkpt>
      <trkpt lat="59.4466540757" lon="17.6915182474">
        <ele>0</ele>
        <time>2013-03-24T13:03:21Z</time>
      </trkpt>
      <trkpt lat="59.4466944764" lon="17.6915161519">
        <ele>0</ele>
        <time>2013-03-24T13:03:22Z</time>
      </trkpt>
      <trkpt lat="59.446734039" lon="17.6915170739">
        <ele>0</ele>
        <time>2013-03-24T13:03:23Z</time>
      </trkpt>
      <trkpt lat="59.4467752779" lon="17.6915185826">
        <ele>0</ele>
        <time>2013-03-24T13:03:24Z</time>
      </trkpt>
      <trkpt lat="59.4468105657" lon="17.6915205943">
        <ele>0</ele>
        <time>2013-03-24T13:03:25Z</time>
      </trkpt>
      <trkpt lat="59.4470560716" lon="17.6916020664">
        <ele>0</ele>
        <time>2013-03-24T13:03:31Z</time>
      </trkpt>
      <trkpt lat="59.4472916868" lon="17.6917044094">
        <ele>0</ele>
        <time>2013-03-24T13:03:37Z</time>
      </trkpt>
      <trkpt lat="59.4475506875" lon="17.691596199">
        <ele>0</ele>
        <time>2013-03-24T13:03:43Z</time>
      </trkpt>
      <trkpt lat="59.4478137953" lon="17.6914812832">
        <ele>0</ele>
        <time>2013-03-24T13:03:49Z</time>
      </trkpt>
      <trkpt lat="59.4479359196" lon="17.6914633459">
        <ele>0</ele>
        <time>2013-03-24T13:03:53Z</time>
      </trkpt>
      <trkpt lat="59.4479663459" lon="17.6914728175">
        <ele>0</ele>
        <time>2013-03-24T13:03:54Z</time>
      </trkpt>
      <trkpt lat="59.4480014661" lon="17.691485558">
        <ele>0</ele>
        <time>2013-03-24T13:03:55Z</time>
      </trkpt>
      <trkpt lat="59.4480388494" lon="17.6915005616">
        <ele>0</ele>
        <time>2013-03-24T13:03:56Z</time>
      </trkpt>
      <trkpt lat="59.4480744724" lon="17.6915224383">
        <ele>0</ele>
        <time>2013-03-24T13:03:57Z</time>
      </trkpt>
      <trkpt lat="59.4481523403" lon="17.691577675">
        <ele>0</ele>
        <time>2013-03-24T13:03:59Z</time>
      </trkpt>
      <trkpt lat="59.4483447887" lon="17.691725867">
        <ele>0</ele>
        <time>2013-03-24T13:04:04Z</time>
      </trkpt>
      <trkpt lat="59.4483799089" lon="17.6917531082">
        <ele>0</ele>
        <time>2013-03-24T13:04:05Z</time>
      </trkpt>
      <trkpt lat="59.448414107" lon="17.6917830316">
        <ele>0</ele>
        <time>2013-03-24T13:04:06Z</time>
      </trkpt>
      <trkpt lat="59.4484447848" lon="17.6918110271">
        <ele>0</ele>
        <time>2013-03-24T13:04:07Z</time>
      </trkpt>
      <trkpt lat="59.4484776418" lon="17.6918505059">
        <ele>0</ele>
        <time>2013-03-24T13:04:08Z</time>
      </trkpt>
      <trkpt lat="59.4485723573" lon="17.691961147">
        <ele>0</ele>
        <time>2013-03-24T13:04:11Z</time>
      </trkpt>
      <trkpt lat="59.4487061324" lon="17.6921171341">
        <ele>0</ele>
        <time>2013-03-24T13:04:16Z</time>
      </trkpt>
      <trkpt lat="59.448807721" lon="17.6922110952">
        <ele>0</ele>
        <time>2013-03-24T13:04:21Z</time>
      </trkpt>
      <trkpt lat="59.4489316055" lon="17.6923209819">
        <ele>0</ele>
        <time>2013-03-24T13:04:26Z</time>
      </trkpt>
      <trkpt lat="59.4491749321" lon="17.6926430145">
        <ele>0</ele>
        <time>2013-03-24T13:04:34Z</time>
      </trkpt>
      <trkpt lat="59.4493534666" lon="17.6929632031">
        <ele>0</ele>
        <time>2013-03-24T13:04:40Z</time>
      </trkpt>
      <trkpt lat="59.4495219427" lon="17.6931719124">
        <ele>0</ele>
        <time>2013-03-24T13:04:45Z</time>
      </trkpt>
      <trkpt lat="59.4496409657" lon="17.6932390514">
        <ele>0</ele>
        <time>2013-03-24T13:04:48Z</time>
      </trkpt>
      <trkpt lat="59.4497377767" lon="17.6932745069">
        <ele>0</ele>
        <time>2013-03-24T13:04:50Z</time>
      </trkpt>
      <trkpt lat="59.4498383595" lon="17.6933245468">
        <ele>0</ele>
        <time>2013-03-24T13:04:52Z</time>
      </trkpt>
      <trkpt lat="59.4498841246" lon="17.6933553084">
        <ele>0</ele>
        <time>2013-03-24T13:04:53Z</time>
      </trkpt>
      <trkpt lat="59.4499280458" lon="17.6933857347">
        <ele>0</ele>
        <time>2013-03-24T13:04:54Z</time>
      </trkpt>
      <trkpt lat="59.4499671893" lon="17.6934112995">
        <ele>0</ele>
        <time>2013-03-24T13:04:55Z</time>
      </trkpt>
      <trkpt lat="59.4499971127" lon="17.6934268898">
        <ele>0</ele>
        <time>2013-03-24T13:04:56Z</time>
      </trkpt>
      <trkpt lat="59.4500292153" lon="17.6934413067">
        <ele>0</ele>
        <time>2013-03-24T13:04:57Z</time>
      </trkpt>
      <trkpt lat="59.4501483221" lon="17.6935129719">
        <ele>0</ele>
        <time>2013-03-24T13:05:00Z</time>
      </trkpt>
      <trkpt lat="59.4502378408" lon="17.6936039994">
        <ele>0</ele>
        <time>2013-03-24T13:05:02Z</time>
      </trkpt>
      <trkpt lat="59.4502806723" lon="17.6936593199">
        <ele>0</ele>
        <time>2013-03-24T13:05:03Z</time>
      </trkpt>
      <trkpt lat="59.4503233362" lon="17.693710198">
        <ele>0</ele>
        <time>2013-03-24T13:05:04Z</time>
      </trkpt>
      <trkpt lat="59.4503631502" lon="17.6937775885">
        <ele>0</ele>
        <time>2013-03-24T13:05:05Z</time>
      </trkpt>
      <trkpt lat="59.4504040539" lon="17.6938485832">
        <ele>0</ele>
        <time>2013-03-24T13:05:06Z</time>
      </trkpt>
      <trkpt lat="59.4505055587" lon="17.6940595556">
        <ele>0</ele>
        <time>2013-03-24T13:05:09Z</time>
      </trkpt>
      <trkpt lat="59.4505279384" lon="17.6941391837">
        <ele>0</ele>
        <time>2013-03-24T13:05:10Z</time>
      </trkpt>
      <trkpt lat="59.4505849353" lon="17.6945183808">
        <ele>0</ele>
        <time>2013-03-24T13:05:15Z</time>
      </trkpt>
      <trkpt lat="59.4505955803" lon="17.6945903814">
        <ele>0</ele>
        <time>2013-03-24T13:05:16Z</time>
      </trkpt>
      <trkpt lat="59.4506509847" lon="17.6949181975">
        <ele>0</ele>
        <time>2013-03-24T13:05:21Z</time>
      </trkpt>
      <trkpt lat="59.4506668265" lon="17.6949772899">
        <ele>0</ele>
        <time>2013-03-24T13:05:22Z</time>
      </trkpt>
      <trkpt lat="59.4506889547" lon="17.6950197861">
        <ele>0</ele>
        <time>2013-03-24T13:05:23Z</time>
      </trkpt>
      <trkpt lat="59.4507261703" lon="17.6950651322">
        <ele>0</ele>
        <time>2013-03-24T13:05:24Z</time>
      </trkpt>
      <trkpt lat="59.4507620449" lon="17.6951124061">
        <ele>0</ele>
        <time>2013-03-24T13:05:25Z</time>
      </trkpt>
      <trkpt lat="59.4508043734" lon="17.6951690677">
        <ele>0</ele>
        <time>2013-03-24T13:05:26Z</time>
      </trkpt>
      <trkpt lat="59.4509565888" lon="17.6953780285">
        <ele>0</ele>
        <time>2013-03-24T13:05:31Z</time>
      </trkpt>
      <trkpt lat="59.4511059542" lon="17.6956781005">
        <ele>0</ele>
        <time>2013-03-24T13:05:37Z</time>
      </trkpt>
      <trkpt lat="59.4511915334" lon="17.6959148892">
        <ele>0</ele>
        <time>2013-03-24T13:05:42Z</time>
      </trkpt>
      <trkpt lat="59.4512682278" lon="17.6962679348">
        <ele>0</ele>
        <time>2013-03-24T13:05:48Z</time>
      </trkpt>
      <trkpt lat="59.4514387156" lon="17.6965207329">
        <ele>0</ele>
        <time>2013-03-24T13:05:54Z</time>
      </trkpt>
      <trkpt lat="59.451646" lon="17.6967339685">
        <ele>0</ele>
        <time>2013-03-24T13:06:00Z</time>
      </trkpt>
      <trkpt lat="59.4519122092" lon="17.6968827472">
        <ele>0</ele>
        <time>2013-03-24T13:06:07Z</time>
      </trkpt>
      <trkpt lat="59.4520964433" lon="17.6969526522">
        <ele>0</ele>
        <time>2013-03-24T13:06:13Z</time>
      </trkpt>
      <trkpt lat="59.4522058271" lon="17.6969538257">
        <ele>0</ele>
        <time>2013-03-24T13:06:17Z</time>
      </trkpt>
      <trkpt lat="59.4523510016" lon="17.6969636325">
        <ele>0</ele>
        <time>2013-03-24T13:06:22Z</time>
      </trkpt>
      <trkpt lat="59.4525170471" lon="17.6969880238">
        <ele>0</ele>
        <time>2013-03-24T13:06:28Z</time>
      </trkpt>
      <trkpt lat="59.4525477248" lon="17.6969945617">
        <ele>0</ele>
        <time>2013-03-24T13:06:29Z</time>
      </trkpt>
      <trkpt lat="59.452578654" lon="17.6970061288">
        <ele>0</ele>
        <time>2013-03-24T13:06:30Z</time>
      </trkpt>
      <trkpt lat="59.4526036321" lon="17.6970195398">
        <ele>0</ele>
        <time>2013-03-24T13:06:31Z</time>
      </trkpt>
      <trkpt lat="59.4526357348" lon="17.6970364712">
        <ele>0</ele>
        <time>2013-03-24T13:06:32Z</time>
      </trkpt>
      <trkpt lat="59.4527048016" lon="17.6970705856">
        <ele>0</ele>
        <time>2013-03-24T13:06:34Z</time>
      </trkpt>
      <trkpt lat="59.4528719367" lon="17.697194973">
        <ele>0</ele>
        <time>2013-03-24T13:06:39Z</time>
      </trkpt>
      <trkpt lat="59.4529018601" lon="17.6972270756">
        <ele>0</ele>
        <time>2013-03-24T13:06:40Z</time>
      </trkpt>
      <trkpt lat="59.4529222281" lon="17.697263956">
        <ele>0</ele>
        <time>2013-03-24T13:06:41Z</time>
      </trkpt>
      <trkpt lat="59.4529396625" lon="17.6972966454">
        <ele>0</ele>
        <time>2013-03-24T13:06:42Z</time>
      </trkpt>
      <trkpt lat="59.4529558395" lon="17.6973336934">
        <ele>0</ele>
        <time>2013-03-24T13:06:43Z</time>
      </trkpt>
      <trkpt lat="59.4529929714" lon="17.6974013353">
        <ele>0</ele>
        <time>2013-03-24T13:06:45Z</time>
      </trkpt>
      <trkpt lat="59.4530946438" lon="17.6974999903">
        <ele>0</ele>
        <time>2013-03-24T13:06:49Z</time>
      </trkpt>
      <trkpt lat="59.4531298478" lon="17.6975203583">
        <ele>0</ele>
        <time>2013-03-24T13:06:50Z</time>
      </trkpt>
      <trkpt lat="59.4531678178" lon="17.6975345237">
        <ele>0</ele>
        <time>2013-03-24T13:06:51Z</time>
      </trkpt>
      <trkpt lat="59.4532032732" lon="17.6975488568">
        <ele>0</ele>
        <time>2013-03-24T13:06:52Z</time>
      </trkpt>
      <trkpt lat="59.4533766109" lon="17.6975546403">
        <ele>0</ele>
        <time>2013-03-24T13:06:57Z</time>
      </trkpt>
      <trkpt lat="59.4534119825" lon="17.6975593342">
        <ele>0</ele>
        <time>2013-03-24T13:06:58Z</time>
      </trkpt>
      <trkpt lat="59.4534460969" lon="17.6975769361">
        <ele>0</ele>
        <time>2013-03-24T13:06:59Z</time>
      </trkpt>
      <trkpt lat="59.4534802112" lon="17.6975993158">
        <ele>0</ele>
        <time>2013-03-24T13:07:00Z</time>
      </trkpt>
      <trkpt lat="59.4535148285" lon="17.697627479">
        <ele>0</ele>
        <time>2013-03-24T13:07:01Z</time>
      </trkpt>
      <trkpt lat="59.4535460091" lon="17.6976572347">
        <ele>0</ele>
        <time>2013-03-24T13:07:02Z</time>
      </trkpt>
      <trkpt lat="59.4537376194" lon="17.6978666146">
        <ele>0</ele>
        <time>2013-03-24T13:07:09Z</time>
      </trkpt>
      <trkpt lat="59.4538264675" lon="17.6979119607">
        <ele>0</ele>
        <time>2013-03-24T13:07:12Z</time>
      </trkpt>
      <trkpt lat="59.453854966" lon="17.6979138047">
        <ele>0</ele>
        <time>2013-03-24T13:07:13Z</time>
      </trkpt>
      <trkpt lat="59.4538843026" lon="17.6979204264">
        <ele>0</ele>
        <time>2013-03-24T13:07:14Z</time>
      </trkpt>
      <trkpt lat="59.453912382" lon="17.6979258746">
        <ele>0</ele>
        <time>2013-03-24T13:07:15Z</time>
      </trkpt>
      <trkpt lat="59.4539426406" lon="17.6979320772">
        <ele>0</ele>
        <time>2013-03-24T13:07:16Z</time>
      </trkpt>
      <trkpt lat="59.4541451473" lon="17.697988236">
        <ele>0</ele>
        <time>2013-03-24T13:07:23Z</time>
      </trkpt>
      <trkpt lat="59.454193008" lon="17.6980733961">
        <ele>0</ele>
        <time>2013-03-24T13:07:25Z</time>
      </trkpt>
      <trkpt lat="59.4542130407" lon="17.698122514">
        <ele>0</ele>
        <time>2013-03-24T13:07:26Z</time>
      </trkpt>
      <trkpt lat="59.4542332411" lon="17.6981726378">
        <ele>0</ele>
        <time>2013-03-24T13:07:27Z</time>
      </trkpt>
      <trkpt lat="59.4542464007" lon="17.6982329036">
        <ele>0</ele>
        <time>2013-03-24T13:07:28Z</time>
      </trkpt>
      <trkpt lat="59.4542596441" lon="17.6982993721">
        <ele>0</ele>
        <time>2013-03-24T13:07:29Z</time>
      </trkpt>
      <trkpt lat="59.4543064989" lon="17.6984903956">
        <ele>0</ele>
        <time>2013-03-24T13:07:32Z</time>
      </trkpt>
      <trkpt lat="59.4543874681" lon="17.6988861051">
        <ele>0</ele>
        <time>2013-03-24T13:07:37Z</time>
      </trkpt>
      <trkpt lat="59.4544765677" lon="17.69918668">
        <ele>0</ele>
        <time>2013-03-24T13:07:40Z</time>
      </trkpt>
      <trkpt lat="59.4544962651" lon="17.6992699961">
        <ele>0</ele>
        <time>2013-03-24T13:07:41Z</time>
      </trkpt>
      <trkpt lat="59.454513448" lon="17.6993487022">
        <ele>0</ele>
        <time>2013-03-24T13:07:42Z</time>
      </trkpt>
      <trkpt lat="59.4545251827" lon="17.6994176014">
        <ele>0</ele>
        <time>2013-03-24T13:07:43Z</time>
      </trkpt>
      <trkpt lat="59.4546384221" lon="17.6997258877">
        <ele>0</ele>
        <time>2013-03-24T13:07:48Z</time>
      </trkpt>
      <trkpt lat="59.4547044715" lon="17.6999385365">
        <ele>0</ele>
        <time>2013-03-24T13:07:51Z</time>
      </trkpt>
      <trkpt lat="59.454702376" lon="17.7001444798">
        <ele>0</ele>
        <time>2013-03-24T13:07:53Z</time>
      </trkpt>
      <trkpt lat="59.4546918987" lon="17.7006986072">
        <ele>0</ele>
        <time>2013-03-24T13:07:59Z</time>
      </trkpt>
      <trkpt lat="59.4546939103" lon="17.7007335597">
        <ele>0</ele>
        <time>2013-03-24T13:08:00Z</time>
      </trkpt>
      <trkpt lat="59.4546939941" lon="17.7007618905">
        <ele>0</ele>
        <time>2013-03-24T13:08:01Z</time>
      </trkpt>
      <trkpt lat="59.4546981851" lon="17.7007844378">
        <ele>0</ele>
        <time>2013-03-24T13:08:02Z</time>
      </trkpt>
      <trkpt lat="59.4547058964" lon="17.7008124334">
        <ele>0</ele>
        <time>2013-03-24T13:08:03Z</time>
      </trkpt>
      <trkpt lat="59.4547244204" lon="17.7010871082">
        <ele>0</ele>
        <time>2013-03-24T13:08:08Z</time>
      </trkpt>
      <trkpt lat="59.4547257615" lon="17.7015305107">
        <ele>0</ele>
        <time>2013-03-24T13:08:14Z</time>
      </trkpt>
      <trkpt lat="59.454741771" lon="17.7019443251">
        <ele>0</ele>
        <time>2013-03-24T13:08:20Z</time>
      </trkpt>
      <trkpt lat="59.4547561878" lon="17.7022637593">
        <ele>0</ele>
        <time>2013-03-24T13:08:24Z</time>
      </trkpt>
      <trkpt lat="59.454749147" lon="17.7023402861">
        <ele>0</ele>
        <time>2013-03-24T13:08:25Z</time>
      </trkpt>
      <trkpt lat="59.4547390049" lon="17.702584367">
        <ele>0</ele>
        <time>2013-03-24T13:08:28Z</time>
      </trkpt>
      <trkpt lat="59.4547406813" lon="17.7028372489">
        <ele>0</ele>
        <time>2013-03-24T13:08:31Z</time>
      </trkpt>
      <trkpt lat="59.454739927" lon="17.7029255942">
        <ele>0</ele>
        <time>2013-03-24T13:08:32Z</time>
      </trkpt>
      <trkpt lat="59.4547435312" lon="17.7030048031">
        <ele>0</ele>
        <time>2013-03-24T13:08:33Z</time>
      </trkpt>
      <trkpt lat="59.4547443694" lon="17.7030816651">
        <ele>0</ele>
        <time>2013-03-24T13:08:34Z</time>
      </trkpt>
      <trkpt lat="59.4547447046" lon="17.7031566832">
        <ele>0</ele>
        <time>2013-03-24T13:08:35Z</time>
      </trkpt>
      <trkpt lat="59.4547440341" lon="17.7034018537">
        <ele>0</ele>
        <time>2013-03-24T13:08:38Z</time>
      </trkpt>
      <trkpt lat="59.4547623066" lon="17.7037282449">
        <ele>0</ele>
        <time>2013-03-24T13:08:43Z</time>
      </trkpt>
      <trkpt lat="59.4547644859" lon="17.7037694">
        <ele>0</ele>
        <time>2013-03-24T13:08:44Z</time>
      </trkpt>
      <trkpt lat="59.4547659108" lon="17.70379815">
        <ele>0</ele>
        <time>2013-03-24T13:08:45Z</time>
      </trkpt>
      <trkpt lat="59.4547652403" lon="17.7038195238">
        <ele>0</ele>
        <time>2013-03-24T13:08:46Z</time>
      </trkpt>
      <trkpt lat="59.4547646536" lon="17.7038170931">
        <ele>0</ele>
        <time>2013-03-24T13:08:47Z</time>
      </trkpt>
      <trkpt lat="59.4547646536" lon="17.7038170931">
        <ele>0</ele>
        <time>2013-03-24T13:08:48Z</time>
      </trkpt>
      <trkpt lat="59.4548389172" lon="17.7038382154">
        <ele>0</ele>
        <time>2013-03-24T13:08:59Z</time>
      </trkpt>
      <trkpt lat="59.4548911364" lon="17.7038588349">
        <ele>0</ele>
        <time>2013-03-24T13:09:01Z</time>
      </trkpt>
      <trkpt lat="59.4549845108" lon="17.7038969726">
        <ele>0</ele>
        <time>2013-03-24T13:09:04Z</time>
      </trkpt>
      <trkpt lat="59.4550641388" lon="17.7039001577">
        <ele>0</ele>
        <time>2013-03-24T13:09:06Z</time>
      </trkpt>
      <trkpt lat="59.4553787954" lon="17.7039737508">
        <ele>0</ele>
        <time>2013-03-24T13:09:13Z</time>
      </trkpt>
      <trkpt lat="59.4556976428" lon="17.704038459">
        <ele>0</ele>
        <time>2013-03-24T13:09:20Z</time>
      </trkpt>
      <trkpt lat="59.4558330944" lon="17.7040580727">
        <ele>0</ele>
        <time>2013-03-24T13:09:23Z</time>
      </trkpt>
      <trkpt lat="59.4559211043" lon="17.7040749203">
        <ele>0</ele>
        <time>2013-03-24T13:09:25Z</time>
      </trkpt>
      <trkpt lat="59.4562261216" lon="17.7041760898">
        <ele>0</ele>
        <time>2013-03-24T13:09:32Z</time>
      </trkpt>
      <trkpt lat="59.4563536103" lon="17.7042333382">
        <ele>0</ele>
        <time>2013-03-24T13:09:35Z</time>
      </trkpt>
      <trkpt lat="59.4565012156" lon="17.70428254">
        <ele>0</ele>
        <time>2013-03-24T13:09:38Z</time>
      </trkpt>
      <trkpt lat="59.4569064805" lon="17.7043747409">
        <ele>0</ele>
        <time>2013-03-24T13:09:46Z</time>
      </trkpt>
      <trkpt lat="59.456956269" lon="17.7043739027">
        <ele>0</ele>
        <time>2013-03-24T13:09:47Z</time>
      </trkpt>
      <trkpt lat="59.4570033752" lon="17.704403407">
        <ele>0</ele>
        <time>2013-03-24T13:09:48Z</time>
      </trkpt>
      <trkpt lat="59.4570505653" lon="17.7044271277">
        <ele>0</ele>
        <time>2013-03-24T13:09:49Z</time>
      </trkpt>
      <trkpt lat="59.4570968334" lon="17.7044511838">
        <ele>0</ele>
        <time>2013-03-24T13:09:50Z</time>
      </trkpt>
      <trkpt lat="59.4574026889" lon="17.7046847873">
        <ele>0</ele>
        <time>2013-03-24T13:09:57Z</time>
      </trkpt>
      <trkpt lat="59.4576218756" lon="17.7048346557">
        <ele>0</ele>
        <time>2013-03-24T13:10:02Z</time>
      </trkpt>
      <trkpt lat="59.4577108914" lon="17.7048697759">
        <ele>0</ele>
        <time>2013-03-24T13:10:04Z</time>
      </trkpt>
      <trkpt lat="59.4578928625" lon="17.70488545">
        <ele>0</ele>
        <time>2013-03-24T13:10:08Z</time>
      </trkpt>
      <trkpt lat="59.4580330916" lon="17.7048712846">
        <ele>0</ele>
        <time>2013-03-24T13:10:11Z</time>
      </trkpt>
      <trkpt lat="59.4583494246" lon="17.7048225858">
        <ele>0</ele>
        <time>2013-03-24T13:10:18Z</time>
      </trkpt>
      <trkpt lat="59.4585980317" lon="17.7048599691">
        <ele>0</ele>
        <time>2013-03-24T13:10:24Z</time>
      </trkpt>
      <trkpt lat="59.4586918252" lon="17.7050120167">
        <ele>0</ele>
        <time>2013-03-24T13:10:27Z</time>
      </trkpt>
      <trkpt lat="59.4587149592" lon="17.7050772279">
        <ele>0</ele>
        <time>2013-03-24T13:10:28Z</time>
      </trkpt>
      <trkpt lat="59.4588675936" lon="17.7054507254">
        <ele>0</ele>
        <time>2013-03-24T13:10:34Z</time>
      </trkpt>
      <trkpt lat="59.4588921526" lon="17.7055096501">
        <ele>0</ele>
        <time>2013-03-24T13:10:35Z</time>
      </trkpt>
      <trkpt lat="59.4589177174" lon="17.705568072">
        <ele>0</ele>
        <time>2013-03-24T13:10:36Z</time>
      </trkpt>
      <trkpt lat="59.4589432822" lon="17.7056271644">
        <ele>0</ele>
        <time>2013-03-24T13:10:37Z</time>
      </trkpt>
      <trkpt lat="59.4589653266" lon="17.7056822334">
        <ele>0</ele>
        <time>2013-03-24T13:10:38Z</time>
      </trkpt>
      <trkpt lat="59.4590368242" lon="17.705940396">
        <ele>0</ele>
        <time>2013-03-24T13:10:43Z</time>
      </trkpt>
      <trkpt lat="59.4590460443" lon="17.7059940401">
        <ele>0</ele>
        <time>2013-03-24T13:10:47Z</time>
      </trkpt>
      <trkpt lat="59.4590460443" lon="17.7059940401">
        <ele>0</ele>
        <time>2013-03-24T13:10:57Z</time>
      </trkpt>
      <trkpt lat="59.4590514925" lon="17.7060040146">
        <ele>0</ele>
        <time>2013-03-24T13:11:07Z</time>
      </trkpt>
      <trkpt lat="59.4590599582" lon="17.7060074512">
        <ele>0</ele>
        <time>2013-03-24T13:11:14Z</time>
      </trkpt>
      <trkpt lat="59.4590599582" lon="17.7060074512">
        <ele>0</ele>
        <time>2013-03-24T13:11:26Z</time>
      </trkpt>
      <trkpt lat="59.4590763867" lon="17.7060591675">
        <ele>0</ele>
        <time>2013-03-24T13:11:36Z</time>
      </trkpt>
      <trkpt lat="59.4591251694" lon="17.7062836348">
        <ele>0</ele>
        <time>2013-03-24T13:11:40Z</time>
      </trkpt>
      <trkpt lat="59.4591488902" lon="17.7063637657">
        <ele>0</ele>
        <time>2013-03-24T13:11:41Z</time>
      </trkpt>
      <trkpt lat="59.4592700086" lon="17.7066350878">
        <ele>0</ele>
        <time>2013-03-24T13:11:45Z</time>
      </trkpt>
      <trkpt lat="59.4593065537" lon="17.7066982874">
        <ele>0</ele>
        <time>2013-03-24T13:11:46Z</time>
      </trkpt>
      <trkpt lat="59.4594250738" lon="17.7068561185">
        <ele>0</ele>
        <time>2013-03-24T13:11:49Z</time>
      </trkpt>
      <trkpt lat="59.4594618703" lon="17.7068967708">
        <ele>0</ele>
        <time>2013-03-24T13:11:50Z</time>
      </trkpt>
      <trkpt lat="59.4595004271" lon="17.7069221679">
        <ele>0</ele>
        <time>2013-03-24T13:11:51Z</time>
      </trkpt>
      <trkpt lat="59.4596800512" lon="17.7070105131">
        <ele>0</ele>
        <time>2013-03-24T13:11:55Z</time>
      </trkpt>
      <trkpt lat="59.4597738446" lon="17.7070770654">
        <ele>0</ele>
        <time>2013-03-24T13:11:57Z</time>
      </trkpt>
      <trkpt lat="59.4599776924" lon="17.707343526">
        <ele>0</ele>
        <time>2013-03-24T13:12:02Z</time>
      </trkpt>
      <trkpt lat="59.4600088731" lon="17.7076229786">
        <ele>0</ele>
        <time>2013-03-24T13:12:05Z</time>
      </trkpt>
      <trkpt lat="59.4600009941" lon="17.7079280797">
        <ele>0</ele>
        <time>2013-03-24T13:12:08Z</time>
      </trkpt>
      <trkpt lat="59.459995965" lon="17.7081686403">
        <ele>0</ele>
        <time>2013-03-24T13:12:10Z</time>
      </trkpt>
      <trkpt lat="59.4600059394" lon="17.7088713788">
        <ele>0</ele>
        <time>2013-03-24T13:12:16Z</time>
      </trkpt>
      <trkpt lat="59.4600109686" lon="17.7089935869">
        <ele>0</ele>
        <time>2013-03-24T13:12:17Z</time>
      </trkpt>
      <trkpt lat="59.4600120582" lon="17.7091116878">
        <ele>0</ele>
        <time>2013-03-24T13:12:18Z</time>
      </trkpt>
      <trkpt lat="59.4600118068" lon="17.7092247597">
        <ele>0</ele>
        <time>2013-03-24T13:12:19Z</time>
      </trkpt>
      <trkpt lat="59.4600196858" lon="17.7093425254">
        <ele>0</ele>
        <time>2013-03-24T13:12:20Z</time>
      </trkpt>
      <trkpt lat="59.4600263075" lon="17.7096922182">
        <ele>0</ele>
        <time>2013-03-24T13:12:23Z</time>
      </trkpt>
      <trkpt lat="59.4600514532" lon="17.710244334">
        <ele>0</ele>
        <time>2013-03-24T13:12:28Z</time>
      </trkpt>
      <trkpt lat="59.4600800354" lon="17.7103354452">
        <ele>0</ele>
        <time>2013-03-24T13:12:29Z</time>
      </trkpt>
      <trkpt lat="59.4602278083" lon="17.7105091182">
        <ele>0</ele>
        <time>2013-03-24T13:12:32Z</time>
      </trkpt>
      <trkpt lat="59.4603951949" lon="17.710535605">
        <ele>0</ele>
        <time>2013-03-24T13:12:35Z</time>
      </trkpt>
      <trkpt lat="59.4604505154" lon="17.7105382034">
        <ele>0</ele>
        <time>2013-03-24T13:12:36Z</time>
      </trkpt>
      <trkpt lat="59.4605586419" lon="17.7105630976">
        <ele>0</ele>
        <time>2013-03-24T13:12:38Z</time>
      </trkpt>
      <trkpt lat="59.4606035689" lon="17.7106128023">
        <ele>0</ele>
        <time>2013-03-24T13:12:39Z</time>
      </trkpt>
      <trkpt lat="59.4606370965" lon="17.7107070149">
        <ele>0</ele>
        <time>2013-03-24T13:12:40Z</time>
      </trkpt>
      <trkpt lat="59.4606541118" lon="17.7108085197">
        <ele>0</ele>
        <time>2013-03-24T13:12:41Z</time>
      </trkpt>
      <trkpt lat="59.4606719652" lon="17.7109113656">
        <ele>0</ele>
        <time>2013-03-24T13:12:42Z</time>
      </trkpt>
      <trkpt lat="59.4606821911" lon="17.711016307">
        <ele>0</ele>
        <time>2013-03-24T13:12:43Z</time>
      </trkpt>
      <trkpt lat="59.4606909083" lon="17.7112203224">
        <ele>0</ele>
        <time>2013-03-24T13:12:45Z</time>
      </trkpt>
      <trkpt lat="59.4606976138" lon="17.7113123557">
        <ele>0</ele>
        <time>2013-03-24T13:12:46Z</time>
      </trkpt>
      <trkpt lat="59.4607016371" lon="17.7114222424">
        <ele>0</ele>
        <time>2013-03-24T13:12:47Z</time>
      </trkpt>
      <trkpt lat="59.4607005475" lon="17.7115193886">
        <ele>0</ele>
        <time>2013-03-24T13:12:48Z</time>
      </trkpt>
      <trkpt lat="59.4606995417" lon="17.7116240785">
        <ele>0</ele>
        <time>2013-03-24T13:12:49Z</time>
      </trkpt>
      <trkpt lat="59.4606861306" lon="17.7121643758">
        <ele>0</ele>
        <time>2013-03-24T13:12:54Z</time>
      </trkpt>
      <trkpt lat="59.4606864659" lon="17.7124915214">
        <ele>0</ele>
        <time>2013-03-24T13:12:57Z</time>
      </trkpt>
      <trkpt lat="59.46069753" lon="17.7127863128">
        <ele>0</ele>
        <time>2013-03-24T13:13:00Z</time>
      </trkpt>
      <trkpt lat="59.4607939219" lon="17.7129832874">
        <ele>0</ele>
        <time>2013-03-24T13:13:03Z</time>
      </trkpt>
      <trkpt lat="59.4610129409" lon="17.7130789249">
        <ele>0</ele>
        <time>2013-03-24T13:13:07Z</time>
      </trkpt>
      <trkpt lat="59.4610685129" lon="17.7131203315">
        <ele>0</ele>
        <time>2013-03-24T13:13:08Z</time>
      </trkpt>
      <trkpt lat="59.4612750429" lon="17.7133682681">
        <ele>0</ele>
        <time>2013-03-24T13:13:12Z</time>
      </trkpt>
      <trkpt lat="59.4613943174" lon="17.713690636">
        <ele>0</ele>
        <time>2013-03-24T13:13:16Z</time>
      </trkpt>
      <trkpt lat="59.4614116679" lon="17.7138705116">
        <ele>0</ele>
        <time>2013-03-24T13:13:18Z</time>
      </trkpt>
      <trkpt lat="59.461413009" lon="17.7139596112">
        <ele>0</ele>
        <time>2013-03-24T13:13:19Z</time>
      </trkpt>
      <trkpt lat="59.4614094886" lon="17.7140487107">
        <ele>0</ele>
        <time>2013-03-24T13:13:20Z</time>
      </trkpt>
      <trkpt lat="59.4614030345" lon="17.7141348767">
        <ele>0</ele>
        <time>2013-03-24T13:13:21Z</time>
      </trkpt>
      <trkpt lat="59.4613976701" lon="17.7142231381">
        <ele>0</ele>
        <time>2013-03-24T13:13:22Z</time>
      </trkpt>
      <trkpt lat="59.461396329" lon="17.7144165085">
        <ele>0</ele>
        <time>2013-03-24T13:13:24Z</time>
      </trkpt>
      <trkpt lat="59.4614283479" lon="17.7145993178">
        <ele>0</ele>
        <time>2013-03-24T13:13:26Z</time>
      </trkpt>
      <trkpt lat="59.4614607858" lon="17.7146782753">
        <ele>0</ele>
        <time>2013-03-24T13:13:27Z</time>
      </trkpt>
      <trkpt lat="59.4615142624" lon="17.714729321">
        <ele>0</ele>
        <time>2013-03-24T13:13:28Z</time>
      </trkpt>
      <trkpt lat="59.4615734386" lon="17.7147693027">
        <ele>0</ele>
        <time>2013-03-24T13:13:29Z</time>
      </trkpt>
      <trkpt lat="59.4616347941" lon="17.7147922691">
        <ele>0</ele>
        <time>2013-03-24T13:13:30Z</time>
      </trkpt>
      <trkpt lat="59.4616984127" lon="17.7148107093">
        <ele>0</ele>
        <time>2013-03-24T13:13:31Z</time>
      </trkpt>
      <trkpt lat="59.4617605226" lon="17.7148257967">
        <ele>0</ele>
        <time>2013-03-24T13:13:32Z</time>
      </trkpt>
      <trkpt lat="59.4618899391" lon="17.7148634314">
        <ele>0</ele>
        <time>2013-03-24T13:13:34Z</time>
      </trkpt>
      <trkpt lat="59.4623186733" lon="17.7150085221">
        <ele>0</ele>
        <time>2013-03-24T13:13:41Z</time>
      </trkpt>
      <trkpt lat="59.462496621" lon="17.7150547902">
        <ele>0</ele>
        <time>2013-03-24T13:13:44Z</time>
      </trkpt>
      <trkpt lat="59.4625557972" lon="17.7150750744">
        <ele>0</ele>
        <time>2013-03-24T13:13:45Z</time>
      </trkpt>
      <trkpt lat="59.4626152249" lon="17.7150955262">
        <ele>0</ele>
        <time>2013-03-24T13:13:46Z</time>
      </trkpt>
      <trkpt lat="59.4626767481" lon="17.7151158104">
        <ele>0</ele>
        <time>2013-03-24T13:13:47Z</time>
      </trkpt>
      <trkpt lat="59.4627430489" lon="17.7151369328">
        <ele>0</ele>
        <time>2013-03-24T13:13:48Z</time>
      </trkpt>
      <trkpt lat="59.4633117608" lon="17.7152899025">
        <ele>0</ele>
        <time>2013-03-24T13:13:57Z</time>
      </trkpt>
      <trkpt lat="59.4637321969" lon="17.7153993701">
        <ele>0</ele>
        <time>2013-03-24T13:14:04Z</time>
      </trkpt>
      <trkpt lat="59.4642983104" lon="17.7155748871">
        <ele>0</ele>
        <time>2013-03-24T13:14:13Z</time>
      </trkpt>
      <trkpt lat="59.464782449" lon="17.7159043796">
        <ele>0</ele>
        <time>2013-03-24T13:14:21Z</time>
      </trkpt>
      <trkpt lat="59.4651650827" lon="17.716373766">
        <ele>0</ele>
        <time>2013-03-24T13:14:28Z</time>
      </trkpt>
      <trkpt lat="59.4655697609" lon="17.7169642708">
        <ele>0</ele>
        <time>2013-03-24T13:14:36Z</time>
      </trkpt>
      <trkpt lat="59.4658365567" lon="17.7172984572">
        <ele>0</ele>
        <time>2013-03-24T13:14:41Z</time>
      </trkpt>
      <trkpt lat="59.4659005944" lon="17.7173299731">
        <ele>0</ele>
        <time>2013-03-24T13:14:42Z</time>
      </trkpt>
      <trkpt lat="59.4660951383" lon="17.7173449767">
        <ele>0</ele>
        <time>2013-03-24T13:14:45Z</time>
      </trkpt>
      <trkpt lat="59.4661600142" lon="17.7173474913">
        <ele>0</ele>
        <time>2013-03-24T13:14:46Z</time>
      </trkpt>
      <trkpt lat="59.4662256445" lon="17.7173686975">
        <ele>0</ele>
        <time>2013-03-24T13:14:47Z</time>
      </trkpt>
      <trkpt lat="59.4664133991" lon="17.7174983655">
        <ele>0</ele>
        <time>2013-03-24T13:14:50Z</time>
      </trkpt>
      <trkpt lat="59.4667423887" lon="17.7178741261">
        <ele>0</ele>
        <time>2013-03-24T13:14:56Z</time>
      </trkpt>
      <trkpt lat="59.4671646688" lon="17.7184123279">
        <ele>0</ele>
        <time>2013-03-24T13:15:04Z</time>
      </trkpt>
      <trkpt lat="59.4672259405" lon="17.7184640442">
        <ele>0</ele>
        <time>2013-03-24T13:15:05Z</time>
      </trkpt>
      <trkpt lat="59.4674055646" lon="17.7186036867">
        <ele>0</ele>
        <time>2013-03-24T13:15:08Z</time>
      </trkpt>
      <trkpt lat="59.4674696861" lon="17.7186430816">
        <ele>0</ele>
        <time>2013-03-24T13:15:09Z</time>
      </trkpt>
      <trkpt lat="59.4675295329" lon="17.7186844044">
        <ele>0</ele>
        <time>2013-03-24T13:15:10Z</time>
      </trkpt>
      <trkpt lat="59.4675897149" lon="17.7187237155">
        <ele>0</ele>
        <time>2013-03-24T13:15:11Z</time>
      </trkpt>
      <trkpt lat="59.467656854" lon="17.718755902">
        <ele>0</ele>
        <time>2013-03-24T13:15:12Z</time>
      </trkpt>
      <trkpt lat="59.4679636315" lon="17.7189100451">
        <ele>0</ele>
        <time>2013-03-24T13:15:17Z</time>
      </trkpt>
      <trkpt lat="59.4683595086" lon="17.7189879968">
        <ele>0</ele>
        <time>2013-03-24T13:15:24Z</time>
      </trkpt>
      <trkpt lat="59.4685449163" lon="17.7189725741">
        <ele>0</ele>
        <time>2013-03-24T13:15:28Z</time>
      </trkpt>
      <trkpt lat="59.4685910167" lon="17.7189507811">
        <ele>0</ele>
        <time>2013-03-24T13:15:29Z</time>
      </trkpt>
      <trkpt lat="59.4688466647" lon="17.7188691414">
        <ele>0</ele>
        <time>2013-03-24T13:15:34Z</time>
      </trkpt>
      <trkpt lat="59.4690975349" lon="17.7187644515">
        <ele>0</ele>
        <time>2013-03-24T13:15:39Z</time>
      </trkpt>
      <trkpt lat="59.4691443897" lon="17.7187445026">
        <ele>0</ele>
        <time>2013-03-24T13:15:40Z</time>
      </trkpt>
      <trkpt lat="59.4691930886" lon="17.7187264815">
        <ele>0</ele>
        <time>2013-03-24T13:15:41Z</time>
      </trkpt>
      <trkpt lat="59.4692438829" lon="17.7187046886">
        <ele>0</ele>
        <time>2013-03-24T13:15:42Z</time>
      </trkpt>
      <trkpt lat="59.4693049869" lon="17.7186889306">
        <ele>0</ele>
        <time>2013-03-24T13:15:43Z</time>
      </trkpt>
      <trkpt lat="59.4693674321" lon="17.7186606836">
        <ele>0</ele>
        <time>2013-03-24T13:15:44Z</time>
      </trkpt>
      <trkpt lat="59.4696648219" lon="17.7185553231">
        <ele>0</ele>
        <time>2013-03-24T13:15:48Z</time>
      </trkpt>
      <trkpt lat="59.4701663948" lon="17.7183953964">
        <ele>0</ele>
        <time>2013-03-24T13:15:55Z</time>
      </trkpt>
      <trkpt lat="59.4706758467" lon="17.7182815702">
        <ele>0</ele>
        <time>2013-03-24T13:16:03Z</time>
      </trkpt>
      <trkpt lat="59.4711868073" lon="17.7181630502">
        <ele>0</ele>
        <time>2013-03-24T13:16:11Z</time>
      </trkpt>
      <trkpt lat="59.4716568643" lon="17.7180234915">
        <ele>0</ele>
        <time>2013-03-24T13:16:18Z</time>
      </trkpt>
      <trkpt lat="59.4722522306" lon="17.7178935721">
        <ele>0</ele>
        <time>2013-03-24T13:16:27Z</time>
      </trkpt>
      <trkpt lat="59.472442835" lon="17.7178778141">
        <ele>0</ele>
        <time>2013-03-24T13:16:30Z</time>
      </trkpt>
      <trkpt lat="59.4726292485" lon="17.7179089948">
        <ele>0</ele>
        <time>2013-03-24T13:16:33Z</time>
      </trkpt>
      <trkpt lat="59.4730660293" lon="17.7181365634">
        <ele>0</ele>
        <time>2013-03-24T13:16:40Z</time>
      </trkpt>
      <trkpt lat="59.4736051531" lon="17.7185895213">
        <ele>0</ele>
        <time>2013-03-24T13:16:49Z</time>
      </trkpt>
      <trkpt lat="59.4740482203" lon="17.7191602448">
        <ele>0</ele>
        <time>2013-03-24T13:16:57Z</time>
      </trkpt>
      <trkpt lat="59.4744377272" lon="17.719873796">
        <ele>0</ele>
        <time>2013-03-24T13:17:05Z</time>
      </trkpt>
      <trkpt lat="59.4747208678" lon="17.7206009258">
        <ele>0</ele>
        <time>2013-03-24T13:17:12Z</time>
      </trkpt>
      <trkpt lat="59.4749092929" lon="17.7212524509">
        <ele>0</ele>
        <time>2013-03-24T13:17:18Z</time>
      </trkpt>
      <trkpt lat="59.475080116" lon="17.7220935745">
        <ele>0</ele>
        <time>2013-03-24T13:17:25Z</time>
      </trkpt>
      <trkpt lat="59.4751629292" lon="17.7227435071">
        <ele>0</ele>
        <time>2013-03-24T13:17:30Z</time>
      </trkpt>
      <trkpt lat="59.4751933555" lon="17.7230118955">
        <ele>0</ele>
        <time>2013-03-24T13:17:32Z</time>
      </trkpt>
      <trkpt lat="59.4752057607" lon="17.7231342713">
        <ele>0</ele>
        <time>2013-03-24T13:17:33Z</time>
      </trkpt>
      <trkpt lat="59.4752188365" lon="17.7232553059">
        <ele>0</ele>
        <time>2013-03-24T13:17:34Z</time>
      </trkpt>
      <trkpt lat="59.4752324152" lon="17.7233730716">
        <ele>0</ele>
        <time>2013-03-24T13:17:35Z</time>
      </trkpt>
      <trkpt lat="59.4753432239" lon="17.7243585316">
        <ele>0</ele>
        <time>2013-03-24T13:17:43Z</time>
      </trkpt>
      <trkpt lat="59.4754583074" lon="17.7250807161">
        <ele>0</ele>
        <time>2013-03-24T13:17:49Z</time>
      </trkpt>
      <trkpt lat="59.4754821958" lon="17.7251931173">
        <ele>0</ele>
        <time>2013-03-24T13:17:50Z</time>
      </trkpt>
      <trkpt lat="59.4755063357" lon="17.7253015791">
        <ele>0</ele>
        <time>2013-03-24T13:17:51Z</time>
      </trkpt>
      <trkpt lat="59.475531649" lon="17.7254101247">
        <ele>0</ele>
        <time>2013-03-24T13:17:52Z</time>
      </trkpt>
      <trkpt lat="59.4755596445" lon="17.7255104561">
        <ele>0</ele>
        <time>2013-03-24T13:17:53Z</time>
      </trkpt>
      <trkpt lat="59.4756764044" lon="17.7259235999">
        <ele>0</ele>
        <time>2013-03-24T13:17:57Z</time>
      </trkpt>
      <trkpt lat="59.4759727884" lon="17.7267213054">
        <ele>0</ele>
        <time>2013-03-24T13:18:05Z</time>
      </trkpt>
      <trkpt lat="59.4760533385" lon="17.7269138376">
        <ele>0</ele>
        <time>2013-03-24T13:18:07Z</time>
      </trkpt>
      <trkpt lat="59.4760978463" lon="17.7270040268">
        <ele>0</ele>
        <time>2013-03-24T13:18:08Z</time>
      </trkpt>
      <trkpt lat="59.4761513229" lon="17.7271025142">
        <ele>0</ele>
        <time>2013-03-24T13:18:09Z</time>
      </trkpt>
      <trkpt lat="59.4762001893" lon="17.7271990737">
        <ele>0</ele>
        <time>2013-03-24T13:18:10Z</time>
      </trkpt>
      <trkpt lat="59.4762510675" lon="17.7272932024">
        <ele>0</ele>
        <time>2013-03-24T13:18:11Z</time>
      </trkpt>
      <trkpt lat="59.4765834936" lon="17.7278392832">
        <ele>0</ele>
        <time>2013-03-24T13:18:17Z</time>
      </trkpt>
      <trkpt lat="59.476649543" lon="17.7279263711">
        <ele>0</ele>
        <time>2013-03-24T13:18:18Z</time>
      </trkpt>
      <trkpt lat="59.4767124911" lon="17.7280065021">
        <ele>0</ele>
        <time>2013-03-24T13:18:19Z</time>
      </trkpt>
      <trkpt lat="59.4767771993" lon="17.728084789">
        <ele>0</ele>
        <time>2013-03-24T13:18:20Z</time>
      </trkpt>
      <trkpt lat="59.4768406503" lon="17.7281593041">
        <ele>0</ele>
        <time>2013-03-24T13:18:21Z</time>
      </trkpt>
      <trkpt lat="59.4771414767" lon="17.7284814205">
        <ele>0</ele>
        <time>2013-03-24T13:18:26Z</time>
      </trkpt>
      <trkpt lat="59.4774609947" lon="17.7286899622">
        <ele>0</ele>
        <time>2013-03-24T13:18:32Z</time>
      </trkpt>
      <trkpt lat="59.4775952728" lon="17.7287548381">
        <ele>0</ele>
        <time>2013-03-24T13:18:35Z</time>
      </trkpt>
      <trkpt lat="59.477672051" lon="17.7288139305">
        <ele>0</ele>
        <time>2013-03-24T13:18:37Z</time>
      </trkpt>
      <trkpt lat="59.4777142119" lon="17.7288296047">
        <ele>0</ele>
        <time>2013-03-24T13:18:38Z</time>
      </trkpt>
      <trkpt lat="59.4779268607" lon="17.7288991744">
        <ele>0</ele>
        <time>2013-03-24T13:18:43Z</time>
      </trkpt>
      <trkpt lat="59.477972123" lon="17.728917447">
        <ele>0</ele>
        <time>2013-03-24T13:18:44Z</time>
      </trkpt>
      <trkpt lat="59.4780197322" lon="17.7289268347">
        <ele>0</ele>
        <time>2013-03-24T13:18:45Z</time>
      </trkpt>
      <trkpt lat="59.4780626475" lon="17.728932702">
        <ele>0</ele>
        <time>2013-03-24T13:18:46Z</time>
      </trkpt>
      <trkpt lat="59.4781093347" lon="17.7289364739">
        <ele>0</ele>
        <time>2013-03-24T13:18:47Z</time>
      </trkpt>
      <trkpt lat="59.4782040502" lon="17.7289720131">
        <ele>0</ele>
        <time>2013-03-24T13:18:49Z</time>
      </trkpt>
      <trkpt lat="59.4782821695" lon="17.7290688241">
        <ele>0</ele>
        <time>2013-03-24T13:18:51Z</time>
      </trkpt>
      <trkpt lat="59.4783066446" lon="17.7291481169">
        <ele>0</ele>
        <time>2013-03-24T13:18:52Z</time>
      </trkpt>
      <trkpt lat="59.4783376577" lon="17.7292121546">
        <ele>0</ele>
        <time>2013-03-24T13:18:53Z</time>
      </trkpt>
      <trkpt lat="59.4783702633" lon="17.7292823949">
        <ele>0</ele>
        <time>2013-03-24T13:18:54Z</time>
      </trkpt>
      <trkpt lat="59.4783966662" lon="17.7293607657">
        <ele>0</ele>
        <time>2013-03-24T13:18:55Z</time>
      </trkpt>
      <trkpt lat="59.4784948183" lon="17.7295667928">
        <ele>0</ele>
        <time>2013-03-24T13:18:58Z</time>
      </trkpt>
      <trkpt lat="59.4785205507" lon="17.7296437386">
        <ele>0</ele>
        <time>2013-03-24T13:18:59Z</time>
      </trkpt>
      <trkpt lat="59.4785368954" lon="17.729962167">
        <ele>0</ele>
        <time>2013-03-24T13:19:02Z</time>
      </trkpt>
      <trkpt lat="59.4785399129" lon="17.7302027275">
        <ele>0</ele>
        <time>2013-03-24T13:19:04Z</time>
      </trkpt>
      <trkpt lat="59.4785316148" lon="17.7307146102">
        <ele>0</ele>
        <time>2013-03-24T13:19:08Z</time>
      </trkpt>
      <trkpt lat="59.4784842571" lon="17.731764024">
        <ele>0</ele>
        <time>2013-03-24T13:19:16Z</time>
      </trkpt>
      <trkpt lat="59.4784019468" lon="17.7328100852">
        <ele>0</ele>
        <time>2013-03-24T13:19:24Z</time>
      </trkpt>
      <trkpt lat="59.4783862727" lon="17.7329479674">
        <ele>0</ele>
        <time>2013-03-24T13:19:25Z</time>
      </trkpt>
      <trkpt lat="59.4782699319" lon="17.7338599181">
        <ele>0</ele>
        <time>2013-03-24T13:19:32Z</time>
      </trkpt>
      <trkpt lat="59.4781855262" lon="17.7343788416">
        <ele>0</ele>
        <time>2013-03-24T13:19:36Z</time>
      </trkpt>
      <trkpt lat="59.4781618054" lon="17.7345111918">
        <ele>0</ele>
        <time>2013-03-24T13:19:37Z</time>
      </trkpt>
      <trkpt lat="59.4781357377" lon="17.7346460565">
        <ele>0</ele>
        <time>2013-03-24T13:19:38Z</time>
      </trkpt>
      <trkpt lat="59.4781126875" lon="17.7347757245">
        <ele>0</ele>
        <time>2013-03-24T13:19:39Z</time>
      </trkpt>
      <trkpt lat="59.4780620608" lon="17.7350426042">
        <ele>0</ele>
        <time>2013-03-24T13:19:41Z</time>
      </trkpt>
      <trkpt lat="59.4778435447" lon="17.7359760964">
        <ele>0</ele>
        <time>2013-03-24T13:19:48Z</time>
      </trkpt>
      <trkpt lat="59.4778077539" lon="17.7361011544">
        <ele>0</ele>
        <time>2013-03-24T13:19:49Z</time>
      </trkpt>
      <trkpt lat="59.4777708736" lon="17.7362190039">
        <ele>0</ele>
        <time>2013-03-24T13:19:50Z</time>
      </trkpt>
      <trkpt lat="59.4777442191" lon="17.7363442295">
        <ele>0</ele>
        <time>2013-03-24T13:19:51Z</time>
      </trkpt>
      <trkpt lat="59.4777111945" lon="17.7364675272">
        <ele>0</ele>
        <time>2013-03-24T13:19:52Z</time>
      </trkpt>
      <trkpt lat="59.4776740626" lon="17.7365876398">
        <ele>0</ele>
        <time>2013-03-24T13:19:53Z</time>
      </trkpt>
      <trkpt lat="59.4776381881" lon="17.7367137874">
        <ele>0</ele>
        <time>2013-03-24T13:19:54Z</time>
      </trkpt>
      <trkpt lat="59.4773356015" lon="17.7376950565">
        <ele>0</ele>
        <time>2013-03-24T13:20:02Z</time>
      </trkpt>
      <trkpt lat="59.4771022494" lon="17.7383977112">
        <ele>0</ele>
        <time>2013-03-24T13:20:08Z</time>
      </trkpt>
      <trkpt lat="59.4768585038" lon="17.7391657446">
        <ele>0</ele>
        <time>2013-03-24T13:20:15Z</time>
      </trkpt>
      <trkpt lat="59.4766749402" lon="17.7397877654">
        <ele>0</ele>
        <time>2013-03-24T13:20:21Z</time>
      </trkpt>
      <trkpt lat="59.4764539933" lon="17.740686808">
        <ele>0</ele>
        <time>2013-03-24T13:20:30Z</time>
      </trkpt>
      <trkpt lat="59.4763351379" lon="17.7413469665">
        <ele>0</ele>
        <time>2013-03-24T13:20:37Z</time>
      </trkpt>
      <trkpt lat="59.476284176" lon="17.741646368">
        <ele>0</ele>
        <time>2013-03-24T13:20:40Z</time>
      </trkpt>
      <trkpt lat="59.4762692562" lon="17.7417507226">
        <ele>0</ele>
        <time>2013-03-24T13:20:41Z</time>
      </trkpt>
      <trkpt lat="59.476253582" lon="17.7418604417">
        <ele>0</ele>
        <time>2013-03-24T13:20:42Z</time>
      </trkpt>
      <trkpt lat="59.476235561" lon="17.741960773">
        <ele>0</ele>
        <time>2013-03-24T13:20:43Z</time>
      </trkpt>
      <trkpt lat="59.4762229043" lon="17.7420613558">
        <ele>0</ele>
        <time>2013-03-24T13:20:44Z</time>
      </trkpt>
      <trkpt lat="59.4761830903" lon="17.7425075244">
        <ele>0</ele>
        <time>2013-03-24T13:20:48Z</time>
      </trkpt>
      <trkpt lat="59.4761691763" lon="17.7426169082">
        <ele>0</ele>
        <time>2013-03-24T13:20:49Z</time>
      </trkpt>
      <trkpt lat="59.4761537536" lon="17.7427295609">
        <ele>0</ele>
        <time>2013-03-24T13:20:50Z</time>
      </trkpt>
      <trkpt lat="59.476144785" lon="17.742846656">
        <ele>0</ele>
        <time>2013-03-24T13:20:51Z</time>
      </trkpt>
      <trkpt lat="59.4761386662" lon="17.7429697861">
        <ele>0</ele>
        <time>2013-03-24T13:20:52Z</time>
      </trkpt>
      <trkpt lat="59.4761286917" lon="17.7430775774">
        <ele>0</ele>
        <time>2013-03-24T13:20:53Z</time>
      </trkpt>
      <trkpt lat="59.4761219862" lon="17.7431865421">
        <ele>0</ele>
        <time>2013-03-24T13:20:54Z</time>
      </trkpt>
      <trkpt lat="59.4761122632" lon="17.7432980213">
        <ele>0</ele>
        <time>2013-03-24T13:20:55Z</time>
      </trkpt>
      <trkpt lat="59.4761056415" lon="17.7434180502">
        <ele>0</ele>
        <time>2013-03-24T13:20:56Z</time>
      </trkpt>
      <trkpt lat="59.4760789871" lon="17.7441389774">
        <ele>0</ele>
        <time>2013-03-24T13:21:02Z</time>
      </trkpt>
      <trkpt lat="59.4760722816" lon="17.7442591738">
        <ele>0</ele>
        <time>2013-03-24T13:21:03Z</time>
      </trkpt>
      <trkpt lat="59.4760712757" lon="17.7443871654">
        <ele>0</ele>
        <time>2013-03-24T13:21:04Z</time>
      </trkpt>
      <trkpt lat="59.4760730359" lon="17.7445072781">
        <ele>0</ele>
        <time>2013-03-24T13:21:05Z</time>
      </trkpt>
      <trkpt lat="59.4760737065" lon="17.7446257143">
        <ele>0</ele>
        <time>2013-03-24T13:21:06Z</time>
      </trkpt>
      <trkpt lat="59.4760840162" lon="17.7448495949">
        <ele>0</ele>
        <time>2013-03-24T13:21:08Z</time>
      </trkpt>
      <trkpt lat="59.4760977625" lon="17.744957889">
        <ele>0</ele>
        <time>2013-03-24T13:21:09Z</time>
      </trkpt>
      <trkpt lat="59.4761538374" lon="17.7454838532">
        <ele>0</ele>
        <time>2013-03-24T13:21:14Z</time>
      </trkpt>
      <trkpt lat="59.4761658236" lon="17.7455767247">
        <ele>0</ele>
        <time>2013-03-24T13:21:15Z</time>
      </trkpt>
      <trkpt lat="59.4761783964" lon="17.7456757149">
        <ele>0</ele>
        <time>2013-03-24T13:21:16Z</time>
      </trkpt>
      <trkpt lat="59.4761921427" lon="17.7457761301">
        <ele>0</ele>
        <time>2013-03-24T13:21:17Z</time>
      </trkpt>
      <trkpt lat="59.4762043803" lon="17.745877132">
        <ele>0</ele>
        <time>2013-03-24T13:21:18Z</time>
      </trkpt>
      <trkpt lat="59.4762690047" lon="17.7463058662">
        <ele>0</ele>
        <time>2013-03-24T13:21:22Z</time>
      </trkpt>
      <trkpt lat="59.4764043724" lon="17.7470665236">
        <ele>0</ele>
        <time>2013-03-24T13:21:30Z</time>
      </trkpt>
      <trkpt lat="59.4764377324" lon="17.7472352512">
        <ele>0</ele>
        <time>2013-03-24T13:21:32Z</time>
      </trkpt>
      <trkpt lat="59.4764543286" lon="17.7473219201">
        <ele>0</ele>
        <time>2013-03-24T13:21:33Z</time>
      </trkpt>
      <trkpt lat="59.4764724335" lon="17.7474005423">
        <ele>0</ele>
        <time>2013-03-24T13:21:34Z</time>
      </trkpt>
      <trkpt lat="59.4764906222" lon="17.7474800027">
        <ele>0</ele>
        <time>2013-03-24T13:21:35Z</time>
      </trkpt>
      <trkpt lat="59.4765049552" lon="17.7475622292">
        <ele>0</ele>
        <time>2013-03-24T13:21:36Z</time>
      </trkpt>
      <trkpt lat="59.4765391534" lon="17.7477286099">
        <ele>0</ele>
        <time>2013-03-24T13:21:38Z</time>
      </trkpt>
      <trkpt lat="59.4766834897" lon="17.7482623693">
        <ele>0</ele>
        <time>2013-03-24T13:21:45Z</time>
      </trkpt>
      <trkpt lat="59.4768658798" lon="17.7487346055">
        <ele>0</ele>
        <time>2013-03-24T13:21:51Z</time>
      </trkpt>
      <trkpt lat="59.4769249722" lon="17.7488703085">
        <ele>0</ele>
        <time>2013-03-24T13:21:53Z</time>
      </trkpt>
      <trkpt lat="59.4769541412" lon="17.748939543">
        <ele>0</ele>
        <time>2013-03-24T13:21:54Z</time>
      </trkpt>
      <trkpt lat="59.4769763533" lon="17.7490172432">
        <ele>0</ele>
        <time>2013-03-24T13:21:55Z</time>
      </trkpt>
      <trkpt lat="59.4769956317" lon="17.7491045826">
        <ele>0</ele>
        <time>2013-03-24T13:21:56Z</time>
      </trkpt>
      <trkpt lat="59.4770094618" lon="17.7492087696">
        <ele>0</ele>
        <time>2013-03-24T13:21:57Z</time>
      </trkpt>
      <trkpt lat="59.4770289078" lon="17.7492999647">
        <ele>0</ele>
        <time>2013-03-24T13:21:58Z</time>
      </trkpt>
      <trkpt lat="59.4770777743" lon="17.7494593884">
        <ele>0</ele>
        <time>2013-03-24T13:22:00Z</time>
      </trkpt>
      <trkpt lat="59.4771248806" lon="17.7495243481">
        <ele>0</ele>
        <time>2013-03-24T13:22:01Z</time>
      </trkpt>
      <trkpt lat="59.4771604198" lon="17.7495836082">
        <ele>0</ele>
        <time>2013-03-24T13:22:02Z</time>
      </trkpt>
      <trkpt lat="59.4772438197" lon="17.7497260166">
        <ele>0</ele>
        <time>2013-03-24T13:22:04Z</time>
      </trkpt>
      <trkpt lat="59.4773142277" lon="17.749880076">
        <ele>0</ele>
        <time>2013-03-24T13:22:06Z</time>
      </trkpt>
      <trkpt lat="59.4773485096" lon="17.7499792338">
        <ele>0</ele>
        <time>2013-03-24T13:22:07Z</time>
      </trkpt>
      <trkpt lat="59.4775702947" lon="17.7506614367">
        <ele>0</ele>
        <time>2013-03-24T13:22:13Z</time>
      </trkpt>
      <trkpt lat="59.4776143835" lon="17.7507847344">
        <ele>0</ele>
        <time>2013-03-24T13:22:14Z</time>
      </trkpt>
      <trkpt lat="59.477659562" lon="17.750912726">
        <ele>0</ele>
        <time>2013-03-24T13:22:15Z</time>
      </trkpt>
      <trkpt lat="59.4777025611" lon="17.7510406338">
        <ele>0</ele>
        <time>2013-03-24T13:22:16Z</time>
      </trkpt>
      <trkpt lat="59.4777536069" lon="17.7511637639">
        <ele>0</ele>
        <time>2013-03-24T13:22:17Z</time>
      </trkpt>
      <trkpt lat="59.4778953448" lon="17.7515294662">
        <ele>0</ele>
        <time>2013-03-24T13:22:20Z</time>
      </trkpt>
      <trkpt lat="59.4779426187" lon="17.7516395206">
        <ele>0</ele>
        <time>2013-03-24T13:22:21Z</time>
      </trkpt>
      <trkpt lat="59.4779927425" lon="17.7517442105">
        <ele>0</ele>
        <time>2013-03-24T13:22:22Z</time>
      </trkpt>
      <trkpt lat="59.4780436206" lon="17.7518485652">
        <ele>0</ele>
        <time>2013-03-24T13:22:23Z</time>
      </trkpt>
      <trkpt lat="59.4780934929" lon="17.7519492318">
        <ele>0</ele>
        <time>2013-03-24T13:22:24Z</time>
      </trkpt>
      <trkpt lat="59.4783503982" lon="17.7524574264">
        <ele>0</ele>
        <time>2013-03-24T13:22:29Z</time>
      </trkpt>
      <trkpt lat="59.478672766" lon="17.7532341771">
        <ele>0</ele>
        <time>2013-03-24T13:22:36Z</time>
      </trkpt>
      <trkpt lat="59.479008042" lon="17.7540839341">
        <ele>0</ele>
        <time>2013-03-24T13:22:44Z</time>
      </trkpt>
      <trkpt lat="59.4792794479" lon="17.7547694059">
        <ele>0</ele>
        <time>2013-03-24T13:22:51Z</time>
      </trkpt>
      <trkpt lat="59.4794441523" lon="17.7551714018">
        <ele>0</ele>
        <time>2013-03-24T13:22:55Z</time>
      </trkpt>
      <trkpt lat="59.4794847207" lon="17.755267626">
        <ele>0</ele>
        <time>2013-03-24T13:22:56Z</time>
      </trkpt>
      <trkpt lat="59.4796517719" lon="17.7556650119">
        <ele>0</ele>
        <time>2013-03-24T13:23:00Z</time>
      </trkpt>
      <trkpt lat="59.4797354233" lon="17.7558721286">
        <ele>0</ele>
        <time>2013-03-24T13:23:02Z</time>
      </trkpt>
      <trkpt lat="59.4797736448" lon="17.7559806742">
        <ele>0</ele>
        <time>2013-03-24T13:23:03Z</time>
      </trkpt>
      <trkpt lat="59.4798204158" lon="17.7560780719">
        <ele>0</ele>
        <time>2013-03-24T13:23:04Z</time>
      </trkpt>
      <trkpt lat="59.4798621576" lon="17.7561791576">
        <ele>0</ele>
        <time>2013-03-24T13:23:05Z</time>
      </trkpt>
      <trkpt lat="59.4799080904" lon="17.7562848534">
        <ele>0</ele>
        <time>2013-03-24T13:23:06Z</time>
      </trkpt>
      <trkpt lat="59.4800319749" lon="17.75660412">
        <ele>0</ele>
        <time>2013-03-24T13:23:09Z</time>
      </trkpt>
      <trkpt lat="59.4800696097" lon="17.7566944768">
        <ele>0</ele>
        <time>2013-03-24T13:23:10Z</time>
      </trkpt>
      <trkpt lat="59.4801064062" lon="17.7567809781">
        <ele>0</ele>
        <time>2013-03-24T13:23:11Z</time>
      </trkpt>
      <trkpt lat="59.4801403529" lon="17.7568617796">
        <ele>0</ele>
        <time>2013-03-24T13:23:12Z</time>
      </trkpt>
      <trkpt lat="59.4801722041" lon="17.7569423296">
        <ele>0</ele>
        <time>2013-03-24T13:23:13Z</time>
      </trkpt>
      <trkpt lat="59.4802038039" lon="17.7570216224">
        <ele>0</ele>
        <time>2013-03-24T13:23:14Z</time>
      </trkpt>
      <trkpt lat="59.4802675901" lon="17.757169982">
        <ele>0</ele>
        <time>2013-03-24T13:23:16Z</time>
      </trkpt>
      <trkpt lat="59.4803945759" lon="17.7575077726">
        <ele>0</ele>
        <time>2013-03-24T13:23:20Z</time>
      </trkpt>
      <trkpt lat="59.4804610444" lon="17.7576765002">
        <ele>0</ele>
        <time>2013-03-24T13:23:22Z</time>
      </trkpt>
      <trkpt lat="59.4804964998" lon="17.7577582238">
        <ele>0</ele>
        <time>2013-03-24T13:23:23Z</time>
      </trkpt>
      <trkpt lat="59.4805326258" lon="17.7578366784">
        <ele>0</ele>
        <time>2013-03-24T13:23:24Z</time>
      </trkpt>
      <trkpt lat="59.4805673269" lon="17.7579176475">
        <ele>0</ele>
        <time>2013-03-24T13:23:25Z</time>
      </trkpt>
      <trkpt lat="59.480602447" lon="17.7579955154">
        <ele>0</ele>
        <time>2013-03-24T13:23:26Z</time>
      </trkpt>
      <trkpt lat="59.4806370643" lon="17.7580790829">
        <ele>0</ele>
        <time>2013-03-24T13:23:27Z</time>
      </trkpt>
      <trkpt lat="59.4807457775" lon="17.7583366587">
        <ele>0</ele>
        <time>2013-03-24T13:23:30Z</time>
      </trkpt>
      <trkpt lat="59.4809860028" lon="17.7589016826">
        <ele>0</ele>
        <time>2013-03-24T13:23:36Z</time>
      </trkpt>
      <trkpt lat="59.4812123979" lon="17.7592634454">
        <ele>0</ele>
        <time>2013-03-24T13:23:40Z</time>
      </trkpt>
      <trkpt lat="59.4812830573" lon="17.7593535508">
        <ele>0</ele>
        <time>2013-03-24T13:23:41Z</time>
      </trkpt>
      <trkpt lat="59.4813524595" lon="17.7594298261">
        <ele>0</ele>
        <time>2013-03-24T13:23:42Z</time>
      </trkpt>
      <trkpt lat="59.481428148" lon="17.7595030839">
        <ele>0</ele>
        <time>2013-03-24T13:23:43Z</time>
      </trkpt>
      <trkpt lat="59.4815071893" lon="17.7595729051">
        <ele>0</ele>
        <time>2013-03-24T13:23:44Z</time>
      </trkpt>
      <trkpt lat="59.4815840514" lon="17.7596341768">
        <ele>0</ele>
        <time>2013-03-24T13:23:45Z</time>
      </trkpt>
      <trkpt lat="59.4816625059" lon="17.759692431">
        <ele>0</ele>
        <time>2013-03-24T13:23:46Z</time>
      </trkpt>
      <trkpt lat="59.4817438104" lon="17.7597407946">
        <ele>0</ele>
        <time>2013-03-24T13:23:47Z</time>
      </trkpt>
      <trkpt lat="59.4818272103" lon="17.7597820335">
        <ele>0</ele>
        <time>2013-03-24T13:23:48Z</time>
      </trkpt>
      <trkpt lat="59.481911616" lon="17.7598210932">
        <ele>0</ele>
        <time>2013-03-24T13:23:49Z</time>
      </trkpt>
      <trkpt lat="59.4819978658" lon="17.759860991">
        <ele>0</ele>
        <time>2013-03-24T13:23:50Z</time>
      </trkpt>
      <trkpt lat="59.4820848699" lon="17.7598985419">
        <ele>0</ele>
        <time>2013-03-24T13:23:51Z</time>
      </trkpt>
      <trkpt lat="59.4821742209" lon="17.7599294711">
        <ele>0</ele>
        <time>2013-03-24T13:23:52Z</time>
      </trkpt>
      <trkpt lat="59.4822664218" lon="17.7599583049">
        <ele>0</ele>
        <time>2013-03-24T13:23:53Z</time>
      </trkpt>
      <trkpt lat="59.482354348" lon="17.7599914972">
        <ele>0</ele>
        <time>2013-03-24T13:23:54Z</time>
      </trkpt>
      <trkpt lat="59.482441855" lon="17.7600265336">
        <ele>0</ele>
        <time>2013-03-24T13:23:55Z</time>
      </trkpt>
      <trkpt lat="59.4825272666" lon="17.7600676049">
        <ele>0</ele>
        <time>2013-03-24T13:23:56Z</time>
      </trkpt>
      <trkpt lat="59.4826114208" lon="17.7601204946">
        <ele>0</ele>
        <time>2013-03-24T13:23:57Z</time>
      </trkpt>
      <trkpt lat="59.4826939826" lon="17.7601834427">
        <ele>0</ele>
        <time>2013-03-24T13:23:58Z</time>
      </trkpt>
      <trkpt lat="59.482917444" lon="17.760431547">
        <ele>0</ele>
        <time>2013-03-24T13:24:01Z</time>
      </trkpt>
      <trkpt lat="59.4831590104" lon="17.7608605326">
        <ele>0</ele>
        <time>2013-03-24T13:24:05Z</time>
      </trkpt>
      <trkpt lat="59.4832580844" lon="17.7611259874">
        <ele>0</ele>
        <time>2013-03-24T13:24:07Z</time>
      </trkpt>
      <trkpt lat="59.4833015865" lon="17.7612569127">
        <ele>0</ele>
        <time>2013-03-24T13:24:08Z</time>
      </trkpt>
      <trkpt lat="59.4833421549" lon="17.7613947949">
        <ele>0</ele>
        <time>2013-03-24T13:24:09Z</time>
      </trkpt>
      <trkpt lat="59.4833782809" lon="17.7615339344">
        <ele>0</ele>
        <time>2013-03-24T13:24:10Z</time>
      </trkpt>
      <trkpt lat="59.4835267243" lon="17.7623812607">
        <ele>0</ele>
        <time>2013-03-24T13:24:16Z</time>
      </trkpt>
      <trkpt lat="59.4835358606" lon="17.7627694265">
        <ele>0</ele>
        <time>2013-03-24T13:24:19Z</time>
      </trkpt>
      <trkpt lat="59.4835210246" lon="17.763007221">
        <ele>0</ele>
        <time>2013-03-24T13:24:21Z</time>
      </trkpt>
      <trkpt lat="59.4834588309" lon="17.7635320118">
        <ele>0</ele>
        <time>2013-03-24T13:24:26Z</time>
      </trkpt>
      <trkpt lat="59.4834385467" lon="17.763627314">
        <ele>0</ele>
        <time>2013-03-24T13:24:27Z</time>
      </trkpt>
      <trkpt lat="59.4833991518" lon="17.7638096203">
        <ele>0</ele>
        <time>2013-03-24T13:24:29Z</time>
      </trkpt>
      <trkpt lat="59.4833856569" lon="17.763900983">
        <ele>0</ele>
        <time>2013-03-24T13:24:30Z</time>
      </trkpt>
      <trkpt lat="59.4833720783" lon="17.7639947765">
        <ele>0</ele>
        <time>2013-03-24T13:24:31Z</time>
      </trkpt>
      <trkpt lat="59.4833565717" lon="17.7640806071">
        <ele>0</ele>
        <time>2013-03-24T13:24:32Z</time>
      </trkpt>
      <trkpt lat="59.4833429092" lon="17.7641698744">
        <ele>0</ele>
        <time>2013-03-24T13:24:33Z</time>
      </trkpt>
      <trkpt lat="59.4833315937" lon="17.7642639193">
        <ele>0</ele>
        <time>2013-03-24T13:24:34Z</time>
      </trkpt>
      <trkpt lat="59.4833213678" lon="17.7643594729">
        <ele>0</ele>
        <time>2013-03-24T13:24:35Z</time>
      </trkpt>
      <trkpt lat="59.4833088787" lon="17.7644513386">
        <ele>0</ele>
        <time>2013-03-24T13:24:36Z</time>
      </trkpt>
      <trkpt lat="59.4832980661" lon="17.764543288">
        <ele>0</ele>
        <time>2013-03-24T13:24:37Z</time>
      </trkpt>
      <trkpt lat="59.4832877563" lon="17.7646352374">
        <ele>0</ele>
        <time>2013-03-24T13:24:38Z</time>
      </trkpt>
      <trkpt lat="59.4832232157" lon="17.7651276741">
        <ele>0</ele>
        <time>2013-03-24T13:24:43Z</time>
      </trkpt>
      <trkpt lat="59.4832077092" lon="17.7652258261">
        <ele>0</ele>
        <time>2013-03-24T13:24:44Z</time>
      </trkpt>
      <trkpt lat="59.4831890176" lon="17.7653195358">
        <ele>0</ele>
        <time>2013-03-24T13:24:45Z</time>
      </trkpt>
      <trkpt lat="59.4831734272" lon="17.7654169334">
        <ele>0</ele>
        <time>2013-03-24T13:24:46Z</time>
      </trkpt>
      <trkpt lat="59.4831603515" lon="17.7655062007">
        <ele>0</ele>
        <time>2013-03-24T13:24:47Z</time>
      </trkpt>
      <trkpt lat="59.4831367145" lon="17.7656631937">
        <ele>0</ele>
        <time>2013-03-24T13:24:49Z</time>
      </trkpt>
      <trkpt lat="59.4831276621" lon="17.7657315061">
        <ele>0</ele>
        <time>2013-03-24T13:24:50Z</time>
      </trkpt>
      <trkpt lat="59.4831196993" lon="17.7657951248">
        <ele>0</ele>
        <time>2013-03-24T13:24:51Z</time>
      </trkpt>
      <trkpt lat="59.483110563" lon="17.765857067">
        <ele>0</ele>
        <time>2013-03-24T13:24:52Z</time>
      </trkpt>
      <trkpt lat="59.4831020973" lon="17.7659182549">
        <ele>0</ele>
        <time>2013-03-24T13:24:53Z</time>
      </trkpt>
      <trkpt lat="59.4830598525" lon="17.7662514354">
        <ele>0</ele>
        <time>2013-03-24T13:24:58Z</time>
      </trkpt>
      <trkpt lat="59.4830510515" lon="17.7663188259">
        <ele>0</ele>
        <time>2013-03-24T13:24:59Z</time>
      </trkpt>
      <trkpt lat="59.4830430887" lon="17.76638915">
        <ele>0</ele>
        <time>2013-03-24T13:25:00Z</time>
      </trkpt>
      <trkpt lat="59.4830357126" lon="17.7664572949">
        <ele>0</ele>
        <time>2013-03-24T13:25:01Z</time>
      </trkpt>
      <trkpt lat="59.4830286718" lon="17.766527619">
        <ele>0</ele>
        <time>2013-03-24T13:25:02Z</time>
      </trkpt>
      <trkpt lat="59.4830061245" lon="17.7667349872">
        <ele>0</ele>
        <time>2013-03-24T13:25:05Z</time>
      </trkpt>
      <trkpt lat="59.4829989161" lon="17.7668031321">
        <ele>0</ele>
        <time>2013-03-24T13:25:06Z</time>
      </trkpt>
      <trkpt lat="59.4829927973" lon="17.7668711093">
        <ele>0</ele>
        <time>2013-03-24T13:25:07Z</time>
      </trkpt>
      <trkpt lat="59.4829826552" lon="17.7669374101">
        <ele>0</ele>
        <time>2013-03-24T13:25:08Z</time>
      </trkpt>
      <trkpt lat="59.4829718425" lon="17.7670084048">
        <ele>0</ele>
        <time>2013-03-24T13:25:09Z</time>
      </trkpt>
      <trkpt lat="59.482958683" lon="17.7670780584">
        <ele>0</ele>
        <time>2013-03-24T13:25:10Z</time>
      </trkpt>
      <trkpt lat="59.4829124987" lon="17.7674384801">
        <ele>0</ele>
        <time>2013-03-24T13:25:15Z</time>
      </trkpt>
      <trkpt lat="59.4829019375" lon="17.7675069602">
        <ele>0</ele>
        <time>2013-03-24T13:25:16Z</time>
      </trkpt>
      <trkpt lat="59.4828922983" lon="17.7675784578">
        <ele>0</ele>
        <time>2013-03-24T13:25:17Z</time>
      </trkpt>
      <trkpt lat="59.4828846708" lon="17.7676429984">
        <ele>0</ele>
        <time>2013-03-24T13:25:18Z</time>
      </trkpt>
      <trkpt lat="59.4828800607" lon="17.767701085">
        <ele>0.4</ele>
        <time>2013-03-24T13:25:19Z</time>
      </trkpt>
      <trkpt lat="59.4828762889" lon="17.7677584172">
        <ele>1</ele>
        <time>2013-03-24T13:25:20Z</time>
      </trkpt>
      <trkpt lat="59.4828719303" lon="17.7678189345">
        <ele>1</ele>
        <time>2013-03-24T13:25:21Z</time>
      </trkpt>
      <trkpt lat="59.4828378998" lon="17.7681068528">
        <ele>1.4</ele>
        <time>2013-03-24T13:25:26Z</time>
      </trkpt>
      <trkpt lat="59.4828295179" lon="17.7681641012">
        <ele>1.8</ele>
        <time>2013-03-24T13:25:27Z</time>
      </trkpt>
      <trkpt lat="59.4828222256" lon="17.7682178291">
        <ele>2.2</ele>
        <time>2013-03-24T13:25:28Z</time>
      </trkpt>
      <trkpt lat="59.4828171965" lon="17.768273485">
        <ele>2.6</ele>
        <time>2013-03-24T13:25:29Z</time>
      </trkpt>
      <trkpt lat="59.482812335" lon="17.7683329965">
        <ele>3</ele>
        <time>2013-03-24T13:25:30Z</time>
      </trkpt>
      <trkpt lat="59.4827682462" lon="17.7685546977">
        <ele>3</ele>
        <time>2013-03-24T13:25:34Z</time>
      </trkpt>
      <trkpt lat="59.4827533264" lon="17.768605492">
        <ele>3.4</ele>
        <time>2013-03-24T13:25:35Z</time>
      </trkpt>
      <trkpt lat="59.4827444416" lon="17.7686560349">
        <ele>3.8</ele>
        <time>2013-03-24T13:25:36Z</time>
      </trkpt>
      <trkpt lat="59.4827396639" lon="17.7687105172">
        <ele>4.2</ele>
        <time>2013-03-24T13:25:37Z</time>
      </trkpt>
      <trkpt lat="59.482736395" lon="17.7687621497">
        <ele>4.6</ele>
        <time>2013-03-24T13:25:38Z</time>
      </trkpt>
      <trkpt lat="59.4827322878" lon="17.7688158777">
        <ele>5</ele>
        <time>2013-03-24T13:25:39Z</time>
      </trkpt>
      <trkpt lat="59.4827117522" lon="17.7691970027">
        <ele>5</ele>
        <time>2013-03-24T13:25:45Z</time>
      </trkpt>
      <trkpt lat="59.4827004366" lon="17.7693338791">
        <ele>6</ele>
        <time>2013-03-24T13:25:47Z</time>
      </trkpt>
      <trkpt lat="59.4826890372" lon="17.7694114117">
        <ele>6.4</ele>
        <time>2013-03-24T13:25:48Z</time>
      </trkpt>
      <trkpt lat="59.482677554" lon="17.7694855915">
        <ele>6.8</ele>
        <time>2013-03-24T13:25:49Z</time>
      </trkpt>
      <trkpt lat="59.4826667414" lon="17.7695596875">
        <ele>7.2</ele>
        <time>2013-03-24T13:25:50Z</time>
      </trkpt>
      <trkpt lat="59.4826570184" lon="17.7696357952">
        <ele>7.2</ele>
        <time>2013-03-24T13:25:51Z</time>
      </trkpt>
      <trkpt lat="59.4826274303" lon="17.7698686443">
        <ele>7.6</ele>
        <time>2013-03-24T13:25:54Z</time>
      </trkpt>
      <trkpt lat="59.4826190484" lon="17.7699515413">
        <ele>8</ele>
        <time>2013-03-24T13:25:55Z</time>
      </trkpt>
      <trkpt lat="59.4826094092" lon="17.7700384616">
        <ele>8.4</ele>
        <time>2013-03-24T13:25:56Z</time>
      </trkpt>
      <trkpt lat="59.4826009435" lon="17.7701283156">
        <ele>8.8</ele>
        <time>2013-03-24T13:25:57Z</time>
      </trkpt>
      <trkpt lat="59.4825912205" lon="17.7702171638">
        <ele>9.4</ele>
        <time>2013-03-24T13:25:58Z</time>
      </trkpt>
      <trkpt lat="59.4825728641" lon="17.7703847179">
        <ele>9.4</ele>
        <time>2013-03-24T13:26:00Z</time>
      </trkpt>
      <trkpt lat="59.4824801603" lon="17.7710981853">
        <ele>9.4</ele>
        <time>2013-03-24T13:26:08Z</time>
      </trkpt>
      <trkpt lat="59.4824440343" lon="17.7713663222">
        <ele>10.2</ele>
        <time>2013-03-24T13:26:11Z</time>
      </trkpt>
      <trkpt lat="59.482433054" lon="17.7714527396">
        <ele>10.6</ele>
        <time>2013-03-24T13:26:12Z</time>
      </trkpt>
      <trkpt lat="59.4824217384" lon="17.7715344632">
        <ele>11</ele>
        <time>2013-03-24T13:26:13Z</time>
      </trkpt>
      <trkpt lat="59.4824141109" lon="17.7716176116">
        <ele>11.4</ele>
        <time>2013-03-24T13:26:14Z</time>
      </trkpt>
      <trkpt lat="59.4824068187" lon="17.7716975749">
        <ele>11.4</ele>
        <time>2013-03-24T13:26:15Z</time>
      </trkpt>
      <trkpt lat="59.4823291184" lon="17.772373659">
        <ele>11.4</ele>
        <time>2013-03-24T13:26:23Z</time>
      </trkpt>
      <trkpt lat="59.4822722892" lon="17.7728251919">
        <ele>11.4</ele>
        <time>2013-03-24T13:26:28Z</time>
      </trkpt>
      <trkpt lat="59.4822145379" lon="17.773255351">
        <ele>12</ele>
        <time>2013-03-24T13:26:32Z</time>
      </trkpt>
      <trkpt lat="59.4822006239" lon="17.7733619688">
        <ele>12.4</ele>
        <time>2013-03-24T13:26:33Z</time>
      </trkpt>
      <trkpt lat="59.4821867938" lon="17.7734607076">
        <ele>13</ele>
        <time>2013-03-24T13:26:34Z</time>
      </trkpt>
      <trkpt lat="59.4821732989" lon="17.7735594464">
        <ele>14</ele>
        <time>2013-03-24T13:26:35Z</time>
      </trkpt>
      <trkpt lat="59.4821045673" lon="17.7741618535">
        <ele>14</ele>
        <time>2013-03-24T13:26:41Z</time>
      </trkpt>
      <trkpt lat="59.4819938424" lon="17.7750280391">
        <ele>14</ele>
        <time>2013-03-24T13:26:49Z</time>
      </trkpt>
      <trkpt lat="59.4818785913" lon="17.7759148441">
        <ele>14</ele>
        <time>2013-03-24T13:26:56Z</time>
      </trkpt>
      <trkpt lat="59.4818387773" lon="17.7761859986">
        <ele>13.4</ele>
        <time>2013-03-24T13:26:58Z</time>
      </trkpt>
      <trkpt lat="59.4818183255" lon="17.7763175106">
        <ele>13</ele>
        <time>2013-03-24T13:26:59Z</time>
      </trkpt>
      <trkpt lat="59.4817954429" lon="17.7764505313">
        <ele>12.2</ele>
        <time>2013-03-24T13:27:00Z</time>
      </trkpt>
      <trkpt lat="59.4817691237" lon="17.7765858152">
        <ele>11.8</ele>
        <time>2013-03-24T13:27:01Z</time>
      </trkpt>
      <trkpt lat="59.4817400385" lon="17.7767237813">
        <ele>11.2</ele>
        <time>2013-03-24T13:27:02Z</time>
      </trkpt>
      <trkpt lat="59.4817091093" lon="17.7768691234">
        <ele>10.6</ele>
        <time>2013-03-24T13:27:03Z</time>
      </trkpt>
      <trkpt lat="59.4816744082" lon="17.7770220093">
        <ele>10.2</ele>
        <time>2013-03-24T13:27:04Z</time>
      </trkpt>
      <trkpt lat="59.4816402101" lon="17.7771687763">
        <ele>9.6</ele>
        <time>2013-03-24T13:27:05Z</time>
      </trkpt>
      <trkpt lat="59.4816055928" lon="17.7773176389">
        <ele>9.2</ele>
        <time>2013-03-24T13:27:06Z</time>
      </trkpt>
      <trkpt lat="59.4815697183" lon="17.7774686807">
        <ele>8.6</ele>
        <time>2013-03-24T13:27:07Z</time>
      </trkpt>
      <trkpt lat="59.4815339276" lon="17.7776201417">
        <ele>8.2</ele>
        <time>2013-03-24T13:27:08Z</time>
      </trkpt>
      <trkpt lat="59.4814979692" lon="17.7777708482">
        <ele>7.6</ele>
        <time>2013-03-24T13:27:09Z</time>
      </trkpt>
      <trkpt lat="59.4814222807" lon="17.7780872649">
        <ele>7.6</ele>
        <time>2013-03-24T13:27:11Z</time>
      </trkpt>
      <trkpt lat="59.481308203" lon="17.77855355">
        <ele>7.2</ele>
        <time>2013-03-24T13:27:14Z</time>
      </trkpt>
      <trkpt lat="59.4812681375" lon="17.7787039213">
        <ele>6.8</ele>
        <time>2013-03-24T13:27:15Z</time>
      </trkpt>
      <trkpt lat="59.4812268148" lon="17.7788563881">
        <ele>6.2</ele>
        <time>2013-03-24T13:27:16Z</time>
      </trkpt>
      <trkpt lat="59.4811876713" lon="17.77901204">
        <ele>5.8</ele>
        <time>2013-03-24T13:27:17Z</time>
      </trkpt>
      <trkpt lat="59.4811499528" lon="17.7791676918">
        <ele>5.4</ele>
        <time>2013-03-24T13:27:18Z</time>
      </trkpt>
      <trkpt lat="59.4810707438" lon="17.7794919876">
        <ele>5</ele>
        <time>2013-03-24T13:27:20Z</time>
      </trkpt>
      <trkpt lat="59.4810310974" lon="17.7796462145">
        <ele>4.4</ele>
        <time>2013-03-24T13:27:21Z</time>
      </trkpt>
      <trkpt lat="59.4809948038" lon="17.7798003577">
        <ele>4</ele>
        <time>2013-03-24T13:27:22Z</time>
      </trkpt>
      <trkpt lat="59.4809581749" lon="17.7799507289">
        <ele>3.6</ele>
        <time>2013-03-24T13:27:23Z</time>
      </trkpt>
      <trkpt lat="59.4809207916" lon="17.7801008488">
        <ele>2.6</ele>
        <time>2013-03-24T13:27:24Z</time>
      </trkpt>
      <trkpt lat="59.4808837436" lon="17.780254489">
        <ele>2.2</ele>
        <time>2013-03-24T13:27:25Z</time>
      </trkpt>
      <trkpt lat="59.4808482882" lon="17.7804083807">
        <ele>1.6</ele>
        <time>2013-03-24T13:27:26Z</time>
      </trkpt>
      <trkpt lat="59.4808128327" lon="17.7805715763">
        <ele>1.2</ele>
        <time>2013-03-24T13:27:27Z</time>
      </trkpt>
      <trkpt lat="59.48077612" lon="17.7807250489">
        <ele>0.6</ele>
        <time>2013-03-24T13:27:28Z</time>
      </trkpt>
      <trkpt lat="59.4806275089" lon="17.7813106922">
        <ele>0.6</ele>
        <time>2013-03-24T13:27:32Z</time>
      </trkpt>
      <trkpt lat="59.4804847652" lon="17.781881332">
        <ele>0.2</ele>
        <time>2013-03-24T13:27:36Z</time>
      </trkpt>
      <trkpt lat="59.4804481363" lon="17.7820229861">
        <ele>0</ele>
        <time>2013-03-24T13:27:37Z</time>
      </trkpt>
      <trkpt lat="59.4804106692" lon="17.7821648078">
        <ele>0</ele>
        <time>2013-03-24T13:27:38Z</time>
      </trkpt>
      <trkpt lat="59.4803737888" lon="17.7822996726">
        <ele>0</ele>
        <time>2013-03-24T13:27:39Z</time>
      </trkpt>
      <trkpt lat="59.4803344777" lon="17.7824346212">
        <ele>0</ele>
        <time>2013-03-24T13:27:40Z</time>
      </trkpt>
      <trkpt lat="59.4802198133" lon="17.7828206077">
        <ele>0</ele>
        <time>2013-03-24T13:27:43Z</time>
      </trkpt>
      <trkpt lat="59.4801831006" lon="17.782937619">
        <ele>0</ele>
        <time>2013-03-24T13:27:44Z</time>
      </trkpt>
      <trkpt lat="59.4801438733" lon="17.7830531216">
        <ele>0</ele>
        <time>2013-03-24T13:27:45Z</time>
      </trkpt>
      <trkpt lat="59.480102802" lon="17.7831613319">
        <ele>0</ele>
        <time>2013-03-24T13:27:46Z</time>
      </trkpt>
      <trkpt lat="59.4800596352" lon="17.7832686202">
        <ele>0</ele>
        <time>2013-03-24T13:27:47Z</time>
      </trkpt>
      <trkpt lat="59.4799698651" lon="17.7834785868">
        <ele>0</ele>
        <time>2013-03-24T13:27:49Z</time>
      </trkpt>
      <trkpt lat="59.4798168954" lon="17.783804978">
        <ele>0</ele>
        <time>2013-03-24T13:27:52Z</time>
      </trkpt>
      <trkpt lat="59.4797634189" lon="17.7839081592">
        <ele>0</ele>
        <time>2013-03-24T13:27:53Z</time>
      </trkpt>
      <trkpt lat="59.479711032" lon="17.7840115919">
        <ele>0</ele>
        <time>2013-03-24T13:27:54Z</time>
      </trkpt>
      <trkpt lat="59.479651269" lon="17.7841246637">
        <ele>0</ele>
        <time>2013-03-24T13:27:55Z</time>
      </trkpt>
      <trkpt lat="59.4795894106" lon="17.7842291022">
        <ele>0</ele>
        <time>2013-03-24T13:27:56Z</time>
      </trkpt>
      <trkpt lat="59.4795249538" lon="17.7843295173">
        <ele>0</ele>
        <time>2013-03-24T13:27:57Z</time>
      </trkpt>
      <trkpt lat="59.4794609161" lon="17.7844292619">
        <ele>0</ele>
        <time>2013-03-24T13:27:58Z</time>
      </trkpt>
      <trkpt lat="59.4793952858" lon="17.78452557">
        <ele>0</ele>
        <time>2013-03-24T13:27:59Z</time>
      </trkpt>
      <trkpt lat="59.4793262189" lon="17.7846242249">
        <ele>0</ele>
        <time>2013-03-24T13:28:00Z</time>
      </trkpt>
      <trkpt lat="59.4792564815" lon="17.7847215388">
        <ele>0</ele>
        <time>2013-03-24T13:28:01Z</time>
      </trkpt>
      <trkpt lat="59.4791855707" lon="17.784817763">
        <ele>0</ele>
        <time>2013-03-24T13:28:02Z</time>
      </trkpt>
      <trkpt lat="59.4791132349" lon="17.7849095448">
        <ele>0</ele>
        <time>2013-03-24T13:28:03Z</time>
      </trkpt>
      <trkpt lat="59.4790387198" lon="17.7849980577">
        <ele>0</ele>
        <time>2013-03-24T13:28:04Z</time>
      </trkpt>
      <trkpt lat="59.4788743507" lon="17.7851732394">
        <ele>0</ele>
        <time>2013-03-24T13:28:05Z</time>
      </trkpt>
      <trkpt lat="59.4787895259" lon="17.7852563878">
        <ele>0</ele>
        <time>2013-03-24T13:28:07Z</time>
      </trkpt>
      <trkpt lat="59.4787067127" lon="17.7853330822">
        <ele>0</ele>
        <time>2013-03-24T13:28:08Z</time>
      </trkpt>
      <trkpt lat="59.4786262465" lon="17.7854005565">
        <ele>0</ele>
        <time>2013-03-24T13:28:09Z</time>
      </trkpt>
      <trkpt lat="59.4785452773" lon="17.7854606547">
        <ele>0</ele>
        <time>2013-03-24T13:28:10Z</time>
      </trkpt>
      <trkpt lat="59.4779753919" lon="17.7858177237">
        <ele>0</ele>
        <time>2013-03-24T13:28:17Z</time>
      </trkpt>
      <trkpt lat="59.4776454804" lon="17.7859659157">
        <ele>0</ele>
        <time>2013-03-24T13:28:21Z</time>
      </trkpt>
      <trkpt lat="59.4775650979" lon="17.7859920672">
        <ele>0</ele>
        <time>2013-03-24T13:28:22Z</time>
      </trkpt>
      <trkpt lat="59.4774865595" lon="17.786012519">
        <ele>0</ele>
        <time>2013-03-24T13:28:23Z</time>
      </trkpt>
      <trkpt lat="59.4774063448" lon="17.7860372456">
        <ele>0</ele>
        <time>2013-03-24T13:28:24Z</time>
      </trkpt>
      <trkpt lat="59.4773256271" lon="17.7860648221">
        <ele>0</ele>
        <time>2013-03-24T13:28:25Z</time>
      </trkpt>
      <trkpt lat="59.4768181868" lon="17.7862125112">
        <ele>0</ele>
        <time>2013-03-24T13:28:31Z</time>
      </trkpt>
      <trkpt lat="59.4763079806" lon="17.7863480465">
        <ele>0</ele>
        <time>2013-03-24T13:28:37Z</time>
      </trkpt>
      <trkpt lat="59.4762239939" lon="17.786361709">
        <ele>0</ele>
        <time>2013-03-24T13:28:38Z</time>
      </trkpt>
      <trkpt lat="59.4756260292" lon="17.7865644671">
        <ele>0</ele>
        <time>2013-03-24T13:28:45Z</time>
      </trkpt>
      <trkpt lat="59.4750654477" lon="17.7867937121">
        <ele>0</ele>
        <time>2013-03-24T13:28:52Z</time>
      </trkpt>
      <trkpt lat="59.4745038604" lon="17.7871435726">
        <ele>0</ele>
        <time>2013-03-24T13:29:00Z</time>
      </trkpt>
      <trkpt lat="59.4743090651" lon="17.7872949497">
        <ele>0</ele>
        <time>2013-03-24T13:29:03Z</time>
      </trkpt>
      <trkpt lat="59.474195658" lon="17.7873782658">
        <ele>0</ele>
        <time>2013-03-24T13:29:05Z</time>
      </trkpt>
      <trkpt lat="59.4740563508" lon="17.7875165672">
        <ele>0</ele>
        <time>2013-03-24T13:29:08Z</time>
      </trkpt>
      <trkpt lat="59.4740137707" lon="17.7875670262">
        <ele>0</ele>
        <time>2013-03-24T13:29:09Z</time>
      </trkpt>
      <trkpt lat="59.473970101" lon="17.7876117017">
        <ele>0</ele>
        <time>2013-03-24T13:29:10Z</time>
      </trkpt>
      <trkpt lat="59.4739265152" lon="17.7876633342">
        <ele>0</ele>
        <time>2013-03-24T13:29:11Z</time>
      </trkpt>
      <trkpt lat="59.4738850247" lon="17.7877242706">
        <ele>0</ele>
        <time>2013-03-24T13:29:12Z</time>
      </trkpt>
      <trkpt lat="59.4738416065" lon="17.7877825248">
        <ele>0</ele>
        <time>2013-03-24T13:29:13Z</time>
      </trkpt>
      <trkpt lat="59.4737996132" lon="17.7878470655">
        <ele>0</ele>
        <time>2013-03-24T13:29:14Z</time>
      </trkpt>
      <trkpt lat="59.4737593801" lon="17.7879206586">
        <ele>0</ele>
        <time>2013-03-24T13:29:15Z</time>
      </trkpt>
      <trkpt lat="59.4737155427" lon="17.7880069083">
        <ele>0</ele>
        <time>2013-03-24T13:29:16Z</time>
      </trkpt>
      <trkpt lat="59.4736776565" lon="17.7880978519">
        <ele>0</ele>
        <time>2013-03-24T13:29:17Z</time>
      </trkpt>
      <trkpt lat="59.4736492419" lon="17.7881851913">
        <ele>0</ele>
        <time>2013-03-24T13:29:18Z</time>
      </trkpt>
      <trkpt lat="59.4736282033" lon="17.7882697647">
        <ele>0</ele>
        <time>2013-03-24T13:29:19Z</time>
      </trkpt>
      <trkpt lat="59.4736077515" lon="17.7883559306">
        <ele>0</ele>
        <time>2013-03-24T13:29:20Z</time>
      </trkpt>
      <trkpt lat="59.4735904848" lon="17.7884508976">
        <ele>0</ele>
        <time>2013-03-24T13:29:21Z</time>
      </trkpt>
      <trkpt lat="59.4735763194" lon="17.7885448587">
        <ele>0</ele>
        <time>2013-03-24T13:29:22Z</time>
      </trkpt>
      <trkpt lat="59.4734640857" lon="17.7891723277">
        <ele>0</ele>
        <time>2013-03-24T13:29:28Z</time>
      </trkpt>
      <trkpt lat="59.4733977011" lon="17.7895201765">
        <ele>0</ele>
        <time>2013-03-24T13:29:31Z</time>
      </trkpt>
      <trkpt lat="59.4733257006" lon="17.7897555403">
        <ele>0</ele>
        <time>2013-03-24T13:29:33Z</time>
      </trkpt>
      <trkpt lat="59.47328706" lon="17.7898767426">
        <ele>0</ele>
        <time>2013-03-24T13:29:34Z</time>
      </trkpt>
      <trkpt lat="59.473250934" lon="17.7900023034">
        <ele>0</ele>
        <time>2013-03-24T13:29:35Z</time>
      </trkpt>
      <trkpt lat="59.4732125449" lon="17.7901333125">
        <ele>0</ele>
        <time>2013-03-24T13:29:36Z</time>
      </trkpt>
      <trkpt lat="59.4731684561" lon="17.7902755534">
        <ele>0</ele>
        <time>2013-03-24T13:29:37Z</time>
      </trkpt>
      <trkpt lat="59.4731270495" lon="17.7904117592">
        <ele>0</ele>
        <time>2013-03-24T13:29:38Z</time>
      </trkpt>
      <trkpt lat="59.4730863135" lon="17.7905520722">
        <ele>0</ele>
        <time>2013-03-24T13:29:39Z</time>
      </trkpt>
      <trkpt lat="59.4730459127" lon="17.7906998451">
        <ele>0</ele>
        <time>2013-03-24T13:29:40Z</time>
      </trkpt>
      <trkpt lat="59.4730079427" lon="17.7908503002">
        <ele>0</ele>
        <time>2013-03-24T13:29:41Z</time>
      </trkpt>
      <trkpt lat="59.4729093716" lon="17.791330164">
        <ele>0</ele>
        <time>2013-03-24T13:29:44Z</time>
      </trkpt>
      <trkpt lat="59.472877688" lon="17.7915057648">
        <ele>0</ele>
        <time>2013-03-24T13:29:45Z</time>
      </trkpt>
      <trkpt lat="59.4728488543" lon="17.7916728999">
        <ele>0</ele>
        <time>2013-03-24T13:29:46Z</time>
      </trkpt>
      <trkpt lat="59.4728210264" lon="17.7918360117">
        <ele>0</ele>
        <time>2013-03-24T13:29:47Z</time>
      </trkpt>
      <trkpt lat="59.472792947" lon="17.7919930047">
        <ele>0</ele>
        <time>2013-03-24T13:29:48Z</time>
      </trkpt>
      <trkpt lat="59.4727661249" lon="17.7921418672">
        <ele>0</ele>
        <time>2013-03-24T13:29:49Z</time>
      </trkpt>
      <trkpt lat="59.4727408954" lon="17.7922841919">
        <ele>0</ele>
        <time>2013-03-24T13:29:50Z</time>
      </trkpt>
      <trkpt lat="59.4725587567" lon="17.7933948775">
        <ele>0</ele>
        <time>2013-03-24T13:29:58Z</time>
      </trkpt>
      <trkpt lat="59.4723825692" lon="17.7942701154">
        <ele>0</ele>
        <time>2013-03-24T13:30:05Z</time>
      </trkpt>
      <trkpt lat="59.4723427551" lon="17.7943959278">
        <ele>0</ele>
        <time>2013-03-24T13:30:06Z</time>
      </trkpt>
      <trkpt lat="59.4721919648" lon="17.7946822535">
        <ele>0</ele>
        <time>2013-03-24T13:30:09Z</time>
      </trkpt>
      <trkpt lat="59.4719441958" lon="17.7949023622">
        <ele>0</ele>
        <time>2013-03-24T13:30:13Z</time>
      </trkpt>
      <trkpt lat="59.4715240112" lon="17.7951989976">
        <ele>0</ele>
        <time>2013-03-24T13:30:20Z</time>
      </trkpt>
      <trkpt lat="59.4711789283" lon="17.7955934498">
        <ele>0</ele>
        <time>2013-03-24T13:30:26Z</time>
      </trkpt>
      <trkpt lat="59.4708309118" lon="17.7959518599">
        <ele>0</ele>
        <time>2013-03-24T13:30:32Z</time>
      </trkpt>
      <trkpt lat="59.4703360445" lon="17.7963298836">
        <ele>0</ele>
        <time>2013-03-24T13:30:40Z</time>
      </trkpt>
      <trkpt lat="59.4702179435" lon="17.7964349088">
        <ele>0</ele>
        <time>2013-03-24T13:30:42Z</time>
      </trkpt>
      <trkpt lat="59.4699448612" lon="17.7967504035">
        <ele>0</ele>
        <time>2013-03-24T13:30:47Z</time>
      </trkpt>
      <trkpt lat="59.4696306238" lon="17.7971448557">
        <ele>0</ele>
        <time>2013-03-24T13:30:53Z</time>
      </trkpt>
      <trkpt lat="59.469318398" lon="17.797513324">
        <ele>0</ele>
        <time>2013-03-24T13:30:59Z</time>
      </trkpt>
      <trkpt lat="59.4690033224" lon="17.7980047548">
        <ele>0</ele>
        <time>2013-03-24T13:31:05Z</time>
      </trkpt>
      <trkpt lat="59.4689648494" lon="17.79810978">
        <ele>0</ele>
        <time>2013-03-24T13:31:06Z</time>
      </trkpt>
      <trkpt lat="59.4688863949" lon="17.7984516777">
        <ele>0</ele>
        <time>2013-03-24T13:31:09Z</time>
      </trkpt>
      <trkpt lat="59.4688615844" lon="17.7990103314">
        <ele>0</ele>
        <time>2013-03-24T13:31:13Z</time>
      </trkpt>
      <trkpt lat="59.4689512708" lon="17.7995937116">
        <ele>0</ele>
        <time>2013-03-24T13:31:17Z</time>
      </trkpt>
      <trkpt lat="59.4690922543" lon="17.7999436559">
        <ele>0</ele>
        <time>2013-03-24T13:31:20Z</time>
      </trkpt>
      <trkpt lat="59.4693675159" lon="17.8005212526">
        <ele>0</ele>
        <time>2013-03-24T13:31:26Z</time>
      </trkpt>
      <trkpt lat="59.46954714" lon="17.8009188062">
        <ele>0</ele>
        <time>2013-03-24T13:31:31Z</time>
      </trkpt>
      <trkpt lat="59.4695877923" lon="17.8009980989">
        <ele>0</ele>
        <time>2013-03-24T13:31:32Z</time>
      </trkpt>
      <trkpt lat="59.4696635646" lon="17.801157858">
        <ele>0</ele>
        <time>2013-03-24T13:31:34Z</time>
      </trkpt>
      <trkpt lat="59.469698601" lon="17.8012379889">
        <ele>0</ele>
        <time>2013-03-24T13:31:35Z</time>
      </trkpt>
      <trkpt lat="59.4697335535" lon="17.8013172817">
        <ele>0</ele>
        <time>2013-03-24T13:31:36Z</time>
      </trkpt>
      <trkpt lat="59.4697676678" lon="17.8013970774">
        <ele>0</ele>
        <time>2013-03-24T13:31:37Z</time>
      </trkpt>
      <trkpt lat="59.4697997705" lon="17.8014721792">
        <ele>0</ele>
        <time>2013-03-24T13:31:38Z</time>
      </trkpt>
      <trkpt lat="59.4699078132" lon="17.8017772804">
        <ele>0</ele>
        <time>2013-03-24T13:31:42Z</time>
      </trkpt>
      <trkpt lat="59.4699277621" lon="17.8018553997">
        <ele>0</ele>
        <time>2013-03-24T13:31:43Z</time>
      </trkpt>
      <trkpt lat="59.4699445259" lon="17.8019338543">
        <ele>0</ele>
        <time>2013-03-24T13:31:44Z</time>
      </trkpt>
      <trkpt lat="59.4699603677" lon="17.802014572">
        <ele>0</ele>
        <time>2013-03-24T13:31:45Z</time>
      </trkpt>
      <trkpt lat="59.4699748684" lon="17.8020965469">
        <ele>0</ele>
        <time>2013-03-24T13:31:46Z</time>
      </trkpt>
      <trkpt lat="59.469987106" lon="17.80218682">
        <ele>0</ele>
        <time>2013-03-24T13:31:47Z</time>
      </trkpt>
      <trkpt lat="59.4699955717" lon="17.8022753329">
        <ele>0</ele>
        <time>2013-03-24T13:31:48Z</time>
      </trkpt>
      <trkpt lat="59.4700076416" lon="17.8024474133">
        <ele>0</ele>
        <time>2013-03-24T13:31:50Z</time>
      </trkpt>
      <trkpt lat="59.4700099886" lon="17.8025381054">
        <ele>0</ele>
        <time>2013-03-24T13:31:51Z</time>
      </trkpt>
      <trkpt lat="59.470008396" lon="17.802630474">
        <ele>0</ele>
        <time>2013-03-24T13:31:52Z</time>
      </trkpt>
      <trkpt lat="59.4700045403" lon="17.8027245189">
        <ele>0</ele>
        <time>2013-03-24T13:31:53Z</time>
      </trkpt>
      <trkpt lat="59.4699988406" lon="17.8028235091">
        <ele>0</ele>
        <time>2013-03-24T13:31:54Z</time>
      </trkpt>
      <trkpt lat="59.4699796461" lon="17.8030149517">
        <ele>0</ele>
        <time>2013-03-24T13:31:56Z</time>
      </trkpt>
      <trkpt lat="59.469965313" lon="17.8031138581">
        <ele>0</ele>
        <time>2013-03-24T13:31:57Z</time>
      </trkpt>
      <trkpt lat="59.4699485492" lon="17.8032086574">
        <ele>0</ele>
        <time>2013-03-24T13:31:58Z</time>
      </trkpt>
      <trkpt lat="59.4699314502" lon="17.8032996849">
        <ele>0</ele>
        <time>2013-03-24T13:31:59Z</time>
      </trkpt>
      <trkpt lat="59.4699144349" lon="17.8033878624">
        <ele>0</ele>
        <time>2013-03-24T13:32:00Z</time>
      </trkpt>
      <trkpt lat="59.4698783927" lon="17.8035700011">
        <ele>0</ele>
        <time>2013-03-24T13:32:02Z</time>
      </trkpt>
      <trkpt lat="59.4698599525" lon="17.8036544069">
        <ele>0</ele>
        <time>2013-03-24T13:32:03Z</time>
      </trkpt>
      <trkpt lat="59.4698400874" lon="17.8037382259">
        <ele>0</ele>
        <time>2013-03-24T13:32:04Z</time>
      </trkpt>
      <trkpt lat="59.4698246647" lon="17.8038183568">
        <ele>0</ele>
        <time>2013-03-24T13:32:05Z</time>
      </trkpt>
      <trkpt lat="59.469807398" lon="17.8039041875">
        <ele>0</ele>
        <time>2013-03-24T13:32:06Z</time>
      </trkpt>
      <trkpt lat="59.4697395046" lon="17.8041818798">
        <ele>0</ele>
        <time>2013-03-24T13:32:09Z</time>
      </trkpt>
      <trkpt lat="59.4696724494" lon="17.8044558003">
        <ele>0</ele>
        <time>2013-03-24T13:32:12Z</time>
      </trkpt>
      <trkpt lat="59.469627271" lon="17.8046469915">
        <ele>0</ele>
        <time>2013-03-24T13:32:14Z</time>
      </trkpt>
      <trkpt lat="59.4696000298" lon="17.8047438024">
        <ele>0</ele>
        <time>2013-03-24T13:32:15Z</time>
      </trkpt>
      <trkpt lat="59.4695731239" lon="17.8048432956">
        <ele>0</ele>
        <time>2013-03-24T13:32:16Z</time>
      </trkpt>
      <trkpt lat="59.4695469724" lon="17.8049465606">
        <ele>0</ele>
        <time>2013-03-24T13:32:17Z</time>
      </trkpt>
      <trkpt lat="59.4695229163" lon="17.8050458861">
        <ele>0</ele>
        <time>2013-03-24T13:32:18Z</time>
      </trkpt>
      <trkpt lat="59.469500369" lon="17.8051404339">
        <ele>0</ele>
        <time>2013-03-24T13:32:19Z</time>
      </trkpt>
      <trkpt lat="59.4694787437" lon="17.8052328863">
        <ele>0</ele>
        <time>2013-03-24T13:32:20Z</time>
      </trkpt>
      <trkpt lat="59.4694580404" lon="17.8053222373">
        <ele>0</ele>
        <time>2013-03-24T13:32:21Z</time>
      </trkpt>
      <trkpt lat="59.4694406899" lon="17.8054110017">
        <ele>0</ele>
        <time>2013-03-24T13:32:22Z</time>
      </trkpt>
      <trkpt lat="59.4693983613" lon="17.8055958225">
        <ele>0</ele>
        <time>2013-03-24T13:32:24Z</time>
      </trkpt>
      <trkpt lat="59.4693532667" lon="17.8058050348">
        <ele>0</ele>
        <time>2013-03-24T13:32:26Z</time>
      </trkpt>
      <trkpt lat="59.4693289592" lon="17.8059103953">
        <ele>0</ele>
        <time>2013-03-24T13:32:27Z</time>
      </trkpt>
      <trkpt lat="59.4693038973" lon="17.8060025962">
        <ele>0</ele>
        <time>2013-03-24T13:32:28Z</time>
      </trkpt>
      <trkpt lat="59.4692796736" lon="17.8060927016">
        <ele>0</ele>
        <time>2013-03-24T13:32:29Z</time>
      </trkpt>
      <trkpt lat="59.4692608982" lon="17.806172162">
        <ele>0</ele>
        <time>2013-03-24T13:32:30Z</time>
      </trkpt>
      <trkpt lat="59.4692423742" lon="17.8062456713">
        <ele>0</ele>
        <time>2013-03-24T13:32:31Z</time>
      </trkpt>
      <trkpt lat="59.4692226767" lon="17.8063206054">
        <ele>0</ele>
        <time>2013-03-24T13:32:32Z</time>
      </trkpt>
      <trkpt lat="59.4692069187" lon="17.8063920192">
        <ele>0</ele>
        <time>2013-03-24T13:32:33Z</time>
      </trkpt>
      <trkpt lat="59.4691937591" lon="17.806458823">
        <ele>0</ele>
        <time>2013-03-24T13:32:34Z</time>
      </trkpt>
      <trkpt lat="59.4691814377" lon="17.8065285604">
        <ele>0</ele>
        <time>2013-03-24T13:32:35Z</time>
      </trkpt>
      <trkpt lat="59.4691213395" lon="17.8068567956">
        <ele>0.2</ele>
        <time>2013-03-24T13:32:39Z</time>
      </trkpt>
      <trkpt lat="59.4691046595" lon="17.8069385191">
        <ele>0.6</ele>
        <time>2013-03-24T13:32:40Z</time>
      </trkpt>
      <trkpt lat="59.4690888177" lon="17.8070204941">
        <ele>1</ele>
        <time>2013-03-24T13:32:41Z</time>
      </trkpt>
      <trkpt lat="59.4690744009" lon="17.8071012956">
        <ele>1.4</ele>
        <time>2013-03-24T13:32:42Z</time>
      </trkpt>
      <trkpt lat="59.4690608222" lon="17.8071805884">
        <ele>1.8</ele>
        <time>2013-03-24T13:32:43Z</time>
      </trkpt>
      <trkpt lat="59.46904146" lon="17.8073344801">
        <ele>1.8</ele>
        <time>2013-03-24T13:32:45Z</time>
      </trkpt>
      <trkpt lat="59.4689799369" lon="17.8075218155">
        <ele>1.8</ele>
        <time>2013-03-24T13:32:48Z</time>
      </trkpt>
      <trkpt lat="59.4689411287" lon="17.8075514875">
        <ele>2.2</ele>
        <time>2013-03-24T13:32:49Z</time>
      </trkpt>
      <trkpt lat="59.468898381" lon="17.8075557622">
        <ele>2.8</ele>
        <time>2013-03-24T13:32:50Z</time>
      </trkpt>
      <trkpt lat="59.468850688" lon="17.8075425188">
        <ele>3.2</ele>
        <time>2013-03-24T13:32:51Z</time>
      </trkpt>
      <trkpt lat="59.4688005642" lon="17.8075214803">
        <ele>3.6</ele>
        <time>2013-03-24T13:32:52Z</time>
      </trkpt>
      <trkpt lat="59.4687426453" lon="17.8074995197">
        <ele>4.2</ele>
        <time>2013-03-24T13:32:53Z</time>
      </trkpt>
      <trkpt lat="59.468475095" lon="17.8074211489">
        <ele>3.6</ele>
        <time>2013-03-24T13:32:57Z</time>
      </trkpt>
      <trkpt lat="59.4684030107" lon="17.8074122641">
        <ele>3.2</ele>
        <time>2013-03-24T13:32:58Z</time>
      </trkpt>
      <trkpt lat="59.4683312616" lon="17.8074138567">
        <ele>2.8</ele>
        <time>2013-03-24T13:32:59Z</time>
      </trkpt>
      <trkpt lat="59.4682589258" lon="17.8074258428">
        <ele>2.4</ele>
        <time>2013-03-24T13:33:00Z</time>
      </trkpt>
      <trkpt lat="59.4681864224" lon="17.8074463784">
        <ele>2</ele>
        <time>2013-03-24T13:33:01Z</time>
      </trkpt>
      <trkpt lat="59.4681111529" lon="17.8074739549">
        <ele>2</ele>
        <time>2013-03-24T13:33:02Z</time>
      </trkpt>
      <trkpt lat="59.468040745" lon="17.8075063928">
        <ele>1.6</ele>
        <time>2013-03-24T13:33:03Z</time>
      </trkpt>
      <trkpt lat="59.4679709237" lon="17.8075486376">
        <ele>1</ele>
        <time>2013-03-24T13:33:04Z</time>
      </trkpt>
      <trkpt lat="59.4679018569" lon="17.8075985937">
        <ele>0.6</ele>
        <time>2013-03-24T13:33:05Z</time>
      </trkpt>
      <trkpt lat="59.4678343826" lon="17.8076506453">
        <ele>0</ele>
        <time>2013-03-24T13:33:06Z</time>
      </trkpt>
      <trkpt lat="59.4677673274" lon="17.8077011044">
        <ele>0</ele>
        <time>2013-03-24T13:33:07Z</time>
      </trkpt>
      <trkpt lat="59.4677006075" lon="17.8077548323">
        <ele>0</ele>
        <time>2013-03-24T13:33:08Z</time>
      </trkpt>
      <trkpt lat="59.4673981885" lon="17.8080394817">
        <ele>0</ele>
        <time>2013-03-24T13:33:13Z</time>
      </trkpt>
      <trkpt lat="59.4673461369" lon="17.8080995799">
        <ele>0</ele>
        <time>2013-03-24T13:33:14Z</time>
      </trkpt>
      <trkpt lat="59.4671171434" lon="17.8083953771">
        <ele>0</ele>
        <time>2013-03-24T13:33:19Z</time>
      </trkpt>
      <trkpt lat="59.4670445562" lon="17.8084997318">
        <ele>0</ele>
        <time>2013-03-24T13:33:21Z</time>
      </trkpt>
      <trkpt lat="59.4668847971" lon="17.8086884922">
        <ele>0</ele>
        <time>2013-03-24T13:33:25Z</time>
      </trkpt>
      <trkpt lat="59.4666635988" lon="17.8089573835">
        <ele>0</ele>
        <time>2013-03-24T13:33:30Z</time>
      </trkpt>
      <trkpt lat="59.4666128045" lon="17.8090087646">
        <ele>0.6</ele>
        <time>2013-03-24T13:33:31Z</time>
      </trkpt>
      <trkpt lat="59.4665633513" lon="17.8090373469">
        <ele>1</ele>
        <time>2013-03-24T13:33:32Z</time>
      </trkpt>
      <trkpt lat="59.4665075278" lon="17.8090503388">
        <ele>1.4</ele>
        <time>2013-03-24T13:33:33Z</time>
      </trkpt>
      <trkpt lat="59.4664531293" lon="17.8090586369">
        <ele>1.8</ele>
        <time>2013-03-24T13:33:34Z</time>
      </trkpt>
      <trkpt lat="59.4663454219" lon="17.80907758">
        <ele>1.8</ele>
        <time>2013-03-24T13:33:36Z</time>
      </trkpt>
      <trkpt lat="59.4661864172" lon="17.8090699525">
        <ele>1.8</ele>
        <time>2013-03-24T13:33:39Z</time>
      </trkpt>
      <trkpt lat="59.4660764467" lon="17.8090518476">
        <ele>1.8</ele>
        <time>2013-03-24T13:33:41Z</time>
      </trkpt>
      <trkpt lat="59.4659247343" lon="17.8089855467">
        <ele>1.8</ele>
        <time>2013-03-24T13:33:44Z</time>
      </trkpt>
      <trkpt lat="59.465647042" lon="17.808853448">
        <ele>1.8</ele>
        <time>2013-03-24T13:33:49Z</time>
      </trkpt>
      <trkpt lat="59.4655937331" lon="17.8088458205">
        <ele>1.8</ele>
        <time>2013-03-24T13:33:50Z</time>
      </trkpt>
      <trkpt lat="59.4654897137" lon="17.8088216806">
        <ele>2.2</ele>
        <time>2013-03-24T13:33:52Z</time>
      </trkpt>
      <trkpt lat="59.4654388356" lon="17.8088074314">
        <ele>2.6</ele>
        <time>2013-03-24T13:33:53Z</time>
      </trkpt>
      <trkpt lat="59.465386784" lon="17.8087972893">
        <ele>3</ele>
        <time>2013-03-24T13:33:54Z</time>
      </trkpt>
      <trkpt lat="59.4653334751" lon="17.8087897455">
        <ele>3.4</ele>
        <time>2013-03-24T13:33:55Z</time>
      </trkpt>
      <trkpt lat="59.4652777355" lon="17.8087854708">
        <ele>3.8</ele>
        <time>2013-03-24T13:33:56Z</time>
      </trkpt>
      <trkpt lat="59.4651710339" lon="17.8087532843">
        <ele>3.8</ele>
        <time>2013-03-24T13:33:58Z</time>
      </trkpt>
      <trkpt lat="59.4649954331" lon="17.80853854">
        <ele>3.8</ele>
        <time>2013-03-24T13:34:02Z</time>
      </trkpt>
      <trkpt lat="59.4649548647" lon="17.8084751728">
        <ele>3.8</ele>
        <time>2013-03-24T13:34:03Z</time>
      </trkpt>
      <trkpt lat="59.4648614903" lon="17.8083831396">
        <ele>3.8</ele>
        <time>2013-03-24T13:34:05Z</time>
      </trkpt>
      <trkpt lat="59.4648043257" lon="17.8083698124">
        <ele>3.8</ele>
        <time>2013-03-24T13:34:06Z</time>
      </trkpt>
      <trkpt lat="59.464623612" lon="17.8084362808">
        <ele>3.8</ele>
        <time>2013-03-24T13:34:09Z</time>
      </trkpt>
      <trkpt lat="59.4645035832" lon="17.8084756757">
        <ele>3.8</ele>
        <time>2013-03-24T13:34:11Z</time>
      </trkpt>
      <trkpt lat="59.4643932774" lon="17.8084314193">
        <ele>3.8</ele>
        <time>2013-03-24T13:34:13Z</time>
      </trkpt>
      <trkpt lat="59.4642774395" lon="17.8083464269">
        <ele>3.8</ele>
        <time>2013-03-24T13:34:15Z</time>
      </trkpt>
      <trkpt lat="59.4641006652" lon="17.8081921999">
        <ele>3.8</ele>
        <time>2013-03-24T13:34:18Z</time>
      </trkpt>
      <trkpt lat="59.4636439355" lon="17.8077837499">
        <ele>3.8</ele>
        <time>2013-03-24T13:34:26Z</time>
      </trkpt>
      <trkpt lat="59.4632442865" lon="17.8074134376">
        <ele>3.8</ele>
        <time>2013-03-24T13:34:33Z</time>
      </trkpt>
      <trkpt lat="59.4631924026" lon="17.8073291156">
        <ele>3.8</ele>
        <time>2013-03-24T13:34:34Z</time>
      </trkpt>
      <trkpt lat="59.4629570388" lon="17.8069111941">
        <ele>3.8</ele>
        <time>2013-03-24T13:34:39Z</time>
      </trkpt>
      <trkpt lat="59.4629040652" lon="17.8068256987">
        <ele>4.2</ele>
        <time>2013-03-24T13:34:40Z</time>
      </trkpt>
      <trkpt lat="59.4628487447" lon="17.8067568833">
        <ele>4.6</ele>
        <time>2013-03-24T13:34:41Z</time>
      </trkpt>
      <trkpt lat="59.4627942623" lon="17.8067021495">
        <ele>5</ele>
        <time>2013-03-24T13:34:42Z</time>
      </trkpt>
      <trkpt lat="59.4627351699" lon="17.8066712203">
        <ele>5.4</ele>
        <time>2013-03-24T13:34:43Z</time>
      </trkpt>
      <trkpt lat="59.4626703778" lon="17.8066689572">
        <ele>6</ele>
        <time>2013-03-24T13:34:44Z</time>
      </trkpt>
      <trkpt lat="59.4625343396" lon="17.8067205897">
        <ele>6</ele>
        <time>2013-03-24T13:34:46Z</time>
      </trkpt>
      <trkpt lat="59.462214151" lon="17.8068525208">
        <ele>6</ele>
        <time>2013-03-24T13:34:51Z</time>
      </trkpt>
      <trkpt lat="59.4619592574" lon="17.8068909099">
        <ele>6</ele>
        <time>2013-03-24T13:34:56Z</time>
      </trkpt>
      <trkpt lat="59.4616748596" lon="17.806920498">
        <ele>6</ele>
        <time>2013-03-24T13:35:01Z</time>
      </trkpt>
      <trkpt lat="59.4616245682" lon="17.806911697">
        <ele>6</ele>
        <time>2013-03-24T13:35:02Z</time>
      </trkpt>
      <trkpt lat="59.4615494663" lon="17.8068379363">
        <ele>6</ele>
        <time>2013-03-24T13:35:04Z</time>
      </trkpt>
      <trkpt lat="59.4614293537" lon="17.8066413808">
        <ele>6</ele>
        <time>2013-03-24T13:35:08Z</time>
      </trkpt>
      <trkpt lat="59.4612467121" lon="17.8065987169">
        <ele>6</ele>
        <time>2013-03-24T13:35:11Z</time>
      </trkpt>
      <trkpt lat="59.4611813333" lon="17.80660098">
        <ele>6</ele>
        <time>2013-03-24T13:35:12Z</time>
      </trkpt>
      <trkpt lat="59.460705409" lon="17.8066219347">
        <ele>6</ele>
        <time>2013-03-24T13:35:19Z</time>
      </trkpt>
      <trkpt lat="59.4602774292" lon="17.8065832942">
        <ele>6</ele>
        <time>2013-03-24T13:35:25Z</time>
      </trkpt>
      <trkpt lat="59.4602031656" lon="17.8065726492">
        <ele>6.4</ele>
        <time>2013-03-24T13:35:26Z</time>
      </trkpt>
      <trkpt lat="59.4601304945" lon="17.8065694641">
        <ele>6.8</ele>
        <time>2013-03-24T13:35:27Z</time>
      </trkpt>
      <trkpt lat="59.4600569014" lon="17.8065628424">
        <ele>7.2</ele>
        <time>2013-03-24T13:35:28Z</time>
      </trkpt>
      <trkpt lat="59.4599865773" lon="17.8065559692">
        <ele>7.6</ele>
        <time>2013-03-24T13:35:29Z</time>
      </trkpt>
      <trkpt lat="59.4599160855" lon="17.8065502695">
        <ele>8.2</ele>
        <time>2013-03-24T13:35:30Z</time>
      </trkpt>
      <trkpt lat="59.4598453422" lon="17.806543564">
        <ele>8.2</ele>
        <time>2013-03-24T13:35:31Z</time>
      </trkpt>
      <trkpt lat="59.4593365609" lon="17.8064477589">
        <ele>8.2</ele>
        <time>2013-03-24T13:35:38Z</time>
      </trkpt>
      <trkpt lat="59.4588000355" lon="17.8063653648">
        <ele>8.2</ele>
        <time>2013-03-24T13:35:45Z</time>
      </trkpt>
      <trkpt lat="59.4583911664" lon="17.8062529635">
        <ele>7.8</ele>
        <time>2013-03-24T13:35:50Z</time>
      </trkpt>
      <trkpt lat="59.4583064254" lon="17.8062248841">
        <ele>7.2</ele>
        <time>2013-03-24T13:35:51Z</time>
      </trkpt>
      <trkpt lat="59.4582242828" lon="17.8061964695">
        <ele>6.8</ele>
        <time>2013-03-24T13:35:52Z</time>
      </trkpt>
      <trkpt lat="59.4581410505" lon="17.8061611817">
        <ele>6.4</ele>
        <time>2013-03-24T13:35:53Z</time>
      </trkpt>
      <trkpt lat="59.4580586564" lon="17.8061289114">
        <ele>6</ele>
        <time>2013-03-24T13:35:54Z</time>
      </trkpt>
      <trkpt lat="59.4577312594" lon="17.8059663025">
        <ele>5.6</ele>
        <time>2013-03-24T13:35:58Z</time>
      </trkpt>
      <trkpt lat="59.4576506255" lon="17.8059318529">
        <ele>5</ele>
        <time>2013-03-24T13:35:59Z</time>
      </trkpt>
      <trkpt lat="59.4575738473" lon="17.8058990797">
        <ele>4.6</ele>
        <time>2013-03-24T13:36:00Z</time>
      </trkpt>
      <trkpt lat="59.4574992484" lon="17.8058760295">
        <ele>4.2</ele>
        <time>2013-03-24T13:36:01Z</time>
      </trkpt>
      <trkpt lat="59.4574280023" lon="17.8058458546">
        <ele>3.6</ele>
        <time>2013-03-24T13:36:02Z</time>
      </trkpt>
      <trkpt lat="59.4572928022" lon="17.8057912046">
        <ele>3.2</ele>
        <time>2013-03-24T13:36:04Z</time>
      </trkpt>
      <trkpt lat="59.4572339613" lon="17.8057653884">
        <ele>2.8</ele>
        <time>2013-03-24T13:36:05Z</time>
      </trkpt>
      <trkpt lat="59.4571819935" lon="17.8057201261">
        <ele>2.4</ele>
        <time>2013-03-24T13:36:06Z</time>
      </trkpt>
      <trkpt lat="59.4571506452" lon="17.8056425097">
        <ele>2</ele>
        <time>2013-03-24T13:36:07Z</time>
      </trkpt>
      <trkpt lat="59.4571365636" lon="17.8055418431">
        <ele>1.6</ele>
        <time>2013-03-24T13:36:08Z</time>
      </trkpt>
      <trkpt lat="59.4571506452" lon="17.8053402584">
        <ele>1.6</ele>
        <time>2013-03-24T13:36:10Z</time>
      </trkpt>
      <trkpt lat="59.4572643038" lon="17.8050944173">
        <ele>1.6</ele>
        <time>2013-03-24T13:36:13Z</time>
      </trkpt>
      <trkpt lat="59.457573093" lon="17.8046483326">
        <ele>1.6</ele>
        <time>2013-03-24T13:36:19Z</time>
      </trkpt>
      <trkpt lat="59.4578866599" lon="17.8043838836">
        <ele>1.6</ele>
        <time>2013-03-24T13:36:24Z</time>
      </trkpt>
      <trkpt lat="59.4580960397" lon="17.8043161579">
        <ele>1.6</ele>
        <time>2013-03-24T13:36:27Z</time>
      </trkpt>
      <trkpt lat="59.4582366042" lon="17.8043241207">
        <ele>1.6</ele>
        <time>2013-03-24T13:36:29Z</time>
      </trkpt>
      <trkpt lat="59.4585948466" lon="17.8043732386">
        <ele>1.6</ele>
        <time>2013-03-24T13:36:35Z</time>
      </trkpt>
      <trkpt lat="59.4588400172" lon="17.8043069378">
        <ele>1.6</ele>
        <time>2013-03-24T13:36:40Z</time>
      </trkpt>
      <trkpt lat="59.4589223274" lon="17.8041939498">
        <ele>1.6</ele>
        <time>2013-03-24T13:36:43Z</time>
      </trkpt>
      <trkpt lat="59.4589367443" lon="17.8040569895">
        <ele>1.6</ele>
        <time>2013-03-24T13:36:48Z</time>
      </trkpt>
    </trkseg>
  </trk>
</gpx>